<?xml version='1.0' encoding='UTF-8'?><gpx version="1.1" creator="JPX - https://github.com/jenetics/jpx" xmlns="http://www.topografix.com/GPX/1/1"><trk><trkseg><trkpt lat="45.7758459" lon="8.8014379"><ele>330.0</ele><time>2026-04-16T08:21:26.499Z</time></trkpt><trkpt lat="45.7757785" lon="8.8014813"><ele>330.0</ele><time>2026-04-16T08:21:31.495Z</time></trkpt><trkpt lat="45.7758144" lon="8.8015639"><ele>330.0</ele><time>2026-04-16T08:22:10.537Z</time></trkpt><trkpt lat="45.7759041" lon="8.8017079"><ele>330.0</ele><time>2026-04-16T08:22:12.525Z</time></trkpt><trkpt lat="45.7759498" lon="8.8017838"><ele>330.0</ele><time>2026-04-16T08:22:13.524Z</time></trkpt><trkpt lat="45.7760029" lon="8.8018751"><ele>330.0</ele><time>2026-04-16T08:22:16.423Z</time></trkpt><trkpt lat="45.7759241" lon="8.8019649"><ele>330.3333333333333</ele><time>2026-04-16T08:22:35.428Z</time></trkpt><trkpt lat="45.775865" lon="8.8020027"><ele>330.6666666666667</ele><time>2026-04-16T08:22:36.424Z</time></trkpt><trkpt lat="45.775793" lon="8.8020374"><ele>331.0</ele><time>2026-04-16T08:22:37.426Z</time></trkpt><trkpt lat="45.7757117" lon="8.8020688"><ele>331.33333333333337</ele><time>2026-04-16T08:22:38.421Z</time></trkpt><trkpt lat="45.775627" lon="8.8021042"><ele>331.6666666666667</ele><time>2026-04-16T08:22:39.441Z</time></trkpt><trkpt lat="45.7755412" lon="8.8021463"><ele>332.0</ele><time>2026-04-16T08:22:40.424Z</time></trkpt><trkpt lat="45.775456" lon="8.8021896"><ele>332.0</ele><time>2026-04-16T08:22:41.319Z</time></trkpt><trkpt lat="45.7753729" lon="8.8022412"><ele>332.0</ele><time>2026-04-16T08:22:42.227Z</time></trkpt><trkpt lat="45.7752215" lon="8.8023415"><ele>332.0</ele><time>2026-04-16T08:22:44.025Z</time></trkpt><trkpt lat="45.7750862" lon="8.8024585"><ele>332.0</ele><time>2026-04-16T08:22:45.827Z</time></trkpt><trkpt lat="45.7749612" lon="8.8025966"><ele>333.40000000000003</ele><time>2026-04-16T08:22:47.628Z</time></trkpt><trkpt lat="45.7748901" lon="8.8026795"><ele>334.8</ele><time>2026-04-16T08:22:48.581Z</time></trkpt><trkpt lat="45.7748118" lon="8.8027688"><ele>336.2</ele><time>2026-04-16T08:22:49.578Z</time></trkpt><trkpt lat="45.7747408" lon="8.8028372"><ele>337.6</ele><time>2026-04-16T08:22:50.584Z</time></trkpt><trkpt lat="45.7746772" lon="8.8028911"><ele>339.0</ele><time>2026-04-16T08:22:51.587Z</time></trkpt><trkpt lat="45.7745882" lon="8.8029595"><ele>339.0</ele><time>2026-04-16T08:22:53.592Z</time></trkpt><trkpt lat="45.7745074" lon="8.802935"><ele>339.0</ele><time>2026-04-16T08:23:07.569Z</time></trkpt><trkpt lat="45.7743858" lon="8.8029499"><ele>339.0</ele><time>2026-04-16T08:23:09.609Z</time></trkpt><trkpt lat="45.7742651" lon="8.8029918"><ele>339.0</ele><time>2026-04-16T08:23:11.568Z</time></trkpt><trkpt lat="45.7741577" lon="8.8029716"><ele>339.0</ele><time>2026-04-16T08:23:13.572Z</time></trkpt><trkpt lat="45.7741244" lon="8.8028866"><ele>340.0</ele><time>2026-04-16T08:23:14.563Z</time></trkpt><trkpt lat="45.7740946" lon="8.8027661"><ele>341.0</ele><time>2026-04-16T08:23:15.561Z</time></trkpt><trkpt lat="45.774051" lon="8.8026293"><ele>342.0</ele><time>2026-04-16T08:23:16.568Z</time></trkpt><trkpt lat="45.7739871" lon="8.8025037"><ele>343.0</ele><time>2026-04-16T08:23:17.568Z</time></trkpt><trkpt lat="45.7739198" lon="8.8024074"><ele>344.0</ele><time>2026-04-16T08:23:18.575Z</time></trkpt><trkpt lat="45.7738502" lon="8.8023383"><ele>344.79999999999995</ele><time>2026-04-16T08:23:19.561Z</time></trkpt><trkpt lat="45.7737904" lon="8.8022693"><ele>345.59999999999997</ele><time>2026-04-16T08:23:20.574Z</time></trkpt><trkpt lat="45.7737485" lon="8.8021941"><ele>346.4</ele><time>2026-04-16T08:23:21.559Z</time></trkpt><trkpt lat="45.7737758" lon="8.8020141"><ele>347.2</ele><time>2026-04-16T08:23:23.558Z</time></trkpt><trkpt lat="45.7738307" lon="8.8019059"><ele>348.0</ele><time>2026-04-16T08:23:24.57Z</time></trkpt><trkpt lat="45.7738951" lon="8.801782"><ele>349.4</ele><time>2026-04-16T08:23:25.554Z</time></trkpt><trkpt lat="45.7739579" lon="8.8016505"><ele>350.79999999999995</ele><time>2026-04-16T08:23:26.557Z</time></trkpt><trkpt lat="45.7740092" lon="8.8015222"><ele>352.2</ele><time>2026-04-16T08:23:27.549Z</time></trkpt><trkpt lat="45.7740424" lon="8.8013809"><ele>353.6</ele><time>2026-04-16T08:23:28.546Z</time></trkpt><trkpt lat="45.7740571" lon="8.8012447"><ele>355.0</ele><time>2026-04-16T08:23:29.545Z</time></trkpt><trkpt lat="45.7740528" lon="8.8011425"><ele>355.0</ele><time>2026-04-16T08:23:30.547Z</time></trkpt><trkpt lat="45.7740304" lon="8.8010485"><ele>355.0</ele><time>2026-04-16T08:23:31.547Z</time></trkpt><trkpt lat="45.7739915" lon="8.8009545"><ele>355.0</ele><time>2026-04-16T08:23:32.559Z</time></trkpt><trkpt lat="45.7739506" lon="8.8008672"><ele>355.0</ele><time>2026-04-16T08:23:33.542Z</time></trkpt><trkpt lat="45.7739386" lon="8.8007739"><ele>355.0</ele><time>2026-04-16T08:23:34.548Z</time></trkpt><trkpt lat="45.773948" lon="8.800655"><ele>355.0</ele><time>2026-04-16T08:23:35.536Z</time></trkpt><trkpt lat="45.7739738" lon="8.8005399"><ele>356.75</ele><time>2026-04-16T08:23:36.539Z</time></trkpt><trkpt lat="45.774018" lon="8.8004169"><ele>358.5</ele><time>2026-04-16T08:23:37.543Z</time></trkpt><trkpt lat="45.7740918" lon="8.8002774"><ele>360.25</ele><time>2026-04-16T08:23:38.543Z</time></trkpt><trkpt lat="45.7741741" lon="8.8001367"><ele>362.0</ele><time>2026-04-16T08:23:39.56Z</time></trkpt><trkpt lat="45.7742745" lon="8.7999961"><ele>361.5</ele><time>2026-04-16T08:23:40.549Z</time></trkpt><trkpt lat="45.7743864" lon="8.7998475"><ele>361.0</ele><time>2026-04-16T08:23:41.544Z</time></trkpt><trkpt lat="45.7744943" lon="8.7997024"><ele>360.5</ele><time>2026-04-16T08:23:42.546Z</time></trkpt><trkpt lat="45.7745982" lon="8.7995576"><ele>360.0</ele><time>2026-04-16T08:23:43.547Z</time></trkpt><trkpt lat="45.7746976" lon="8.7994011"><ele>361.75</ele><time>2026-04-16T08:23:44.548Z</time></trkpt><trkpt lat="45.7747816" lon="8.7992518"><ele>363.5</ele><time>2026-04-16T08:23:45.547Z</time></trkpt><trkpt lat="45.7748577" lon="8.7990953"><ele>365.25</ele><time>2026-04-16T08:23:46.55Z</time></trkpt><trkpt lat="45.7749176" lon="8.798942"><ele>367.0</ele><time>2026-04-16T08:23:47.553Z</time></trkpt><trkpt lat="45.7749661" lon="8.798782"><ele>367.0</ele><time>2026-04-16T08:23:48.557Z</time></trkpt><trkpt lat="45.7750046" lon="8.7986174"><ele>367.0</ele><time>2026-04-16T08:23:49.552Z</time></trkpt><trkpt lat="45.7750423" lon="8.7984513"><ele>367.0</ele><time>2026-04-16T08:23:50.559Z</time></trkpt><trkpt lat="45.7750815" lon="8.7982687"><ele>367.0</ele><time>2026-04-16T08:23:51.555Z</time></trkpt><trkpt lat="45.7751233" lon="8.7980806"><ele>367.6</ele><time>2026-04-16T08:23:52.555Z</time></trkpt><trkpt lat="45.7751607" lon="8.7979047"><ele>368.20000000000005</ele><time>2026-04-16T08:23:53.562Z</time></trkpt><trkpt lat="45.7751985" lon="8.7977551"><ele>368.8</ele><time>2026-04-16T08:23:54.555Z</time></trkpt><trkpt lat="45.7752457" lon="8.7976582"><ele>369.4</ele><time>2026-04-16T08:23:55.552Z</time></trkpt><trkpt lat="45.7753076" lon="8.7976136"><ele>370.0</ele><time>2026-04-16T08:23:56.551Z</time></trkpt><trkpt lat="45.7753776" lon="8.7976044"><ele>370.0</ele><time>2026-04-16T08:23:57.554Z</time></trkpt><trkpt lat="45.7754661" lon="8.7976235"><ele>370.0</ele><time>2026-04-16T08:23:58.562Z</time></trkpt><trkpt lat="45.775573" lon="8.7976231"><ele>370.0</ele><time>2026-04-16T08:23:59.562Z</time></trkpt><trkpt lat="45.7756864" lon="8.7975981"><ele>370.0</ele><time>2026-04-16T08:24:00.565Z</time></trkpt><trkpt lat="45.775794" lon="8.7975775"><ele>370.0</ele><time>2026-04-16T08:24:01.565Z</time></trkpt><trkpt lat="45.7758843" lon="8.7975694"><ele>370.0</ele><time>2026-04-16T08:24:02.572Z</time></trkpt><trkpt lat="45.7759593" lon="8.7975574"><ele>370.0</ele><time>2026-04-16T08:24:03.57Z</time></trkpt><trkpt lat="45.7760323" lon="8.7975457"><ele>370.0</ele><time>2026-04-16T08:24:04.587Z</time></trkpt><trkpt lat="45.7760973" lon="8.7975157"><ele>370.0</ele><time>2026-04-16T08:24:05.576Z</time></trkpt><trkpt lat="45.7761579" lon="8.797473"><ele>370.0</ele><time>2026-04-16T08:24:06.581Z</time></trkpt><trkpt lat="45.7762115" lon="8.7973322"><ele>370.0</ele><time>2026-04-16T08:24:08.58Z</time></trkpt><trkpt lat="45.7761835" lon="8.7972338"><ele>369.6</ele><time>2026-04-16T08:24:09.573Z</time></trkpt><trkpt lat="45.776139" lon="8.7971151"><ele>369.2</ele><time>2026-04-16T08:24:10.573Z</time></trkpt><trkpt lat="45.776087" lon="8.7969808"><ele>368.79999999999995</ele><time>2026-04-16T08:24:11.559Z</time></trkpt><trkpt lat="45.7760374" lon="8.7968282"><ele>368.4</ele><time>2026-04-16T08:24:12.561Z</time></trkpt><trkpt lat="45.775986" lon="8.7966761"><ele>368.0</ele><time>2026-04-16T08:24:13.564Z</time></trkpt><trkpt lat="45.77594" lon="8.7965235"><ele>368.0</ele><time>2026-04-16T08:24:14.562Z</time></trkpt><trkpt lat="45.7758939" lon="8.7963657"><ele>368.0</ele><time>2026-04-16T08:24:15.566Z</time></trkpt><trkpt lat="45.7758528" lon="8.796227"><ele>368.0</ele><time>2026-04-16T08:24:16.562Z</time></trkpt><trkpt lat="45.7758171" lon="8.7961009"><ele>368.0</ele><time>2026-04-16T08:24:17.561Z</time></trkpt><trkpt lat="45.7757867" lon="8.7959814"><ele>368.0</ele><time>2026-04-16T08:24:18.559Z</time></trkpt><trkpt lat="45.775775" lon="8.7958697"><ele>366.7142857142857</ele><time>2026-04-16T08:24:19.561Z</time></trkpt><trkpt lat="45.7757885" lon="8.7957733"><ele>365.4285714285714</ele><time>2026-04-16T08:24:20.559Z</time></trkpt><trkpt lat="45.7758279" lon="8.7956948"><ele>364.1428571428571</ele><time>2026-04-16T08:24:21.559Z</time></trkpt><trkpt lat="45.7758805" lon="8.7956255"><ele>362.8571428571429</ele><time>2026-04-16T08:24:22.56Z</time></trkpt><trkpt lat="45.7759433" lon="8.7955834"><ele>361.57142857142856</ele><time>2026-04-16T08:24:23.576Z</time></trkpt><trkpt lat="45.7760183" lon="8.7955952"><ele>360.2857142857143</ele><time>2026-04-16T08:24:24.565Z</time></trkpt><trkpt lat="45.7760937" lon="8.7956703"><ele>359.0</ele><time>2026-04-16T08:24:25.569Z</time></trkpt><trkpt lat="45.7761673" lon="8.7957848"><ele>354.75</ele><time>2026-04-16T08:24:26.567Z</time></trkpt><trkpt lat="45.7762393" lon="8.7959321"><ele>350.5</ele><time>2026-04-16T08:24:27.567Z</time></trkpt><trkpt lat="45.7763117" lon="8.7960994"><ele>346.25</ele><time>2026-04-16T08:24:28.574Z</time></trkpt><trkpt lat="45.7763812" lon="8.7962768"><ele>342.0</ele><time>2026-04-16T08:24:29.577Z</time></trkpt><trkpt lat="45.7764559" lon="8.7964541"><ele>342.0</ele><time>2026-04-16T08:24:30.576Z</time></trkpt><trkpt lat="45.7765343" lon="8.7966224"><ele>342.0</ele><time>2026-04-16T08:24:31.569Z</time></trkpt><trkpt lat="45.7766095" lon="8.7967729"><ele>342.0</ele><time>2026-04-16T08:24:32.572Z</time></trkpt><trkpt lat="45.7766724" lon="8.7968851"><ele>342.0</ele><time>2026-04-16T08:24:33.559Z</time></trkpt><trkpt lat="45.7767341" lon="8.7969631"><ele>342.0</ele><time>2026-04-16T08:24:34.562Z</time></trkpt><trkpt lat="45.7768389" lon="8.796985"><ele>342.0</ele><time>2026-04-16T08:24:36.569Z</time></trkpt><trkpt lat="45.7768917" lon="8.7968558"><ele>342.0</ele><time>2026-04-16T08:24:38.569Z</time></trkpt><trkpt lat="45.7768845" lon="8.7967416"><ele>342.0</ele><time>2026-04-16T08:24:39.576Z</time></trkpt><trkpt lat="45.7768599" lon="8.7966099"><ele>342.0</ele><time>2026-04-16T08:24:40.56Z</time></trkpt><trkpt lat="45.7768267" lon="8.7964564"><ele>342.0</ele><time>2026-04-16T08:24:41.575Z</time></trkpt><trkpt lat="45.7768013" lon="8.7962836"><ele>342.0</ele><time>2026-04-16T08:24:42.56Z</time></trkpt><trkpt lat="45.776784" lon="8.7960949"><ele>342.0</ele><time>2026-04-16T08:24:43.559Z</time></trkpt><trkpt lat="45.7767648" lon="8.7959124"><ele>342.0</ele><time>2026-04-16T08:24:44.557Z</time></trkpt><trkpt lat="45.7767294" lon="8.7957385"><ele>339.5</ele><time>2026-04-16T08:24:45.563Z</time></trkpt><trkpt lat="45.7766677" lon="8.7955735"><ele>337.0</ele><time>2026-04-16T08:24:46.558Z</time></trkpt><trkpt lat="45.7765846" lon="8.7954131"><ele>334.5</ele><time>2026-04-16T08:24:47.562Z</time></trkpt><trkpt lat="45.7764875" lon="8.7952527"><ele>332.0</ele><time>2026-04-16T08:24:48.562Z</time></trkpt><trkpt lat="45.7763948" lon="8.7951042"><ele>330.6</ele><time>2026-04-16T08:24:49.565Z</time></trkpt><trkpt lat="45.7763157" lon="8.7949626"><ele>329.20000000000005</ele><time>2026-04-16T08:24:50.572Z</time></trkpt><trkpt lat="45.7762535" lon="8.7948248"><ele>327.8</ele><time>2026-04-16T08:24:51.575Z</time></trkpt><trkpt lat="45.7761976" lon="8.7946996"><ele>326.4</ele><time>2026-04-16T08:24:52.572Z</time></trkpt><trkpt lat="45.7761494" lon="8.7945668"><ele>325.0</ele><time>2026-04-16T08:24:53.572Z</time></trkpt><trkpt lat="45.7761087" lon="8.7944266"><ele>324.66666666666663</ele><time>2026-04-16T08:24:54.569Z</time></trkpt><trkpt lat="45.7760886" lon="8.7942903"><ele>324.3333333333333</ele><time>2026-04-16T08:24:55.564Z</time></trkpt><trkpt lat="45.7760815" lon="8.7941651"><ele>324.0</ele><time>2026-04-16T08:24:56.559Z</time></trkpt><trkpt lat="45.776085" lon="8.7940508"><ele>323.6666666666667</ele><time>2026-04-16T08:24:57.556Z</time></trkpt><trkpt lat="45.7761013" lon="8.7939511"><ele>323.33333333333337</ele><time>2026-04-16T08:24:58.554Z</time></trkpt><trkpt lat="45.776182" lon="8.7938526"><ele>323.0</ele><time>2026-04-16T08:25:00.574Z</time></trkpt><trkpt lat="45.7762903" lon="8.7938824"><ele>323.0</ele><time>2026-04-16T08:25:02.575Z</time></trkpt><trkpt lat="45.7763667" lon="8.7939333"><ele>323.0</ele><time>2026-04-16T08:25:04.566Z</time></trkpt><trkpt lat="45.7764432" lon="8.7939814"><ele>323.0</ele><time>2026-04-16T08:25:15.578Z</time></trkpt><trkpt lat="45.7765344" lon="8.7939488"><ele>323.0</ele><time>2026-04-16T08:25:17.56Z</time></trkpt><trkpt lat="45.7765273" lon="8.793787"><ele>323.0</ele><time>2026-04-16T08:25:19.556Z</time></trkpt><trkpt lat="45.7764599" lon="8.7936624"><ele>323.0</ele><time>2026-04-16T08:25:20.561Z</time></trkpt><trkpt lat="45.776376" lon="8.7935397"><ele>323.0</ele><time>2026-04-16T08:25:21.553Z</time></trkpt><trkpt lat="45.7762994" lon="8.7934071"><ele>323.0</ele><time>2026-04-16T08:25:22.555Z</time></trkpt><trkpt lat="45.7762409" lon="8.7932533"><ele>323.0</ele><time>2026-04-16T08:25:23.559Z</time></trkpt><trkpt lat="45.7761959" lon="8.7931099"><ele>323.25</ele><time>2026-04-16T08:25:24.554Z</time></trkpt><trkpt lat="45.7761461" lon="8.792961"><ele>323.5</ele><time>2026-04-16T08:25:25.556Z</time></trkpt><trkpt lat="45.7760975" lon="8.7927982"><ele>323.75</ele><time>2026-04-16T08:25:26.555Z</time></trkpt><trkpt lat="45.776049" lon="8.7926355"><ele>324.0</ele><time>2026-04-16T08:25:27.556Z</time></trkpt><trkpt lat="45.7759969" lon="8.79247"><ele>323.0</ele><time>2026-04-16T08:25:28.567Z</time></trkpt><trkpt lat="45.7759436" lon="8.792305"><ele>322.0</ele><time>2026-04-16T08:25:29.573Z</time></trkpt><trkpt lat="45.7758873" lon="8.7921289"><ele>321.0</ele><time>2026-04-16T08:25:30.574Z</time></trkpt><trkpt lat="45.775826" lon="8.7919465"><ele>320.0</ele><time>2026-04-16T08:25:31.572Z</time></trkpt><trkpt lat="45.7757573" lon="8.7917532"><ele>319.25</ele><time>2026-04-16T08:25:32.571Z</time></trkpt><trkpt lat="45.7756826" lon="8.7915675"><ele>318.5</ele><time>2026-04-16T08:25:33.568Z</time></trkpt><trkpt lat="45.775607" lon="8.7913887"><ele>317.75</ele><time>2026-04-16T08:25:34.57Z</time></trkpt><trkpt lat="45.7755289" lon="8.7912161"><ele>317.0</ele><time>2026-04-16T08:25:35.578Z</time></trkpt><trkpt lat="45.7754436" lon="8.7910607"><ele>317.6</ele><time>2026-04-16T08:25:36.571Z</time></trkpt><trkpt lat="45.775352" lon="8.7909267"><ele>318.2</ele><time>2026-04-16T08:25:37.566Z</time></trkpt><trkpt lat="45.7752641" lon="8.7908132"><ele>318.8</ele><time>2026-04-16T08:25:38.571Z</time></trkpt><trkpt lat="45.7751911" lon="8.7907167"><ele>319.4</ele><time>2026-04-16T08:25:39.573Z</time></trkpt><trkpt lat="45.7751112" lon="8.7906303"><ele>320.0</ele><time>2026-04-16T08:25:40.566Z</time></trkpt><trkpt lat="45.7750131" lon="8.7905314"><ele>320.0</ele><time>2026-04-16T08:25:41.558Z</time></trkpt><trkpt lat="45.7748924" lon="8.7904247"><ele>320.0</ele><time>2026-04-16T08:25:42.561Z</time></trkpt><trkpt lat="45.7747655" lon="8.7903176"><ele>320.0</ele><time>2026-04-16T08:25:43.572Z</time></trkpt><trkpt lat="45.7746347" lon="8.7902154"><ele>320.0</ele><time>2026-04-16T08:25:44.563Z</time></trkpt><trkpt lat="45.7745062" lon="8.7901153"><ele>319.0</ele><time>2026-04-16T08:25:45.57Z</time></trkpt><trkpt lat="45.774388" lon="8.7900266"><ele>318.0</ele><time>2026-04-16T08:25:46.573Z</time></trkpt><trkpt lat="45.7742764" lon="8.789938"><ele>317.0</ele><time>2026-04-16T08:25:47.568Z</time></trkpt><trkpt lat="45.7741872" lon="8.7898312"><ele>316.0</ele><time>2026-04-16T08:25:48.563Z</time></trkpt><trkpt lat="45.7741187" lon="8.7897024"><ele>316.0</ele><time>2026-04-16T08:25:49.568Z</time></trkpt><trkpt lat="45.774064" lon="8.7895698"><ele>316.0</ele><time>2026-04-16T08:25:50.568Z</time></trkpt><trkpt lat="45.7740189" lon="8.7894341"><ele>316.0</ele><time>2026-04-16T08:25:51.571Z</time></trkpt><trkpt lat="45.7739739" lon="8.7893025"><ele>316.0</ele><time>2026-04-16T08:25:52.566Z</time></trkpt><trkpt lat="45.7739455" lon="8.7891552"><ele>316.0</ele><time>2026-04-16T08:25:53.571Z</time></trkpt><trkpt lat="45.7739368" lon="8.7889933"><ele>315.75</ele><time>2026-04-16T08:25:54.572Z</time></trkpt><trkpt lat="45.7739351" lon="8.7888182"><ele>315.5</ele><time>2026-04-16T08:25:55.573Z</time></trkpt><trkpt lat="45.7739294" lon="8.7886375"><ele>315.25</ele><time>2026-04-16T08:25:56.553Z</time></trkpt><trkpt lat="45.773924" lon="8.78846"><ele>315.0</ele><time>2026-04-16T08:25:57.557Z</time></trkpt><trkpt lat="45.7739173" lon="8.7882786"><ele>314.25</ele><time>2026-04-16T08:25:58.558Z</time></trkpt><trkpt lat="45.7739125" lon="8.7880956"><ele>313.5</ele><time>2026-04-16T08:25:59.559Z</time></trkpt><trkpt lat="45.7739068" lon="8.7879143"><ele>312.75</ele><time>2026-04-16T08:26:00.56Z</time></trkpt><trkpt lat="45.7738993" lon="8.7877357"><ele>312.0</ele><time>2026-04-16T08:26:01.552Z</time></trkpt><trkpt lat="45.7738862" lon="8.7875544"><ele>311.0</ele><time>2026-04-16T08:26:02.563Z</time></trkpt><trkpt lat="45.7738719" lon="8.7873738"><ele>310.0</ele><time>2026-04-16T08:26:03.563Z</time></trkpt><trkpt lat="45.7738549" lon="8.7871932"><ele>309.0</ele><time>2026-04-16T08:26:04.567Z</time></trkpt><trkpt lat="45.7738388" lon="8.7870163"><ele>308.0</ele><time>2026-04-16T08:26:05.565Z</time></trkpt><trkpt lat="45.7738209" lon="8.7868358"><ele>307.75</ele><time>2026-04-16T08:26:06.565Z</time></trkpt><trkpt lat="45.7738044" lon="8.7866575"><ele>307.5</ele><time>2026-04-16T08:26:07.567Z</time></trkpt><trkpt lat="45.7737871" lon="8.7864788"><ele>307.25</ele><time>2026-04-16T08:26:08.573Z</time></trkpt><trkpt lat="45.7737745" lon="8.786305"><ele>307.0</ele><time>2026-04-16T08:26:09.574Z</time></trkpt><trkpt lat="45.7737595" lon="8.7861282"><ele>307.0</ele><time>2026-04-16T08:26:10.562Z</time></trkpt><trkpt lat="45.7737445" lon="8.7859501"><ele>307.0</ele><time>2026-04-16T08:26:11.561Z</time></trkpt><trkpt lat="45.7737304" lon="8.7857688"><ele>307.0</ele><time>2026-04-16T08:26:12.561Z</time></trkpt><trkpt lat="45.7737148" lon="8.7855834"><ele>307.0</ele><time>2026-04-16T08:26:13.561Z</time></trkpt><trkpt lat="45.7736991" lon="8.785395"><ele>307.0</ele><time>2026-04-16T08:26:14.577Z</time></trkpt><trkpt lat="45.7736815" lon="8.7852072"><ele>307.0</ele><time>2026-04-16T08:26:15.564Z</time></trkpt><trkpt lat="45.7736631" lon="8.785022"><ele>307.0</ele><time>2026-04-16T08:26:16.569Z</time></trkpt><trkpt lat="45.7736436" lon="8.7848483"><ele>307.0</ele><time>2026-04-16T08:26:17.57Z</time></trkpt><trkpt lat="45.7736254" lon="8.7846826"><ele>305.75</ele><time>2026-04-16T08:26:18.571Z</time></trkpt><trkpt lat="45.7736063" lon="8.7845159"><ele>304.5</ele><time>2026-04-16T08:26:19.567Z</time></trkpt><trkpt lat="45.7735916" lon="8.784341"><ele>303.25</ele><time>2026-04-16T08:26:20.568Z</time></trkpt><trkpt lat="45.7735768" lon="8.7841746"><ele>302.0</ele><time>2026-04-16T08:26:21.569Z</time></trkpt><trkpt lat="45.7735607" lon="8.7840046"><ele>301.8</ele><time>2026-04-16T08:26:22.57Z</time></trkpt><trkpt lat="45.7735395" lon="8.7838543"><ele>301.6</ele><time>2026-04-16T08:26:23.561Z</time></trkpt><trkpt lat="45.7735257" lon="8.7837198"><ele>301.40000000000003</ele><time>2026-04-16T08:26:24.562Z</time></trkpt><trkpt lat="45.7735166" lon="8.7835959"><ele>301.2</ele><time>2026-04-16T08:26:25.568Z</time></trkpt><trkpt lat="45.773506" lon="8.7834764"><ele>301.0</ele><time>2026-04-16T08:26:26.568Z</time></trkpt><trkpt lat="45.7734958" lon="8.7833596"><ele>301.8333333333333</ele><time>2026-04-16T08:26:27.572Z</time></trkpt><trkpt lat="45.7734808" lon="8.7832327"><ele>302.66666666666663</ele><time>2026-04-16T08:26:28.566Z</time></trkpt><trkpt lat="45.7734691" lon="8.7830985"><ele>303.5</ele><time>2026-04-16T08:26:29.569Z</time></trkpt><trkpt lat="45.7734622" lon="8.7829739"><ele>304.3333333333333</ele><time>2026-04-16T08:26:30.569Z</time></trkpt><trkpt lat="45.7734571" lon="8.7828528"><ele>305.1666666666667</ele><time>2026-04-16T08:26:31.567Z</time></trkpt><trkpt lat="45.7734488" lon="8.7827276"><ele>306.0</ele><time>2026-04-16T08:26:32.564Z</time></trkpt><trkpt lat="45.7734566" lon="8.7826021"><ele>306.2857142857143</ele><time>2026-04-16T08:26:33.558Z</time></trkpt><trkpt lat="45.773465" lon="8.7824855"><ele>306.57142857142856</ele><time>2026-04-16T08:26:34.56Z</time></trkpt><trkpt lat="45.7734738" lon="8.7823728"><ele>306.8571428571429</ele><time>2026-04-16T08:26:35.556Z</time></trkpt><trkpt lat="45.7734839" lon="8.7822749"><ele>307.1428571428571</ele><time>2026-04-16T08:26:36.573Z</time></trkpt><trkpt lat="45.7734907" lon="8.7821767"><ele>307.42857142857144</ele><time>2026-04-16T08:26:37.578Z</time></trkpt><trkpt lat="45.7734752" lon="8.7820813"><ele>307.7142857142857</ele><time>2026-04-16T08:26:38.576Z</time></trkpt><trkpt lat="45.7734405" lon="8.7819779"><ele>308.0</ele><time>2026-04-16T08:26:39.581Z</time></trkpt><trkpt lat="45.7734056" lon="8.781875"><ele>308.1666666666667</ele><time>2026-04-16T08:26:40.579Z</time></trkpt><trkpt lat="45.7733757" lon="8.781784"><ele>308.33333333333337</ele><time>2026-04-16T08:26:41.576Z</time></trkpt><trkpt lat="45.7733303" lon="8.7816372"><ele>308.5</ele><time>2026-04-16T08:26:43.579Z</time></trkpt><trkpt lat="45.7732796" lon="8.7814853"><ele>308.6666666666667</ele><time>2026-04-16T08:26:45.587Z</time></trkpt><trkpt lat="45.7732482" lon="8.7813927"><ele>308.8333333333333</ele><time>2026-04-16T08:26:46.573Z</time></trkpt><trkpt lat="45.7732175" lon="8.7812946"><ele>309.0</ele><time>2026-04-16T08:26:47.571Z</time></trkpt><trkpt lat="45.7731857" lon="8.7811895"><ele>309.0</ele><time>2026-04-16T08:26:48.557Z</time></trkpt><trkpt lat="45.7731444" lon="8.7810699"><ele>309.0</ele><time>2026-04-16T08:26:49.56Z</time></trkpt><trkpt lat="45.7731" lon="8.7809377"><ele>309.0</ele><time>2026-04-16T08:26:50.558Z</time></trkpt><trkpt lat="45.7730546" lon="8.7808032"><ele>309.0</ele><time>2026-04-16T08:26:51.57Z</time></trkpt><trkpt lat="45.7730111" lon="8.7806654"><ele>309.0</ele><time>2026-04-16T08:26:52.576Z</time></trkpt><trkpt lat="45.7729734" lon="8.7805317"><ele>308.8</ele><time>2026-04-16T08:26:53.58Z</time></trkpt><trkpt lat="45.7729338" lon="8.7804039"><ele>308.59999999999997</ele><time>2026-04-16T08:26:54.576Z</time></trkpt><trkpt lat="45.7728952" lon="8.780278"><ele>308.4</ele><time>2026-04-16T08:26:55.58Z</time></trkpt><trkpt lat="45.7728525" lon="8.7801438"><ele>308.2</ele><time>2026-04-16T08:26:56.582Z</time></trkpt><trkpt lat="45.772813" lon="8.7800099"><ele>308.0</ele><time>2026-04-16T08:26:57.579Z</time></trkpt><trkpt lat="45.7727737" lon="8.7798748"><ele>308.0</ele><time>2026-04-16T08:26:58.582Z</time></trkpt><trkpt lat="45.7727249" lon="8.7797186"><ele>308.0</ele><time>2026-04-16T08:26:59.578Z</time></trkpt><trkpt lat="45.7726726" lon="8.7795636"><ele>308.0</ele><time>2026-04-16T08:27:00.589Z</time></trkpt><trkpt lat="45.7726094" lon="8.779396"><ele>308.0</ele><time>2026-04-16T08:27:01.585Z</time></trkpt><trkpt lat="45.7725387" lon="8.7792376"><ele>309.0</ele><time>2026-04-16T08:27:02.583Z</time></trkpt><trkpt lat="45.7724615" lon="8.7791057"><ele>310.0</ele><time>2026-04-16T08:27:03.579Z</time></trkpt><trkpt lat="45.7723759" lon="8.7789786"><ele>311.0</ele><time>2026-04-16T08:27:04.584Z</time></trkpt><trkpt lat="45.7722864" lon="8.7788529"><ele>312.0</ele><time>2026-04-16T08:27:05.581Z</time></trkpt><trkpt lat="45.7722048" lon="8.7787148"><ele>312.0</ele><time>2026-04-16T08:27:06.572Z</time></trkpt><trkpt lat="45.772121" lon="8.77858"><ele>312.0</ele><time>2026-04-16T08:27:07.576Z</time></trkpt><trkpt lat="45.7720465" lon="8.7784667"><ele>312.0</ele><time>2026-04-16T08:27:08.575Z</time></trkpt><trkpt lat="45.7719653" lon="8.7783522"><ele>312.0</ele><time>2026-04-16T08:27:09.588Z</time></trkpt><trkpt lat="45.771887" lon="8.7782376"><ele>312.6</ele><time>2026-04-16T08:27:10.574Z</time></trkpt><trkpt lat="45.7718093" lon="8.7781214"><ele>313.2</ele><time>2026-04-16T08:27:11.577Z</time></trkpt><trkpt lat="45.771736" lon="8.7780169"><ele>313.8</ele><time>2026-04-16T08:27:12.575Z</time></trkpt><trkpt lat="45.7716649" lon="8.7779122"><ele>314.4</ele><time>2026-04-16T08:27:13.574Z</time></trkpt><trkpt lat="45.7715868" lon="8.7778101"><ele>315.0</ele><time>2026-04-16T08:27:14.572Z</time></trkpt><trkpt lat="45.7715112" lon="8.7776935"><ele>313.5</ele><time>2026-04-16T08:27:15.579Z</time></trkpt><trkpt lat="45.7714268" lon="8.7775755"><ele>312.0</ele><time>2026-04-16T08:27:16.592Z</time></trkpt><trkpt lat="45.7713417" lon="8.7774462"><ele>310.5</ele><time>2026-04-16T08:27:17.578Z</time></trkpt><trkpt lat="45.7712582" lon="8.7773157"><ele>309.0</ele><time>2026-04-16T08:27:18.575Z</time></trkpt><trkpt lat="45.7711769" lon="8.7771792"><ele>309.0</ele><time>2026-04-16T08:27:19.574Z</time></trkpt><trkpt lat="45.7711006" lon="8.7770325"><ele>309.0</ele><time>2026-04-16T08:27:20.572Z</time></trkpt><trkpt lat="45.7710366" lon="8.7768726"><ele>309.0</ele><time>2026-04-16T08:27:21.575Z</time></trkpt><trkpt lat="45.7709839" lon="8.7767196"><ele>309.0</ele><time>2026-04-16T08:27:22.571Z</time></trkpt><trkpt lat="45.7709375" lon="8.7765742"><ele>309.2</ele><time>2026-04-16T08:27:23.571Z</time></trkpt><trkpt lat="45.7708928" lon="8.7764381"><ele>309.4</ele><time>2026-04-16T08:27:24.584Z</time></trkpt><trkpt lat="45.7708478" lon="8.7763096"><ele>309.6</ele><time>2026-04-16T08:27:25.584Z</time></trkpt><trkpt lat="45.7708003" lon="8.7761722"><ele>309.8</ele><time>2026-04-16T08:27:26.586Z</time></trkpt><trkpt lat="45.7707524" lon="8.7760296"><ele>310.0</ele><time>2026-04-16T08:27:27.578Z</time></trkpt><trkpt lat="45.770703" lon="8.7759008"><ele>310.0</ele><time>2026-04-16T08:27:28.586Z</time></trkpt><trkpt lat="45.7706536" lon="8.7757682"><ele>310.0</ele><time>2026-04-16T08:27:29.577Z</time></trkpt><trkpt lat="45.7706002" lon="8.7756384"><ele>310.0</ele><time>2026-04-16T08:27:30.587Z</time></trkpt><trkpt lat="45.770546" lon="8.7755005"><ele>310.0</ele><time>2026-04-16T08:27:31.583Z</time></trkpt><trkpt lat="45.7704864" lon="8.7753502"><ele>310.0</ele><time>2026-04-16T08:27:32.581Z</time></trkpt><trkpt lat="45.770419" lon="8.7752003"><ele>309.0</ele><time>2026-04-16T08:27:33.585Z</time></trkpt><trkpt lat="45.7703613" lon="8.7750506"><ele>308.0</ele><time>2026-04-16T08:27:34.578Z</time></trkpt><trkpt lat="45.7702979" lon="8.7748925"><ele>307.0</ele><time>2026-04-16T08:27:35.583Z</time></trkpt><trkpt lat="45.7702373" lon="8.7747494"><ele>306.0</ele><time>2026-04-16T08:27:36.58Z</time></trkpt><trkpt lat="45.7701682" lon="8.7745982"><ele>306.5</ele><time>2026-04-16T08:27:37.58Z</time></trkpt><trkpt lat="45.7700923" lon="8.7744555"><ele>307.0</ele><time>2026-04-16T08:27:38.574Z</time></trkpt><trkpt lat="45.7700097" lon="8.7743199"><ele>307.5</ele><time>2026-04-16T08:27:39.579Z</time></trkpt><trkpt lat="45.7699239" lon="8.7741961"><ele>308.0</ele><time>2026-04-16T08:27:40.567Z</time></trkpt><trkpt lat="45.7698336" lon="8.774071"><ele>308.0</ele><time>2026-04-16T08:27:41.575Z</time></trkpt><trkpt lat="45.7697457" lon="8.7739532"><ele>308.0</ele><time>2026-04-16T08:27:42.574Z</time></trkpt><trkpt lat="45.7696558" lon="8.7738419"><ele>308.0</ele><time>2026-04-16T08:27:43.573Z</time></trkpt><trkpt lat="45.7695623" lon="8.7737347"><ele>308.0</ele><time>2026-04-16T08:27:44.581Z</time></trkpt><trkpt lat="45.7694709" lon="8.7736196"><ele>308.0</ele><time>2026-04-16T08:27:45.579Z</time></trkpt><trkpt lat="45.7693748" lon="8.773506"><ele>308.0</ele><time>2026-04-16T08:27:46.584Z</time></trkpt><trkpt lat="45.7692795" lon="8.7733947"><ele>308.0</ele><time>2026-04-16T08:27:47.598Z</time></trkpt><trkpt lat="45.7691925" lon="8.7732769"><ele>308.0</ele><time>2026-04-16T08:27:48.582Z</time></trkpt><trkpt lat="45.7691088" lon="8.7731638"><ele>308.0</ele><time>2026-04-16T08:27:49.575Z</time></trkpt><trkpt lat="45.7690274" lon="8.7730523"><ele>308.0</ele><time>2026-04-16T08:27:50.59Z</time></trkpt><trkpt lat="45.7689458" lon="8.7729386"><ele>308.0</ele><time>2026-04-16T08:27:51.586Z</time></trkpt><trkpt lat="45.7688626" lon="8.7728257"><ele>308.0</ele><time>2026-04-16T08:27:52.586Z</time></trkpt><trkpt lat="45.7687819" lon="8.7727169"><ele>307.75</ele><time>2026-04-16T08:27:53.578Z</time></trkpt><trkpt lat="45.7687006" lon="8.7725996"><ele>307.5</ele><time>2026-04-16T08:27:54.582Z</time></trkpt><trkpt lat="45.7686154" lon="8.7724849"><ele>307.25</ele><time>2026-04-16T08:27:55.576Z</time></trkpt><trkpt lat="45.7685286" lon="8.7723723"><ele>307.0</ele><time>2026-04-16T08:27:56.583Z</time></trkpt><trkpt lat="45.7684449" lon="8.7722597"><ele>307.0</ele><time>2026-04-16T08:27:57.575Z</time></trkpt><trkpt lat="45.7683606" lon="8.7721405"><ele>307.0</ele><time>2026-04-16T08:27:58.569Z</time></trkpt><trkpt lat="45.7682743" lon="8.7720186"><ele>307.0</ele><time>2026-04-16T08:27:59.568Z</time></trkpt><trkpt lat="45.768187" lon="8.7719008"><ele>307.0</ele><time>2026-04-16T08:28:00.571Z</time></trkpt><trkpt lat="45.7681002" lon="8.7717862"><ele>306.5</ele><time>2026-04-16T08:28:01.565Z</time></trkpt><trkpt lat="45.7680163" lon="8.7716781"><ele>306.0</ele><time>2026-04-16T08:28:02.571Z</time></trkpt><trkpt lat="45.767928" lon="8.7715781"><ele>305.5</ele><time>2026-04-16T08:28:03.568Z</time></trkpt><trkpt lat="45.7678316" lon="8.7714746"><ele>305.0</ele><time>2026-04-16T08:28:04.58Z</time></trkpt><trkpt lat="45.7677327" lon="8.7713675"><ele>305.5</ele><time>2026-04-16T08:28:05.574Z</time></trkpt><trkpt lat="45.7676268" lon="8.7712663"><ele>306.0</ele><time>2026-04-16T08:28:06.581Z</time></trkpt><trkpt lat="45.767515" lon="8.7711685"><ele>306.5</ele><time>2026-04-16T08:28:07.577Z</time></trkpt><trkpt lat="45.7674013" lon="8.7710782"><ele>307.0</ele><time>2026-04-16T08:28:08.578Z</time></trkpt><trkpt lat="45.7672904" lon="8.7709914"><ele>307.0</ele><time>2026-04-16T08:28:09.584Z</time></trkpt><trkpt lat="45.7671844" lon="8.77091"><ele>307.0</ele><time>2026-04-16T08:28:10.581Z</time></trkpt><trkpt lat="45.7670774" lon="8.7708266"><ele>307.0</ele><time>2026-04-16T08:28:11.573Z</time></trkpt><trkpt lat="45.7669656" lon="8.7707419"><ele>307.0</ele><time>2026-04-16T08:28:12.579Z</time></trkpt><trkpt lat="45.766853" lon="8.7706539"><ele>307.0</ele><time>2026-04-16T08:28:13.578Z</time></trkpt><trkpt lat="45.7667397" lon="8.7705641"><ele>307.0</ele><time>2026-04-16T08:28:14.577Z</time></trkpt><trkpt lat="45.7666278" lon="8.7704738"><ele>307.0</ele><time>2026-04-16T08:28:15.579Z</time></trkpt><trkpt lat="45.7665196" lon="8.7703719"><ele>307.0</ele><time>2026-04-16T08:28:16.585Z</time></trkpt><trkpt lat="45.7664129" lon="8.7702648"><ele>306.75</ele><time>2026-04-16T08:28:17.582Z</time></trkpt><trkpt lat="45.7663099" lon="8.7701505"><ele>306.5</ele><time>2026-04-16T08:28:18.596Z</time></trkpt><trkpt lat="45.7662085" lon="8.7700443"><ele>306.25</ele><time>2026-04-16T08:28:19.577Z</time></trkpt><trkpt lat="45.7661092" lon="8.769943"><ele>306.0</ele><time>2026-04-16T08:28:20.58Z</time></trkpt><trkpt lat="45.76602" lon="8.7698521"><ele>305.8333333333333</ele><time>2026-04-16T08:28:21.587Z</time></trkpt><trkpt lat="45.7659352" lon="8.7697698"><ele>305.6666666666667</ele><time>2026-04-16T08:28:22.581Z</time></trkpt><trkpt lat="45.7658563" lon="8.7697001"><ele>305.5</ele><time>2026-04-16T08:28:23.577Z</time></trkpt><trkpt lat="45.7657842" lon="8.7696366"><ele>305.33333333333337</ele><time>2026-04-16T08:28:24.578Z</time></trkpt><trkpt lat="45.7657284" lon="8.769587"><ele>305.1666666666667</ele><time>2026-04-16T08:28:25.572Z</time></trkpt><trkpt lat="45.7656433" lon="8.7695085"><ele>305.0</ele><time>2026-04-16T08:28:27.585Z</time></trkpt><trkpt lat="45.7655763" lon="8.7694452"><ele>305.0</ele><time>2026-04-16T08:28:29.585Z</time></trkpt><trkpt lat="45.7655082" lon="8.7693611"><ele>305.0</ele><time>2026-04-16T08:28:31.584Z</time></trkpt><trkpt lat="45.765454" lon="8.7692243"><ele>305.0</ele><time>2026-04-16T08:28:33.569Z</time></trkpt><trkpt lat="45.7654317" lon="8.769121"><ele>305.0</ele><time>2026-04-16T08:28:34.571Z</time></trkpt><trkpt lat="45.7654312" lon="8.7689924"><ele>305.0</ele><time>2026-04-16T08:28:35.569Z</time></trkpt><trkpt lat="45.7654418" lon="8.7688623"><ele>305.0</ele><time>2026-04-16T08:28:36.568Z</time></trkpt><trkpt lat="45.7654651" lon="8.7687314"><ele>305.0</ele><time>2026-04-16T08:28:37.559Z</time></trkpt><trkpt lat="45.7654969" lon="8.7685971"><ele>305.0</ele><time>2026-04-16T08:28:38.556Z</time></trkpt><trkpt lat="45.7655455" lon="8.7684786"><ele>305.0</ele><time>2026-04-16T08:28:39.567Z</time></trkpt><trkpt lat="45.7655975" lon="8.7683651"><ele>305.0</ele><time>2026-04-16T08:28:40.556Z</time></trkpt><trkpt lat="45.7656462" lon="8.7682612"><ele>305.0</ele><time>2026-04-16T08:28:41.563Z</time></trkpt><trkpt lat="45.7657019" lon="8.7681495"><ele>305.0</ele><time>2026-04-16T08:28:42.565Z</time></trkpt><trkpt lat="45.7657569" lon="8.7680348"><ele>305.0</ele><time>2026-04-16T08:28:43.565Z</time></trkpt><trkpt lat="45.7658115" lon="8.7679223"><ele>305.0</ele><time>2026-04-16T08:28:44.57Z</time></trkpt><trkpt lat="45.7658597" lon="8.7678111"><ele>305.0</ele><time>2026-04-16T08:28:45.568Z</time></trkpt><trkpt lat="45.7659037" lon="8.7677056"><ele>304.6666666666667</ele><time>2026-04-16T08:28:46.572Z</time></trkpt><trkpt lat="45.7659397" lon="8.7676087"><ele>304.33333333333337</ele><time>2026-04-16T08:28:47.57Z</time></trkpt><trkpt lat="45.7659816" lon="8.7675198"><ele>304.0</ele><time>2026-04-16T08:28:48.576Z</time></trkpt><trkpt lat="45.7660194" lon="8.7674338"><ele>303.6666666666667</ele><time>2026-04-16T08:28:49.591Z</time></trkpt><trkpt lat="45.7660571" lon="8.7673465"><ele>303.3333333333333</ele><time>2026-04-16T08:28:50.573Z</time></trkpt><trkpt lat="45.7661001" lon="8.767276"><ele>303.0</ele><time>2026-04-16T08:28:51.574Z</time></trkpt><trkpt lat="45.76619" lon="8.7671857"><ele>302.4</ele><time>2026-04-16T08:28:53.569Z</time></trkpt><trkpt lat="45.7662938" lon="8.7671436"><ele>301.8</ele><time>2026-04-16T08:28:55.567Z</time></trkpt><trkpt lat="45.7663765" lon="8.7671246"><ele>301.2</ele><time>2026-04-16T08:28:56.57Z</time></trkpt><trkpt lat="45.7664758" lon="8.767115"><ele>300.6</ele><time>2026-04-16T08:28:57.568Z</time></trkpt><trkpt lat="45.766594" lon="8.7670878"><ele>300.0</ele><time>2026-04-16T08:28:58.572Z</time></trkpt><trkpt lat="45.7667198" lon="8.7670521"><ele>300.0</ele><time>2026-04-16T08:28:59.58Z</time></trkpt><trkpt lat="45.7668314" lon="8.7670095"><ele>300.0</ele><time>2026-04-16T08:29:00.584Z</time></trkpt><trkpt lat="45.7669463" lon="8.7669601"><ele>300.0</ele><time>2026-04-16T08:29:01.577Z</time></trkpt><trkpt lat="45.7670502" lon="8.7669287"><ele>300.0</ele><time>2026-04-16T08:29:02.578Z</time></trkpt><trkpt lat="45.7671514" lon="8.7669179"><ele>300.0</ele><time>2026-04-16T08:29:03.573Z</time></trkpt><trkpt lat="45.767252" lon="8.7669269"><ele>300.2</ele><time>2026-04-16T08:29:04.57Z</time></trkpt><trkpt lat="45.7673264" lon="8.7669422"><ele>300.4</ele><time>2026-04-16T08:29:05.567Z</time></trkpt><trkpt lat="45.7674376" lon="8.766924"><ele>300.6</ele><time>2026-04-16T08:29:07.573Z</time></trkpt><trkpt lat="45.7675064" lon="8.7667671"><ele>300.8</ele><time>2026-04-16T08:29:09.578Z</time></trkpt><trkpt lat="45.767549" lon="8.7666439"><ele>301.0</ele><time>2026-04-16T08:29:10.573Z</time></trkpt><trkpt lat="45.7676166" lon="8.7665424"><ele>301.0</ele><time>2026-04-16T08:29:11.575Z</time></trkpt><trkpt lat="45.767697" lon="8.7664593"><ele>301.0</ele><time>2026-04-16T08:29:12.573Z</time></trkpt><trkpt lat="45.7677895" lon="8.7664081"><ele>301.0</ele><time>2026-04-16T08:29:13.565Z</time></trkpt><trkpt lat="45.7678986" lon="8.7663724"><ele>301.0</ele><time>2026-04-16T08:29:14.574Z</time></trkpt><trkpt lat="45.7680196" lon="8.7663542"><ele>301.0</ele><time>2026-04-16T08:29:15.574Z</time></trkpt><trkpt lat="45.7681455" lon="8.766346"><ele>301.0</ele><time>2026-04-16T08:29:16.579Z</time></trkpt><trkpt lat="45.7682944" lon="8.766366"><ele>301.0</ele><time>2026-04-16T08:29:17.573Z</time></trkpt><trkpt lat="45.7684493" lon="8.7663997"><ele>301.0</ele><time>2026-04-16T08:29:18.577Z</time></trkpt><trkpt lat="45.7686285" lon="8.7664612"><ele>303.0</ele><time>2026-04-16T08:29:19.569Z</time></trkpt><trkpt lat="45.7688127" lon="8.7665354"><ele>305.0</ele><time>2026-04-16T08:29:20.596Z</time></trkpt><trkpt lat="45.7689843" lon="8.7666034"><ele>307.0</ele><time>2026-04-16T08:29:21.575Z</time></trkpt><trkpt lat="45.7691364" lon="8.766632"><ele>307.0</ele><time>2026-04-16T08:29:22.574Z</time></trkpt><trkpt lat="45.7692685" lon="8.7666662"><ele>307.0</ele><time>2026-04-16T08:29:23.57Z</time></trkpt><trkpt lat="45.7693706" lon="8.7666935"><ele>307.0</ele><time>2026-04-16T08:29:24.569Z</time></trkpt><trkpt lat="45.7694636" lon="8.7667184"><ele>307.0</ele><time>2026-04-16T08:29:25.561Z</time></trkpt><trkpt lat="45.7695318" lon="8.7667485"><ele>307.0</ele><time>2026-04-16T08:29:26.571Z</time></trkpt><trkpt lat="45.7695953" lon="8.7667662"><ele>307.8</ele><time>2026-04-16T08:29:27.567Z</time></trkpt><trkpt lat="45.7696787" lon="8.7667617"><ele>308.6</ele><time>2026-04-16T08:29:29.574Z</time></trkpt><trkpt lat="45.7696786" lon="8.7666668"><ele>309.40000000000003</ele><time>2026-04-16T08:29:31.565Z</time></trkpt><trkpt lat="45.7696576" lon="8.7665155"><ele>310.2</ele><time>2026-04-16T08:29:33.57Z</time></trkpt><trkpt lat="45.7696335" lon="8.7663804"><ele>311.0</ele><time>2026-04-16T08:29:34.569Z</time></trkpt><trkpt lat="45.7696117" lon="8.7662244"><ele>311.0</ele><time>2026-04-16T08:29:35.575Z</time></trkpt><trkpt lat="45.7695856" lon="8.7660532"><ele>311.0</ele><time>2026-04-16T08:29:36.57Z</time></trkpt><trkpt lat="45.7695577" lon="8.765876"><ele>311.0</ele><time>2026-04-16T08:29:37.567Z</time></trkpt><trkpt lat="45.7695254" lon="8.7656962"><ele>311.0</ele><time>2026-04-16T08:29:38.562Z</time></trkpt><trkpt lat="45.7695093" lon="8.7655196"><ele>311.0</ele><time>2026-04-16T08:29:39.575Z</time></trkpt><trkpt lat="45.7695089" lon="8.7653439"><ele>311.0</ele><time>2026-04-16T08:29:40.565Z</time></trkpt><trkpt lat="45.7695237" lon="8.7651552"><ele>311.0</ele><time>2026-04-16T08:29:41.573Z</time></trkpt><trkpt lat="45.7695411" lon="8.7649701"><ele>311.0</ele><time>2026-04-16T08:29:42.575Z</time></trkpt><trkpt lat="45.769565" lon="8.7648016"><ele>309.40000000000003</ele><time>2026-04-16T08:29:43.574Z</time></trkpt><trkpt lat="45.7695955" lon="8.7646376"><ele>307.8</ele><time>2026-04-16T08:29:44.572Z</time></trkpt><trkpt lat="45.769627" lon="8.7644887"><ele>306.20000000000005</ele><time>2026-04-16T08:29:45.562Z</time></trkpt><trkpt lat="45.7696506" lon="8.7643611"><ele>304.6</ele><time>2026-04-16T08:29:46.57Z</time></trkpt><trkpt lat="45.7696649" lon="8.7642437"><ele>303.0</ele><time>2026-04-16T08:29:47.57Z</time></trkpt><trkpt lat="45.7696709" lon="8.7641345"><ele>302.5</ele><time>2026-04-16T08:29:48.57Z</time></trkpt><trkpt lat="45.7696703" lon="8.7640265"><ele>302.0</ele><time>2026-04-16T08:29:49.571Z</time></trkpt><trkpt lat="45.7696668" lon="8.7638784"><ele>301.5</ele><time>2026-04-16T08:29:51.582Z</time></trkpt><trkpt lat="45.7697105" lon="8.7638019"><ele>301.0</ele><time>2026-04-16T08:29:54.566Z</time></trkpt><trkpt lat="45.7698067" lon="8.7637976"><ele>300.5</ele><time>2026-04-16T08:29:56.584Z</time></trkpt><trkpt lat="45.7698869" lon="8.7637322"><ele>300.0</ele><time>2026-04-16T08:29:58.576Z</time></trkpt><trkpt lat="45.7699426" lon="8.7635365"><ele>298.25</ele><time>2026-04-16T08:30:00.568Z</time></trkpt><trkpt lat="45.7699622" lon="8.7633775"><ele>296.5</ele><time>2026-04-16T08:30:01.559Z</time></trkpt><trkpt lat="45.7699723" lon="8.7632033"><ele>294.75</ele><time>2026-04-16T08:30:02.555Z</time></trkpt><trkpt lat="45.7699858" lon="8.763023"><ele>293.0</ele><time>2026-04-16T08:30:03.556Z</time></trkpt><trkpt lat="45.7699922" lon="8.7628392"><ele>292.0</ele><time>2026-04-16T08:30:04.559Z</time></trkpt><trkpt lat="45.7700118" lon="8.7626682"><ele>291.0</ele><time>2026-04-16T08:30:05.559Z</time></trkpt><trkpt lat="45.7700359" lon="8.7625145"><ele>290.0</ele><time>2026-04-16T08:30:06.568Z</time></trkpt><trkpt lat="45.770064" lon="8.7623646"><ele>289.0</ele><time>2026-04-16T08:30:07.567Z</time></trkpt><trkpt lat="45.7700994" lon="8.762211"><ele>289.0</ele><time>2026-04-16T08:30:08.571Z</time></trkpt><trkpt lat="45.770138" lon="8.76206"><ele>289.0</ele><time>2026-04-16T08:30:09.572Z</time></trkpt><trkpt lat="45.7701724" lon="8.7619169"><ele>289.0</ele><time>2026-04-16T08:30:10.57Z</time></trkpt><trkpt lat="45.7702109" lon="8.7617771"><ele>289.0</ele><time>2026-04-16T08:30:11.571Z</time></trkpt><trkpt lat="45.7702456" lon="8.7616384"><ele>289.0</ele><time>2026-04-16T08:30:12.569Z</time></trkpt><trkpt lat="45.7702815" lon="8.7614996"><ele>289.16666666666663</ele><time>2026-04-16T08:30:13.572Z</time></trkpt><trkpt lat="45.7703156" lon="8.761376"><ele>289.3333333333333</ele><time>2026-04-16T08:30:14.575Z</time></trkpt><trkpt lat="45.7703562" lon="8.7612603"><ele>289.5</ele><time>2026-04-16T08:30:15.567Z</time></trkpt><trkpt lat="45.7703848" lon="8.7611551"><ele>289.6666666666667</ele><time>2026-04-16T08:30:16.578Z</time></trkpt><trkpt lat="45.7703959" lon="8.7610522"><ele>289.83333333333337</ele><time>2026-04-16T08:30:17.578Z</time></trkpt><trkpt lat="45.7703834" lon="8.7609523"><ele>290.0</ele><time>2026-04-16T08:30:18.582Z</time></trkpt><trkpt lat="45.7703339" lon="8.7608525"><ele>290.75</ele><time>2026-04-16T08:30:19.568Z</time></trkpt><trkpt lat="45.7702551" lon="8.760771"><ele>291.5</ele><time>2026-04-16T08:30:20.577Z</time></trkpt><trkpt lat="45.7701421" lon="8.7607087"><ele>292.25</ele><time>2026-04-16T08:30:21.571Z</time></trkpt><trkpt lat="45.7700262" lon="8.7606604"><ele>293.0</ele><time>2026-04-16T08:30:22.59Z</time></trkpt><trkpt lat="45.7699135" lon="8.7606286"><ele>293.0</ele><time>2026-04-16T08:30:23.573Z</time></trkpt><trkpt lat="45.7698202" lon="8.7605906"><ele>293.0</ele><time>2026-04-16T08:30:24.583Z</time></trkpt><trkpt lat="45.7697593" lon="8.7605396"><ele>293.0</ele><time>2026-04-16T08:30:25.584Z</time></trkpt><trkpt lat="45.769764" lon="8.7604231"><ele>293.0</ele><time>2026-04-16T08:30:27.586Z</time></trkpt><trkpt lat="45.7698479" lon="8.7603511"><ele>293.0</ele><time>2026-04-16T08:30:28.583Z</time></trkpt><trkpt lat="45.7699655" lon="8.7602508"><ele>293.0</ele><time>2026-04-16T08:30:29.573Z</time></trkpt><trkpt lat="45.7700872" lon="8.7601386"><ele>293.0</ele><time>2026-04-16T08:30:30.572Z</time></trkpt><trkpt lat="45.7702224" lon="8.7600012"><ele>293.0</ele><time>2026-04-16T08:30:31.567Z</time></trkpt><trkpt lat="45.7703509" lon="8.7598608"><ele>293.25</ele><time>2026-04-16T08:30:32.567Z</time></trkpt><trkpt lat="45.7704666" lon="8.759734"><ele>293.5</ele><time>2026-04-16T08:30:33.57Z</time></trkpt><trkpt lat="45.7705811" lon="8.75961"><ele>293.75</ele><time>2026-04-16T08:30:34.562Z</time></trkpt><trkpt lat="45.770699" lon="8.759472"><ele>294.0</ele><time>2026-04-16T08:30:35.563Z</time></trkpt><trkpt lat="45.7708115" lon="8.7593464"><ele>294.0</ele><time>2026-04-16T08:30:36.56Z</time></trkpt><trkpt lat="45.7709173" lon="8.7592336"><ele>294.0</ele><time>2026-04-16T08:30:37.564Z</time></trkpt><trkpt lat="45.7710216" lon="8.7591247"><ele>294.0</ele><time>2026-04-16T08:30:38.565Z</time></trkpt><trkpt lat="45.7711243" lon="8.7590125"><ele>294.0</ele><time>2026-04-16T08:30:39.571Z</time></trkpt><trkpt lat="45.7712258" lon="8.7589135"><ele>295.2</ele><time>2026-04-16T08:30:40.565Z</time></trkpt><trkpt lat="45.7713289" lon="8.7588254"><ele>296.4</ele><time>2026-04-16T08:30:41.575Z</time></trkpt><trkpt lat="45.7714347" lon="8.7587646"><ele>297.6</ele><time>2026-04-16T08:30:42.569Z</time></trkpt><trkpt lat="45.7715314" lon="8.7587367"><ele>298.8</ele><time>2026-04-16T08:30:43.572Z</time></trkpt><trkpt lat="45.7716291" lon="8.7587174"><ele>300.0</ele><time>2026-04-16T08:30:44.568Z</time></trkpt><trkpt lat="45.7717147" lon="8.7587014"><ele>300.0</ele><time>2026-04-16T08:30:45.564Z</time></trkpt><trkpt lat="45.7718041" lon="8.7586788"><ele>300.0</ele><time>2026-04-16T08:30:46.574Z</time></trkpt><trkpt lat="45.7718943" lon="8.7586371"><ele>300.0</ele><time>2026-04-16T08:30:48.556Z</time></trkpt><trkpt lat="45.7719211" lon="8.7585533"><ele>300.0</ele><time>2026-04-16T08:30:50.562Z</time></trkpt><trkpt lat="45.7718444" lon="8.7584554"><ele>300.0</ele><time>2026-04-16T08:30:52.563Z</time></trkpt><trkpt lat="45.7717721" lon="8.7583757"><ele>300.0</ele><time>2026-04-16T08:30:53.567Z</time></trkpt><trkpt lat="45.7717086" lon="8.7582835"><ele>300.75</ele><time>2026-04-16T08:30:54.559Z</time></trkpt><trkpt lat="45.7716446" lon="8.7581605"><ele>301.5</ele><time>2026-04-16T08:30:55.546Z</time></trkpt><trkpt lat="45.7715926" lon="8.7580038"><ele>302.25</ele><time>2026-04-16T08:30:56.54Z</time></trkpt><trkpt lat="45.7715344" lon="8.7578314"><ele>303.0</ele><time>2026-04-16T08:30:57.544Z</time></trkpt><trkpt lat="45.7714749" lon="8.7576565"><ele>303.75</ele><time>2026-04-16T08:30:58.548Z</time></trkpt><trkpt lat="45.7714158" lon="8.7574945"><ele>304.5</ele><time>2026-04-16T08:30:59.549Z</time></trkpt><trkpt lat="45.7713631" lon="8.7573273"><ele>305.25</ele><time>2026-04-16T08:31:00.548Z</time></trkpt><trkpt lat="45.771314" lon="8.7571847"><ele>306.0</ele><time>2026-04-16T08:31:01.541Z</time></trkpt><trkpt lat="45.7712677" lon="8.7570655"><ele>306.0</ele><time>2026-04-16T08:31:02.548Z</time></trkpt><trkpt lat="45.7712221" lon="8.7569511"><ele>306.0</ele><time>2026-04-16T08:31:03.543Z</time></trkpt><trkpt lat="45.7711799" lon="8.756843"><ele>306.0</ele><time>2026-04-16T08:31:04.544Z</time></trkpt><trkpt lat="45.7711363" lon="8.7567315"><ele>306.0</ele><time>2026-04-16T08:31:05.548Z</time></trkpt><trkpt lat="45.7711027" lon="8.7566274"><ele>306.0</ele><time>2026-04-16T08:31:06.55Z</time></trkpt><trkpt lat="45.7710663" lon="8.7565268"><ele>306.0</ele><time>2026-04-16T08:31:07.55Z</time></trkpt><trkpt lat="45.7710237" lon="8.7564373"><ele>306.8333333333333</ele><time>2026-04-16T08:31:08.546Z</time></trkpt><trkpt lat="45.7709753" lon="8.7563632"><ele>307.6666666666667</ele><time>2026-04-16T08:31:09.557Z</time></trkpt><trkpt lat="45.7709165" lon="8.7562888"><ele>308.5</ele><time>2026-04-16T08:31:10.55Z</time></trkpt><trkpt lat="45.7708536" lon="8.7562326"><ele>309.33333333333337</ele><time>2026-04-16T08:31:11.557Z</time></trkpt><trkpt lat="45.7707915" lon="8.756173"><ele>310.1666666666667</ele><time>2026-04-16T08:31:12.554Z</time></trkpt><trkpt lat="45.7707227" lon="8.7561012"><ele>311.0</ele><time>2026-04-16T08:31:13.555Z</time></trkpt><trkpt lat="45.7706542" lon="8.7560318"><ele>311.0</ele><time>2026-04-16T08:31:14.553Z</time></trkpt><trkpt lat="45.7705907" lon="8.7559524"><ele>311.0</ele><time>2026-04-16T08:31:15.556Z</time></trkpt><trkpt lat="45.7705322" lon="8.7558658"><ele>311.0</ele><time>2026-04-16T08:31:16.553Z</time></trkpt><trkpt lat="45.7704842" lon="8.7557708"><ele>311.0</ele><time>2026-04-16T08:31:17.55Z</time></trkpt><trkpt lat="45.7704328" lon="8.7556793"><ele>311.0</ele><time>2026-04-16T08:31:18.554Z</time></trkpt><trkpt lat="45.7703961" lon="8.7555746"><ele>311.0</ele><time>2026-04-16T08:31:19.558Z</time></trkpt><trkpt lat="45.7703539" lon="8.7554817"><ele>311.0</ele><time>2026-04-16T08:31:20.546Z</time></trkpt><trkpt lat="45.7703213" lon="8.755373"><ele>311.0</ele><time>2026-04-16T08:31:21.544Z</time></trkpt><trkpt lat="45.7702971" lon="8.7552812"><ele>311.0</ele><time>2026-04-16T08:31:22.547Z</time></trkpt><trkpt lat="45.7702786" lon="8.7551681"><ele>311.0</ele><time>2026-04-16T08:31:23.545Z</time></trkpt><trkpt lat="45.7702694" lon="8.7550479"><ele>311.0</ele><time>2026-04-16T08:31:24.554Z</time></trkpt><trkpt lat="45.7702625" lon="8.7549077"><ele>311.0</ele><time>2026-04-16T08:31:25.536Z</time></trkpt><trkpt lat="45.7702477" lon="8.7547811"><ele>311.0</ele><time>2026-04-16T08:31:26.538Z</time></trkpt><trkpt lat="45.7702377" lon="8.7546564"><ele>311.0</ele><time>2026-04-16T08:31:27.544Z</time></trkpt><trkpt lat="45.7702226" lon="8.7545331"><ele>311.0</ele><time>2026-04-16T08:31:28.544Z</time></trkpt><trkpt lat="45.7702061" lon="8.7544146"><ele>311.0</ele><time>2026-04-16T08:31:29.547Z</time></trkpt><trkpt lat="45.7701992" lon="8.7543098"><ele>311.0</ele><time>2026-04-16T08:31:30.548Z</time></trkpt><trkpt lat="45.7702264" lon="8.7541315"><ele>311.0</ele><time>2026-04-16T08:31:32.547Z</time></trkpt><trkpt lat="45.770263" lon="8.7540551"><ele>311.0</ele><time>2026-04-16T08:31:33.542Z</time></trkpt><trkpt lat="45.7703086" lon="8.7539788"><ele>311.0</ele><time>2026-04-16T08:31:34.537Z</time></trkpt><trkpt lat="45.7703818" lon="8.7539103"><ele>311.0</ele><time>2026-04-16T08:31:35.545Z</time></trkpt><trkpt lat="45.7704753" lon="8.753859"><ele>311.0</ele><time>2026-04-16T08:31:36.55Z</time></trkpt><trkpt lat="45.7705851" lon="8.7538045"><ele>311.0</ele><time>2026-04-16T08:31:37.547Z</time></trkpt><trkpt lat="45.7706893" lon="8.7537636"><ele>311.0</ele><time>2026-04-16T08:31:38.555Z</time></trkpt><trkpt lat="45.770783" lon="8.7537392"><ele>311.0</ele><time>2026-04-16T08:31:39.558Z</time></trkpt><trkpt lat="45.7708639" lon="8.7537184"><ele>311.0</ele><time>2026-04-16T08:31:40.547Z</time></trkpt><trkpt lat="45.7709309" lon="8.7536798"><ele>311.0</ele><time>2026-04-16T08:31:41.547Z</time></trkpt><trkpt lat="45.7709914" lon="8.7536318"><ele>311.0</ele><time>2026-04-16T08:31:42.544Z</time></trkpt><trkpt lat="45.7710386" lon="8.7535697"><ele>311.0</ele><time>2026-04-16T08:31:43.543Z</time></trkpt><trkpt lat="45.7710698" lon="8.7534758"><ele>310.75</ele><time>2026-04-16T08:31:44.547Z</time></trkpt><trkpt lat="45.7710929" lon="8.7533358"><ele>310.5</ele><time>2026-04-16T08:31:45.544Z</time></trkpt><trkpt lat="45.7711009" lon="8.7531679"><ele>310.25</ele><time>2026-04-16T08:31:46.55Z</time></trkpt><trkpt lat="45.7710948" lon="8.7529718"><ele>310.0</ele><time>2026-04-16T08:31:47.547Z</time></trkpt><trkpt lat="45.7710785" lon="8.7527783"><ele>306.25</ele><time>2026-04-16T08:31:48.56Z</time></trkpt><trkpt lat="45.7710564" lon="8.7525881"><ele>302.5</ele><time>2026-04-16T08:31:49.554Z</time></trkpt><trkpt lat="45.7710345" lon="8.7523942"><ele>298.75</ele><time>2026-04-16T08:31:50.556Z</time></trkpt><trkpt lat="45.7710183" lon="8.7522075"><ele>295.0</ele><time>2026-04-16T08:31:51.562Z</time></trkpt><trkpt lat="45.7710037" lon="8.7520302"><ele>296.8</ele><time>2026-04-16T08:31:52.567Z</time></trkpt><trkpt lat="45.7709902" lon="8.7518499"><ele>298.6</ele><time>2026-04-16T08:31:53.562Z</time></trkpt><trkpt lat="45.7709835" lon="8.7516929"><ele>300.4</ele><time>2026-04-16T08:31:54.559Z</time></trkpt><trkpt lat="45.7709729" lon="8.7515402"><ele>302.2</ele><time>2026-04-16T08:31:55.569Z</time></trkpt><trkpt lat="45.7709669" lon="8.7514132"><ele>304.0</ele><time>2026-04-16T08:31:56.553Z</time></trkpt><trkpt lat="45.7709681" lon="8.7512938"><ele>304.0</ele><time>2026-04-16T08:31:57.547Z</time></trkpt><trkpt lat="45.7709694" lon="8.7512023"><ele>304.0</ele><time>2026-04-16T08:31:58.545Z</time></trkpt><trkpt lat="45.7710323" lon="8.7510424"><ele>304.0</ele><time>2026-04-16T08:32:00.556Z</time></trkpt><trkpt lat="45.7711385" lon="8.7509865"><ele>304.0</ele><time>2026-04-16T08:32:01.547Z</time></trkpt><trkpt lat="45.7712631" lon="8.7508949"><ele>304.0</ele><time>2026-04-16T08:32:02.555Z</time></trkpt><trkpt lat="45.7713761" lon="8.750785"><ele>306.0</ele><time>2026-04-16T08:32:03.545Z</time></trkpt><trkpt lat="45.7714859" lon="8.7506714"><ele>308.0</ele><time>2026-04-16T08:32:04.548Z</time></trkpt><trkpt lat="45.7715765" lon="8.750567"><ele>310.0</ele><time>2026-04-16T08:32:05.543Z</time></trkpt><trkpt lat="45.7716668" lon="8.7504871"><ele>312.0</ele><time>2026-04-16T08:32:06.55Z</time></trkpt><trkpt lat="45.771781" lon="8.7503918"><ele>311.0</ele><time>2026-04-16T08:32:07.549Z</time></trkpt><trkpt lat="45.7718687" lon="8.7503169"><ele>310.0</ele><time>2026-04-16T08:32:08.549Z</time></trkpt><trkpt lat="45.7719734" lon="8.7502381"><ele>309.0</ele><time>2026-04-16T08:32:09.554Z</time></trkpt><trkpt lat="45.7720997" lon="8.7501543"><ele>308.0</ele><time>2026-04-16T08:32:10.544Z</time></trkpt><trkpt lat="45.7722247" lon="8.7500773"><ele>308.0</ele><time>2026-04-16T08:32:11.552Z</time></trkpt><trkpt lat="45.7723448" lon="8.7500081"><ele>308.0</ele><time>2026-04-16T08:32:12.552Z</time></trkpt><trkpt lat="45.7724705" lon="8.7499407"><ele>308.0</ele><time>2026-04-16T08:32:13.551Z</time></trkpt><trkpt lat="45.7726019" lon="8.7498845"><ele>308.0</ele><time>2026-04-16T08:32:14.564Z</time></trkpt><trkpt lat="45.7727328" lon="8.7498258"><ele>305.75</ele><time>2026-04-16T08:32:15.563Z</time></trkpt><trkpt lat="45.7728627" lon="8.7497736"><ele>303.5</ele><time>2026-04-16T08:32:16.563Z</time></trkpt><trkpt lat="45.7729912" lon="8.7497238"><ele>301.25</ele><time>2026-04-16T08:32:17.56Z</time></trkpt><trkpt lat="45.7730948" lon="8.7496736"><ele>299.0</ele><time>2026-04-16T08:32:18.558Z</time></trkpt><trkpt lat="45.7731915" lon="8.7496062"><ele>299.0</ele><time>2026-04-16T08:32:19.565Z</time></trkpt><trkpt lat="45.7732723" lon="8.74953"><ele>299.0</ele><time>2026-04-16T08:32:20.565Z</time></trkpt><trkpt lat="45.7733462" lon="8.7494306"><ele>299.0</ele><time>2026-04-16T08:32:21.566Z</time></trkpt><trkpt lat="45.7734329" lon="8.7493115"><ele>299.0</ele><time>2026-04-16T08:32:22.564Z</time></trkpt><trkpt lat="45.7735149" lon="8.749188"><ele>299.0</ele><time>2026-04-16T08:32:23.565Z</time></trkpt><trkpt lat="45.7735909" lon="8.7490689"><ele>301.0</ele><time>2026-04-16T08:32:24.566Z</time></trkpt><trkpt lat="45.7736677" lon="8.7489531"><ele>303.0</ele><time>2026-04-16T08:32:25.565Z</time></trkpt><trkpt lat="45.773741" lon="8.7488339"><ele>305.0</ele><time>2026-04-16T08:32:26.575Z</time></trkpt><trkpt lat="45.773829" lon="8.7487216"><ele>307.0</ele><time>2026-04-16T08:32:27.567Z</time></trkpt><trkpt lat="45.7739201" lon="8.7486252"><ele>308.75</ele><time>2026-04-16T08:32:28.565Z</time></trkpt><trkpt lat="45.7740169" lon="8.7485133"><ele>310.5</ele><time>2026-04-16T08:32:29.561Z</time></trkpt><trkpt lat="45.7741136" lon="8.7484037"><ele>312.25</ele><time>2026-04-16T08:32:30.562Z</time></trkpt><trkpt lat="45.7742153" lon="8.748305"><ele>314.0</ele><time>2026-04-16T08:32:31.562Z</time></trkpt><trkpt lat="45.7743072" lon="8.7482116"><ele>313.0</ele><time>2026-04-16T08:32:32.561Z</time></trkpt><trkpt lat="45.7743873" lon="8.7481185"><ele>312.0</ele><time>2026-04-16T08:32:33.559Z</time></trkpt><trkpt lat="45.7744748" lon="8.7480184"><ele>311.0</ele><time>2026-04-16T08:32:34.558Z</time></trkpt><trkpt lat="45.7745516" lon="8.7479246"><ele>310.0</ele><time>2026-04-16T08:32:35.559Z</time></trkpt><trkpt lat="45.7746211" lon="8.7478558"><ele>309.0</ele><time>2026-04-16T08:32:36.555Z</time></trkpt><trkpt lat="45.7746711" lon="8.7477902"><ele>309.0</ele><time>2026-04-16T08:32:37.563Z</time></trkpt><trkpt lat="45.774715" lon="8.7477235"><ele>309.0</ele><time>2026-04-16T08:32:38.552Z</time></trkpt><trkpt lat="45.774776" lon="8.7475849"><ele>309.0</ele><time>2026-04-16T08:32:40.556Z</time></trkpt><trkpt lat="45.7748398" lon="8.7474871"><ele>309.0</ele><time>2026-04-16T08:32:42.562Z</time></trkpt><trkpt lat="45.7749373" lon="8.7474677"><ele>309.0</ele><time>2026-04-16T08:32:44.56Z</time></trkpt><trkpt lat="45.7750444" lon="8.7475168"><ele>309.3333333333333</ele><time>2026-04-16T08:32:46.559Z</time></trkpt><trkpt lat="45.7751115" lon="8.7475361"><ele>309.6666666666667</ele><time>2026-04-16T08:32:47.556Z</time></trkpt><trkpt lat="45.7751868" lon="8.7475527"><ele>310.0</ele><time>2026-04-16T08:32:48.562Z</time></trkpt><trkpt lat="45.7752755" lon="8.7475731"><ele>310.33333333333337</ele><time>2026-04-16T08:32:49.57Z</time></trkpt><trkpt lat="45.7753713" lon="8.7475834"><ele>310.6666666666667</ele><time>2026-04-16T08:32:50.567Z</time></trkpt><trkpt lat="45.7754627" lon="8.7476009"><ele>311.0</ele><time>2026-04-16T08:32:51.568Z</time></trkpt><trkpt lat="45.7755509" lon="8.7476161"><ele>312.2</ele><time>2026-04-16T08:32:52.562Z</time></trkpt><trkpt lat="45.7756319" lon="8.7476509"><ele>313.40000000000003</ele><time>2026-04-16T08:32:53.566Z</time></trkpt><trkpt lat="45.775709" lon="8.7477042"><ele>314.6</ele><time>2026-04-16T08:32:54.558Z</time></trkpt><trkpt lat="45.7757848" lon="8.7477926"><ele>315.8</ele><time>2026-04-16T08:32:55.558Z</time></trkpt><trkpt lat="45.7758595" lon="8.7479174"><ele>317.0</ele><time>2026-04-16T08:32:56.562Z</time></trkpt><trkpt lat="45.7759332" lon="8.7480612"><ele>317.0</ele><time>2026-04-16T08:32:57.586Z</time></trkpt><trkpt lat="45.7759965" lon="8.7481887"><ele>317.0</ele><time>2026-04-16T08:32:58.56Z</time></trkpt><trkpt lat="45.7760377" lon="8.7483149"><ele>317.0</ele><time>2026-04-16T08:32:59.563Z</time></trkpt><trkpt lat="45.7760719" lon="8.7484511"><ele>317.0</ele><time>2026-04-16T08:33:00.558Z</time></trkpt><trkpt lat="45.7760942" lon="8.7485856"><ele>317.0</ele><time>2026-04-16T08:33:01.558Z</time></trkpt><trkpt lat="45.7761221" lon="8.7487195"><ele>320.6</ele><time>2026-04-16T08:33:02.554Z</time></trkpt><trkpt lat="45.7761539" lon="8.7488512"><ele>324.2</ele><time>2026-04-16T08:33:03.56Z</time></trkpt><trkpt lat="45.7761837" lon="8.7489863"><ele>327.8</ele><time>2026-04-16T08:33:04.562Z</time></trkpt><trkpt lat="45.7762189" lon="8.7491162"><ele>331.4</ele><time>2026-04-16T08:33:05.559Z</time></trkpt><trkpt lat="45.7762759" lon="8.7492458"><ele>335.0</ele><time>2026-04-16T08:33:06.558Z</time></trkpt><trkpt lat="45.7763339" lon="8.7493488"><ele>333.4</ele><time>2026-04-16T08:33:07.556Z</time></trkpt><trkpt lat="45.7763795" lon="8.7494609"><ele>331.8</ele><time>2026-04-16T08:33:08.556Z</time></trkpt><trkpt lat="45.7764405" lon="8.7495923"><ele>330.20000000000005</ele><time>2026-04-16T08:33:09.56Z</time></trkpt><trkpt lat="45.7764941" lon="8.7497124"><ele>328.6</ele><time>2026-04-16T08:33:10.55Z</time></trkpt><trkpt lat="45.7765486" lon="8.7498365"><ele>327.0</ele><time>2026-04-16T08:33:11.551Z</time></trkpt><trkpt lat="45.7765892" lon="8.7499285"><ele>327.0</ele><time>2026-04-16T08:33:12.554Z</time></trkpt><trkpt lat="45.7766324" lon="8.7500097"><ele>327.0</ele><time>2026-04-16T08:33:13.557Z</time></trkpt><trkpt lat="45.7766826" lon="8.7500829"><ele>327.0</ele><time>2026-04-16T08:33:14.559Z</time></trkpt><trkpt lat="45.7767566" lon="8.7501489"><ele>327.0</ele><time>2026-04-16T08:33:15.559Z</time></trkpt><trkpt lat="45.7768469" lon="8.7502221"><ele>327.0</ele><time>2026-04-16T08:33:16.564Z</time></trkpt><trkpt lat="45.7769388" lon="8.7502737"><ele>327.0</ele><time>2026-04-16T08:33:17.565Z</time></trkpt><trkpt lat="45.7770203" lon="8.750327"><ele>326.0</ele><time>2026-04-16T08:33:18.564Z</time></trkpt><trkpt lat="45.7771096" lon="8.7503961"><ele>325.0</ele><time>2026-04-16T08:33:19.566Z</time></trkpt><trkpt lat="45.7771978" lon="8.7504778"><ele>324.0</ele><time>2026-04-16T08:33:20.567Z</time></trkpt><trkpt lat="45.7772827" lon="8.7505604"><ele>323.0</ele><time>2026-04-16T08:33:21.567Z</time></trkpt><trkpt lat="45.7773659" lon="8.7506418"><ele>322.0</ele><time>2026-04-16T08:33:22.568Z</time></trkpt><trkpt lat="45.7774454" lon="8.750731"><ele>322.0</ele><time>2026-04-16T08:33:23.566Z</time></trkpt><trkpt lat="45.77751" lon="8.750809"><ele>322.0</ele><time>2026-04-16T08:33:24.569Z</time></trkpt><trkpt lat="45.7775739" lon="8.7508743"><ele>322.0</ele><time>2026-04-16T08:33:25.563Z</time></trkpt><trkpt lat="45.777636" lon="8.7509253"><ele>322.0</ele><time>2026-04-16T08:33:26.572Z</time></trkpt><trkpt lat="45.7776989" lon="8.7509683"><ele>322.0</ele><time>2026-04-16T08:33:27.581Z</time></trkpt><trkpt lat="45.7777666" lon="8.7510068"><ele>322.0</ele><time>2026-04-16T08:33:28.566Z</time></trkpt><trkpt lat="45.7778415" lon="8.751037"><ele>321.2857142857143</ele><time>2026-04-16T08:33:29.57Z</time></trkpt><trkpt lat="45.7779104" lon="8.7510528"><ele>320.57142857142856</ele><time>2026-04-16T08:33:30.572Z</time></trkpt><trkpt lat="45.7779828" lon="8.7510758"><ele>319.8571428571429</ele><time>2026-04-16T08:33:31.573Z</time></trkpt><trkpt lat="45.7780527" lon="8.7511046"><ele>319.1428571428571</ele><time>2026-04-16T08:33:32.573Z</time></trkpt><trkpt lat="45.778119" lon="8.7511415"><ele>318.42857142857144</ele><time>2026-04-16T08:33:33.578Z</time></trkpt><trkpt lat="45.778186" lon="8.7511782"><ele>317.7142857142857</ele><time>2026-04-16T08:33:34.573Z</time></trkpt><trkpt lat="45.7782501" lon="8.7512199"><ele>317.0</ele><time>2026-04-16T08:33:35.569Z</time></trkpt><trkpt lat="45.7783154" lon="8.7512778"><ele>317.0</ele><time>2026-04-16T08:33:36.571Z</time></trkpt><trkpt lat="45.778375" lon="8.7513661"><ele>317.0</ele><time>2026-04-16T08:33:37.563Z</time></trkpt><trkpt lat="45.7784313" lon="8.751476"><ele>317.0</ele><time>2026-04-16T08:33:38.576Z</time></trkpt><trkpt lat="45.7784661" lon="8.7516155"><ele>317.0</ele><time>2026-04-16T08:33:39.578Z</time></trkpt><trkpt lat="45.7784898" lon="8.7517604"><ele>317.0</ele><time>2026-04-16T08:33:40.57Z</time></trkpt><trkpt lat="45.7785145" lon="8.7519016"><ele>319.2</ele><time>2026-04-16T08:33:41.579Z</time></trkpt><trkpt lat="45.7785273" lon="8.7520549"><ele>321.4</ele><time>2026-04-16T08:33:42.567Z</time></trkpt><trkpt lat="45.7785314" lon="8.752201"><ele>323.59999999999997</ele><time>2026-04-16T08:33:43.571Z</time></trkpt><trkpt lat="45.7785453" lon="8.7523285"><ele>325.79999999999995</ele><time>2026-04-16T08:33:44.569Z</time></trkpt><trkpt lat="45.7785524" lon="8.7524549"><ele>328.0</ele><time>2026-04-16T08:33:45.568Z</time></trkpt><trkpt lat="45.7785739" lon="8.7525651"><ele>328.0</ele><time>2026-04-16T08:33:46.573Z</time></trkpt><trkpt lat="45.778608" lon="8.7526569"><ele>328.0</ele><time>2026-04-16T08:33:47.571Z</time></trkpt><trkpt lat="45.7786739" lon="8.7527322"><ele>328.0</ele><time>2026-04-16T08:33:48.569Z</time></trkpt><trkpt lat="45.7787569" lon="8.7528043"><ele>328.0</ele><time>2026-04-16T08:33:49.565Z</time></trkpt><trkpt lat="45.7788429" lon="8.7528746"><ele>328.0</ele><time>2026-04-16T08:33:50.567Z</time></trkpt><trkpt lat="45.7789282" lon="8.7529512"><ele>326.59999999999997</ele><time>2026-04-16T08:33:51.568Z</time></trkpt><trkpt lat="45.7790136" lon="8.7530493"><ele>325.2</ele><time>2026-04-16T08:33:52.562Z</time></trkpt><trkpt lat="45.7790948" lon="8.7531696"><ele>323.8</ele><time>2026-04-16T08:33:53.562Z</time></trkpt><trkpt lat="45.7791578" lon="8.7532833"><ele>322.4</ele><time>2026-04-16T08:33:54.562Z</time></trkpt><trkpt lat="45.7791994" lon="8.7533884"><ele>321.0</ele><time>2026-04-16T08:33:55.563Z</time></trkpt><trkpt lat="45.7792391" lon="8.753474"><ele>320.0</ele><time>2026-04-16T08:33:56.567Z</time></trkpt><trkpt lat="45.7792778" lon="8.7535507"><ele>319.0</ele><time>2026-04-16T08:33:57.566Z</time></trkpt><trkpt lat="45.7793858" lon="8.7536249"><ele>318.0</ele><time>2026-04-16T08:33:59.568Z</time></trkpt><trkpt lat="45.7794644" lon="8.7536143"><ele>317.0</ele><time>2026-04-16T08:34:00.574Z</time></trkpt><trkpt lat="45.779557" lon="8.7535938"><ele>316.0</ele><time>2026-04-16T08:34:01.573Z</time></trkpt><trkpt lat="45.7796578" lon="8.7535662"><ele>316.40000000000003</ele><time>2026-04-16T08:34:02.578Z</time></trkpt><trkpt lat="45.7797668" lon="8.7535346"><ele>316.8</ele><time>2026-04-16T08:34:03.566Z</time></trkpt><trkpt lat="45.7798713" lon="8.7534984"><ele>317.20000000000005</ele><time>2026-04-16T08:34:04.572Z</time></trkpt><trkpt lat="45.7799746" lon="8.7534526"><ele>317.6</ele><time>2026-04-16T08:34:05.566Z</time></trkpt><trkpt lat="45.7800864" lon="8.7533975"><ele>318.0</ele><time>2026-04-16T08:34:06.573Z</time></trkpt><trkpt lat="45.7801879" lon="8.7533274"><ele>318.0</ele><time>2026-04-16T08:34:07.57Z</time></trkpt><trkpt lat="45.7802946" lon="8.7532429"><ele>318.0</ele><time>2026-04-16T08:34:08.561Z</time></trkpt><trkpt lat="45.7803954" lon="8.7531472"><ele>318.0</ele><time>2026-04-16T08:34:09.566Z</time></trkpt><trkpt lat="45.7804892" lon="8.7530423"><ele>318.0</ele><time>2026-04-16T08:34:10.559Z</time></trkpt><trkpt lat="45.7805844" lon="8.7529514"><ele>318.0</ele><time>2026-04-16T08:34:11.555Z</time></trkpt><trkpt lat="45.78067" lon="8.7528526"><ele>318.0</ele><time>2026-04-16T08:34:12.56Z</time></trkpt><trkpt lat="45.7807615" lon="8.752747"><ele>318.0</ele><time>2026-04-16T08:34:13.559Z</time></trkpt><trkpt lat="45.7808397" lon="8.7526554"><ele>318.0</ele><time>2026-04-16T08:34:14.559Z</time></trkpt><trkpt lat="45.7809102" lon="8.7525772"><ele>318.0</ele><time>2026-04-16T08:34:15.561Z</time></trkpt><trkpt lat="45.780972" lon="8.752502"><ele>317.6666666666667</ele><time>2026-04-16T08:34:16.565Z</time></trkpt><trkpt lat="45.7810297" lon="8.7524229"><ele>317.3333333333333</ele><time>2026-04-16T08:34:17.566Z</time></trkpt><trkpt lat="45.7810898" lon="8.7523502"><ele>317.0</ele><time>2026-04-16T08:34:18.567Z</time></trkpt><trkpt lat="45.7811525" lon="8.7523015"><ele>316.66666666666663</ele><time>2026-04-16T08:34:19.567Z</time></trkpt><trkpt lat="45.7812212" lon="8.7522779"><ele>316.3333333333333</ele><time>2026-04-16T08:34:20.572Z</time></trkpt><trkpt lat="45.7813245" lon="8.7522897"><ele>316.0</ele><time>2026-04-16T08:34:22.565Z</time></trkpt><trkpt lat="45.7813329" lon="8.7521319"><ele>316.0</ele><time>2026-04-16T08:34:31.555Z</time></trkpt><trkpt lat="45.7812966" lon="8.7519436"><ele>316.0</ele><time>2026-04-16T08:34:33.561Z</time></trkpt><trkpt lat="45.781277" lon="8.7518241"><ele>316.0</ele><time>2026-04-16T08:34:34.566Z</time></trkpt><trkpt lat="45.7812516" lon="8.7516781"><ele>316.0</ele><time>2026-04-16T08:34:35.564Z</time></trkpt><trkpt lat="45.7812174" lon="8.7515175"><ele>316.0</ele><time>2026-04-16T08:34:36.572Z</time></trkpt><trkpt lat="45.7811902" lon="8.7513427"><ele>316.0</ele><time>2026-04-16T08:34:37.567Z</time></trkpt><trkpt lat="45.7811684" lon="8.7511526"><ele>316.0</ele><time>2026-04-16T08:34:38.575Z</time></trkpt><trkpt lat="45.7811471" lon="8.750959"><ele>316.0</ele><time>2026-04-16T08:34:39.579Z</time></trkpt><trkpt lat="45.7811177" lon="8.7507726"><ele>316.0</ele><time>2026-04-16T08:34:40.579Z</time></trkpt><trkpt lat="45.7810861" lon="8.7505866"><ele>315.75</ele><time>2026-04-16T08:34:41.572Z</time></trkpt><trkpt lat="45.7810515" lon="8.750405"><ele>315.5</ele><time>2026-04-16T08:34:42.574Z</time></trkpt><trkpt lat="45.7810135" lon="8.7502148"><ele>315.25</ele><time>2026-04-16T08:34:43.57Z</time></trkpt><trkpt lat="45.7809773" lon="8.7500213"><ele>315.0</ele><time>2026-04-16T08:34:44.572Z</time></trkpt><trkpt lat="45.7809429" lon="8.7498221"><ele>317.0</ele><time>2026-04-16T08:34:45.571Z</time></trkpt><trkpt lat="45.7809113" lon="8.7496169"><ele>319.0</ele><time>2026-04-16T08:34:46.571Z</time></trkpt><trkpt lat="45.7808946" lon="8.7494273"><ele>321.0</ele><time>2026-04-16T08:34:47.575Z</time></trkpt><trkpt lat="45.7808789" lon="8.7492221"><ele>323.0</ele><time>2026-04-16T08:34:48.57Z</time></trkpt><trkpt lat="45.7808548" lon="8.7490248"><ele>323.0</ele><time>2026-04-16T08:34:49.569Z</time></trkpt><trkpt lat="45.7808221" lon="8.7488273"><ele>323.0</ele><time>2026-04-16T08:34:50.572Z</time></trkpt><trkpt lat="45.780753" lon="8.7486452"><ele>323.0</ele><time>2026-04-16T08:34:51.566Z</time></trkpt><trkpt lat="45.7806685" lon="8.748474"><ele>323.0</ele><time>2026-04-16T08:34:52.578Z</time></trkpt><trkpt lat="45.7805727" lon="8.7483057"><ele>322.4</ele><time>2026-04-16T08:34:53.581Z</time></trkpt><trkpt lat="45.7804934" lon="8.7481632"><ele>321.79999999999995</ele><time>2026-04-16T08:34:54.571Z</time></trkpt><trkpt lat="45.7804193" lon="8.748037"><ele>321.2</ele><time>2026-04-16T08:34:55.578Z</time></trkpt><trkpt lat="45.7803715" lon="8.7479428"><ele>320.6</ele><time>2026-04-16T08:34:56.574Z</time></trkpt><trkpt lat="45.7802714" lon="8.7478741"><ele>320.0</ele><time>2026-04-16T08:34:58.566Z</time></trkpt><trkpt lat="45.7801912" lon="8.7479598"><ele>324.2</ele><time>2026-04-16T08:35:00.591Z</time></trkpt><trkpt lat="45.7801482" lon="8.7481323"><ele>328.4</ele><time>2026-04-16T08:35:02.569Z</time></trkpt><trkpt lat="45.7801427" lon="8.7482559"><ele>332.6</ele><time>2026-04-16T08:35:03.576Z</time></trkpt><trkpt lat="45.7801389" lon="8.7484105"><ele>336.8</ele><time>2026-04-16T08:35:04.565Z</time></trkpt><trkpt lat="45.780148" lon="8.7485848"><ele>341.0</ele><time>2026-04-16T08:35:05.563Z</time></trkpt><trkpt lat="45.7801641" lon="8.74878"><ele>341.75</ele><time>2026-04-16T08:35:06.559Z</time></trkpt><trkpt lat="45.7801721" lon="8.7489799"><ele>342.5</ele><time>2026-04-16T08:35:07.563Z</time></trkpt><trkpt lat="45.7801758" lon="8.7491689"><ele>343.25</ele><time>2026-04-16T08:35:08.562Z</time></trkpt><trkpt lat="45.7801703" lon="8.7493412"><ele>344.0</ele><time>2026-04-16T08:35:09.555Z</time></trkpt><trkpt lat="45.7801632" lon="8.7494856"><ele>344.0</ele><time>2026-04-16T08:35:10.556Z</time></trkpt><trkpt lat="45.7801419" lon="8.7496091"><ele>344.0</ele><time>2026-04-16T08:35:11.559Z</time></trkpt><trkpt lat="45.7800726" lon="8.7497204"><ele>344.0</ele><time>2026-04-16T08:35:13.556Z</time></trkpt><trkpt lat="45.7799909" lon="8.7495887"><ele>344.0</ele><time>2026-04-16T08:35:15.553Z</time></trkpt><trkpt lat="45.7799319" lon="8.7494439"><ele>344.0</ele><time>2026-04-16T08:35:16.548Z</time></trkpt><trkpt lat="45.7798702" lon="8.7492904"><ele>344.0</ele><time>2026-04-16T08:35:17.559Z</time></trkpt><trkpt lat="45.7798017" lon="8.7491342"><ele>344.0</ele><time>2026-04-16T08:35:18.551Z</time></trkpt><trkpt lat="45.7797302" lon="8.7489857"><ele>344.0</ele><time>2026-04-16T08:35:19.555Z</time></trkpt><trkpt lat="45.7796625" lon="8.7488226"><ele>344.0</ele><time>2026-04-16T08:35:20.556Z</time></trkpt><trkpt lat="45.779613" lon="8.7486515"><ele>343.25</ele><time>2026-04-16T08:35:21.558Z</time></trkpt><trkpt lat="45.7795874" lon="8.7484715"><ele>342.5</ele><time>2026-04-16T08:35:22.553Z</time></trkpt><trkpt lat="45.7795745" lon="8.7482448"><ele>341.75</ele><time>2026-04-16T08:35:23.555Z</time></trkpt><trkpt lat="45.7795644" lon="8.7480248"><ele>341.0</ele><time>2026-04-16T08:35:24.554Z</time></trkpt><trkpt lat="45.7795518" lon="8.7478284"><ele>339.6</ele><time>2026-04-16T08:35:25.561Z</time></trkpt><trkpt lat="45.7795324" lon="8.7476615"><ele>338.20000000000005</ele><time>2026-04-16T08:35:26.566Z</time></trkpt><trkpt lat="45.779502" lon="8.7475191"><ele>336.79999999999995</ele><time>2026-04-16T08:35:27.564Z</time></trkpt><trkpt lat="45.779449" lon="8.7474057"><ele>335.4</ele><time>2026-04-16T08:35:28.571Z</time></trkpt><trkpt lat="45.7793861" lon="8.7473136"><ele>334.0</ele><time>2026-04-16T08:35:29.572Z</time></trkpt><trkpt lat="45.7793128" lon="8.7472069"><ele>340.0</ele><time>2026-04-16T08:35:30.57Z</time></trkpt><trkpt lat="45.7792369" lon="8.7470901"><ele>346.0</ele><time>2026-04-16T08:35:31.591Z</time></trkpt><trkpt lat="45.7791642" lon="8.7469765"><ele>352.0</ele><time>2026-04-16T08:35:32.577Z</time></trkpt><trkpt lat="45.7790967" lon="8.7468427"><ele>358.0</ele><time>2026-04-16T08:35:33.583Z</time></trkpt><trkpt lat="45.7790471" lon="8.7466899"><ele>358.0</ele><time>2026-04-16T08:35:34.565Z</time></trkpt><trkpt lat="45.7790148" lon="8.7465191"><ele>358.0</ele><time>2026-04-16T08:35:35.575Z</time></trkpt><trkpt lat="45.7789948" lon="8.7463396"><ele>358.0</ele><time>2026-04-16T08:35:36.575Z</time></trkpt><trkpt lat="45.7789728" lon="8.7461434"><ele>358.0</ele><time>2026-04-16T08:35:37.571Z</time></trkpt><trkpt lat="45.7789518" lon="8.7459336"><ele>356.5</ele><time>2026-04-16T08:35:38.567Z</time></trkpt><trkpt lat="45.7789326" lon="8.7457068"><ele>355.0</ele><time>2026-04-16T08:35:39.57Z</time></trkpt><trkpt lat="45.7789355" lon="8.7454904"><ele>353.5</ele><time>2026-04-16T08:35:40.566Z</time></trkpt><trkpt lat="45.7789514" lon="8.7452966"><ele>352.0</ele><time>2026-04-16T08:35:41.565Z</time></trkpt><trkpt lat="45.7789472" lon="8.745129"><ele>351.75</ele><time>2026-04-16T08:35:42.551Z</time></trkpt><trkpt lat="45.7789289" lon="8.744958"><ele>351.5</ele><time>2026-04-16T08:35:43.546Z</time></trkpt><trkpt lat="45.7789197" lon="8.7447937"><ele>351.25</ele><time>2026-04-16T08:35:44.55Z</time></trkpt><trkpt lat="45.7788747" lon="8.7446497"><ele>351.0</ele><time>2026-04-16T08:35:45.558Z</time></trkpt><trkpt lat="45.7787933" lon="8.7444819"><ele>349.25</ele><time>2026-04-16T08:35:46.566Z</time></trkpt><trkpt lat="45.7786947" lon="8.7443477"><ele>347.5</ele><time>2026-04-16T08:35:47.553Z</time></trkpt><trkpt lat="45.7786009" lon="8.7441959"><ele>345.75</ele><time>2026-04-16T08:35:48.564Z</time></trkpt><trkpt lat="45.7785095" lon="8.7440202"><ele>344.0</ele><time>2026-04-16T08:35:49.568Z</time></trkpt><trkpt lat="45.7784146" lon="8.7438557"><ele>349.0</ele><time>2026-04-16T08:35:50.563Z</time></trkpt><trkpt lat="45.778308" lon="8.7437303"><ele>354.0</ele><time>2026-04-16T08:35:51.563Z</time></trkpt><trkpt lat="45.7781926" lon="8.743618"><ele>359.0</ele><time>2026-04-16T08:35:52.571Z</time></trkpt><trkpt lat="45.7780629" lon="8.7435368"><ele>364.0</ele><time>2026-04-16T08:35:53.567Z</time></trkpt><trkpt lat="45.7779386" lon="8.7434687"><ele>364.0</ele><time>2026-04-16T08:35:54.571Z</time></trkpt><trkpt lat="45.7778369" lon="8.7434014"><ele>364.0</ele><time>2026-04-16T08:35:55.568Z</time></trkpt><trkpt lat="45.7777485" lon="8.7433491"><ele>364.0</ele><time>2026-04-16T08:35:56.571Z</time></trkpt><trkpt lat="45.7776573" lon="8.7432845"><ele>364.0</ele><time>2026-04-16T08:35:57.569Z</time></trkpt><trkpt lat="45.7775602" lon="8.7432252"><ele>364.0</ele><time>2026-04-16T08:35:58.569Z</time></trkpt><trkpt lat="45.7774747" lon="8.7431498"><ele>366.8333333333333</ele><time>2026-04-16T08:35:59.568Z</time></trkpt><trkpt lat="45.7773954" lon="8.7430813"><ele>369.66666666666663</ele><time>2026-04-16T08:36:00.564Z</time></trkpt><trkpt lat="45.7773259" lon="8.7430133"><ele>372.5</ele><time>2026-04-16T08:36:01.562Z</time></trkpt><trkpt lat="45.7772601" lon="8.7429637"><ele>375.3333333333333</ele><time>2026-04-16T08:36:02.578Z</time></trkpt><trkpt lat="45.7772026" lon="8.742908"><ele>378.1666666666667</ele><time>2026-04-16T08:36:03.562Z</time></trkpt><trkpt lat="45.7771473" lon="8.7428552"><ele>381.0</ele><time>2026-04-16T08:36:04.567Z</time></trkpt><trkpt lat="45.7770935" lon="8.7428012"><ele>381.0</ele><time>2026-04-16T08:36:05.56Z</time></trkpt><trkpt lat="45.7769875" lon="8.7426996"><ele>381.0</ele><time>2026-04-16T08:36:07.561Z</time></trkpt><trkpt lat="45.7769337" lon="8.7426494"><ele>381.0</ele><time>2026-04-16T08:36:08.56Z</time></trkpt><trkpt lat="45.7768897" lon="8.7425799"><ele>381.0</ele><time>2026-04-16T08:36:09.562Z</time></trkpt><trkpt lat="45.7768409" lon="8.7425023"><ele>381.0</ele><time>2026-04-16T08:36:10.55Z</time></trkpt><trkpt lat="45.7767891" lon="8.742409"><ele>381.0</ele><time>2026-04-16T08:36:11.552Z</time></trkpt><trkpt lat="45.7767177" lon="8.7423108"><ele>380.8333333333333</ele><time>2026-04-16T08:36:12.542Z</time></trkpt><trkpt lat="45.7766703" lon="8.7421911"><ele>380.6666666666667</ele><time>2026-04-16T08:36:13.551Z</time></trkpt><trkpt lat="45.7766311" lon="8.7420731"><ele>380.5</ele><time>2026-04-16T08:36:14.546Z</time></trkpt><trkpt lat="45.7766029" lon="8.741949"><ele>380.33333333333337</ele><time>2026-04-16T08:36:15.546Z</time></trkpt><trkpt lat="45.776601" lon="8.7418352"><ele>380.1666666666667</ele><time>2026-04-16T08:36:16.545Z</time></trkpt><trkpt lat="45.7766337" lon="8.7417201"><ele>380.0</ele><time>2026-04-16T08:36:17.547Z</time></trkpt><trkpt lat="45.7766643" lon="8.7416182"><ele>381.0</ele><time>2026-04-16T08:36:18.55Z</time></trkpt><trkpt lat="45.7766986" lon="8.7415364"><ele>382.0</ele><time>2026-04-16T08:36:19.549Z</time></trkpt><trkpt lat="45.7767101" lon="8.7414329"><ele>383.0</ele><time>2026-04-16T08:36:20.548Z</time></trkpt><trkpt lat="45.7767176" lon="8.7412807"><ele>384.0</ele><time>2026-04-16T08:36:22.549Z</time></trkpt><trkpt lat="45.7766668" lon="8.7411806"><ele>384.99999999999994</ele><time>2026-04-16T08:36:24.548Z</time></trkpt><trkpt lat="45.7765625" lon="8.7411062"><ele>386.0</ele><time>2026-04-16T08:36:26.549Z</time></trkpt><trkpt lat="45.7764983" lon="8.7410704"><ele>386.0</ele><time>2026-04-16T08:36:27.55Z</time></trkpt><trkpt lat="45.7763917" lon="8.7410527"><ele>386.0</ele><time>2026-04-16T08:36:29.546Z</time></trkpt><trkpt lat="45.776285" lon="8.7410428"><ele>386.0</ele><time>2026-04-16T08:36:31.546Z</time></trkpt><trkpt lat="45.7762014" lon="8.7410131"><ele>386.0</ele><time>2026-04-16T08:36:33.559Z</time></trkpt><trkpt lat="45.7760632" lon="8.7410316"><ele>386.0</ele><time>2026-04-16T08:36:35.548Z</time></trkpt><trkpt lat="45.77598" lon="8.7410497"><ele>386.6</ele><time>2026-04-16T08:36:36.545Z</time></trkpt><trkpt lat="45.7758901" lon="8.741094"><ele>387.20000000000005</ele><time>2026-04-16T08:36:37.545Z</time></trkpt><trkpt lat="45.7757928" lon="8.741153"><ele>387.79999999999995</ele><time>2026-04-16T08:36:38.543Z</time></trkpt><trkpt lat="45.7757073" lon="8.741224"><ele>388.4</ele><time>2026-04-16T08:36:39.554Z</time></trkpt><trkpt lat="45.775612" lon="8.7413039"><ele>389.0</ele><time>2026-04-16T08:36:40.548Z</time></trkpt><trkpt lat="45.7755124" lon="8.7413607"><ele>389.0</ele><time>2026-04-16T08:36:41.546Z</time></trkpt><trkpt lat="45.7754189" lon="8.7414068"><ele>389.0</ele><time>2026-04-16T08:36:42.547Z</time></trkpt><trkpt lat="45.7753019" lon="8.7414738"><ele>389.0</ele><time>2026-04-16T08:36:43.548Z</time></trkpt><trkpt lat="45.7751923" lon="8.7415298"><ele>389.0</ele><time>2026-04-16T08:36:44.547Z</time></trkpt><trkpt lat="45.775099" lon="8.7415736"><ele>389.0</ele><time>2026-04-16T08:36:45.547Z</time></trkpt><trkpt lat="45.7749963" lon="8.7415945"><ele>389.99999999999994</ele><time>2026-04-16T08:36:46.546Z</time></trkpt><trkpt lat="45.7748989" lon="8.741601"><ele>391.0</ele><time>2026-04-16T08:36:47.544Z</time></trkpt><trkpt lat="45.7748254" lon="8.741582"><ele>392.0</ele><time>2026-04-16T08:36:48.547Z</time></trkpt><trkpt lat="45.7747441" lon="8.7415437"><ele>393.0</ele><time>2026-04-16T08:36:49.552Z</time></trkpt><trkpt lat="45.7746623" lon="8.7414981"><ele>393.99999999999994</ele><time>2026-04-16T08:36:50.554Z</time></trkpt><trkpt lat="45.7745891" lon="8.7414578"><ele>395.0</ele><time>2026-04-16T08:36:51.551Z</time></trkpt><trkpt lat="45.7745172" lon="8.7414164"><ele>395.0</ele><time>2026-04-16T08:36:52.555Z</time></trkpt><trkpt lat="45.7744557" lon="8.74136"><ele>395.0</ele><time>2026-04-16T08:36:53.552Z</time></trkpt><trkpt lat="45.7743922" lon="8.7413025"><ele>395.0</ele><time>2026-04-16T08:36:54.549Z</time></trkpt><trkpt lat="45.7743391" lon="8.7412315"><ele>395.0</ele><time>2026-04-16T08:36:55.552Z</time></trkpt><trkpt lat="45.7742937" lon="8.7411574"><ele>395.0</ele><time>2026-04-16T08:36:56.544Z</time></trkpt><trkpt lat="45.7742549" lon="8.7410649"><ele>395.0</ele><time>2026-04-16T08:36:57.548Z</time></trkpt><trkpt lat="45.7742253" lon="8.7409634"><ele>395.0</ele><time>2026-04-16T08:36:58.549Z</time></trkpt><trkpt lat="45.7742162" lon="8.7408508"><ele>394.4</ele><time>2026-04-16T08:36:59.543Z</time></trkpt><trkpt lat="45.7742176" lon="8.7407297"><ele>393.8</ele><time>2026-04-16T08:37:00.545Z</time></trkpt><trkpt lat="45.7742329" lon="8.7405958"><ele>393.20000000000005</ele><time>2026-04-16T08:37:01.544Z</time></trkpt><trkpt lat="45.7742539" lon="8.7404615"><ele>392.6</ele><time>2026-04-16T08:37:02.539Z</time></trkpt><trkpt lat="45.7742789" lon="8.7403197"><ele>392.0</ele><time>2026-04-16T08:37:03.542Z</time></trkpt><trkpt lat="45.7743052" lon="8.7401862"><ele>391.99999999999994</ele><time>2026-04-16T08:37:04.558Z</time></trkpt><trkpt lat="45.7743334" lon="8.7400693"><ele>392.0</ele><time>2026-04-16T08:37:05.54Z</time></trkpt><trkpt lat="45.7743654" lon="8.7399505"><ele>392.0</ele><time>2026-04-16T08:37:06.544Z</time></trkpt><trkpt lat="45.7743984" lon="8.739848"><ele>392.0</ele><time>2026-04-16T08:37:07.541Z</time></trkpt><trkpt lat="45.7744236" lon="8.7397615"><ele>391.99999999999994</ele><time>2026-04-16T08:37:08.544Z</time></trkpt><trkpt lat="45.7744428" lon="8.7395951"><ele>392.0</ele><time>2026-04-16T08:37:10.546Z</time></trkpt><trkpt lat="45.7744314" lon="8.7394451"><ele>393.25</ele><time>2026-04-16T08:37:12.547Z</time></trkpt><trkpt lat="45.7744405" lon="8.7392827"><ele>394.5</ele><time>2026-04-16T08:37:14.554Z</time></trkpt><trkpt lat="45.7744526" lon="8.7391005"><ele>395.75</ele><time>2026-04-16T08:37:16.547Z</time></trkpt><trkpt lat="45.7744552" lon="8.7389398"><ele>397.0</ele><time>2026-04-16T08:37:18.546Z</time></trkpt><trkpt lat="45.7744294" lon="8.7387928"><ele>397.0</ele><time>2026-04-16T08:37:20.544Z</time></trkpt><trkpt lat="45.7744373" lon="8.738662"><ele>397.0</ele><time>2026-04-16T08:37:22.541Z</time></trkpt><trkpt lat="45.774419" lon="8.7385085"><ele>397.0</ele><time>2026-04-16T08:37:24.544Z</time></trkpt><trkpt lat="45.7743917" lon="8.7383576"><ele>397.0</ele><time>2026-04-16T08:37:26.548Z</time></trkpt><trkpt lat="45.7743774" lon="8.7382064"><ele>397.0</ele><time>2026-04-16T08:37:28.547Z</time></trkpt><trkpt lat="45.7743058" lon="8.7380749"><ele>397.6666666666667</ele><time>2026-04-16T08:37:30.542Z</time></trkpt><trkpt lat="45.774241" lon="8.7380104"><ele>398.33333333333337</ele><time>2026-04-16T08:37:31.547Z</time></trkpt><trkpt lat="45.7741589" lon="8.7379528"><ele>399.0</ele><time>2026-04-16T08:37:32.543Z</time></trkpt><trkpt lat="45.7740753" lon="8.7378992"><ele>399.66666666666663</ele><time>2026-04-16T08:37:33.546Z</time></trkpt><trkpt lat="45.7740031" lon="8.7378488"><ele>400.3333333333333</ele><time>2026-04-16T08:37:34.545Z</time></trkpt><trkpt lat="45.7739343" lon="8.737797"><ele>401.0</ele><time>2026-04-16T08:37:35.563Z</time></trkpt><trkpt lat="45.7738695" lon="8.7377465"><ele>401.0</ele><time>2026-04-16T08:37:36.546Z</time></trkpt><trkpt lat="45.7738111" lon="8.7376982"><ele>401.0</ele><time>2026-04-16T08:37:37.548Z</time></trkpt><trkpt lat="45.7737231" lon="8.7376097"><ele>401.0</ele><time>2026-04-16T08:37:39.56Z</time></trkpt><trkpt lat="45.773661" lon="8.7375325"><ele>401.0</ele><time>2026-04-16T08:38:01.557Z</time></trkpt><trkpt lat="45.7735939" lon="8.7374658"><ele>401.0</ele><time>2026-04-16T08:38:03.544Z</time></trkpt><trkpt lat="45.7735136" lon="8.7373477"><ele>401.0</ele><time>2026-04-16T08:38:05.534Z</time></trkpt><trkpt lat="45.7734594" lon="8.7372695"><ele>401.0</ele><time>2026-04-16T08:38:07.532Z</time></trkpt><trkpt lat="45.7734572" lon="8.7371385"><ele>401.0</ele><time>2026-04-16T08:38:09.542Z</time></trkpt><trkpt lat="45.773488" lon="8.7369882"><ele>401.0</ele><time>2026-04-16T08:38:11.537Z</time></trkpt><trkpt lat="45.773556" lon="8.7369027"><ele>401.0</ele><time>2026-04-16T08:38:13.542Z</time></trkpt><trkpt lat="45.7736545" lon="8.736872"><ele>399.6</ele><time>2026-04-16T08:38:15.529Z</time></trkpt><trkpt lat="45.7737773" lon="8.7368412"><ele>398.20000000000005</ele><time>2026-04-16T08:38:17.531Z</time></trkpt><trkpt lat="45.7738404" lon="8.7368329"><ele>396.79999999999995</ele><time>2026-04-16T08:38:18.533Z</time></trkpt><trkpt lat="45.7739468" lon="8.7367667"><ele>395.4</ele><time>2026-04-16T08:38:20.531Z</time></trkpt><trkpt lat="45.7740455" lon="8.7366946"><ele>394.0</ele><time>2026-04-16T08:38:22.536Z</time></trkpt><trkpt lat="45.7741039" lon="8.7366579"><ele>394.00000000000006</ele><time>2026-04-16T08:38:24.538Z</time></trkpt><trkpt lat="45.7741598" lon="8.7366075"><ele>394.0</ele><time>2026-04-16T08:38:26.545Z</time></trkpt><trkpt lat="45.7741397" lon="8.7364776"><ele>394.0</ele><time>2026-04-16T08:38:31.532Z</time></trkpt><trkpt lat="45.7740935" lon="8.7364054"><ele>394.0</ele><time>2026-04-16T08:38:32.529Z</time></trkpt><trkpt lat="45.7740656" lon="8.7363171"><ele>394.00000000000006</ele><time>2026-04-16T08:38:33.529Z</time></trkpt><trkpt lat="45.7740586" lon="8.736202"><ele>394.0</ele><time>2026-04-16T08:38:34.536Z</time></trkpt><trkpt lat="45.7740583" lon="8.7360949"><ele>393.50000000000006</ele><time>2026-04-16T08:38:35.525Z</time></trkpt><trkpt lat="45.7740759" lon="8.7359834"><ele>393.0</ele><time>2026-04-16T08:38:36.531Z</time></trkpt><trkpt lat="45.7740943" lon="8.7358816"><ele>392.5</ele><time>2026-04-16T08:38:37.547Z</time></trkpt><trkpt lat="45.7741102" lon="8.7357859"><ele>392.0</ele><time>2026-04-16T08:38:38.539Z</time></trkpt><trkpt lat="45.7741526" lon="8.7356376"><ele>391.50000000000006</ele><time>2026-04-16T08:38:40.533Z</time></trkpt><trkpt lat="45.7741827" lon="8.7355551"><ele>391.0</ele><time>2026-04-16T08:38:42.534Z</time></trkpt><trkpt lat="45.7741806" lon="8.735458"><ele>391.0</ele><time>2026-04-16T08:38:45.538Z</time></trkpt><trkpt lat="45.7741059" lon="8.7353826"><ele>391.0</ele><time>2026-04-16T08:38:48.544Z</time></trkpt><trkpt lat="45.7740359" lon="8.7353689"><ele>391.0</ele><time>2026-04-16T08:38:49.546Z</time></trkpt><trkpt lat="45.7739185" lon="8.7353768"><ele>391.0</ele><time>2026-04-16T08:38:50.541Z</time></trkpt><trkpt lat="45.7738057" lon="8.7353496"><ele>391.0</ele><time>2026-04-16T08:38:51.542Z</time></trkpt><trkpt lat="45.7736867" lon="8.7353206"><ele>391.00000000000006</ele><time>2026-04-16T08:38:52.546Z</time></trkpt><trkpt lat="45.7735925" lon="8.7353055"><ele>391.0</ele><time>2026-04-16T08:38:53.546Z</time></trkpt><trkpt lat="45.7735211" lon="8.735295"><ele>391.0</ele><time>2026-04-16T08:38:54.544Z</time></trkpt><trkpt lat="45.7734511" lon="8.7352575"><ele>391.0</ele><time>2026-04-16T08:38:55.545Z</time></trkpt><trkpt lat="45.7733803" lon="8.735218"><ele>391.00000000000006</ele><time>2026-04-16T08:38:56.553Z</time></trkpt><trkpt lat="45.7733127" lon="8.735183"><ele>391.0</ele><time>2026-04-16T08:38:57.554Z</time></trkpt><trkpt lat="45.7732452" lon="8.7351497"><ele>389.50000000000006</ele><time>2026-04-16T08:38:58.558Z</time></trkpt><trkpt lat="45.7731694" lon="8.7351235"><ele>388.0</ele><time>2026-04-16T08:38:59.555Z</time></trkpt><trkpt lat="45.7731049" lon="8.7351066"><ele>386.5</ele><time>2026-04-16T08:39:00.555Z</time></trkpt><trkpt lat="45.7729963" lon="8.7350517"><ele>385.0</ele><time>2026-04-16T08:39:02.557Z</time></trkpt><trkpt lat="45.7729132" lon="8.7349696"><ele>383.5</ele><time>2026-04-16T08:39:04.551Z</time></trkpt><trkpt lat="45.7728613" lon="8.7348679"><ele>382.0</ele><time>2026-04-16T08:39:06.55Z</time></trkpt><trkpt lat="45.7728227" lon="8.7347927"><ele>382.0</ele><time>2026-04-16T08:39:08.569Z</time></trkpt><trkpt lat="45.772758" lon="8.7347624"><ele>382.0</ele><time>2026-04-16T08:39:11.556Z</time></trkpt><trkpt lat="45.7727172" lon="8.7348342"><ele>382.0</ele><time>2026-04-16T08:39:13.554Z</time></trkpt><trkpt lat="45.7726854" lon="8.7349588"><ele>382.0</ele><time>2026-04-16T08:39:15.553Z</time></trkpt><trkpt lat="45.7726352" lon="8.7350946"><ele>382.0</ele><time>2026-04-16T08:39:17.549Z</time></trkpt><trkpt lat="45.7725571" lon="8.7352105"><ele>382.0</ele><time>2026-04-16T08:39:19.545Z</time></trkpt><trkpt lat="45.7724606" lon="8.7353094"><ele>382.0</ele><time>2026-04-16T08:39:21.541Z</time></trkpt><trkpt lat="45.7724021" lon="8.7353657"><ele>382.0</ele><time>2026-04-16T08:39:22.55Z</time></trkpt><trkpt lat="45.7723467" lon="8.7354293"><ele>382.0</ele><time>2026-04-16T08:39:23.543Z</time></trkpt><trkpt lat="45.7722876" lon="8.7355046"><ele>382.0</ele><time>2026-04-16T08:39:24.547Z</time></trkpt><trkpt lat="45.7722186" lon="8.7355855"><ele>382.0</ele><time>2026-04-16T08:39:25.543Z</time></trkpt><trkpt lat="45.77215" lon="8.7356797"><ele>382.0</ele><time>2026-04-16T08:39:26.55Z</time></trkpt><trkpt lat="45.7720866" lon="8.7357642"><ele>382.0</ele><time>2026-04-16T08:39:27.543Z</time></trkpt><trkpt lat="45.7720228" lon="8.7358641"><ele>382.0</ele><time>2026-04-16T08:39:28.545Z</time></trkpt><trkpt lat="45.771952" lon="8.7359765"><ele>382.0</ele><time>2026-04-16T08:39:29.545Z</time></trkpt><trkpt lat="45.7718622" lon="8.7360956"><ele>382.0</ele><time>2026-04-16T08:39:30.552Z</time></trkpt><trkpt lat="45.7717645" lon="8.7362089"><ele>382.0</ele><time>2026-04-16T08:39:31.554Z</time></trkpt><trkpt lat="45.7716721" lon="8.7363127"><ele>382.6</ele><time>2026-04-16T08:39:32.552Z</time></trkpt><trkpt lat="45.7715816" lon="8.7363945"><ele>383.20000000000005</ele><time>2026-04-16T08:39:33.551Z</time></trkpt><trkpt lat="45.7714945" lon="8.7364643"><ele>383.8</ele><time>2026-04-16T08:39:34.547Z</time></trkpt><trkpt lat="45.7714013" lon="8.7365408"><ele>384.4</ele><time>2026-04-16T08:39:35.553Z</time></trkpt><trkpt lat="45.7712898" lon="8.7366175"><ele>385.0</ele><time>2026-04-16T08:39:36.552Z</time></trkpt><trkpt lat="45.7711705" lon="8.7366653"><ele>385.0</ele><time>2026-04-16T08:39:37.553Z</time></trkpt><trkpt lat="45.771052" lon="8.7366453"><ele>385.0</ele><time>2026-04-16T08:39:38.554Z</time></trkpt><trkpt lat="45.7709329" lon="8.7365929"><ele>385.0</ele><time>2026-04-16T08:39:39.574Z</time></trkpt><trkpt lat="45.7708094" lon="8.7365207"><ele>385.0</ele><time>2026-04-16T08:39:40.56Z</time></trkpt><trkpt lat="45.7706721" lon="8.7364621"><ele>384.5</ele><time>2026-04-16T08:39:41.558Z</time></trkpt><trkpt lat="45.7705331" lon="8.7364148"><ele>384.0</ele><time>2026-04-16T08:39:42.56Z</time></trkpt><trkpt lat="45.7703932" lon="8.736395"><ele>383.5</ele><time>2026-04-16T08:39:43.568Z</time></trkpt><trkpt lat="45.7702626" lon="8.7364343"><ele>383.0</ele><time>2026-04-16T08:39:44.558Z</time></trkpt><trkpt lat="45.7701377" lon="8.7365395"><ele>383.0</ele><time>2026-04-16T08:39:45.563Z</time></trkpt><trkpt lat="45.7700193" lon="8.7366427"><ele>383.0</ele><time>2026-04-16T08:39:46.563Z</time></trkpt><trkpt lat="45.7699146" lon="8.7367626"><ele>383.0</ele><time>2026-04-16T08:39:47.57Z</time></trkpt><trkpt lat="45.7698329" lon="8.7369236"><ele>383.0</ele><time>2026-04-16T08:39:48.566Z</time></trkpt><trkpt lat="45.7697732" lon="8.7371219"><ele>381.0</ele><time>2026-04-16T08:39:49.558Z</time></trkpt><trkpt lat="45.7697318" lon="8.7373433"><ele>379.0</ele><time>2026-04-16T08:39:50.56Z</time></trkpt><trkpt lat="45.7696934" lon="8.7375462"><ele>377.0</ele><time>2026-04-16T08:39:51.564Z</time></trkpt><trkpt lat="45.7696606" lon="8.7377389"><ele>375.0</ele><time>2026-04-16T08:39:52.564Z</time></trkpt><trkpt lat="45.7696347" lon="8.7379148"><ele>375.0</ele><time>2026-04-16T08:39:53.558Z</time></trkpt><trkpt lat="45.769599" lon="8.7380492"><ele>375.0</ele><time>2026-04-16T08:39:54.564Z</time></trkpt><trkpt lat="45.7695548" lon="8.7381524"><ele>375.0</ele><time>2026-04-16T08:39:55.562Z</time></trkpt><trkpt lat="45.7695062" lon="8.73823"><ele>375.0</ele><time>2026-04-16T08:39:56.565Z</time></trkpt><trkpt lat="45.7694266" lon="8.7382851"><ele>375.0</ele><time>2026-04-16T08:39:57.562Z</time></trkpt><trkpt lat="45.7693391" lon="8.7383141"><ele>375.0</ele><time>2026-04-16T08:39:58.557Z</time></trkpt><trkpt lat="45.7692323" lon="8.73831"><ele>375.0</ele><time>2026-04-16T08:39:59.553Z</time></trkpt><trkpt lat="45.7690983" lon="8.7382785"><ele>375.0</ele><time>2026-04-16T08:40:00.561Z</time></trkpt><trkpt lat="45.768952" lon="8.7382375"><ele>375.0</ele><time>2026-04-16T08:40:01.571Z</time></trkpt><trkpt lat="45.7688172" lon="8.7382121"><ele>375.0</ele><time>2026-04-16T08:40:02.569Z</time></trkpt><trkpt lat="45.7686933" lon="8.7382071"><ele>375.0</ele><time>2026-04-16T08:40:03.567Z</time></trkpt><trkpt lat="45.7685924" lon="8.7382159"><ele>375.0</ele><time>2026-04-16T08:40:04.567Z</time></trkpt><trkpt lat="45.7684941" lon="8.7382141"><ele>375.0</ele><time>2026-04-16T08:40:05.562Z</time></trkpt><trkpt lat="45.768397" lon="8.7382036"><ele>375.0</ele><time>2026-04-16T08:40:06.57Z</time></trkpt><trkpt lat="45.7683082" lon="8.7381752"><ele>375.0</ele><time>2026-04-16T08:40:07.568Z</time></trkpt><trkpt lat="45.7682262" lon="8.7380912"><ele>375.5</ele><time>2026-04-16T08:40:08.565Z</time></trkpt><trkpt lat="45.768164" lon="8.7379617"><ele>376.0</ele><time>2026-04-16T08:40:09.556Z</time></trkpt><trkpt lat="45.7681127" lon="8.7377862"><ele>376.5</ele><time>2026-04-16T08:40:10.575Z</time></trkpt><trkpt lat="45.7680704" lon="8.7375978"><ele>377.0</ele><time>2026-04-16T08:40:11.557Z</time></trkpt><trkpt lat="45.7680278" lon="8.7373878"><ele>377.0</ele><time>2026-04-16T08:40:12.557Z</time></trkpt><trkpt lat="45.767986" lon="8.737172"><ele>377.0</ele><time>2026-04-16T08:40:13.551Z</time></trkpt><trkpt lat="45.7679468" lon="8.7369468"><ele>377.0</ele><time>2026-04-16T08:40:14.554Z</time></trkpt><trkpt lat="45.7679054" lon="8.7367175"><ele>376.6666666666667</ele><time>2026-04-16T08:40:15.552Z</time></trkpt><trkpt lat="45.7678667" lon="8.7364844"><ele>376.3333333333333</ele><time>2026-04-16T08:40:16.556Z</time></trkpt><trkpt lat="45.7678152" lon="8.7362407"><ele>376.0</ele><time>2026-04-16T08:40:17.543Z</time></trkpt><trkpt lat="45.767763" lon="8.7359991"><ele>376.0</ele><time>2026-04-16T08:40:18.549Z</time></trkpt><trkpt lat="45.7677193" lon="8.7357803"><ele>376.0</ele><time>2026-04-16T08:40:19.554Z</time></trkpt><trkpt lat="45.7676823" lon="8.7355819"><ele>376.0</ele><time>2026-04-16T08:40:20.553Z</time></trkpt><trkpt lat="45.7676411" lon="8.7354194"><ele>376.0</ele><time>2026-04-16T08:40:21.551Z</time></trkpt><trkpt lat="45.7675915" lon="8.7352402"><ele>372.66666666666663</ele><time>2026-04-16T08:40:22.555Z</time></trkpt><trkpt lat="45.7675345" lon="8.7350485"><ele>369.3333333333333</ele><time>2026-04-16T08:40:23.55Z</time></trkpt><trkpt lat="45.7674698" lon="8.7348375"><ele>366.0</ele><time>2026-04-16T08:40:24.554Z</time></trkpt><trkpt lat="45.7674073" lon="8.7346286"><ele>366.0</ele><time>2026-04-16T08:40:25.555Z</time></trkpt><trkpt lat="45.7673483" lon="8.7344234"><ele>366.0</ele><time>2026-04-16T08:40:26.551Z</time></trkpt><trkpt lat="45.7673033" lon="8.7342257"><ele>366.0</ele><time>2026-04-16T08:40:27.552Z</time></trkpt><trkpt lat="45.7672661" lon="8.7340448"><ele>366.0</ele><time>2026-04-16T08:40:28.558Z</time></trkpt><trkpt lat="45.7672299" lon="8.7338895"><ele>365.6</ele><time>2026-04-16T08:40:29.55Z</time></trkpt><trkpt lat="45.7671942" lon="8.7337558"><ele>365.20000000000005</ele><time>2026-04-16T08:40:30.55Z</time></trkpt><trkpt lat="45.7671698" lon="8.7336137"><ele>364.79999999999995</ele><time>2026-04-16T08:40:31.55Z</time></trkpt><trkpt lat="45.7671646" lon="8.7334829"><ele>364.4</ele><time>2026-04-16T08:40:32.555Z</time></trkpt><trkpt lat="45.7671842" lon="8.7333388"><ele>364.0</ele><time>2026-04-16T08:40:33.547Z</time></trkpt><trkpt lat="45.7672171" lon="8.7331858"><ele>362.75</ele><time>2026-04-16T08:40:34.55Z</time></trkpt><trkpt lat="45.7672803" lon="8.7330208"><ele>361.5</ele><time>2026-04-16T08:40:35.544Z</time></trkpt><trkpt lat="45.7673601" lon="8.7328339"><ele>360.25</ele><time>2026-04-16T08:40:36.547Z</time></trkpt><trkpt lat="45.7674358" lon="8.7326485"><ele>359.0</ele><time>2026-04-16T08:40:37.542Z</time></trkpt><trkpt lat="45.7675096" lon="8.7324663"><ele>359.25</ele><time>2026-04-16T08:40:38.543Z</time></trkpt><trkpt lat="45.7675733" lon="8.7322835"><ele>359.5</ele><time>2026-04-16T08:40:39.548Z</time></trkpt><trkpt lat="45.7676322" lon="8.7321045"><ele>359.75</ele><time>2026-04-16T08:40:40.542Z</time></trkpt><trkpt lat="45.7676833" lon="8.7319455"><ele>360.0</ele><time>2026-04-16T08:40:41.561Z</time></trkpt><trkpt lat="45.7677273" lon="8.7318092"><ele>360.0</ele><time>2026-04-16T08:40:42.541Z</time></trkpt><trkpt lat="45.7677694" lon="8.7316862"><ele>360.0</ele><time>2026-04-16T08:40:43.54Z</time></trkpt><trkpt lat="45.7678005" lon="8.7315764"><ele>360.0</ele><time>2026-04-16T08:40:44.535Z</time></trkpt><trkpt lat="45.7678091" lon="8.7314666"><ele>360.0</ele><time>2026-04-16T08:40:45.539Z</time></trkpt><trkpt lat="45.7678117" lon="8.7313702"><ele>360.0</ele><time>2026-04-16T08:40:46.531Z</time></trkpt><trkpt lat="45.7678024" lon="8.7312802"><ele>360.0</ele><time>2026-04-16T08:40:47.526Z</time></trkpt><trkpt lat="45.7676641" lon="8.7311941"><ele>358.5</ele><time>2026-04-16T08:40:49.54Z</time></trkpt><trkpt lat="45.7675392" lon="8.7311639"><ele>357.0</ele><time>2026-04-16T08:40:50.546Z</time></trkpt><trkpt lat="45.767399" lon="8.7311291"><ele>355.5</ele><time>2026-04-16T08:40:51.547Z</time></trkpt><trkpt lat="45.7672706" lon="8.7310852"><ele>354.0</ele><time>2026-04-16T08:40:52.551Z</time></trkpt><trkpt lat="45.7671311" lon="8.7310411"><ele>354.0</ele><time>2026-04-16T08:40:53.546Z</time></trkpt><trkpt lat="45.7669878" lon="8.7310006"><ele>354.0</ele><time>2026-04-16T08:40:54.551Z</time></trkpt><trkpt lat="45.7668488" lon="8.730969"><ele>354.0</ele><time>2026-04-16T08:40:55.544Z</time></trkpt><trkpt lat="45.7667278" lon="8.7309587"><ele>354.0</ele><time>2026-04-16T08:40:56.545Z</time></trkpt><trkpt lat="45.7666116" lon="8.7309952"><ele>351.3333333333333</ele><time>2026-04-16T08:40:57.547Z</time></trkpt><trkpt lat="45.7664814" lon="8.7310751"><ele>348.66666666666663</ele><time>2026-04-16T08:40:58.547Z</time></trkpt><trkpt lat="45.7663392" lon="8.7311656"><ele>346.0</ele><time>2026-04-16T08:40:59.548Z</time></trkpt><trkpt lat="45.7661882" lon="8.7312625"><ele>346.0</ele><time>2026-04-16T08:41:00.552Z</time></trkpt><trkpt lat="45.7660355" lon="8.731334"><ele>346.0</ele><time>2026-04-16T08:41:01.548Z</time></trkpt><trkpt lat="45.7658617" lon="8.7314095"><ele>346.0</ele><time>2026-04-16T08:41:02.552Z</time></trkpt><trkpt lat="45.7657024" lon="8.7314426"><ele>344.66666666666663</ele><time>2026-04-16T08:41:03.551Z</time></trkpt><trkpt lat="45.7655431" lon="8.7314792"><ele>343.3333333333333</ele><time>2026-04-16T08:41:04.557Z</time></trkpt><trkpt lat="45.7653836" lon="8.7315359"><ele>342.0</ele><time>2026-04-16T08:41:05.55Z</time></trkpt><trkpt lat="45.7652295" lon="8.7315854"><ele>339.3333333333333</ele><time>2026-04-16T08:41:06.551Z</time></trkpt><trkpt lat="45.7650555" lon="8.7316428"><ele>336.66666666666663</ele><time>2026-04-16T08:41:07.545Z</time></trkpt><trkpt lat="45.7648879" lon="8.7317053"><ele>334.0</ele><time>2026-04-16T08:41:08.551Z</time></trkpt><trkpt lat="45.7647292" lon="8.7317535"><ele>334.0</ele><time>2026-04-16T08:41:09.551Z</time></trkpt><trkpt lat="45.7645753" lon="8.7318193"><ele>334.0</ele><time>2026-04-16T08:41:10.543Z</time></trkpt><trkpt lat="45.7644402" lon="8.7318858"><ele>334.0</ele><time>2026-04-16T08:41:11.542Z</time></trkpt><trkpt lat="45.7643057" lon="8.7319522"><ele>334.0</ele><time>2026-04-16T08:41:12.561Z</time></trkpt><trkpt lat="45.764172" lon="8.7319992"><ele>334.2</ele><time>2026-04-16T08:41:13.544Z</time></trkpt><trkpt lat="45.7640604" lon="8.7320374"><ele>334.4</ele><time>2026-04-16T08:41:14.546Z</time></trkpt><trkpt lat="45.7639755" lon="8.7320951"><ele>334.6</ele><time>2026-04-16T08:41:15.545Z</time></trkpt><trkpt lat="45.7638985" lon="8.7321254"><ele>334.8</ele><time>2026-04-16T08:41:16.55Z</time></trkpt><trkpt lat="45.7637839" lon="8.732139"><ele>335.0</ele><time>2026-04-16T08:41:18.547Z</time></trkpt><trkpt lat="45.7637467" lon="8.7320618"><ele>335.0</ele><time>2026-04-16T08:41:20.557Z</time></trkpt><trkpt lat="45.7638174" lon="8.7319293"><ele>335.0</ele><time>2026-04-16T08:41:22.55Z</time></trkpt><trkpt lat="45.7639428" lon="8.7317458"><ele>335.0</ele><time>2026-04-16T08:41:23.547Z</time></trkpt><trkpt lat="45.7640479" lon="8.7315847"><ele>335.0</ele><time>2026-04-16T08:41:24.547Z</time></trkpt><trkpt lat="45.7641629" lon="8.7313955"><ele>334.6666666666667</ele><time>2026-04-16T08:41:25.547Z</time></trkpt><trkpt lat="45.7642905" lon="8.7312232"><ele>334.3333333333333</ele><time>2026-04-16T08:41:26.548Z</time></trkpt><trkpt lat="45.7644133" lon="8.7310629"><ele>334.0</ele><time>2026-04-16T08:41:27.548Z</time></trkpt><trkpt lat="45.7645148" lon="8.7309152"><ele>330.5</ele><time>2026-04-16T08:41:28.554Z</time></trkpt><trkpt lat="45.764615" lon="8.7307519"><ele>327.0</ele><time>2026-04-16T08:41:29.559Z</time></trkpt><trkpt lat="45.7647133" lon="8.7305851"><ele>323.5</ele><time>2026-04-16T08:41:30.556Z</time></trkpt><trkpt lat="45.7647976" lon="8.7304266"><ele>320.0</ele><time>2026-04-16T08:41:31.557Z</time></trkpt><trkpt lat="45.764876" lon="8.7302753"><ele>317.75</ele><time>2026-04-16T08:41:32.561Z</time></trkpt><trkpt lat="45.7649484" lon="8.7301336"><ele>315.5</ele><time>2026-04-16T08:41:33.558Z</time></trkpt><trkpt lat="45.7650169" lon="8.7299866"><ele>313.25</ele><time>2026-04-16T08:41:34.559Z</time></trkpt><trkpt lat="45.7650702" lon="8.7298218"><ele>311.0</ele><time>2026-04-16T08:41:35.554Z</time></trkpt><trkpt lat="45.7651238" lon="8.7296366"><ele>311.0</ele><time>2026-04-16T08:41:36.559Z</time></trkpt><trkpt lat="45.7651586" lon="8.7294384"><ele>311.0</ele><time>2026-04-16T08:41:37.558Z</time></trkpt><trkpt lat="45.7651832" lon="8.7292375"><ele>311.0</ele><time>2026-04-16T08:41:38.561Z</time></trkpt><trkpt lat="45.7652061" lon="8.7290451"><ele>311.0</ele><time>2026-04-16T08:41:39.572Z</time></trkpt><trkpt lat="45.7652392" lon="8.7288615"><ele>311.5</ele><time>2026-04-16T08:41:40.557Z</time></trkpt><trkpt lat="45.7652793" lon="8.7286804"><ele>312.0</ele><time>2026-04-16T08:41:41.557Z</time></trkpt><trkpt lat="45.7653242" lon="8.7284951"><ele>312.5</ele><time>2026-04-16T08:41:42.555Z</time></trkpt><trkpt lat="45.7653791" lon="8.7283245"><ele>313.0</ele><time>2026-04-16T08:41:43.567Z</time></trkpt><trkpt lat="45.7654457" lon="8.7281663"><ele>313.0</ele><time>2026-04-16T08:41:44.555Z</time></trkpt><trkpt lat="45.7655272" lon="8.7279997"><ele>313.0</ele><time>2026-04-16T08:41:45.555Z</time></trkpt><trkpt lat="45.7656127" lon="8.7278344"><ele>313.0</ele><time>2026-04-16T08:41:46.56Z</time></trkpt><trkpt lat="45.7657038" lon="8.7276743"><ele>313.0</ele><time>2026-04-16T08:41:47.55Z</time></trkpt><trkpt lat="45.7658058" lon="8.727516"><ele>310.3333333333333</ele><time>2026-04-16T08:41:48.555Z</time></trkpt><trkpt lat="45.7659282" lon="8.7273575"><ele>307.6666666666667</ele><time>2026-04-16T08:41:49.551Z</time></trkpt><trkpt lat="45.7660279" lon="8.7271871"><ele>305.0</ele><time>2026-04-16T08:41:50.554Z</time></trkpt><trkpt lat="45.7661364" lon="8.7270259"><ele>308.0</ele><time>2026-04-16T08:41:51.546Z</time></trkpt><trkpt lat="45.7662533" lon="8.726873"><ele>311.0</ele><time>2026-04-16T08:41:52.537Z</time></trkpt><trkpt lat="45.7663479" lon="8.7267177"><ele>314.0</ele><time>2026-04-16T08:41:53.539Z</time></trkpt><trkpt lat="45.7664339" lon="8.7265814"><ele>317.0</ele><time>2026-04-16T08:41:54.539Z</time></trkpt><trkpt lat="45.7665129" lon="8.7264503"><ele>317.0</ele><time>2026-04-16T08:41:55.535Z</time></trkpt><trkpt lat="45.7665833" lon="8.7262588"><ele>317.0</ele><time>2026-04-16T08:41:56.541Z</time></trkpt><trkpt lat="45.7666185" lon="8.7260646"><ele>317.0</ele><time>2026-04-16T08:41:57.531Z</time></trkpt><trkpt lat="45.7666269" lon="8.7258776"><ele>317.0</ele><time>2026-04-16T08:41:58.535Z</time></trkpt><trkpt lat="45.7666202" lon="8.7256808"><ele>314.75</ele><time>2026-04-16T08:41:59.534Z</time></trkpt><trkpt lat="45.7665942" lon="8.7254982"><ele>312.5</ele><time>2026-04-16T08:42:00.533Z</time></trkpt><trkpt lat="45.766577" lon="8.7252814"><ele>310.25</ele><time>2026-04-16T08:42:01.53Z</time></trkpt><trkpt lat="45.7665697" lon="8.7250509"><ele>308.0</ele><time>2026-04-16T08:42:02.535Z</time></trkpt><trkpt lat="45.7665493" lon="8.7248288"><ele>308.0</ele><time>2026-04-16T08:42:03.537Z</time></trkpt><trkpt lat="45.766547" lon="8.7245457"><ele>308.0</ele><time>2026-04-16T08:42:04.532Z</time></trkpt><trkpt lat="45.76653" lon="8.7243614"><ele>308.0</ele><time>2026-04-16T08:42:05.53Z</time></trkpt><trkpt lat="45.7665243" lon="8.7241715"><ele>307.33333333333337</ele><time>2026-04-16T08:42:06.532Z</time></trkpt><trkpt lat="45.7665329" lon="8.7239577"><ele>306.6666666666667</ele><time>2026-04-16T08:42:07.529Z</time></trkpt><trkpt lat="45.7665871" lon="8.7237303"><ele>306.0</ele><time>2026-04-16T08:42:08.533Z</time></trkpt><trkpt lat="45.7666212" lon="8.7235007"><ele>306.0</ele><time>2026-04-16T08:42:09.537Z</time></trkpt><trkpt lat="45.7666319" lon="8.723266"><ele>306.0</ele><time>2026-04-16T08:42:10.538Z</time></trkpt><trkpt lat="45.7666556" lon="8.7230329"><ele>306.0</ele><time>2026-04-16T08:42:11.534Z</time></trkpt><trkpt lat="45.766679" lon="8.7228172"><ele>302.6666666666667</ele><time>2026-04-16T08:42:12.535Z</time></trkpt><trkpt lat="45.7666956" lon="8.7225878"><ele>299.33333333333337</ele><time>2026-04-16T08:42:13.536Z</time></trkpt><trkpt lat="45.7667068" lon="8.7223559"><ele>296.0</ele><time>2026-04-16T08:42:14.555Z</time></trkpt><trkpt lat="45.7667238" lon="8.7221209"><ele>296.0</ele><time>2026-04-16T08:42:15.537Z</time></trkpt><trkpt lat="45.766738" lon="8.7218988"><ele>296.0</ele><time>2026-04-16T08:42:16.528Z</time></trkpt><trkpt lat="45.766751" lon="8.7216816"><ele>296.0</ele><time>2026-04-16T08:42:17.525Z</time></trkpt><trkpt lat="45.7667966" lon="8.7214881"><ele>293.75</ele><time>2026-04-16T08:42:18.537Z</time></trkpt><trkpt lat="45.7668214" lon="8.7212801"><ele>291.5</ele><time>2026-04-16T08:42:19.54Z</time></trkpt><trkpt lat="45.7668644" lon="8.7211038"><ele>289.25</ele><time>2026-04-16T08:42:20.534Z</time></trkpt><trkpt lat="45.7669507" lon="8.7209275"><ele>287.0</ele><time>2026-04-16T08:42:21.542Z</time></trkpt><trkpt lat="45.7670735" lon="8.7207482"><ele>287.0</ele><time>2026-04-16T08:42:22.538Z</time></trkpt><trkpt lat="45.7672364" lon="8.7205965"><ele>287.0</ele><time>2026-04-16T08:42:23.541Z</time></trkpt><trkpt lat="45.767433" lon="8.720478"><ele>287.0</ele><time>2026-04-16T08:42:24.54Z</time></trkpt><trkpt lat="45.7676082" lon="8.7203493"><ele>285.0</ele><time>2026-04-16T08:42:25.542Z</time></trkpt><trkpt lat="45.7677856" lon="8.7202077"><ele>283.0</ele><time>2026-04-16T08:42:26.549Z</time></trkpt><trkpt lat="45.7679277" lon="8.7200753"><ele>281.0</ele><time>2026-04-16T08:42:27.544Z</time></trkpt><trkpt lat="45.7680542" lon="8.7199576"><ele>281.0</ele><time>2026-04-16T08:42:28.545Z</time></trkpt><trkpt lat="45.7681883" lon="8.7198602"><ele>281.0</ele><time>2026-04-16T08:42:29.545Z</time></trkpt><trkpt lat="45.7683096" lon="8.7197587"><ele>281.0</ele><time>2026-04-16T08:42:30.543Z</time></trkpt><trkpt lat="45.7683998" lon="8.7197032"><ele>281.0</ele><time>2026-04-16T08:42:31.546Z</time></trkpt><trkpt lat="45.7684703" lon="8.7196941"><ele>279.8</ele><time>2026-04-16T08:42:32.541Z</time></trkpt><trkpt lat="45.7685435" lon="8.7196846"><ele>278.6</ele><time>2026-04-16T08:42:33.54Z</time></trkpt><trkpt lat="45.7686577" lon="8.7196834"><ele>277.4</ele><time>2026-04-16T08:42:35.548Z</time></trkpt><trkpt lat="45.7686814" lon="8.719594"><ele>276.2</ele><time>2026-04-16T08:42:37.54Z</time></trkpt><trkpt lat="45.7686503" lon="8.7194926"><ele>275.0</ele><time>2026-04-16T08:42:38.544Z</time></trkpt><trkpt lat="45.7685455" lon="8.7193475"><ele>272.0</ele><time>2026-04-16T08:42:40.556Z</time></trkpt><trkpt lat="45.768491" lon="8.7192094"><ele>269.0</ele><time>2026-04-16T08:42:41.554Z</time></trkpt><trkpt lat="45.7684405" lon="8.7190665"><ele>266.0</ele><time>2026-04-16T08:42:42.556Z</time></trkpt><trkpt lat="45.7684082" lon="8.7189136"><ele>263.0</ele><time>2026-04-16T08:42:43.559Z</time></trkpt><trkpt lat="45.7683998" lon="8.7187929"><ele>260.0</ele><time>2026-04-16T08:42:44.555Z</time></trkpt><trkpt lat="45.7683941" lon="8.7186669"><ele>260.0</ele><time>2026-04-16T08:42:45.589Z</time></trkpt><trkpt lat="45.7684189" lon="8.7185787"><ele>260.0</ele><time>2026-04-16T08:42:46.574Z</time></trkpt><trkpt lat="45.7684784" lon="8.718499"><ele>260.0</ele><time>2026-04-16T08:42:47.574Z</time></trkpt><trkpt lat="45.7685759" lon="8.7184534"><ele>260.0</ele><time>2026-04-16T08:42:48.564Z</time></trkpt><trkpt lat="45.7686895" lon="8.7184372"><ele>260.0</ele><time>2026-04-16T08:42:49.563Z</time></trkpt><trkpt lat="45.7687805" lon="8.7184452"><ele>258.6</ele><time>2026-04-16T08:42:50.565Z</time></trkpt><trkpt lat="45.7688852" lon="8.7184423"><ele>257.2</ele><time>2026-04-16T08:42:51.569Z</time></trkpt><trkpt lat="45.7689717" lon="8.7184162"><ele>255.8</ele><time>2026-04-16T08:42:52.565Z</time></trkpt><trkpt lat="45.7690342" lon="8.7183817"><ele>254.4</ele><time>2026-04-16T08:42:54.576Z</time></trkpt><trkpt lat="45.7690703" lon="8.7182704"><ele>253.0</ele><time>2026-04-16T08:42:57.575Z</time></trkpt><trkpt lat="45.7689905" lon="8.7181249"><ele>253.0</ele><time>2026-04-16T08:42:59.559Z</time></trkpt><trkpt lat="45.7689301" lon="8.7180369"><ele>253.0</ele><time>2026-04-16T08:43:00.56Z</time></trkpt><trkpt lat="45.7688549" lon="8.7179373"><ele>253.0</ele><time>2026-04-16T08:43:01.551Z</time></trkpt><trkpt lat="45.7687687" lon="8.7178089"><ele>253.0</ele><time>2026-04-16T08:43:02.551Z</time></trkpt><trkpt lat="45.7686768" lon="8.7176835"><ele>253.0</ele><time>2026-04-16T08:43:03.556Z</time></trkpt><trkpt lat="45.768572" lon="8.7175396"><ele>253.0</ele><time>2026-04-16T08:43:04.549Z</time></trkpt><trkpt lat="45.7684635" lon="8.7173875"><ele>253.0</ele><time>2026-04-16T08:43:05.546Z</time></trkpt><trkpt lat="45.7683627" lon="8.7172378"><ele>253.0</ele><time>2026-04-16T08:43:06.551Z</time></trkpt><trkpt lat="45.768271" lon="8.717106"><ele>253.0</ele><time>2026-04-16T08:43:07.551Z</time></trkpt><trkpt lat="45.7681935" lon="8.7169897"><ele>251.4</ele><time>2026-04-16T08:43:08.55Z</time></trkpt><trkpt lat="45.7681227" lon="8.7168733"><ele>249.8</ele><time>2026-04-16T08:43:09.558Z</time></trkpt><trkpt lat="45.7680551" lon="8.7167443"><ele>248.2</ele><time>2026-04-16T08:43:10.551Z</time></trkpt><trkpt lat="45.7680043" lon="8.716627"><ele>246.6</ele><time>2026-04-16T08:43:11.555Z</time></trkpt><trkpt lat="45.76797" lon="8.7165269"><ele>245.0</ele><time>2026-04-16T08:43:12.557Z</time></trkpt><trkpt lat="45.7679687" lon="8.7164022"><ele>245.0</ele><time>2026-04-16T08:43:13.561Z</time></trkpt><trkpt lat="45.7680071" lon="8.7162438"><ele>245.0</ele><time>2026-04-16T08:43:14.555Z</time></trkpt><trkpt lat="45.7680679" lon="8.7160638"><ele>245.0</ele><time>2026-04-16T08:43:15.579Z</time></trkpt><trkpt lat="45.7681548" lon="8.7158529"><ele>245.0</ele><time>2026-04-16T08:43:16.563Z</time></trkpt><trkpt lat="45.7682387" lon="8.7156303"><ele>244.0</ele><time>2026-04-16T08:43:17.558Z</time></trkpt><trkpt lat="45.7683279" lon="8.7153877"><ele>243.0</ele><time>2026-04-16T08:43:18.557Z</time></trkpt><trkpt lat="45.7684149" lon="8.7151431"><ele>242.0</ele><time>2026-04-16T08:43:19.562Z</time></trkpt><trkpt lat="45.7685122" lon="8.7149128"><ele>241.66666666666669</ele><time>2026-04-16T08:43:20.559Z</time></trkpt><trkpt lat="45.7686054" lon="8.7146741"><ele>241.33333333333331</ele><time>2026-04-16T08:43:21.559Z</time></trkpt><trkpt lat="45.7686837" lon="8.7144598"><ele>241.0</ele><time>2026-04-16T08:43:22.555Z</time></trkpt><trkpt lat="45.7687601" lon="8.7142524"><ele>241.0</ele><time>2026-04-16T08:43:23.559Z</time></trkpt><trkpt lat="45.7688267" lon="8.7140701"><ele>241.0</ele><time>2026-04-16T08:43:24.557Z</time></trkpt><trkpt lat="45.7688864" lon="8.7138851"><ele>241.0</ele><time>2026-04-16T08:43:25.56Z</time></trkpt><trkpt lat="45.7689459" lon="8.7137094"><ele>241.0</ele><time>2026-04-16T08:43:26.555Z</time></trkpt><trkpt lat="45.7690034" lon="8.7135054"><ele>241.25</ele><time>2026-04-16T08:43:27.553Z</time></trkpt><trkpt lat="45.7690497" lon="8.713318"><ele>241.5</ele><time>2026-04-16T08:43:28.548Z</time></trkpt><trkpt lat="45.7690938" lon="8.7131156"><ele>241.75</ele><time>2026-04-16T08:43:29.553Z</time></trkpt><trkpt lat="45.7691094" lon="8.7129027"><ele>242.0</ele><time>2026-04-16T08:43:30.548Z</time></trkpt><trkpt lat="45.7691297" lon="8.7126953"><ele>242.0</ele><time>2026-04-16T08:43:31.544Z</time></trkpt><trkpt lat="45.7691567" lon="8.7124666"><ele>242.0</ele><time>2026-04-16T08:43:32.538Z</time></trkpt><trkpt lat="45.7691751" lon="8.7122451"><ele>242.0</ele><time>2026-04-16T08:43:33.54Z</time></trkpt><trkpt lat="45.769203" lon="8.7120005"><ele>242.0</ele><time>2026-04-16T08:43:34.54Z</time></trkpt><trkpt lat="45.7692263" lon="8.7117537"><ele>242.0</ele><time>2026-04-16T08:43:35.545Z</time></trkpt><trkpt lat="45.7692552" lon="8.7115002"><ele>242.0</ele><time>2026-04-16T08:43:36.549Z</time></trkpt><trkpt lat="45.7692794" lon="8.7112759"><ele>241.33333333333334</ele><time>2026-04-16T08:43:37.557Z</time></trkpt><trkpt lat="45.7693157" lon="8.7110375"><ele>240.66666666666669</ele><time>2026-04-16T08:43:38.561Z</time></trkpt><trkpt lat="45.7693348" lon="8.7107842"><ele>240.0</ele><time>2026-04-16T08:43:39.562Z</time></trkpt><trkpt lat="45.7693578" lon="8.7105325"><ele>240.0</ele><time>2026-04-16T08:43:40.558Z</time></trkpt><trkpt lat="45.7693759" lon="8.7103131"><ele>240.0</ele><time>2026-04-16T08:43:41.557Z</time></trkpt><trkpt lat="45.7693981" lon="8.7100794"><ele>240.0</ele><time>2026-04-16T08:43:42.563Z</time></trkpt><trkpt lat="45.7694173" lon="8.7098818"><ele>240.4</ele><time>2026-04-16T08:43:43.557Z</time></trkpt><trkpt lat="45.7694199" lon="8.7096843"><ele>240.8</ele><time>2026-04-16T08:43:44.558Z</time></trkpt><trkpt lat="45.7694297" lon="8.7095509"><ele>241.2</ele><time>2026-04-16T08:43:45.555Z</time></trkpt><trkpt lat="45.7694543" lon="8.7094318"><ele>241.6</ele><time>2026-04-16T08:43:46.571Z</time></trkpt><trkpt lat="45.7694735" lon="8.7093225"><ele>242.0</ele><time>2026-04-16T08:43:47.542Z</time></trkpt><trkpt lat="45.769446" lon="8.7092097"><ele>242.25</ele><time>2026-04-16T08:43:48.547Z</time></trkpt><trkpt lat="45.7693831" lon="8.7091041"><ele>242.5</ele><time>2026-04-16T08:43:49.545Z</time></trkpt><trkpt lat="45.7693076" lon="8.7090036"><ele>242.75</ele><time>2026-04-16T08:43:50.548Z</time></trkpt><trkpt lat="45.7692124" lon="8.7088868"><ele>243.0</ele><time>2026-04-16T08:43:51.544Z</time></trkpt><trkpt lat="45.7691099" lon="8.7087516"><ele>243.0</ele><time>2026-04-16T08:43:52.548Z</time></trkpt><trkpt lat="45.7690202" lon="8.7086198"><ele>243.0</ele><time>2026-04-16T08:43:53.541Z</time></trkpt><trkpt lat="45.7689353" lon="8.7084699"><ele>243.0</ele><time>2026-04-16T08:43:54.548Z</time></trkpt><trkpt lat="45.768849" lon="8.7083083"><ele>243.0</ele><time>2026-04-16T08:43:55.552Z</time></trkpt><trkpt lat="45.7687702" lon="8.7081418"><ele>243.75</ele><time>2026-04-16T08:43:56.555Z</time></trkpt><trkpt lat="45.7686823" lon="8.7079847"><ele>244.5</ele><time>2026-04-16T08:43:57.556Z</time></trkpt><trkpt lat="45.7685969" lon="8.7078338"><ele>245.25</ele><time>2026-04-16T08:43:58.563Z</time></trkpt><trkpt lat="45.7685131" lon="8.7076914"><ele>246.0</ele><time>2026-04-16T08:43:59.565Z</time></trkpt><trkpt lat="45.7684279" lon="8.7075497"><ele>247.25</ele><time>2026-04-16T08:44:00.562Z</time></trkpt><trkpt lat="45.7683431" lon="8.7074099"><ele>248.5</ele><time>2026-04-16T08:44:01.552Z</time></trkpt><trkpt lat="45.7682629" lon="8.7072701"><ele>249.75</ele><time>2026-04-16T08:44:02.557Z</time></trkpt><trkpt lat="45.7681843" lon="8.7071426"><ele>251.0</ele><time>2026-04-16T08:44:03.55Z</time></trkpt><trkpt lat="45.7681133" lon="8.7070137"><ele>251.0</ele><time>2026-04-16T08:44:04.56Z</time></trkpt><trkpt lat="45.7680441" lon="8.7068855"><ele>251.0</ele><time>2026-04-16T08:44:05.549Z</time></trkpt><trkpt lat="45.7679832" lon="8.7067533"><ele>251.0</ele><time>2026-04-16T08:44:06.559Z</time></trkpt><trkpt lat="45.7679233" lon="8.7066204"><ele>251.0</ele><time>2026-04-16T08:44:07.558Z</time></trkpt><trkpt lat="45.7678529" lon="8.706483"><ele>251.00000000000003</ele><time>2026-04-16T08:44:08.559Z</time></trkpt><trkpt lat="45.7678006" lon="8.7063775"><ele>251.0</ele><time>2026-04-16T08:44:09.564Z</time></trkpt><trkpt lat="45.7677591" lon="8.7062834"><ele>251.0</ele><time>2026-04-16T08:44:10.561Z</time></trkpt><trkpt lat="45.7677248" lon="8.7062068"><ele>251.0</ele><time>2026-04-16T08:44:11.556Z</time></trkpt><trkpt lat="45.7676875" lon="8.7060742"><ele>251.00000000000003</ele><time>2026-04-16T08:44:13.552Z</time></trkpt><trkpt lat="45.7676552" lon="8.7059944"><ele>251.0</ele><time>2026-04-16T08:44:15.543Z</time></trkpt><trkpt lat="45.7675797" lon="8.705977"><ele>252.0</ele><time>2026-04-16T08:44:17.557Z</time></trkpt><trkpt lat="45.7674768" lon="8.7060905"><ele>253.00000000000003</ele><time>2026-04-16T08:44:19.556Z</time></trkpt><trkpt lat="45.7674121" lon="8.7061741"><ele>254.00000000000003</ele><time>2026-04-16T08:44:20.558Z</time></trkpt><trkpt lat="45.7673544" lon="8.7062646"><ele>255.0</ele><time>2026-04-16T08:44:21.563Z</time></trkpt><trkpt lat="45.7672875" lon="8.706346"><ele>256.0</ele><time>2026-04-16T08:44:22.556Z</time></trkpt><trkpt lat="45.7672377" lon="8.7064256"><ele>256.0</ele><time>2026-04-16T08:44:23.557Z</time></trkpt><trkpt lat="45.767188" lon="8.7065169"><ele>256.0</ele><time>2026-04-16T08:44:24.561Z</time></trkpt><trkpt lat="45.7671251" lon="8.7066221"><ele>256.0</ele><time>2026-04-16T08:44:25.562Z</time></trkpt><trkpt lat="45.7670643" lon="8.7067334"><ele>256.0</ele><time>2026-04-16T08:44:26.568Z</time></trkpt><trkpt lat="45.7669883" lon="8.7068476"><ele>256.0</ele><time>2026-04-16T08:44:27.561Z</time></trkpt><trkpt lat="45.7669014" lon="8.7069641"><ele>256.0</ele><time>2026-04-16T08:44:28.56Z</time></trkpt><trkpt lat="45.7668133" lon="8.7070914"><ele>256.0</ele><time>2026-04-16T08:44:29.56Z</time></trkpt><trkpt lat="45.7667302" lon="8.7072154"><ele>256.0</ele><time>2026-04-16T08:44:30.56Z</time></trkpt><trkpt lat="45.7666489" lon="8.7073338"><ele>256.0</ele><time>2026-04-16T08:44:31.554Z</time></trkpt><trkpt lat="45.7665658" lon="8.7074529"><ele>256.0</ele><time>2026-04-16T08:44:32.56Z</time></trkpt><trkpt lat="45.7664783" lon="8.7075659"><ele>256.0</ele><time>2026-04-16T08:44:33.565Z</time></trkpt><trkpt lat="45.766382" lon="8.7076847"><ele>256.0</ele><time>2026-04-16T08:44:34.568Z</time></trkpt><trkpt lat="45.7662777" lon="8.7078102"><ele>256.0</ele><time>2026-04-16T08:44:35.565Z</time></trkpt><trkpt lat="45.7661939" lon="8.7079238"><ele>256.25</ele><time>2026-04-16T08:44:36.572Z</time></trkpt><trkpt lat="45.7661082" lon="8.7080453"><ele>256.5</ele><time>2026-04-16T08:44:37.564Z</time></trkpt><trkpt lat="45.766017" lon="8.7081694"><ele>256.75</ele><time>2026-04-16T08:44:38.569Z</time></trkpt><trkpt lat="45.7659153" lon="8.7082895"><ele>257.0</ele><time>2026-04-16T08:44:39.578Z</time></trkpt><trkpt lat="45.7658127" lon="8.7083974"><ele>257.0</ele><time>2026-04-16T08:44:40.56Z</time></trkpt><trkpt lat="45.7657103" lon="8.7084837"><ele>257.0</ele><time>2026-04-16T08:44:41.574Z</time></trkpt><trkpt lat="45.7656089" lon="8.70854"><ele>257.0</ele><time>2026-04-16T08:44:42.575Z</time></trkpt><trkpt lat="45.765501" lon="8.7085893"><ele>257.0</ele><time>2026-04-16T08:44:43.573Z</time></trkpt><trkpt lat="45.765392" lon="8.7086444"><ele>257.0</ele><time>2026-04-16T08:44:44.575Z</time></trkpt><trkpt lat="45.7652846" lon="8.7087038"><ele>257.0</ele><time>2026-04-16T08:44:45.573Z</time></trkpt><trkpt lat="45.7651767" lon="8.7087638"><ele>257.0</ele><time>2026-04-16T08:44:46.571Z</time></trkpt><trkpt lat="45.7650592" lon="8.708823"><ele>257.0</ele><time>2026-04-16T08:44:47.561Z</time></trkpt><trkpt lat="45.7649446" lon="8.7088827"><ele>257.0</ele><time>2026-04-16T08:44:48.579Z</time></trkpt><trkpt lat="45.7648299" lon="8.7089485"><ele>257.0</ele><time>2026-04-16T08:44:49.566Z</time></trkpt><trkpt lat="45.7647148" lon="8.7090268"><ele>257.0</ele><time>2026-04-16T08:44:50.564Z</time></trkpt><trkpt lat="45.7645943" lon="8.7090983"><ele>257.0</ele><time>2026-04-16T08:44:51.558Z</time></trkpt><trkpt lat="45.7644766" lon="8.709169"><ele>256.25</ele><time>2026-04-16T08:44:52.558Z</time></trkpt><trkpt lat="45.764361" lon="8.7092434"><ele>255.5</ele><time>2026-04-16T08:44:53.552Z</time></trkpt><trkpt lat="45.7642389" lon="8.7093234"><ele>254.75</ele><time>2026-04-16T08:44:54.554Z</time></trkpt><trkpt lat="45.7641107" lon="8.7094024"><ele>254.0</ele><time>2026-04-16T08:44:55.557Z</time></trkpt><trkpt lat="45.7639734" lon="8.709479"><ele>254.0</ele><time>2026-04-16T08:44:56.558Z</time></trkpt><trkpt lat="45.7638346" lon="8.7095603"><ele>254.0</ele><time>2026-04-16T08:44:57.557Z</time></trkpt><trkpt lat="45.7636966" lon="8.7096246"><ele>254.0</ele><time>2026-04-16T08:44:58.558Z</time></trkpt><trkpt lat="45.7635518" lon="8.7096579"><ele>254.0</ele><time>2026-04-16T08:44:59.557Z</time></trkpt><trkpt lat="45.7633902" lon="8.7097015"><ele>253.66666666666669</ele><time>2026-04-16T08:45:00.56Z</time></trkpt><trkpt lat="45.7632224" lon="8.709745"><ele>253.33333333333331</ele><time>2026-04-16T08:45:01.554Z</time></trkpt><trkpt lat="45.7630741" lon="8.7097541"><ele>253.0</ele><time>2026-04-16T08:45:02.563Z</time></trkpt><trkpt lat="45.7629349" lon="8.7097969"><ele>253.0</ele><time>2026-04-16T08:45:03.558Z</time></trkpt><trkpt lat="45.7628036" lon="8.7098362"><ele>253.0</ele><time>2026-04-16T08:45:04.555Z</time></trkpt><trkpt lat="45.7626883" lon="8.7098599"><ele>253.0</ele><time>2026-04-16T08:45:05.55Z</time></trkpt><trkpt lat="45.7625627" lon="8.7099036"><ele>253.0</ele><time>2026-04-16T08:45:06.556Z</time></trkpt><trkpt lat="45.7624395" lon="8.7099284"><ele>254.0</ele><time>2026-04-16T08:45:07.547Z</time></trkpt><trkpt lat="45.7623092" lon="8.7099618"><ele>255.0</ele><time>2026-04-16T08:45:08.55Z</time></trkpt><trkpt lat="45.7621775" lon="8.7099938"><ele>256.0</ele><time>2026-04-16T08:45:09.546Z</time></trkpt><trkpt lat="45.7620416" lon="8.710006"><ele>257.0</ele><time>2026-04-16T08:45:10.548Z</time></trkpt><trkpt lat="45.7619032" lon="8.7100225"><ele>258.75</ele><time>2026-04-16T08:45:11.554Z</time></trkpt><trkpt lat="45.7617704" lon="8.7100358"><ele>260.5</ele><time>2026-04-16T08:45:12.556Z</time></trkpt><trkpt lat="45.7616447" lon="8.7100591"><ele>262.25</ele><time>2026-04-16T08:45:13.545Z</time></trkpt><trkpt lat="45.7615252" lon="8.7100961"><ele>264.0</ele><time>2026-04-16T08:45:14.545Z</time></trkpt><trkpt lat="45.7614146" lon="8.7101576"><ele>264.0</ele><time>2026-04-16T08:45:15.548Z</time></trkpt><trkpt lat="45.7613088" lon="8.7102345"><ele>264.0</ele><time>2026-04-16T08:45:16.547Z</time></trkpt><trkpt lat="45.7612365" lon="8.7102799"><ele>264.0</ele><time>2026-04-16T08:45:17.539Z</time></trkpt><trkpt lat="45.7611711" lon="8.7103181"><ele>264.0</ele><time>2026-04-16T08:45:18.537Z</time></trkpt><trkpt lat="45.761086" lon="8.710347"><ele>264.0</ele><time>2026-04-16T08:45:20.535Z</time></trkpt><trkpt lat="45.7610522" lon="8.7102669"><ele>264.0</ele><time>2026-04-16T08:45:22.529Z</time></trkpt><trkpt lat="45.7610374" lon="8.7101162"><ele>264.3333333333333</ele><time>2026-04-16T08:45:24.532Z</time></trkpt><trkpt lat="45.7610261" lon="8.7100215"><ele>264.6666666666667</ele><time>2026-04-16T08:45:25.533Z</time></trkpt><trkpt lat="45.7609978" lon="8.7098693"><ele>265.0</ele><time>2026-04-16T08:45:26.537Z</time></trkpt><trkpt lat="45.7609989" lon="8.7097574"><ele>265.33333333333337</ele><time>2026-04-16T08:45:27.536Z</time></trkpt><trkpt lat="45.7609699" lon="8.7096556"><ele>265.6666666666667</ele><time>2026-04-16T08:45:29.541Z</time></trkpt><trkpt lat="45.7608883" lon="8.7096967"><ele>266.0</ele><time>2026-04-16T08:45:30.545Z</time></trkpt><trkpt lat="45.7608042" lon="8.7097493"><ele>266.0</ele><time>2026-04-16T08:45:31.544Z</time></trkpt><trkpt lat="45.7607022" lon="8.7097596"><ele>266.0</ele><time>2026-04-16T08:45:32.545Z</time></trkpt><trkpt lat="45.760615" lon="8.7097918"><ele>266.0</ele><time>2026-04-16T08:45:33.543Z</time></trkpt><trkpt lat="45.760542" lon="8.7097627"><ele>266.0</ele><time>2026-04-16T08:45:34.545Z</time></trkpt><trkpt lat="45.7604785" lon="8.7097293"><ele>266.0</ele><time>2026-04-16T08:45:35.543Z</time></trkpt><trkpt lat="45.7604075" lon="8.7096884"><ele>266.0</ele><time>2026-04-16T08:45:36.54Z</time></trkpt><trkpt lat="45.7603335" lon="8.7096437"><ele>266.0</ele><time>2026-04-16T08:45:37.546Z</time></trkpt><trkpt lat="45.7602511" lon="8.7096139"><ele>266.0</ele><time>2026-04-16T08:45:38.545Z</time></trkpt><trkpt lat="45.760174" lon="8.7095796"><ele>266.0</ele><time>2026-04-16T08:45:39.554Z</time></trkpt><trkpt lat="45.760097" lon="8.7095322"><ele>266.0</ele><time>2026-04-16T08:45:40.55Z</time></trkpt><trkpt lat="45.7600136" lon="8.7094881"><ele>266.0</ele><time>2026-04-16T08:45:41.547Z</time></trkpt><trkpt lat="45.7599243" lon="8.7094231"><ele>266.0</ele><time>2026-04-16T08:45:42.543Z</time></trkpt><trkpt lat="45.7598276" lon="8.7093616"><ele>269.75</ele><time>2026-04-16T08:45:43.544Z</time></trkpt><trkpt lat="45.759715" lon="8.7093086"><ele>273.5</ele><time>2026-04-16T08:45:44.547Z</time></trkpt><trkpt lat="45.7596067" lon="8.7092398"><ele>277.25</ele><time>2026-04-16T08:45:45.547Z</time></trkpt><trkpt lat="45.7594837" lon="8.7091919"><ele>281.0</ele><time>2026-04-16T08:45:46.552Z</time></trkpt><trkpt lat="45.7593548" lon="8.7091753"><ele>281.40000000000003</ele><time>2026-04-16T08:45:47.551Z</time></trkpt><trkpt lat="45.7592338" lon="8.7091545"><ele>281.8</ele><time>2026-04-16T08:45:48.557Z</time></trkpt><trkpt lat="45.7591219" lon="8.7091293"><ele>282.20000000000005</ele><time>2026-04-16T08:45:49.547Z</time></trkpt><trkpt lat="45.7590157" lon="8.7091195"><ele>282.6</ele><time>2026-04-16T08:45:50.558Z</time></trkpt><trkpt lat="45.7589178" lon="8.7090998"><ele>283.0</ele><time>2026-04-16T08:45:51.543Z</time></trkpt><trkpt lat="45.7588291" lon="8.7090864"><ele>283.0</ele><time>2026-04-16T08:45:52.549Z</time></trkpt><trkpt lat="45.7587448" lon="8.7090715"><ele>283.0</ele><time>2026-04-16T08:45:53.548Z</time></trkpt><trkpt lat="45.758664" lon="8.709048"><ele>283.0</ele><time>2026-04-16T08:45:54.545Z</time></trkpt><trkpt lat="45.758602" lon="8.7090289"><ele>283.0</ele><time>2026-04-16T08:45:55.544Z</time></trkpt><trkpt lat="45.7585335" lon="8.709006"><ele>283.0</ele><time>2026-04-16T08:45:56.552Z</time></trkpt><trkpt lat="45.758459" lon="8.7089872"><ele>283.0</ele><time>2026-04-16T08:45:57.555Z</time></trkpt><trkpt lat="45.7583832" lon="8.7089683"><ele>283.8333333333333</ele><time>2026-04-16T08:45:58.555Z</time></trkpt><trkpt lat="45.7583016" lon="8.7089532"><ele>284.66666666666663</ele><time>2026-04-16T08:45:59.549Z</time></trkpt><trkpt lat="45.7582225" lon="8.7089451"><ele>285.5</ele><time>2026-04-16T08:46:00.552Z</time></trkpt><trkpt lat="45.7581463" lon="8.7089257"><ele>286.3333333333333</ele><time>2026-04-16T08:46:01.541Z</time></trkpt><trkpt lat="45.7580491" lon="8.7089112"><ele>287.1666666666667</ele><time>2026-04-16T08:46:02.54Z</time></trkpt><trkpt lat="45.7579563" lon="8.7089034"><ele>288.0</ele><time>2026-04-16T08:46:03.534Z</time></trkpt><trkpt lat="45.7578645" lon="8.7089116"><ele>288.0</ele><time>2026-04-16T08:46:04.549Z</time></trkpt><trkpt lat="45.7577778" lon="8.7089314"><ele>288.0</ele><time>2026-04-16T08:46:05.547Z</time></trkpt><trkpt lat="45.7576985" lon="8.7089558"><ele>288.0</ele><time>2026-04-16T08:46:06.547Z</time></trkpt><trkpt lat="45.7576129" lon="8.7089969"><ele>288.0</ele><time>2026-04-16T08:46:07.555Z</time></trkpt><trkpt lat="45.7575292" lon="8.7090468"><ele>288.0</ele><time>2026-04-16T08:46:08.555Z</time></trkpt><trkpt lat="45.7574457" lon="8.7090963"><ele>288.0</ele><time>2026-04-16T08:46:09.56Z</time></trkpt><trkpt lat="45.7573823" lon="8.7091335"><ele>290.2</ele><time>2026-04-16T08:46:10.553Z</time></trkpt><trkpt lat="45.757317" lon="8.7091788"><ele>292.4</ele><time>2026-04-16T08:46:11.552Z</time></trkpt><trkpt lat="45.7572427" lon="8.7092116"><ele>294.59999999999997</ele><time>2026-04-16T08:46:12.554Z</time></trkpt><trkpt lat="45.7571536" lon="8.7092486"><ele>296.8</ele><time>2026-04-16T08:46:13.548Z</time></trkpt><trkpt lat="45.7570498" lon="8.7092888"><ele>299.0</ele><time>2026-04-16T08:46:14.557Z</time></trkpt><trkpt lat="45.7569366" lon="8.7093344"><ele>299.4</ele><time>2026-04-16T08:46:15.553Z</time></trkpt><trkpt lat="45.7568264" lon="8.7093685"><ele>299.79999999999995</ele><time>2026-04-16T08:46:16.553Z</time></trkpt><trkpt lat="45.756726" lon="8.7093556"><ele>300.20000000000005</ele><time>2026-04-16T08:46:17.554Z</time></trkpt><trkpt lat="45.7566236" lon="8.7093097"><ele>300.6</ele><time>2026-04-16T08:46:18.549Z</time></trkpt><trkpt lat="45.7565267" lon="8.7092365"><ele>301.0</ele><time>2026-04-16T08:46:19.547Z</time></trkpt><trkpt lat="45.7564371" lon="8.709171"><ele>301.0</ele><time>2026-04-16T08:46:20.551Z</time></trkpt><trkpt lat="45.756347" lon="8.7090993"><ele>301.0</ele><time>2026-04-16T08:46:21.559Z</time></trkpt><trkpt lat="45.7562638" lon="8.7090404"><ele>301.0</ele><time>2026-04-16T08:46:22.552Z</time></trkpt><trkpt lat="45.7561854" lon="8.7089861"><ele>301.0</ele><time>2026-04-16T08:46:23.549Z</time></trkpt><trkpt lat="45.7561088" lon="8.7089194"><ele>301.0</ele><time>2026-04-16T08:46:24.55Z</time></trkpt><trkpt lat="45.7560442" lon="8.7088475"><ele>301.3333333333333</ele><time>2026-04-16T08:46:25.548Z</time></trkpt><trkpt lat="45.7559799" lon="8.7087767"><ele>301.66666666666663</ele><time>2026-04-16T08:46:26.557Z</time></trkpt><trkpt lat="45.7559191" lon="8.7087059"><ele>302.0</ele><time>2026-04-16T08:46:27.556Z</time></trkpt><trkpt lat="45.7558553" lon="8.7085992"><ele>302.3333333333333</ele><time>2026-04-16T08:46:29.551Z</time></trkpt><trkpt lat="45.7558577" lon="8.7085069"><ele>302.6666666666667</ele><time>2026-04-16T08:46:32.554Z</time></trkpt><trkpt lat="45.7559413" lon="8.7084743"><ele>303.0</ele><time>2026-04-16T08:46:34.552Z</time></trkpt><trkpt lat="45.7560041" lon="8.7084523"><ele>305.2</ele><time>2026-04-16T08:46:35.544Z</time></trkpt><trkpt lat="45.7560875" lon="8.7084345"><ele>307.4</ele><time>2026-04-16T08:46:36.545Z</time></trkpt><trkpt lat="45.7561911" lon="8.7084196"><ele>309.59999999999997</ele><time>2026-04-16T08:46:37.545Z</time></trkpt><trkpt lat="45.7563038" lon="8.7083958"><ele>311.8</ele><time>2026-04-16T08:46:38.543Z</time></trkpt><trkpt lat="45.7564107" lon="8.7083685"><ele>314.0</ele><time>2026-04-16T08:46:39.551Z</time></trkpt><trkpt lat="45.7565253" lon="8.7083373"><ele>314.0</ele><time>2026-04-16T08:46:40.544Z</time></trkpt><trkpt lat="45.7566391" lon="8.7083113"><ele>314.0</ele><time>2026-04-16T08:46:41.552Z</time></trkpt><trkpt lat="45.7567499" lon="8.7082824"><ele>314.0</ele><time>2026-04-16T08:46:42.547Z</time></trkpt><trkpt lat="45.7568423" lon="8.708249"><ele>314.0</ele><time>2026-04-16T08:46:43.547Z</time></trkpt><trkpt lat="45.7569049" lon="8.7082217"><ele>314.0</ele><time>2026-04-16T08:46:44.545Z</time></trkpt><trkpt lat="45.7569521" lon="8.708161"><ele>314.0</ele><time>2026-04-16T08:46:46.548Z</time></trkpt><trkpt lat="45.7568378" lon="8.7081205"><ele>314.0</ele><time>2026-04-16T08:46:49.569Z</time></trkpt><trkpt lat="45.756748" lon="8.7080913"><ele>314.0</ele><time>2026-04-16T08:46:50.552Z</time></trkpt><trkpt lat="45.7566256" lon="8.7080352"><ele>314.0</ele><time>2026-04-16T08:46:51.549Z</time></trkpt><trkpt lat="45.7564847" lon="8.7079661"><ele>314.0</ele><time>2026-04-16T08:46:52.557Z</time></trkpt><trkpt lat="45.756334" lon="8.7079029"><ele>314.0</ele><time>2026-04-16T08:46:53.545Z</time></trkpt><trkpt lat="45.7561699" lon="8.7078324"><ele>314.0</ele><time>2026-04-16T08:46:54.551Z</time></trkpt><trkpt lat="45.7559949" lon="8.7077533"><ele>318.0</ele><time>2026-04-16T08:46:55.553Z</time></trkpt><trkpt lat="45.7558201" lon="8.7076676"><ele>322.0</ele><time>2026-04-16T08:46:56.557Z</time></trkpt><trkpt lat="45.7556468" lon="8.7075635"><ele>326.0</ele><time>2026-04-16T08:46:57.554Z</time></trkpt><trkpt lat="45.7554663" lon="8.7074547"><ele>326.0</ele><time>2026-04-16T08:46:58.558Z</time></trkpt><trkpt lat="45.7552904" lon="8.7073514"><ele>326.0</ele><time>2026-04-16T08:46:59.556Z</time></trkpt><trkpt lat="45.7551298" lon="8.7072668"><ele>326.0</ele><time>2026-04-16T08:47:00.559Z</time></trkpt><trkpt lat="45.7549736" lon="8.7071858"><ele>324.6666666666667</ele><time>2026-04-16T08:47:01.559Z</time></trkpt><trkpt lat="45.7548229" lon="8.707123"><ele>323.3333333333333</ele><time>2026-04-16T08:47:02.562Z</time></trkpt><trkpt lat="45.7546732" lon="8.7070663"><ele>322.0</ele><time>2026-04-16T08:47:03.554Z</time></trkpt><trkpt lat="45.7545304" lon="8.7069946"><ele>322.0</ele><time>2026-04-16T08:47:04.554Z</time></trkpt><trkpt lat="45.7544062" lon="8.7069159"><ele>322.0</ele><time>2026-04-16T08:47:05.552Z</time></trkpt><trkpt lat="45.7542908" lon="8.7068353"><ele>322.0</ele><time>2026-04-16T08:47:06.558Z</time></trkpt><trkpt lat="45.7541879" lon="8.7067739"><ele>322.0</ele><time>2026-04-16T08:47:07.554Z</time></trkpt><trkpt lat="45.7540886" lon="8.706711"><ele>325.75</ele><time>2026-04-16T08:47:08.556Z</time></trkpt><trkpt lat="45.7539689" lon="8.7066431"><ele>329.5</ele><time>2026-04-16T08:47:09.559Z</time></trkpt><trkpt lat="45.7538469" lon="8.7065843"><ele>333.25</ele><time>2026-04-16T08:47:10.565Z</time></trkpt><trkpt lat="45.7537158" lon="8.70653"><ele>337.0</ele><time>2026-04-16T08:47:11.556Z</time></trkpt><trkpt lat="45.7535912" lon="8.7064801"><ele>335.75</ele><time>2026-04-16T08:47:12.555Z</time></trkpt><trkpt lat="45.75347" lon="8.70642"><ele>334.5</ele><time>2026-04-16T08:47:13.552Z</time></trkpt><trkpt lat="45.7533448" lon="8.706356"><ele>333.25</ele><time>2026-04-16T08:47:14.555Z</time></trkpt><trkpt lat="45.7532198" lon="8.7062919"><ele>332.0</ele><time>2026-04-16T08:47:15.544Z</time></trkpt><trkpt lat="45.7530816" lon="8.706227"><ele>332.0</ele><time>2026-04-16T08:47:16.55Z</time></trkpt><trkpt lat="45.7529486" lon="8.7061671"><ele>332.0</ele><time>2026-04-16T08:47:17.546Z</time></trkpt><trkpt lat="45.7528217" lon="8.7061093"><ele>332.0</ele><time>2026-04-16T08:47:18.552Z</time></trkpt><trkpt lat="45.7526989" lon="8.7060541"><ele>332.0</ele><time>2026-04-16T08:47:19.557Z</time></trkpt><trkpt lat="45.7525783" lon="8.7060163"><ele>329.75</ele><time>2026-04-16T08:47:20.563Z</time></trkpt><trkpt lat="45.7524521" lon="8.7059975"><ele>327.5</ele><time>2026-04-16T08:47:21.55Z</time></trkpt><trkpt lat="45.7523296" lon="8.7060069"><ele>325.25</ele><time>2026-04-16T08:47:22.565Z</time></trkpt><trkpt lat="45.7522244" lon="8.7060426"><ele>323.0</ele><time>2026-04-16T08:47:23.587Z</time></trkpt><trkpt lat="45.7521157" lon="8.7061067"><ele>323.0</ele><time>2026-04-16T08:47:24.558Z</time></trkpt><trkpt lat="45.7519934" lon="8.7061836"><ele>323.0</ele><time>2026-04-16T08:47:25.552Z</time></trkpt><trkpt lat="45.7518646" lon="8.7062806"><ele>323.0</ele><time>2026-04-16T08:47:26.553Z</time></trkpt><trkpt lat="45.7517382" lon="8.7063493"><ele>323.0</ele><time>2026-04-16T08:47:27.557Z</time></trkpt><trkpt lat="45.7516106" lon="8.7064156"><ele>325.0</ele><time>2026-04-16T08:47:28.553Z</time></trkpt><trkpt lat="45.7514757" lon="8.7064592"><ele>327.0</ele><time>2026-04-16T08:47:29.559Z</time></trkpt><trkpt lat="45.7513354" lon="8.7065"><ele>329.0</ele><time>2026-04-16T08:47:30.557Z</time></trkpt><trkpt lat="45.751198" lon="8.7065136"><ele>331.0</ele><time>2026-04-16T08:47:31.56Z</time></trkpt><trkpt lat="45.7510694" lon="8.7064932"><ele>332.25</ele><time>2026-04-16T08:47:32.559Z</time></trkpt><trkpt lat="45.7509443" lon="8.7064552"><ele>333.5</ele><time>2026-04-16T08:47:33.556Z</time></trkpt><trkpt lat="45.7508127" lon="8.7064023"><ele>334.75</ele><time>2026-04-16T08:47:34.559Z</time></trkpt><trkpt lat="45.7506814" lon="8.7063651"><ele>336.0</ele><time>2026-04-16T08:47:35.558Z</time></trkpt><trkpt lat="45.750546" lon="8.7063198"><ele>336.0</ele><time>2026-04-16T08:47:36.557Z</time></trkpt><trkpt lat="45.7504215" lon="8.7062795"><ele>336.0</ele><time>2026-04-16T08:47:37.555Z</time></trkpt><trkpt lat="45.7502818" lon="8.7062692"><ele>336.0</ele><time>2026-04-16T08:47:38.566Z</time></trkpt><trkpt lat="45.7501367" lon="8.7062687"><ele>336.0</ele><time>2026-04-16T08:47:39.567Z</time></trkpt><trkpt lat="45.7499923" lon="8.7062372"><ele>335.75</ele><time>2026-04-16T08:47:40.571Z</time></trkpt><trkpt lat="45.7498687" lon="8.7062017"><ele>335.5</ele><time>2026-04-16T08:47:41.561Z</time></trkpt><trkpt lat="45.7497332" lon="8.7061785"><ele>335.25</ele><time>2026-04-16T08:47:42.56Z</time></trkpt><trkpt lat="45.7495982" lon="8.7061267"><ele>335.0</ele><time>2026-04-16T08:47:43.561Z</time></trkpt><trkpt lat="45.7494789" lon="8.706066"><ele>336.75</ele><time>2026-04-16T08:47:44.565Z</time></trkpt><trkpt lat="45.7493673" lon="8.7059856"><ele>338.5</ele><time>2026-04-16T08:47:45.558Z</time></trkpt><trkpt lat="45.7492358" lon="8.7059313"><ele>340.25</ele><time>2026-04-16T08:47:46.566Z</time></trkpt><trkpt lat="45.7490913" lon="8.7058955"><ele>342.0</ele><time>2026-04-16T08:47:47.564Z</time></trkpt><trkpt lat="45.7489613" lon="8.7058694"><ele>342.0</ele><time>2026-04-16T08:47:48.567Z</time></trkpt><trkpt lat="45.7488456" lon="8.7058494"><ele>342.0</ele><time>2026-04-16T08:47:49.566Z</time></trkpt><trkpt lat="45.7487467" lon="8.7058329"><ele>342.0</ele><time>2026-04-16T08:47:50.568Z</time></trkpt><trkpt lat="45.748663" lon="8.7058134"><ele>342.0</ele><time>2026-04-16T08:47:51.57Z</time></trkpt><trkpt lat="45.7485932" lon="8.7057961"><ele>342.0</ele><time>2026-04-16T08:47:52.572Z</time></trkpt><trkpt lat="45.7485206" lon="8.7057738"><ele>342.0</ele><time>2026-04-16T08:47:54.563Z</time></trkpt><trkpt lat="45.7484575" lon="8.7057812"><ele>342.8</ele><time>2026-04-16T08:47:59.559Z</time></trkpt><trkpt lat="45.7483947" lon="8.7057376"><ele>343.6</ele><time>2026-04-16T08:48:04.569Z</time></trkpt><trkpt lat="45.7483214" lon="8.7056873"><ele>344.40000000000003</ele><time>2026-04-16T08:48:08.561Z</time></trkpt><trkpt lat="45.7482337" lon="8.7056428"><ele>345.20000000000005</ele><time>2026-04-16T08:48:11.563Z</time></trkpt><trkpt lat="45.7481495" lon="8.705582"><ele>346.0</ele><time>2026-04-16T08:48:13.554Z</time></trkpt><trkpt lat="45.7480242" lon="8.705537"><ele>346.0</ele><time>2026-04-16T08:48:15.553Z</time></trkpt><trkpt lat="45.7479402" lon="8.7055042"><ele>346.0</ele><time>2026-04-16T08:48:16.558Z</time></trkpt><trkpt lat="45.7478475" lon="8.7054753"><ele>346.0</ele><time>2026-04-16T08:48:17.547Z</time></trkpt><trkpt lat="45.7477346" lon="8.7054343"><ele>346.0</ele><time>2026-04-16T08:48:18.551Z</time></trkpt><trkpt lat="45.7476138" lon="8.7053806"><ele>346.0</ele><time>2026-04-16T08:48:19.549Z</time></trkpt><trkpt lat="45.7474977" lon="8.7053178"><ele>347.0</ele><time>2026-04-16T08:48:20.552Z</time></trkpt><trkpt lat="45.7473754" lon="8.7052522"><ele>348.0</ele><time>2026-04-16T08:48:21.551Z</time></trkpt><trkpt lat="45.747249" lon="8.7051814"><ele>349.0</ele><time>2026-04-16T08:48:22.549Z</time></trkpt><trkpt lat="45.7471006" lon="8.7051088"><ele>350.0</ele><time>2026-04-16T08:48:23.548Z</time></trkpt><trkpt lat="45.746952" lon="8.7050402"><ele>352.5</ele><time>2026-04-16T08:48:24.572Z</time></trkpt><trkpt lat="45.7468066" lon="8.7049888"><ele>355.0</ele><time>2026-04-16T08:48:25.557Z</time></trkpt><trkpt lat="45.7466692" lon="8.7049369"><ele>357.5</ele><time>2026-04-16T08:48:26.56Z</time></trkpt><trkpt lat="45.7465404" lon="8.704877"><ele>360.0</ele><time>2026-04-16T08:48:27.561Z</time></trkpt><trkpt lat="45.7464087" lon="8.704822"><ele>360.0</ele><time>2026-04-16T08:48:28.557Z</time></trkpt><trkpt lat="45.7462857" lon="8.7047793"><ele>360.0</ele><time>2026-04-16T08:48:29.557Z</time></trkpt><trkpt lat="45.7461782" lon="8.7047454"><ele>360.0</ele><time>2026-04-16T08:48:30.557Z</time></trkpt><trkpt lat="45.7460868" lon="8.7047166"><ele>360.0</ele><time>2026-04-16T08:48:31.565Z</time></trkpt><trkpt lat="45.7460009" lon="8.7046872"><ele>360.0</ele><time>2026-04-16T08:48:32.558Z</time></trkpt><trkpt lat="45.7459319" lon="8.7046526"><ele>360.0</ele><time>2026-04-16T08:48:33.559Z</time></trkpt><trkpt lat="45.7458449" lon="8.7045722"><ele>360.0</ele><time>2026-04-16T08:48:35.552Z</time></trkpt><trkpt lat="45.7458107" lon="8.704486"><ele>360.0</ele><time>2026-04-16T08:48:37.549Z</time></trkpt><trkpt lat="45.7458378" lon="8.7042985"><ele>360.0</ele><time>2026-04-16T08:48:39.545Z</time></trkpt><trkpt lat="45.745856" lon="8.7041696"><ele>360.0</ele><time>2026-04-16T08:48:40.555Z</time></trkpt><trkpt lat="45.7458688" lon="8.7040374"><ele>360.0</ele><time>2026-04-16T08:48:41.552Z</time></trkpt><trkpt lat="45.745853" lon="8.7039207"><ele>360.0</ele><time>2026-04-16T08:48:42.557Z</time></trkpt><trkpt lat="45.7458263" lon="8.7038124"><ele>360.0</ele><time>2026-04-16T08:48:43.553Z</time></trkpt><trkpt lat="45.7457806" lon="8.7037182"><ele>360.0</ele><time>2026-04-16T08:48:44.554Z</time></trkpt><trkpt lat="45.7457337" lon="8.7036221"><ele>360.0</ele><time>2026-04-16T08:48:45.55Z</time></trkpt><trkpt lat="45.7456706" lon="8.7035382"><ele>360.0</ele><time>2026-04-16T08:48:46.549Z</time></trkpt><trkpt lat="45.7455926" lon="8.7034526"><ele>362.75</ele><time>2026-04-16T08:48:47.546Z</time></trkpt><trkpt lat="45.7455031" lon="8.7033493"><ele>365.5</ele><time>2026-04-16T08:48:48.546Z</time></trkpt><trkpt lat="45.7454088" lon="8.7032365"><ele>368.25</ele><time>2026-04-16T08:48:49.548Z</time></trkpt><trkpt lat="45.745299" lon="8.7031172"><ele>371.0</ele><time>2026-04-16T08:48:50.553Z</time></trkpt><trkpt lat="45.7451851" lon="8.7029951"><ele>367.5</ele><time>2026-04-16T08:48:51.549Z</time></trkpt><trkpt lat="45.7450722" lon="8.7028772"><ele>364.0</ele><time>2026-04-16T08:48:52.552Z</time></trkpt><trkpt lat="45.7449763" lon="8.7027634"><ele>360.5</ele><time>2026-04-16T08:48:53.55Z</time></trkpt><trkpt lat="45.7448826" lon="8.7026537"><ele>357.0</ele><time>2026-04-16T08:48:54.554Z</time></trkpt><trkpt lat="45.7448" lon="8.7025523"><ele>357.0</ele><time>2026-04-16T08:48:55.569Z</time></trkpt><trkpt lat="45.7447296" lon="8.7024353"><ele>357.0</ele><time>2026-04-16T08:48:56.555Z</time></trkpt><trkpt lat="45.7446731" lon="8.7023456"><ele>357.0</ele><time>2026-04-16T08:48:57.554Z</time></trkpt><trkpt lat="45.7446199" lon="8.7022769"><ele>357.0</ele><time>2026-04-16T08:48:58.554Z</time></trkpt><trkpt lat="45.7445662" lon="8.7022062"><ele>357.0</ele><time>2026-04-16T08:48:59.553Z</time></trkpt><trkpt lat="45.7445026" lon="8.7021325"><ele>357.0</ele><time>2026-04-16T08:49:00.55Z</time></trkpt><trkpt lat="45.7444336" lon="8.7020658"><ele>355.20000000000005</ele><time>2026-04-16T08:49:01.554Z</time></trkpt><trkpt lat="45.74435" lon="8.7020161"><ele>353.4</ele><time>2026-04-16T08:49:02.554Z</time></trkpt><trkpt lat="45.7442504" lon="8.7019663"><ele>351.6</ele><time>2026-04-16T08:49:03.554Z</time></trkpt><trkpt lat="45.7441509" lon="8.7019159"><ele>349.79999999999995</ele><time>2026-04-16T08:49:04.559Z</time></trkpt><trkpt lat="45.7440495" lon="8.7018745"><ele>348.0</ele><time>2026-04-16T08:49:05.556Z</time></trkpt><trkpt lat="45.7439525" lon="8.7018379"><ele>348.0</ele><time>2026-04-16T08:49:06.559Z</time></trkpt><trkpt lat="45.7438572" lon="8.7018141"><ele>348.0</ele><time>2026-04-16T08:49:07.559Z</time></trkpt><trkpt lat="45.7437691" lon="8.7018214"><ele>348.0</ele><time>2026-04-16T08:49:08.562Z</time></trkpt><trkpt lat="45.7436872" lon="8.7018547"><ele>348.0</ele><time>2026-04-16T08:49:09.557Z</time></trkpt><trkpt lat="45.7435976" lon="8.7019181"><ele>348.0</ele><time>2026-04-16T08:49:10.569Z</time></trkpt><trkpt lat="45.7435081" lon="8.7019995"><ele>345.5</ele><time>2026-04-16T08:49:11.554Z</time></trkpt><trkpt lat="45.7434114" lon="8.7021014"><ele>343.0</ele><time>2026-04-16T08:49:12.551Z</time></trkpt><trkpt lat="45.7433175" lon="8.7022029"><ele>340.5</ele><time>2026-04-16T08:49:13.558Z</time></trkpt><trkpt lat="45.7432323" lon="8.7023294"><ele>338.0</ele><time>2026-04-16T08:49:14.562Z</time></trkpt><trkpt lat="45.743143" lon="8.7024703"><ele>338.0</ele><time>2026-04-16T08:49:15.558Z</time></trkpt><trkpt lat="45.7430597" lon="8.7025924"><ele>338.0</ele><time>2026-04-16T08:49:16.568Z</time></trkpt><trkpt lat="45.7429748" lon="8.702704"><ele>338.0</ele><time>2026-04-16T08:49:17.564Z</time></trkpt><trkpt lat="45.7428945" lon="8.7028036"><ele>338.0</ele><time>2026-04-16T08:49:18.562Z</time></trkpt><trkpt lat="45.7428185" lon="8.7029159"><ele>336.4</ele><time>2026-04-16T08:49:19.559Z</time></trkpt><trkpt lat="45.7427423" lon="8.7030247"><ele>334.79999999999995</ele><time>2026-04-16T08:49:20.56Z</time></trkpt><trkpt lat="45.7426696" lon="8.7031262"><ele>333.2</ele><time>2026-04-16T08:49:21.562Z</time></trkpt><trkpt lat="45.7425981" lon="8.7032037"><ele>331.6</ele><time>2026-04-16T08:49:22.568Z</time></trkpt><trkpt lat="45.7425086" lon="8.7032828"><ele>330.0</ele><time>2026-04-16T08:49:23.558Z</time></trkpt><trkpt lat="45.7424067" lon="8.7033693"><ele>330.0</ele><time>2026-04-16T08:49:24.559Z</time></trkpt><trkpt lat="45.7423" lon="8.7034677"><ele>330.0</ele><time>2026-04-16T08:49:25.555Z</time></trkpt><trkpt lat="45.7421921" lon="8.7035562"><ele>330.0</ele><time>2026-04-16T08:49:26.575Z</time></trkpt><trkpt lat="45.7420908" lon="8.7036432"><ele>330.0</ele><time>2026-04-16T08:49:27.554Z</time></trkpt><trkpt lat="45.7419918" lon="8.7037427"><ele>329.6</ele><time>2026-04-16T08:49:28.562Z</time></trkpt><trkpt lat="45.7419005" lon="8.7038394"><ele>329.2</ele><time>2026-04-16T08:49:29.557Z</time></trkpt><trkpt lat="45.7418239" lon="8.7039368"><ele>328.79999999999995</ele><time>2026-04-16T08:49:30.563Z</time></trkpt><trkpt lat="45.7417558" lon="8.7040564"><ele>328.4</ele><time>2026-04-16T08:49:31.546Z</time></trkpt><trkpt lat="45.7416932" lon="8.7041996"><ele>328.0</ele><time>2026-04-16T08:49:32.551Z</time></trkpt><trkpt lat="45.7416377" lon="8.7043328"><ele>326.59999999999997</ele><time>2026-04-16T08:49:33.551Z</time></trkpt><trkpt lat="45.7415765" lon="8.7044513"><ele>325.2</ele><time>2026-04-16T08:49:34.555Z</time></trkpt><trkpt lat="45.7415163" lon="8.704554"><ele>323.8</ele><time>2026-04-16T08:49:35.553Z</time></trkpt><trkpt lat="45.741465" lon="8.7046489"><ele>322.4</ele><time>2026-04-16T08:49:36.554Z</time></trkpt><trkpt lat="45.7414151" lon="8.7047728"><ele>321.0</ele><time>2026-04-16T08:49:37.56Z</time></trkpt><trkpt lat="45.741363" lon="8.7049232"><ele>321.0</ele><time>2026-04-16T08:49:38.558Z</time></trkpt><trkpt lat="45.7413126" lon="8.7050894"><ele>321.0</ele><time>2026-04-16T08:49:39.564Z</time></trkpt><trkpt lat="45.7412778" lon="8.7052687"><ele>321.0</ele><time>2026-04-16T08:49:40.57Z</time></trkpt><trkpt lat="45.7412428" lon="8.7054586"><ele>321.0</ele><time>2026-04-16T08:49:41.561Z</time></trkpt><trkpt lat="45.7412095" lon="8.705655"><ele>321.0</ele><time>2026-04-16T08:49:42.568Z</time></trkpt><trkpt lat="45.7411731" lon="8.7058304"><ele>321.0</ele><time>2026-04-16T08:49:43.565Z</time></trkpt><trkpt lat="45.7411359" lon="8.7060037"><ele>321.0</ele><time>2026-04-16T08:49:44.564Z</time></trkpt><trkpt lat="45.7410902" lon="8.706178"><ele>321.0</ele><time>2026-04-16T08:49:45.564Z</time></trkpt><trkpt lat="45.7410456" lon="8.7063449"><ele>318.25</ele><time>2026-04-16T08:49:46.561Z</time></trkpt><trkpt lat="45.7409973" lon="8.7065019"><ele>315.5</ele><time>2026-04-16T08:49:47.563Z</time></trkpt><trkpt lat="45.7409304" lon="8.7066373"><ele>312.75</ele><time>2026-04-16T08:49:48.562Z</time></trkpt><trkpt lat="45.7408536" lon="8.7067602"><ele>310.0</ele><time>2026-04-16T08:49:49.561Z</time></trkpt><trkpt lat="45.7407733" lon="8.7068877"><ele>310.25</ele><time>2026-04-16T08:49:50.563Z</time></trkpt><trkpt lat="45.7406898" lon="8.7070232"><ele>310.5</ele><time>2026-04-16T08:49:51.565Z</time></trkpt><trkpt lat="45.7406029" lon="8.7071571"><ele>310.75</ele><time>2026-04-16T08:49:52.562Z</time></trkpt><trkpt lat="45.7405193" lon="8.7072992"><ele>311.0</ele><time>2026-04-16T08:49:53.562Z</time></trkpt><trkpt lat="45.7404473" lon="8.7074348"><ele>311.0</ele><time>2026-04-16T08:49:54.56Z</time></trkpt><trkpt lat="45.7403803" lon="8.7075601"><ele>311.0</ele><time>2026-04-16T08:49:55.561Z</time></trkpt><trkpt lat="45.7403212" lon="8.7076723"><ele>311.0</ele><time>2026-04-16T08:49:56.555Z</time></trkpt><trkpt lat="45.7402613" lon="8.7077785"><ele>311.0</ele><time>2026-04-16T08:49:57.575Z</time></trkpt><trkpt lat="45.7402024" lon="8.7078783"><ele>311.0</ele><time>2026-04-16T08:49:58.554Z</time></trkpt><trkpt lat="45.7401493" lon="8.7079532"><ele>310.33333333333337</ele><time>2026-04-16T08:49:59.561Z</time></trkpt><trkpt lat="45.7401582" lon="8.7078634"><ele>309.6666666666667</ele><time>2026-04-16T08:50:03.56Z</time></trkpt><trkpt lat="45.7400865" lon="8.7078185"><ele>309.0</ele><time>2026-04-16T08:50:05.568Z</time></trkpt><trkpt lat="45.7400226" lon="8.7078186"><ele>308.3333333333333</ele><time>2026-04-16T08:50:06.566Z</time></trkpt><trkpt lat="45.7399558" lon="8.7078188"><ele>307.66666666666663</ele><time>2026-04-16T08:50:07.573Z</time></trkpt><trkpt lat="45.7398782" lon="8.707848"><ele>307.0</ele><time>2026-04-16T08:50:08.569Z</time></trkpt><trkpt lat="45.7397866" lon="8.7078965"><ele>307.0</ele><time>2026-04-16T08:50:09.569Z</time></trkpt><trkpt lat="45.7396894" lon="8.7079515"><ele>307.0</ele><time>2026-04-16T08:50:10.576Z</time></trkpt><trkpt lat="45.7395896" lon="8.7080092"><ele>307.0</ele><time>2026-04-16T08:50:11.572Z</time></trkpt><trkpt lat="45.7394922" lon="8.7080669"><ele>307.0</ele><time>2026-04-16T08:50:12.57Z</time></trkpt><trkpt lat="45.7393905" lon="8.7081296"><ele>307.0</ele><time>2026-04-16T08:50:13.574Z</time></trkpt><trkpt lat="45.7392782" lon="8.7082029"><ele>306.0</ele><time>2026-04-16T08:50:14.581Z</time></trkpt><trkpt lat="45.7391726" lon="8.7082719"><ele>305.0</ele><time>2026-04-16T08:50:15.581Z</time></trkpt><trkpt lat="45.7390635" lon="8.7083526"><ele>304.0</ele><time>2026-04-16T08:50:16.568Z</time></trkpt><trkpt lat="45.7389572" lon="8.708454"><ele>303.0</ele><time>2026-04-16T08:50:17.57Z</time></trkpt><trkpt lat="45.7388609" lon="8.7085812"><ele>303.0</ele><time>2026-04-16T08:50:18.57Z</time></trkpt><trkpt lat="45.7387646" lon="8.7087085"><ele>303.0</ele><time>2026-04-16T08:50:19.579Z</time></trkpt><trkpt lat="45.7386634" lon="8.7088318"><ele>303.0</ele><time>2026-04-16T08:50:20.577Z</time></trkpt><trkpt lat="45.7385513" lon="8.7089586"><ele>303.0</ele><time>2026-04-16T08:50:21.58Z</time></trkpt><trkpt lat="45.7384366" lon="8.7090869"><ele>302.5</ele><time>2026-04-16T08:50:22.576Z</time></trkpt><trkpt lat="45.7383221" lon="8.7092182"><ele>302.0</ele><time>2026-04-16T08:50:23.576Z</time></trkpt><trkpt lat="45.7382076" lon="8.7093574"><ele>301.5</ele><time>2026-04-16T08:50:24.584Z</time></trkpt><trkpt lat="45.7380997" lon="8.7094889"><ele>301.0</ele><time>2026-04-16T08:50:25.573Z</time></trkpt><trkpt lat="45.7379928" lon="8.7096215"><ele>300.75</ele><time>2026-04-16T08:50:26.578Z</time></trkpt><trkpt lat="45.7378884" lon="8.7097478"><ele>300.5</ele><time>2026-04-16T08:50:27.57Z</time></trkpt><trkpt lat="45.7377818" lon="8.7098781"><ele>300.25</ele><time>2026-04-16T08:50:28.597Z</time></trkpt><trkpt lat="45.7376717" lon="8.7100089"><ele>300.0</ele><time>2026-04-16T08:50:29.574Z</time></trkpt><trkpt lat="45.7375588" lon="8.7101489"><ele>298.6666666666667</ele><time>2026-04-16T08:50:30.583Z</time></trkpt><trkpt lat="45.7374428" lon="8.7102855"><ele>297.33333333333337</ele><time>2026-04-16T08:50:31.578Z</time></trkpt><trkpt lat="45.737325" lon="8.7104103"><ele>296.0</ele><time>2026-04-16T08:50:32.581Z</time></trkpt><trkpt lat="45.737194" lon="8.7105291"><ele>296.0</ele><time>2026-04-16T08:50:33.587Z</time></trkpt><trkpt lat="45.7370549" lon="8.7106478"><ele>296.0</ele><time>2026-04-16T08:50:34.571Z</time></trkpt><trkpt lat="45.7369116" lon="8.7107664"><ele>296.0</ele><time>2026-04-16T08:50:35.574Z</time></trkpt><trkpt lat="45.736767" lon="8.7108851"><ele>295.6666666666667</ele><time>2026-04-16T08:50:36.576Z</time></trkpt><trkpt lat="45.7366304" lon="8.711012"><ele>295.3333333333333</ele><time>2026-04-16T08:50:37.581Z</time></trkpt><trkpt lat="45.7364885" lon="8.7111404"><ele>295.0</ele><time>2026-04-16T08:50:38.575Z</time></trkpt><trkpt lat="45.736348" lon="8.7112655"><ele>295.0</ele><time>2026-04-16T08:50:39.579Z</time></trkpt><trkpt lat="45.7362098" lon="8.7113942"><ele>295.0</ele><time>2026-04-16T08:50:40.581Z</time></trkpt><trkpt lat="45.7360769" lon="8.711521"><ele>295.0</ele><time>2026-04-16T08:50:41.571Z</time></trkpt><trkpt lat="45.7359506" lon="8.71164"><ele>294.4</ele><time>2026-04-16T08:50:42.576Z</time></trkpt><trkpt lat="45.7358462" lon="8.7117488"><ele>293.8</ele><time>2026-04-16T08:50:43.572Z</time></trkpt><trkpt lat="45.7357613" lon="8.7118428"><ele>293.2</ele><time>2026-04-16T08:50:44.576Z</time></trkpt><trkpt lat="45.73569" lon="8.7119279"><ele>292.6</ele><time>2026-04-16T08:50:45.567Z</time></trkpt><trkpt lat="45.735625" lon="8.7119996"><ele>292.0</ele><time>2026-04-16T08:50:46.584Z</time></trkpt><trkpt lat="45.7355572" lon="8.7120639"><ele>292.0</ele><time>2026-04-16T08:50:47.569Z</time></trkpt><trkpt lat="45.7354697" lon="8.7121413"><ele>292.0</ele><time>2026-04-16T08:50:48.57Z</time></trkpt><trkpt lat="45.7353761" lon="8.7122091"><ele>292.0</ele><time>2026-04-16T08:50:49.57Z</time></trkpt><trkpt lat="45.7352793" lon="8.7122736"><ele>292.0</ele><time>2026-04-16T08:50:50.576Z</time></trkpt><trkpt lat="45.7351797" lon="8.7123381"><ele>292.0</ele><time>2026-04-16T08:50:51.567Z</time></trkpt><trkpt lat="45.7350753" lon="8.7123905"><ele>292.0</ele><time>2026-04-16T08:50:52.581Z</time></trkpt><trkpt lat="45.7349673" lon="8.7124339"><ele>292.0</ele><time>2026-04-16T08:50:53.564Z</time></trkpt><trkpt lat="45.7348529" lon="8.712488"><ele>292.0</ele><time>2026-04-16T08:50:54.573Z</time></trkpt><trkpt lat="45.7347395" lon="8.712558"><ele>292.0</ele><time>2026-04-16T08:50:55.571Z</time></trkpt><trkpt lat="45.7346195" lon="8.7126292"><ele>292.0</ele><time>2026-04-16T08:50:56.584Z</time></trkpt><trkpt lat="45.7345008" lon="8.7127039"><ele>292.0</ele><time>2026-04-16T08:50:57.567Z</time></trkpt><trkpt lat="45.7343873" lon="8.7127806"><ele>292.0</ele><time>2026-04-16T08:50:58.563Z</time></trkpt><trkpt lat="45.7342746" lon="8.7128583"><ele>292.0</ele><time>2026-04-16T08:50:59.58Z</time></trkpt><trkpt lat="45.7341567" lon="8.7129382"><ele>293.5</ele><time>2026-04-16T08:51:00.561Z</time></trkpt><trkpt lat="45.7340353" lon="8.7130071"><ele>295.0</ele><time>2026-04-16T08:51:01.56Z</time></trkpt><trkpt lat="45.7339203" lon="8.7130653"><ele>296.5</ele><time>2026-04-16T08:51:02.557Z</time></trkpt><trkpt lat="45.7338044" lon="8.7131224"><ele>298.0</ele><time>2026-04-16T08:51:03.556Z</time></trkpt><trkpt lat="45.7336885" lon="8.7131719"><ele>298.0</ele><time>2026-04-16T08:51:04.555Z</time></trkpt><trkpt lat="45.7335803" lon="8.7132149"><ele>298.0</ele><time>2026-04-16T08:51:05.551Z</time></trkpt><trkpt lat="45.7334781" lon="8.7132471"><ele>298.0</ele><time>2026-04-16T08:51:06.553Z</time></trkpt><trkpt lat="45.7333752" lon="8.7132752"><ele>298.0</ele><time>2026-04-16T08:51:07.555Z</time></trkpt><trkpt lat="45.7332625" lon="8.7133098"><ele>298.0</ele><time>2026-04-16T08:51:08.557Z</time></trkpt><trkpt lat="45.7331529" lon="8.7133433"><ele>296.75</ele><time>2026-04-16T08:51:09.556Z</time></trkpt><trkpt lat="45.7330375" lon="8.7133796"><ele>295.5</ele><time>2026-04-16T08:51:10.569Z</time></trkpt><trkpt lat="45.7329203" lon="8.713406"><ele>294.25</ele><time>2026-04-16T08:51:11.566Z</time></trkpt><trkpt lat="45.7328029" lon="8.7134294"><ele>293.0</ele><time>2026-04-16T08:51:12.579Z</time></trkpt><trkpt lat="45.7326846" lon="8.7134409"><ele>290.75</ele><time>2026-04-16T08:51:13.574Z</time></trkpt><trkpt lat="45.7325614" lon="8.7134427"><ele>288.5</ele><time>2026-04-16T08:51:14.576Z</time></trkpt><trkpt lat="45.7324475" lon="8.7134467"><ele>286.25</ele><time>2026-04-16T08:51:15.569Z</time></trkpt><trkpt lat="45.7323311" lon="8.7134539"><ele>284.0</ele><time>2026-04-16T08:51:16.576Z</time></trkpt><trkpt lat="45.7322056" lon="8.7134573"><ele>284.0</ele><time>2026-04-16T08:51:17.571Z</time></trkpt><trkpt lat="45.7320773" lon="8.713461"><ele>284.0</ele><time>2026-04-16T08:51:18.572Z</time></trkpt><trkpt lat="45.731947" lon="8.7134768"><ele>284.0</ele><time>2026-04-16T08:51:19.58Z</time></trkpt><trkpt lat="45.7318101" lon="8.7135016"><ele>284.0</ele><time>2026-04-16T08:51:20.593Z</time></trkpt><trkpt lat="45.7316746" lon="8.7135339"><ele>284.25</ele><time>2026-04-16T08:51:21.576Z</time></trkpt><trkpt lat="45.7315369" lon="8.7135993"><ele>284.5</ele><time>2026-04-16T08:51:22.577Z</time></trkpt><trkpt lat="45.7314" lon="8.7136816"><ele>284.75</ele><time>2026-04-16T08:51:23.579Z</time></trkpt><trkpt lat="45.7312627" lon="8.7137645"><ele>285.0</ele><time>2026-04-16T08:51:24.585Z</time></trkpt><trkpt lat="45.7311276" lon="8.7138618"><ele>284.0</ele><time>2026-04-16T08:51:25.586Z</time></trkpt><trkpt lat="45.7309976" lon="8.7139813"><ele>283.0</ele><time>2026-04-16T08:51:26.584Z</time></trkpt><trkpt lat="45.730868" lon="8.7141084"><ele>282.0</ele><time>2026-04-16T08:51:27.578Z</time></trkpt><trkpt lat="45.7307367" lon="8.7142375"><ele>282.0</ele><time>2026-04-16T08:51:28.585Z</time></trkpt><trkpt lat="45.7306011" lon="8.7143543"><ele>282.0</ele><time>2026-04-16T08:51:29.57Z</time></trkpt><trkpt lat="45.7304683" lon="8.7144748"><ele>282.0</ele><time>2026-04-16T08:51:30.588Z</time></trkpt><trkpt lat="45.7303353" lon="8.7145916"><ele>281.3333333333333</ele><time>2026-04-16T08:51:31.573Z</time></trkpt><trkpt lat="45.730204" lon="8.7147024"><ele>280.66666666666663</ele><time>2026-04-16T08:51:32.58Z</time></trkpt><trkpt lat="45.7300716" lon="8.7148071"><ele>280.0</ele><time>2026-04-16T08:51:33.575Z</time></trkpt><trkpt lat="45.7299376" lon="8.7149159"><ele>280.0</ele><time>2026-04-16T08:51:34.574Z</time></trkpt><trkpt lat="45.7298078" lon="8.7150153"><ele>280.0</ele><time>2026-04-16T08:51:35.569Z</time></trkpt><trkpt lat="45.7296748" lon="8.7151035"><ele>280.0</ele><time>2026-04-16T08:51:36.578Z</time></trkpt><trkpt lat="45.7295436" lon="8.7151855"><ele>280.0</ele><time>2026-04-16T08:51:37.578Z</time></trkpt><trkpt lat="45.7294092" lon="8.715275"><ele>278.66666666666663</ele><time>2026-04-16T08:51:38.58Z</time></trkpt><trkpt lat="45.729269" lon="8.7153677"><ele>277.3333333333333</ele><time>2026-04-16T08:51:39.575Z</time></trkpt><trkpt lat="45.7291227" lon="8.7154541"><ele>276.0</ele><time>2026-04-16T08:51:40.577Z</time></trkpt><trkpt lat="45.7289786" lon="8.7155365"><ele>276.0</ele><time>2026-04-16T08:51:41.561Z</time></trkpt><trkpt lat="45.7288345" lon="8.7156282"><ele>276.0</ele><time>2026-04-16T08:51:42.564Z</time></trkpt><trkpt lat="45.7286873" lon="8.7156996"><ele>276.0</ele><time>2026-04-16T08:51:43.561Z</time></trkpt><trkpt lat="45.7285402" lon="8.7157894"><ele>275.6666666666667</ele><time>2026-04-16T08:51:44.58Z</time></trkpt><trkpt lat="45.7283906" lon="8.7158892"><ele>275.33333333333337</ele><time>2026-04-16T08:51:45.559Z</time></trkpt><trkpt lat="45.7282473" lon="8.7159778"><ele>275.0</ele><time>2026-04-16T08:51:46.562Z</time></trkpt><trkpt lat="45.7281089" lon="8.7160539"><ele>275.0</ele><time>2026-04-16T08:51:47.566Z</time></trkpt><trkpt lat="45.7279659" lon="8.7161464"><ele>275.0</ele><time>2026-04-16T08:51:48.57Z</time></trkpt><trkpt lat="45.7278157" lon="8.7162356"><ele>275.0</ele><time>2026-04-16T08:51:49.563Z</time></trkpt><trkpt lat="45.7276692" lon="8.7163154"><ele>275.0</ele><time>2026-04-16T08:51:50.564Z</time></trkpt><trkpt lat="45.7275211" lon="8.7163748"><ele>275.0</ele><time>2026-04-16T08:51:51.566Z</time></trkpt><trkpt lat="45.7273841" lon="8.7164255"><ele>275.0</ele><time>2026-04-16T08:51:52.579Z</time></trkpt><trkpt lat="45.7272535" lon="8.7164805"><ele>275.0</ele><time>2026-04-16T08:51:53.568Z</time></trkpt><trkpt lat="45.7271359" lon="8.7165456"><ele>275.0</ele><time>2026-04-16T08:51:54.578Z</time></trkpt><trkpt lat="45.7270078" lon="8.7166181"><ele>275.0</ele><time>2026-04-16T08:51:55.57Z</time></trkpt><trkpt lat="45.7268769" lon="8.7166721"><ele>275.0</ele><time>2026-04-16T08:51:56.586Z</time></trkpt><trkpt lat="45.7267433" lon="8.7167259"><ele>275.0</ele><time>2026-04-16T08:51:57.572Z</time></trkpt><trkpt lat="45.7266188" lon="8.7167827"><ele>274.6</ele><time>2026-04-16T08:51:58.579Z</time></trkpt><trkpt lat="45.7265053" lon="8.7168409"><ele>274.2</ele><time>2026-04-16T08:51:59.567Z</time></trkpt><trkpt lat="45.726398" lon="8.716903"><ele>273.8</ele><time>2026-04-16T08:52:00.568Z</time></trkpt><trkpt lat="45.7263012" lon="8.71694"><ele>273.4</ele><time>2026-04-16T08:52:01.576Z</time></trkpt><trkpt lat="45.726209" lon="8.716974"><ele>273.0</ele><time>2026-04-16T08:52:02.578Z</time></trkpt><trkpt lat="45.726126" lon="8.7170114"><ele>273.0</ele><time>2026-04-16T08:52:03.569Z</time></trkpt><trkpt lat="45.7260587" lon="8.7170295"><ele>273.0</ele><time>2026-04-16T08:52:04.566Z</time></trkpt><trkpt lat="45.7259862" lon="8.7170305"><ele>273.0</ele><time>2026-04-16T08:52:05.564Z</time></trkpt><trkpt lat="45.7259027" lon="8.7170252"><ele>273.0</ele><time>2026-04-16T08:52:06.568Z</time></trkpt><trkpt lat="45.7258332" lon="8.7169978"><ele>273.0</ele><time>2026-04-16T08:52:07.574Z</time></trkpt><trkpt lat="45.7257621" lon="8.7169677"><ele>273.0</ele><time>2026-04-16T08:52:08.573Z</time></trkpt><trkpt lat="45.7256907" lon="8.7169654"><ele>273.0</ele><time>2026-04-16T08:52:09.571Z</time></trkpt><trkpt lat="45.7255981" lon="8.7170332"><ele>273.0</ele><time>2026-04-16T08:52:11.574Z</time></trkpt><trkpt lat="45.7256087" lon="8.7172112"><ele>273.0</ele><time>2026-04-16T08:52:13.58Z</time></trkpt><trkpt lat="45.7256714" lon="8.7172961"><ele>273.0</ele><time>2026-04-16T08:52:14.571Z</time></trkpt><trkpt lat="45.7257615" lon="8.7173874"><ele>273.0</ele><time>2026-04-16T08:52:15.567Z</time></trkpt><trkpt lat="45.7258505" lon="8.7175206"><ele>273.0</ele><time>2026-04-16T08:52:16.565Z</time></trkpt><trkpt lat="45.7259562" lon="8.7176926"><ele>273.0</ele><time>2026-04-16T08:52:17.567Z</time></trkpt><trkpt lat="45.7260472" lon="8.7178762"><ele>273.0</ele><time>2026-04-16T08:52:18.56Z</time></trkpt><trkpt lat="45.7261281" lon="8.7180617"><ele>273.25</ele><time>2026-04-16T08:52:19.563Z</time></trkpt><trkpt lat="45.7261888" lon="8.7182519"><ele>273.5</ele><time>2026-04-16T08:52:20.574Z</time></trkpt><trkpt lat="45.726255" lon="8.7184346"><ele>273.75</ele><time>2026-04-16T08:52:21.577Z</time></trkpt><trkpt lat="45.7263127" lon="8.7186178"><ele>274.0</ele><time>2026-04-16T08:52:22.579Z</time></trkpt><trkpt lat="45.7263799" lon="8.7187885"><ele>274.2</ele><time>2026-04-16T08:52:23.574Z</time></trkpt><trkpt lat="45.7264345" lon="8.7189386"><ele>274.4</ele><time>2026-04-16T08:52:24.568Z</time></trkpt><trkpt lat="45.7264756" lon="8.719077"><ele>274.6</ele><time>2026-04-16T08:52:25.567Z</time></trkpt><trkpt lat="45.7265107" lon="8.7191969"><ele>274.8</ele><time>2026-04-16T08:52:26.574Z</time></trkpt><trkpt lat="45.7265391" lon="8.719306"><ele>275.0</ele><time>2026-04-16T08:52:27.561Z</time></trkpt><trkpt lat="45.7265635" lon="8.7194073"><ele>275.4</ele><time>2026-04-16T08:52:28.573Z</time></trkpt><trkpt lat="45.7266084" lon="8.7195693"><ele>275.8</ele><time>2026-04-16T08:52:30.572Z</time></trkpt><trkpt lat="45.7266469" lon="8.7197181"><ele>276.2</ele><time>2026-04-16T08:52:32.585Z</time></trkpt><trkpt lat="45.7267069" lon="8.7198189"><ele>276.6</ele><time>2026-04-16T08:52:34.576Z</time></trkpt><trkpt lat="45.7267844" lon="8.7198799"><ele>277.0</ele><time>2026-04-16T08:52:36.568Z</time></trkpt><trkpt lat="45.7268359" lon="8.7199463"><ele>277.0</ele><time>2026-04-16T08:52:38.566Z</time></trkpt><trkpt lat="45.726793" lon="8.7200355"><ele>277.0</ele><time>2026-04-16T08:53:31.562Z</time></trkpt><trkpt lat="45.7267488" lon="8.7201"><ele>277.0</ele><time>2026-04-16T08:53:47.56Z</time></trkpt><trkpt lat="45.7267655" lon="8.7202491"><ele>277.0</ele><time>2026-04-16T08:53:50.574Z</time></trkpt><trkpt lat="45.726786" lon="8.7203458"><ele>277.0</ele><time>2026-04-16T08:53:51.563Z</time></trkpt><trkpt lat="45.7268337" lon="8.7204466"><ele>277.0</ele><time>2026-04-16T08:53:52.566Z</time></trkpt><trkpt lat="45.726874" lon="8.7205788"><ele>277.0</ele><time>2026-04-16T08:53:53.565Z</time></trkpt><trkpt lat="45.7269164" lon="8.7207198"><ele>277.0</ele><time>2026-04-16T08:53:54.571Z</time></trkpt><trkpt lat="45.7269701" lon="8.7208892"><ele>277.0</ele><time>2026-04-16T08:53:55.573Z</time></trkpt><trkpt lat="45.7270095" lon="8.7210842"><ele>277.0</ele><time>2026-04-16T08:53:56.574Z</time></trkpt><trkpt lat="45.7270499" lon="8.7212986"><ele>277.3333333333333</ele><time>2026-04-16T08:53:57.564Z</time></trkpt><trkpt lat="45.727093" lon="8.7215141"><ele>277.6666666666667</ele><time>2026-04-16T08:53:58.569Z</time></trkpt><trkpt lat="45.7271395" lon="8.7217536"><ele>278.0</ele><time>2026-04-16T08:53:59.567Z</time></trkpt><trkpt lat="45.7271851" lon="8.7219925"><ele>278.0</ele><time>2026-04-16T08:54:00.564Z</time></trkpt><trkpt lat="45.7272295" lon="8.7222366"><ele>278.0</ele><time>2026-04-16T08:54:01.57Z</time></trkpt><trkpt lat="45.7272762" lon="8.7224667"><ele>278.0</ele><time>2026-04-16T08:54:02.572Z</time></trkpt><trkpt lat="45.7273318" lon="8.7227044"><ele>277.0</ele><time>2026-04-16T08:54:03.57Z</time></trkpt><trkpt lat="45.727365" lon="8.7229325"><ele>276.0</ele><time>2026-04-16T08:54:04.572Z</time></trkpt><trkpt lat="45.7274082" lon="8.7231639"><ele>275.0</ele><time>2026-04-16T08:54:05.597Z</time></trkpt><trkpt lat="45.7274506" lon="8.7233518"><ele>275.0</ele><time>2026-04-16T08:54:06.587Z</time></trkpt><trkpt lat="45.7274862" lon="8.7235434"><ele>275.0</ele><time>2026-04-16T08:54:07.583Z</time></trkpt><trkpt lat="45.7275405" lon="8.7237354"><ele>275.0</ele><time>2026-04-16T08:54:08.58Z</time></trkpt><trkpt lat="45.7275869" lon="8.7238928"><ele>275.0</ele><time>2026-04-16T08:54:09.589Z</time></trkpt><trkpt lat="45.7276268" lon="8.7240471"><ele>274.75</ele><time>2026-04-16T08:54:10.588Z</time></trkpt><trkpt lat="45.7276662" lon="8.7242152"><ele>274.5</ele><time>2026-04-16T08:54:11.586Z</time></trkpt><trkpt lat="45.7277063" lon="8.7243841"><ele>274.25</ele><time>2026-04-16T08:54:12.582Z</time></trkpt><trkpt lat="45.7277478" lon="8.7245712"><ele>274.0</ele><time>2026-04-16T08:54:13.585Z</time></trkpt><trkpt lat="45.7277849" lon="8.7247668"><ele>274.0</ele><time>2026-04-16T08:54:14.581Z</time></trkpt><trkpt lat="45.7278177" lon="8.724962"><ele>274.0</ele><time>2026-04-16T08:54:15.581Z</time></trkpt><trkpt lat="45.7278619" lon="8.7251601"><ele>274.0</ele><time>2026-04-16T08:54:16.583Z</time></trkpt><trkpt lat="45.7278964" lon="8.7253548"><ele>274.0</ele><time>2026-04-16T08:54:17.58Z</time></trkpt><trkpt lat="45.727921" lon="8.7255514"><ele>274.25</ele><time>2026-04-16T08:54:18.578Z</time></trkpt><trkpt lat="45.7279493" lon="8.7257435"><ele>274.5</ele><time>2026-04-16T08:54:19.576Z</time></trkpt><trkpt lat="45.7279935" lon="8.7259284"><ele>274.75</ele><time>2026-04-16T08:54:20.572Z</time></trkpt><trkpt lat="45.7280397" lon="8.7261106"><ele>275.0</ele><time>2026-04-16T08:54:21.578Z</time></trkpt><trkpt lat="45.7280919" lon="8.7262759"><ele>274.33333333333337</ele><time>2026-04-16T08:54:22.572Z</time></trkpt><trkpt lat="45.7281381" lon="8.7264243"><ele>273.6666666666667</ele><time>2026-04-16T08:54:23.576Z</time></trkpt><trkpt lat="45.7281933" lon="8.7265474"><ele>273.0</ele><time>2026-04-16T08:54:24.575Z</time></trkpt><trkpt lat="45.7282499" lon="8.7266388"><ele>272.3333333333333</ele><time>2026-04-16T08:54:25.579Z</time></trkpt><trkpt lat="45.7282985" lon="8.7267188"><ele>271.66666666666663</ele><time>2026-04-16T08:54:26.577Z</time></trkpt><trkpt lat="45.7283434" lon="8.726796"><ele>271.0</ele><time>2026-04-16T08:54:27.575Z</time></trkpt><trkpt lat="45.7283718" lon="8.7268868"><ele>271.2</ele><time>2026-04-16T08:54:28.576Z</time></trkpt><trkpt lat="45.7284037" lon="8.7270306"><ele>271.40000000000003</ele><time>2026-04-16T08:54:30.567Z</time></trkpt><trkpt lat="45.7283673" lon="8.7271608"><ele>271.6</ele><time>2026-04-16T08:54:32.578Z</time></trkpt><trkpt lat="45.7282754" lon="8.7271978"><ele>271.8</ele><time>2026-04-16T08:54:33.569Z</time></trkpt><trkpt lat="45.7281746" lon="8.7271613"><ele>272.0</ele><time>2026-04-16T08:54:34.566Z</time></trkpt><trkpt lat="45.7280598" lon="8.7270817"><ele>272.0</ele><time>2026-04-16T08:54:35.558Z</time></trkpt><trkpt lat="45.7279458" lon="8.727012"><ele>272.0</ele><time>2026-04-16T08:54:36.576Z</time></trkpt><trkpt lat="45.7278241" lon="8.726916"><ele>272.0</ele><time>2026-04-16T08:54:37.555Z</time></trkpt><trkpt lat="45.7276993" lon="8.7267929"><ele>272.0</ele><time>2026-04-16T08:54:38.559Z</time></trkpt><trkpt lat="45.7275687" lon="8.7266655"><ele>273.0</ele><time>2026-04-16T08:54:39.548Z</time></trkpt><trkpt lat="45.7274273" lon="8.7265277"><ele>274.0</ele><time>2026-04-16T08:54:40.557Z</time></trkpt><trkpt lat="45.7272893" lon="8.726372"><ele>275.0</ele><time>2026-04-16T08:54:41.55Z</time></trkpt><trkpt lat="45.7271582" lon="8.7262274"><ele>275.0</ele><time>2026-04-16T08:54:42.556Z</time></trkpt><trkpt lat="45.7270096" lon="8.7260786"><ele>275.0</ele><time>2026-04-16T08:54:43.551Z</time></trkpt><trkpt lat="45.7268694" lon="8.7259163"><ele>275.0</ele><time>2026-04-16T08:54:44.544Z</time></trkpt><trkpt lat="45.7267349" lon="8.7257835"><ele>275.0</ele><time>2026-04-16T08:54:45.548Z</time></trkpt><trkpt lat="45.7266112" lon="8.7256257"><ele>275.0</ele><time>2026-04-16T08:54:46.547Z</time></trkpt><trkpt lat="45.72649" lon="8.7254519"><ele>275.0</ele><time>2026-04-16T08:54:47.54Z</time></trkpt><trkpt lat="45.7263789" lon="8.7252522"><ele>274.33333333333337</ele><time>2026-04-16T08:54:48.544Z</time></trkpt><trkpt lat="45.7262589" lon="8.7250457"><ele>273.6666666666667</ele><time>2026-04-16T08:54:49.549Z</time></trkpt><trkpt lat="45.7261673" lon="8.7248536"><ele>273.0</ele><time>2026-04-16T08:54:50.55Z</time></trkpt><trkpt lat="45.7260694" lon="8.7246638"><ele>272.0</ele><time>2026-04-16T08:54:51.549Z</time></trkpt><trkpt lat="45.7259549" lon="8.7244568"><ele>271.0</ele><time>2026-04-16T08:54:52.547Z</time></trkpt><trkpt lat="45.7258352" lon="8.7242615"><ele>270.0</ele><time>2026-04-16T08:54:53.554Z</time></trkpt><trkpt lat="45.7257325" lon="8.7240613"><ele>270.0</ele><time>2026-04-16T08:54:54.559Z</time></trkpt><trkpt lat="45.7256373" lon="8.7238737"><ele>270.0</ele><time>2026-04-16T08:54:55.559Z</time></trkpt><trkpt lat="45.7255157" lon="8.723669"><ele>270.0</ele><time>2026-04-16T08:54:56.564Z</time></trkpt><trkpt lat="45.7254079" lon="8.7234483"><ele>270.6666666666667</ele><time>2026-04-16T08:54:57.571Z</time></trkpt><trkpt lat="45.7252963" lon="8.7232419"><ele>271.33333333333337</ele><time>2026-04-16T08:54:58.566Z</time></trkpt><trkpt lat="45.7251614" lon="8.7230479"><ele>272.0</ele><time>2026-04-16T08:54:59.562Z</time></trkpt><trkpt lat="45.725016" lon="8.7228901"><ele>272.0</ele><time>2026-04-16T08:55:00.564Z</time></trkpt><trkpt lat="45.7248848" lon="8.7227564"><ele>272.0</ele><time>2026-04-16T08:55:01.563Z</time></trkpt><trkpt lat="45.7247006" lon="8.7226653"><ele>272.0</ele><time>2026-04-16T08:55:02.557Z</time></trkpt><trkpt lat="45.7245184" lon="8.7225688"><ele>274.6666666666667</ele><time>2026-04-16T08:55:03.562Z</time></trkpt><trkpt lat="45.724331" lon="8.7224845"><ele>277.3333333333333</ele><time>2026-04-16T08:55:04.561Z</time></trkpt><trkpt lat="45.7241448" lon="8.7223901"><ele>280.0</ele><time>2026-04-16T08:55:05.566Z</time></trkpt><trkpt lat="45.7239776" lon="8.7222761"><ele>280.0</ele><time>2026-04-16T08:55:06.56Z</time></trkpt><trkpt lat="45.7238166" lon="8.7221661"><ele>280.0</ele><time>2026-04-16T08:55:07.577Z</time></trkpt><trkpt lat="45.7236399" lon="8.7220281"><ele>280.0</ele><time>2026-04-16T08:55:08.563Z</time></trkpt><trkpt lat="45.7234571" lon="8.7218845"><ele>279.66666666666663</ele><time>2026-04-16T08:55:09.562Z</time></trkpt><trkpt lat="45.7232703" lon="8.7217526"><ele>279.3333333333333</ele><time>2026-04-16T08:55:10.567Z</time></trkpt><trkpt lat="45.7230752" lon="8.7216214"><ele>279.0</ele><time>2026-04-16T08:55:11.559Z</time></trkpt><trkpt lat="45.7228989" lon="8.7215007"><ele>278.3333333333333</ele><time>2026-04-16T08:55:12.565Z</time></trkpt><trkpt lat="45.7227253" lon="8.7213653"><ele>277.66666666666663</ele><time>2026-04-16T08:55:13.554Z</time></trkpt><trkpt lat="45.722569" lon="8.7212253"><ele>277.0</ele><time>2026-04-16T08:55:14.56Z</time></trkpt><trkpt lat="45.7224028" lon="8.7210918"><ele>276.66666666666663</ele><time>2026-04-16T08:55:15.559Z</time></trkpt><trkpt lat="45.7222284" lon="8.720943"><ele>276.3333333333333</ele><time>2026-04-16T08:55:16.559Z</time></trkpt><trkpt lat="45.7220443" lon="8.7208379"><ele>276.0</ele><time>2026-04-16T08:55:17.549Z</time></trkpt><trkpt lat="45.7218655" lon="8.7207422"><ele>275.0</ele><time>2026-04-16T08:55:18.551Z</time></trkpt><trkpt lat="45.7216993" lon="8.7206076"><ele>274.0</ele><time>2026-04-16T08:55:19.549Z</time></trkpt><trkpt lat="45.7215451" lon="8.7204779"><ele>273.0</ele><time>2026-04-16T08:55:20.554Z</time></trkpt><trkpt lat="45.7213691" lon="8.7203176"><ele>274.0</ele><time>2026-04-16T08:55:21.551Z</time></trkpt><trkpt lat="45.7211957" lon="8.7201641"><ele>275.0</ele><time>2026-04-16T08:55:22.553Z</time></trkpt><trkpt lat="45.7210245" lon="8.7200153"><ele>276.0</ele><time>2026-04-16T08:55:23.552Z</time></trkpt><trkpt lat="45.7208481" lon="8.7198538"><ele>276.0</ele><time>2026-04-16T08:55:24.555Z</time></trkpt><trkpt lat="45.720662" lon="8.7197213"><ele>276.0</ele><time>2026-04-16T08:55:25.552Z</time></trkpt><trkpt lat="45.7204854" lon="8.7195746"><ele>276.0</ele><time>2026-04-16T08:55:26.552Z</time></trkpt><trkpt lat="45.7203014" lon="8.7194607"><ele>276.6666666666667</ele><time>2026-04-16T08:55:27.555Z</time></trkpt><trkpt lat="45.7201324" lon="8.7193433"><ele>277.33333333333337</ele><time>2026-04-16T08:55:28.549Z</time></trkpt><trkpt lat="45.7199681" lon="8.7192119"><ele>278.0</ele><time>2026-04-16T08:55:29.549Z</time></trkpt><trkpt lat="45.7198184" lon="8.7190951"><ele>278.0</ele><time>2026-04-16T08:55:30.551Z</time></trkpt><trkpt lat="45.7196632" lon="8.7189483"><ele>278.0</ele><time>2026-04-16T08:55:31.551Z</time></trkpt><trkpt lat="45.7195237" lon="8.7188228"><ele>278.0</ele><time>2026-04-16T08:55:32.555Z</time></trkpt><trkpt lat="45.7193591" lon="8.718671"><ele>277.0</ele><time>2026-04-16T08:55:33.554Z</time></trkpt><trkpt lat="45.7192187" lon="8.7185621"><ele>276.0</ele><time>2026-04-16T08:55:34.552Z</time></trkpt><trkpt lat="45.7190751" lon="8.7184812"><ele>275.0</ele><time>2026-04-16T08:55:35.557Z</time></trkpt><trkpt lat="45.7189383" lon="8.7183874"><ele>275.0</ele><time>2026-04-16T08:55:36.555Z</time></trkpt><trkpt lat="45.7187798" lon="8.7182952"><ele>275.0</ele><time>2026-04-16T08:55:37.56Z</time></trkpt><trkpt lat="45.71865" lon="8.7181905"><ele>275.0</ele><time>2026-04-16T08:55:38.571Z</time></trkpt><trkpt lat="45.7185203" lon="8.7181085"><ele>274.5</ele><time>2026-04-16T08:55:39.557Z</time></trkpt><trkpt lat="45.7183937" lon="8.7180691"><ele>274.0</ele><time>2026-04-16T08:55:40.557Z</time></trkpt><trkpt lat="45.7183237" lon="8.7180638"><ele>273.5</ele><time>2026-04-16T08:55:41.55Z</time></trkpt><trkpt lat="45.7182567" lon="8.7180529"><ele>273.0</ele><time>2026-04-16T08:55:42.554Z</time></trkpt><trkpt lat="45.7181805" lon="8.7180394"><ele>272.5</ele><time>2026-04-16T08:55:43.557Z</time></trkpt><trkpt lat="45.7181128" lon="8.7180525"><ele>272.0</ele><time>2026-04-16T08:55:44.557Z</time></trkpt><trkpt lat="45.7180499" lon="8.7181152"><ele>272.0</ele><time>2026-04-16T08:55:45.556Z</time></trkpt><trkpt lat="45.7179839" lon="8.7181549"><ele>272.0</ele><time>2026-04-16T08:55:46.56Z</time></trkpt><trkpt lat="45.7178661" lon="8.7181562"><ele>272.0</ele><time>2026-04-16T08:55:48.555Z</time></trkpt><trkpt lat="45.7177768" lon="8.7181835"><ele>272.0</ele><time>2026-04-16T08:55:50.558Z</time></trkpt><trkpt lat="45.7176628" lon="8.718179"><ele>272.0</ele><time>2026-04-16T08:55:52.563Z</time></trkpt><trkpt lat="45.7175485" lon="8.718188"><ele>272.6666666666667</ele><time>2026-04-16T08:55:54.561Z</time></trkpt><trkpt lat="45.7174827" lon="8.7181925"><ele>273.33333333333337</ele><time>2026-04-16T08:55:55.558Z</time></trkpt><trkpt lat="45.7174158" lon="8.7181875"><ele>274.0</ele><time>2026-04-16T08:55:56.561Z</time></trkpt><trkpt lat="45.717287" lon="8.7181775"><ele>274.6666666666667</ele><time>2026-04-16T08:55:58.555Z</time></trkpt><trkpt lat="45.7172048" lon="8.7181816"><ele>275.3333333333333</ele><time>2026-04-16T08:55:59.552Z</time></trkpt><trkpt lat="45.7171292" lon="8.7181938"><ele>276.0</ele><time>2026-04-16T08:56:00.55Z</time></trkpt><trkpt lat="45.7170563" lon="8.7182087"><ele>276.0</ele><time>2026-04-16T08:56:01.551Z</time></trkpt><trkpt lat="45.7169862" lon="8.7182139"><ele>276.0</ele><time>2026-04-16T08:56:02.558Z</time></trkpt><trkpt lat="45.7169139" lon="8.7182106"><ele>276.0</ele><time>2026-04-16T08:56:03.557Z</time></trkpt><trkpt lat="45.7168007" lon="8.7182016"><ele>276.0</ele><time>2026-04-16T08:56:05.561Z</time></trkpt><trkpt lat="45.7167233" lon="8.7181999"><ele>276.0</ele><time>2026-04-16T08:56:06.564Z</time></trkpt><trkpt lat="45.7166474" lon="8.718203"><ele>276.0</ele><time>2026-04-16T08:56:07.566Z</time></trkpt><trkpt lat="45.7165753" lon="8.7182059"><ele>275.8333333333333</ele><time>2026-04-16T08:56:08.569Z</time></trkpt><trkpt lat="45.7164964" lon="8.7181997"><ele>275.6666666666667</ele><time>2026-04-16T08:56:09.581Z</time></trkpt><trkpt lat="45.7164314" lon="8.7181761"><ele>275.5</ele><time>2026-04-16T08:56:10.572Z</time></trkpt><trkpt lat="45.7163683" lon="8.7181713"><ele>275.33333333333337</ele><time>2026-04-16T08:56:11.567Z</time></trkpt><trkpt lat="45.7162796" lon="8.718208"><ele>275.1666666666667</ele><time>2026-04-16T08:56:13.565Z</time></trkpt><trkpt lat="45.7162447" lon="8.7183068"><ele>275.0</ele><time>2026-04-16T08:56:27.558Z</time></trkpt><trkpt lat="45.7161583" lon="8.7183089"><ele>275.33333333333337</ele><time>2026-04-16T08:56:29.556Z</time></trkpt><trkpt lat="45.7160245" lon="8.7183561"><ele>275.6666666666667</ele><time>2026-04-16T08:56:30.552Z</time></trkpt><trkpt lat="45.7158648" lon="8.7184143"><ele>276.0</ele><time>2026-04-16T08:56:31.55Z</time></trkpt><trkpt lat="45.7157185" lon="8.7184579"><ele>276.0</ele><time>2026-04-16T08:56:32.55Z</time></trkpt><trkpt lat="45.7156079" lon="8.7184297"><ele>276.0</ele><time>2026-04-16T08:56:33.545Z</time></trkpt><trkpt lat="45.7154661" lon="8.7183962"><ele>276.0</ele><time>2026-04-16T08:56:34.547Z</time></trkpt><trkpt lat="45.715327" lon="8.7184015"><ele>276.0</ele><time>2026-04-16T08:56:35.548Z</time></trkpt><trkpt lat="45.715203" lon="8.7183769"><ele>274.40000000000003</ele><time>2026-04-16T08:56:36.551Z</time></trkpt><trkpt lat="45.7150866" lon="8.7183534"><ele>272.8</ele><time>2026-04-16T08:56:37.547Z</time></trkpt><trkpt lat="45.7149936" lon="8.7183341"><ele>271.20000000000005</ele><time>2026-04-16T08:56:38.544Z</time></trkpt><trkpt lat="45.7149117" lon="8.7182414"><ele>269.6</ele><time>2026-04-16T08:56:39.563Z</time></trkpt><trkpt lat="45.7148491" lon="8.7181463"><ele>268.0</ele><time>2026-04-16T08:56:40.553Z</time></trkpt><trkpt lat="45.7147741" lon="8.7180461"><ele>268.0</ele><time>2026-04-16T08:56:41.548Z</time></trkpt><trkpt lat="45.7147032" lon="8.7179785"><ele>268.0</ele><time>2026-04-16T08:56:42.551Z</time></trkpt><trkpt lat="45.7146026" lon="8.7179436"><ele>268.0</ele><time>2026-04-16T08:56:44.558Z</time></trkpt><trkpt lat="45.7145331" lon="8.717959"><ele>268.0</ele><time>2026-04-16T08:56:45.558Z</time></trkpt><trkpt lat="45.714453" lon="8.7179875"><ele>268.0</ele><time>2026-04-16T08:56:46.559Z</time></trkpt><trkpt lat="45.7143668" lon="8.7180294"><ele>268.0</ele><time>2026-04-16T08:56:47.556Z</time></trkpt><trkpt lat="45.7142636" lon="8.7180852"><ele>267.6</ele><time>2026-04-16T08:56:48.56Z</time></trkpt><trkpt lat="45.7141585" lon="8.7181447"><ele>267.20000000000005</ele><time>2026-04-16T08:56:49.562Z</time></trkpt><trkpt lat="45.7140549" lon="8.7182029"><ele>266.8</ele><time>2026-04-16T08:56:50.56Z</time></trkpt><trkpt lat="45.7139637" lon="8.718246"><ele>266.40000000000003</ele><time>2026-04-16T08:56:51.555Z</time></trkpt><trkpt lat="45.7138729" lon="8.7183089"><ele>266.0</ele><time>2026-04-16T08:56:52.56Z</time></trkpt><trkpt lat="45.7137885" lon="8.7183772"><ele>266.0</ele><time>2026-04-16T08:56:53.555Z</time></trkpt><trkpt lat="45.7137018" lon="8.7184537"><ele>266.0</ele><time>2026-04-16T08:56:54.558Z</time></trkpt><trkpt lat="45.7135913" lon="8.7185078"><ele>266.0</ele><time>2026-04-16T08:56:55.557Z</time></trkpt><trkpt lat="45.713474" lon="8.7185615"><ele>266.0</ele><time>2026-04-16T08:56:56.557Z</time></trkpt><trkpt lat="45.7133612" lon="8.7186116"><ele>267.8</ele><time>2026-04-16T08:56:57.556Z</time></trkpt><trkpt lat="45.7132495" lon="8.7186668"><ele>269.6</ele><time>2026-04-16T08:56:58.557Z</time></trkpt><trkpt lat="45.7131483" lon="8.7187071"><ele>271.4</ele><time>2026-04-16T08:56:59.561Z</time></trkpt><trkpt lat="45.7130528" lon="8.7187484"><ele>273.2</ele><time>2026-04-16T08:57:00.56Z</time></trkpt><trkpt lat="45.7129544" lon="8.7188017"><ele>275.0</ele><time>2026-04-16T08:57:01.56Z</time></trkpt><trkpt lat="45.712882" lon="8.7188466"><ele>275.0</ele><time>2026-04-16T08:57:02.558Z</time></trkpt><trkpt lat="45.7128175" lon="8.7188962"><ele>275.0</ele><time>2026-04-16T08:57:03.555Z</time></trkpt><trkpt lat="45.7127651" lon="8.7189473"><ele>275.0</ele><time>2026-04-16T08:57:04.563Z</time></trkpt><trkpt lat="45.7127221" lon="8.7188523"><ele>275.0</ele><time>2026-04-16T08:57:13.555Z</time></trkpt><trkpt lat="45.7127267" lon="8.7187374"><ele>275.0</ele><time>2026-04-16T08:57:14.555Z</time></trkpt><trkpt lat="45.7127529" lon="8.7185959"><ele>275.0</ele><time>2026-04-16T08:57:15.547Z</time></trkpt><trkpt lat="45.7127393" lon="8.7184768"><ele>274.8</ele><time>2026-04-16T08:57:16.554Z</time></trkpt><trkpt lat="45.7126955" lon="8.7183009"><ele>274.6</ele><time>2026-04-16T08:57:17.547Z</time></trkpt><trkpt lat="45.7126417" lon="8.7181779"><ele>274.4</ele><time>2026-04-16T08:57:18.547Z</time></trkpt><trkpt lat="45.7126038" lon="8.7180605"><ele>274.2</ele><time>2026-04-16T08:57:19.543Z</time></trkpt><trkpt lat="45.7125722" lon="8.7179495"><ele>274.0</ele><time>2026-04-16T08:57:20.544Z</time></trkpt><trkpt lat="45.7125254" lon="8.7178506"><ele>274.0</ele><time>2026-04-16T08:57:22.547Z</time></trkpt><trkpt lat="45.7124765" lon="8.7177827"><ele>274.0</ele><time>2026-04-16T08:57:24.547Z</time></trkpt><trkpt lat="45.7124327" lon="8.7176935"><ele>274.0</ele><time>2026-04-16T08:57:27.553Z</time></trkpt><trkpt lat="45.7123855" lon="8.7177769"><ele>274.0</ele><time>2026-04-16T08:57:29.561Z</time></trkpt><trkpt lat="45.7124191" lon="8.7176379"><ele>274.0</ele><time>2026-04-16T08:57:40.594Z</time></trkpt><trkpt lat="45.7124995" lon="8.7176726"><ele>274.0</ele><time>2026-04-16T09:00:15.561Z</time></trkpt><trkpt lat="45.7126071" lon="8.7176696"><ele>274.0</ele><time>2026-04-16T09:00:18.552Z</time></trkpt><trkpt lat="45.7125906" lon="8.7177577"><ele>274.0</ele><time>2026-04-16T09:00:19.55Z</time></trkpt><trkpt lat="45.7125333" lon="8.7179065"><ele>274.0</ele><time>2026-04-16T09:00:20.551Z</time></trkpt><trkpt lat="45.7125263" lon="8.718035"><ele>274.0</ele><time>2026-04-16T09:00:21.556Z</time></trkpt><trkpt lat="45.7125246" lon="8.7182084"><ele>274.0</ele><time>2026-04-16T09:00:23.553Z</time></trkpt><trkpt lat="45.7125271" lon="8.7183133"><ele>274.0</ele><time>2026-04-16T09:00:24.559Z</time></trkpt><trkpt lat="45.712528" lon="8.7184135"><ele>274.0</ele><time>2026-04-16T09:00:25.56Z</time></trkpt><trkpt lat="45.7125462" lon="8.718519"><ele>274.0</ele><time>2026-04-16T09:00:26.563Z</time></trkpt><trkpt lat="45.7126032" lon="8.7186477"><ele>274.0</ele><time>2026-04-16T09:00:28.564Z</time></trkpt><trkpt lat="45.7126747" lon="8.7186173"><ele>274.0</ele><time>2026-04-16T09:00:33.556Z</time></trkpt><trkpt lat="45.7127582" lon="8.7186079"><ele>274.0</ele><time>2026-04-16T09:00:38.554Z</time></trkpt><trkpt lat="45.7128269" lon="8.7186764"><ele>274.2</ele><time>2026-04-16T09:00:41.56Z</time></trkpt><trkpt lat="45.712806" lon="8.7187879"><ele>274.4</ele><time>2026-04-16T09:00:43.556Z</time></trkpt><trkpt lat="45.7127817" lon="8.7188987"><ele>274.6</ele><time>2026-04-16T09:00:45.555Z</time></trkpt><trkpt lat="45.7126891" lon="8.7190325"><ele>274.8</ele><time>2026-04-16T09:00:47.57Z</time></trkpt><trkpt lat="45.712618" lon="8.7191048"><ele>275.0</ele><time>2026-04-16T09:00:48.556Z</time></trkpt><trkpt lat="45.7125529" lon="8.7191857"><ele>275.1666666666667</ele><time>2026-04-16T09:00:49.559Z</time></trkpt><trkpt lat="45.712492" lon="8.7192606"><ele>275.33333333333337</ele><time>2026-04-16T09:00:50.557Z</time></trkpt><trkpt lat="45.7124213" lon="8.7193287"><ele>275.5</ele><time>2026-04-16T09:00:51.558Z</time></trkpt><trkpt lat="45.7123636" lon="8.7193892"><ele>275.6666666666667</ele><time>2026-04-16T09:00:52.552Z</time></trkpt><trkpt lat="45.7123009" lon="8.7194731"><ele>275.8333333333333</ele><time>2026-04-16T09:00:53.555Z</time></trkpt><trkpt lat="45.7122352" lon="8.7195456"><ele>276.0</ele><time>2026-04-16T09:00:54.555Z</time></trkpt><trkpt lat="45.71217" lon="8.7196207"><ele>276.40000000000003</ele><time>2026-04-16T09:00:55.548Z</time></trkpt><trkpt lat="45.7120928" lon="8.7196954"><ele>276.8</ele><time>2026-04-16T09:00:56.549Z</time></trkpt><trkpt lat="45.7120093" lon="8.719765"><ele>277.20000000000005</ele><time>2026-04-16T09:00:57.552Z</time></trkpt><trkpt lat="45.711904" lon="8.7198437"><ele>277.6</ele><time>2026-04-16T09:00:58.549Z</time></trkpt><trkpt lat="45.7117875" lon="8.7199442"><ele>278.0</ele><time>2026-04-16T09:00:59.553Z</time></trkpt><trkpt lat="45.7116652" lon="8.7200468"><ele>278.0</ele><time>2026-04-16T09:01:00.55Z</time></trkpt><trkpt lat="45.7115442" lon="8.7201464"><ele>278.0</ele><time>2026-04-16T09:01:01.553Z</time></trkpt><trkpt lat="45.7114017" lon="8.7202667"><ele>278.0</ele><time>2026-04-16T09:01:02.555Z</time></trkpt><trkpt lat="45.7112601" lon="8.7203774"><ele>277.6666666666667</ele><time>2026-04-16T09:01:03.563Z</time></trkpt><trkpt lat="45.7111028" lon="8.720537"><ele>277.3333333333333</ele><time>2026-04-16T09:01:04.557Z</time></trkpt><trkpt lat="45.7109597" lon="8.7206927"><ele>277.0</ele><time>2026-04-16T09:01:05.558Z</time></trkpt><trkpt lat="45.7108242" lon="8.7208163"><ele>276.66666666666663</ele><time>2026-04-16T09:01:06.562Z</time></trkpt><trkpt lat="45.7106884" lon="8.72095"><ele>276.3333333333333</ele><time>2026-04-16T09:01:07.562Z</time></trkpt><trkpt lat="45.7105532" lon="8.721078"><ele>276.0</ele><time>2026-04-16T09:01:08.563Z</time></trkpt><trkpt lat="45.7104145" lon="8.7212031"><ele>276.3333333333333</ele><time>2026-04-16T09:01:09.563Z</time></trkpt><trkpt lat="45.7102573" lon="8.7213442"><ele>276.66666666666663</ele><time>2026-04-16T09:01:10.563Z</time></trkpt><trkpt lat="45.7100995" lon="8.7214981"><ele>277.0</ele><time>2026-04-16T09:01:11.557Z</time></trkpt><trkpt lat="45.7099673" lon="8.7216522"><ele>277.0</ele><time>2026-04-16T09:01:12.557Z</time></trkpt><trkpt lat="45.7098397" lon="8.7217961"><ele>277.0</ele><time>2026-04-16T09:01:13.554Z</time></trkpt><trkpt lat="45.7097145" lon="8.7219311"><ele>277.0</ele><time>2026-04-16T09:01:14.556Z</time></trkpt><trkpt lat="45.709615" lon="8.7220587"><ele>278.8</ele><time>2026-04-16T09:01:15.552Z</time></trkpt><trkpt lat="45.709555" lon="8.7221279"><ele>280.6</ele><time>2026-04-16T09:01:16.552Z</time></trkpt><trkpt lat="45.7095074" lon="8.7222322"><ele>282.40000000000003</ele><time>2026-04-16T09:01:17.55Z</time></trkpt><trkpt lat="45.7094853" lon="8.7224015"><ele>284.2</ele><time>2026-04-16T09:01:18.565Z</time></trkpt><trkpt lat="45.7094669" lon="8.7225893"><ele>286.0</ele><time>2026-04-16T09:01:19.545Z</time></trkpt><trkpt lat="45.7094219" lon="8.7227973"><ele>284.0</ele><time>2026-04-16T09:01:20.548Z</time></trkpt><trkpt lat="45.7093654" lon="8.7229948"><ele>282.0</ele><time>2026-04-16T09:01:21.547Z</time></trkpt><trkpt lat="45.7093071" lon="8.7232235"><ele>280.0</ele><time>2026-04-16T09:01:22.545Z</time></trkpt><trkpt lat="45.7092332" lon="8.7234228"><ele>282.0</ele><time>2026-04-16T09:01:23.545Z</time></trkpt><trkpt lat="45.7091605" lon="8.7236178"><ele>284.0</ele><time>2026-04-16T09:01:24.555Z</time></trkpt><trkpt lat="45.709085" lon="8.7238425"><ele>286.0</ele><time>2026-04-16T09:01:25.549Z</time></trkpt><trkpt lat="45.7089994" lon="8.7240706"><ele>286.0</ele><time>2026-04-16T09:01:26.555Z</time></trkpt><trkpt lat="45.7088875" lon="8.724356"><ele>286.0</ele><time>2026-04-16T09:01:27.55Z</time></trkpt><trkpt lat="45.7088016" lon="8.7245932"><ele>286.0</ele><time>2026-04-16T09:01:28.553Z</time></trkpt><trkpt lat="45.7087301" lon="8.7248578"><ele>287.66666666666663</ele><time>2026-04-16T09:01:29.547Z</time></trkpt><trkpt lat="45.7086426" lon="8.7251255"><ele>289.3333333333333</ele><time>2026-04-16T09:01:30.544Z</time></trkpt><trkpt lat="45.7085559" lon="8.7254176"><ele>291.0</ele><time>2026-04-16T09:01:31.545Z</time></trkpt><trkpt lat="45.7084628" lon="8.7256858"><ele>291.0</ele><time>2026-04-16T09:01:32.549Z</time></trkpt><trkpt lat="45.7083564" lon="8.7259566"><ele>291.0</ele><time>2026-04-16T09:01:33.545Z</time></trkpt><trkpt lat="45.7082634" lon="8.7262305"><ele>291.0</ele><time>2026-04-16T09:01:34.544Z</time></trkpt><trkpt lat="45.7081597" lon="8.7265198"><ele>291.0</ele><time>2026-04-16T09:01:35.545Z</time></trkpt><trkpt lat="45.7080894" lon="8.7267617"><ele>291.0</ele><time>2026-04-16T09:01:36.549Z</time></trkpt><trkpt lat="45.7080142" lon="8.7269697"><ele>291.0</ele><time>2026-04-16T09:01:37.546Z</time></trkpt><trkpt lat="45.70795" lon="8.7271574"><ele>291.0</ele><time>2026-04-16T09:01:38.543Z</time></trkpt><trkpt lat="45.7078995" lon="8.7273421"><ele>291.0</ele><time>2026-04-16T09:01:39.548Z</time></trkpt><trkpt lat="45.7078578" lon="8.7274579"><ele>291.0</ele><time>2026-04-16T09:01:40.547Z</time></trkpt><trkpt lat="45.7077871" lon="8.7275668"><ele>291.0</ele><time>2026-04-16T09:01:42.549Z</time></trkpt><trkpt lat="45.7077344" lon="8.727513"><ele>291.0</ele><time>2026-04-16T09:01:43.553Z</time></trkpt><trkpt lat="45.7076452" lon="8.727492"><ele>291.0</ele><time>2026-04-16T09:01:44.548Z</time></trkpt><trkpt lat="45.7075835" lon="8.7273631"><ele>291.0</ele><time>2026-04-16T09:01:45.548Z</time></trkpt><trkpt lat="45.7075197" lon="8.7272604"><ele>291.0</ele><time>2026-04-16T09:01:46.551Z</time></trkpt><trkpt lat="45.7074279" lon="8.7272252"><ele>291.0</ele><time>2026-04-16T09:01:48.555Z</time></trkpt><trkpt lat="45.7074673" lon="8.7270973"><ele>291.0</ele><time>2026-04-16T09:01:50.555Z</time></trkpt><trkpt lat="45.7075144" lon="8.7269943"><ele>291.0</ele><time>2026-04-16T09:01:51.557Z</time></trkpt><trkpt lat="45.7075794" lon="8.7269196"><ele>291.0</ele><time>2026-04-16T09:01:52.554Z</time></trkpt><trkpt lat="45.7076424" lon="8.7268029"><ele>291.0</ele><time>2026-04-16T09:01:53.556Z</time></trkpt><trkpt lat="45.707741" lon="8.7266665"><ele>291.0</ele><time>2026-04-16T09:01:54.554Z</time></trkpt><trkpt lat="45.7077893" lon="8.7265198"><ele>291.0</ele><time>2026-04-16T09:01:55.558Z</time></trkpt><trkpt lat="45.707824" lon="8.7263408"><ele>291.0</ele><time>2026-04-16T09:01:56.563Z</time></trkpt><trkpt lat="45.7078425" lon="8.7261598"><ele>291.0</ele><time>2026-04-16T09:01:57.557Z</time></trkpt><trkpt lat="45.7078438" lon="8.7259186"><ele>291.0</ele><time>2026-04-16T09:01:58.557Z</time></trkpt><trkpt lat="45.7077929" lon="8.7257497"><ele>291.0</ele><time>2026-04-16T09:01:59.561Z</time></trkpt><trkpt lat="45.7077089" lon="8.7256258"><ele>291.5</ele><time>2026-04-16T09:02:00.562Z</time></trkpt><trkpt lat="45.707601" lon="8.7254827"><ele>292.0</ele><time>2026-04-16T09:02:01.563Z</time></trkpt><trkpt lat="45.7074971" lon="8.725342"><ele>292.5</ele><time>2026-04-16T09:02:02.565Z</time></trkpt><trkpt lat="45.7073863" lon="8.7252237"><ele>293.0</ele><time>2026-04-16T09:02:03.566Z</time></trkpt><trkpt lat="45.7072915" lon="8.7251114"><ele>293.6666666666667</ele><time>2026-04-16T09:02:04.568Z</time></trkpt><trkpt lat="45.707201" lon="8.7250103"><ele>294.33333333333337</ele><time>2026-04-16T09:02:05.562Z</time></trkpt><trkpt lat="45.7071223" lon="8.724921"><ele>295.0</ele><time>2026-04-16T09:02:06.566Z</time></trkpt><trkpt lat="45.7070508" lon="8.7248821"><ele>295.6666666666667</ele><time>2026-04-16T09:02:07.567Z</time></trkpt><trkpt lat="45.7069716" lon="8.7248621"><ele>296.3333333333333</ele><time>2026-04-16T09:02:08.57Z</time></trkpt><trkpt lat="45.7069067" lon="8.7248724"><ele>297.0</ele><time>2026-04-16T09:02:09.565Z</time></trkpt><trkpt lat="45.7067969" lon="8.7249836"><ele>299.2</ele><time>2026-04-16T09:02:11.564Z</time></trkpt><trkpt lat="45.7067503" lon="8.7250906"><ele>301.4</ele><time>2026-04-16T09:02:12.559Z</time></trkpt><trkpt lat="45.7066984" lon="8.7252047"><ele>303.6</ele><time>2026-04-16T09:02:13.559Z</time></trkpt><trkpt lat="45.7066372" lon="8.72534"><ele>305.8</ele><time>2026-04-16T09:02:14.553Z</time></trkpt><trkpt lat="45.7065482" lon="8.7254906"><ele>308.0</ele><time>2026-04-16T09:02:15.551Z</time></trkpt><trkpt lat="45.7064636" lon="8.7256226"><ele>308.0</ele><time>2026-04-16T09:02:16.554Z</time></trkpt><trkpt lat="45.7063724" lon="8.7257945"><ele>308.0</ele><time>2026-04-16T09:02:17.556Z</time></trkpt><trkpt lat="45.7062762" lon="8.7259557"><ele>308.0</ele><time>2026-04-16T09:02:18.553Z</time></trkpt><trkpt lat="45.7061451" lon="8.7261287"><ele>307.75</ele><time>2026-04-16T09:02:19.558Z</time></trkpt><trkpt lat="45.7060354" lon="8.7263048"><ele>307.5</ele><time>2026-04-16T09:02:20.571Z</time></trkpt><trkpt lat="45.7059417" lon="8.7264336"><ele>307.25</ele><time>2026-04-16T09:02:21.563Z</time></trkpt><trkpt lat="45.7058629" lon="8.7265632"><ele>307.0</ele><time>2026-04-16T09:02:22.557Z</time></trkpt><trkpt lat="45.7057897" lon="8.7266335"><ele>307.0</ele><time>2026-04-16T09:02:23.555Z</time></trkpt><trkpt lat="45.7057389" lon="8.7267121"><ele>307.0</ele><time>2026-04-16T09:02:24.563Z</time></trkpt><trkpt lat="45.7056794" lon="8.7268149"><ele>307.0</ele><time>2026-04-16T09:02:25.553Z</time></trkpt><trkpt lat="45.7056176" lon="8.7268762"><ele>307.0</ele><time>2026-04-16T09:02:26.555Z</time></trkpt><trkpt lat="45.7055444" lon="8.7269662"><ele>307.0</ele><time>2026-04-16T09:02:27.556Z</time></trkpt><trkpt lat="45.7054713" lon="8.7270631"><ele>307.0</ele><time>2026-04-16T09:02:28.557Z</time></trkpt><trkpt lat="45.7054035" lon="8.7271619"><ele>307.6</ele><time>2026-04-16T09:02:29.555Z</time></trkpt><trkpt lat="45.7053649" lon="8.7272613"><ele>308.2</ele><time>2026-04-16T09:02:30.555Z</time></trkpt><trkpt lat="45.7053238" lon="8.7273563"><ele>308.8</ele><time>2026-04-16T09:02:31.557Z</time></trkpt><trkpt lat="45.7052739" lon="8.7274984"><ele>309.4</ele><time>2026-04-16T09:02:32.558Z</time></trkpt><trkpt lat="45.7052149" lon="8.7276016"><ele>310.0</ele><time>2026-04-16T09:02:33.556Z</time></trkpt><trkpt lat="45.7051499" lon="8.7277072"><ele>309.5</ele><time>2026-04-16T09:02:34.562Z</time></trkpt><trkpt lat="45.7050801" lon="8.7277888"><ele>309.0</ele><time>2026-04-16T09:02:35.557Z</time></trkpt><trkpt lat="45.7049984" lon="8.7278465"><ele>308.5</ele><time>2026-04-16T09:02:36.556Z</time></trkpt><trkpt lat="45.7049366" lon="8.7278858"><ele>308.0</ele><time>2026-04-16T09:02:37.561Z</time></trkpt><trkpt lat="45.7048558" lon="8.7278802"><ele>307.5</ele><time>2026-04-16T09:02:38.56Z</time></trkpt><trkpt lat="45.704778" lon="8.7278474"><ele>307.0</ele><time>2026-04-16T09:02:39.558Z</time></trkpt><trkpt lat="45.7046832" lon="8.7277998"><ele>307.0</ele><time>2026-04-16T09:02:40.558Z</time></trkpt><trkpt lat="45.704597" lon="8.7277311"><ele>307.0</ele><time>2026-04-16T09:02:41.553Z</time></trkpt><trkpt lat="45.7044953" lon="8.7276624"><ele>307.0</ele><time>2026-04-16T09:02:42.559Z</time></trkpt><trkpt lat="45.7043905" lon="8.7276059"><ele>307.0</ele><time>2026-04-16T09:02:43.556Z</time></trkpt><trkpt lat="45.7042593" lon="8.7275328"><ele>308.25</ele><time>2026-04-16T09:02:44.558Z</time></trkpt><trkpt lat="45.704126" lon="8.7274731"><ele>309.5</ele><time>2026-04-16T09:02:45.556Z</time></trkpt><trkpt lat="45.7039918" lon="8.7274063"><ele>310.75</ele><time>2026-04-16T09:02:46.557Z</time></trkpt><trkpt lat="45.703868" lon="8.7273279"><ele>312.0</ele><time>2026-04-16T09:02:47.554Z</time></trkpt><trkpt lat="45.703746" lon="8.7272575"><ele>312.0</ele><time>2026-04-16T09:02:48.558Z</time></trkpt><trkpt lat="45.7036281" lon="8.7271759"><ele>312.0</ele><time>2026-04-16T09:02:49.555Z</time></trkpt><trkpt lat="45.7035375" lon="8.7271359"><ele>312.0</ele><time>2026-04-16T09:02:50.556Z</time></trkpt><trkpt lat="45.7034313" lon="8.7270856"><ele>312.0</ele><time>2026-04-16T09:02:51.564Z</time></trkpt><trkpt lat="45.7033312" lon="8.7270547"><ele>312.0</ele><time>2026-04-16T09:02:52.557Z</time></trkpt><trkpt lat="45.7032351" lon="8.7270583"><ele>312.8</ele><time>2026-04-16T09:02:53.553Z</time></trkpt><trkpt lat="45.7031414" lon="8.7270588"><ele>313.6</ele><time>2026-04-16T09:02:54.555Z</time></trkpt><trkpt lat="45.7030386" lon="8.7270565"><ele>314.40000000000003</ele><time>2026-04-16T09:02:55.555Z</time></trkpt><trkpt lat="45.7029419" lon="8.7271062"><ele>315.2</ele><time>2026-04-16T09:02:56.555Z</time></trkpt><trkpt lat="45.7028391" lon="8.7271685"><ele>316.0</ele><time>2026-04-16T09:02:57.558Z</time></trkpt><trkpt lat="45.7027235" lon="8.7272731"><ele>316.0</ele><time>2026-04-16T09:02:58.55Z</time></trkpt><trkpt lat="45.7026146" lon="8.7273953"><ele>316.0</ele><time>2026-04-16T09:02:59.547Z</time></trkpt><trkpt lat="45.7025081" lon="8.7275176"><ele>316.0</ele><time>2026-04-16T09:03:00.548Z</time></trkpt><trkpt lat="45.7024169" lon="8.7276206"><ele>316.0</ele><time>2026-04-16T09:03:01.546Z</time></trkpt><trkpt lat="45.7023162" lon="8.7277012"><ele>316.25</ele><time>2026-04-16T09:03:02.547Z</time></trkpt><trkpt lat="45.7022019" lon="8.7277832"><ele>316.5</ele><time>2026-04-16T09:03:03.554Z</time></trkpt><trkpt lat="45.7020881" lon="8.7278649"><ele>316.75</ele><time>2026-04-16T09:03:04.557Z</time></trkpt><trkpt lat="45.7019801" lon="8.7279537"><ele>317.0</ele><time>2026-04-16T09:03:05.551Z</time></trkpt><trkpt lat="45.7018656" lon="8.7280517"><ele>318.0</ele><time>2026-04-16T09:03:06.551Z</time></trkpt><trkpt lat="45.7017613" lon="8.7281228"><ele>319.0</ele><time>2026-04-16T09:03:07.555Z</time></trkpt><trkpt lat="45.7016525" lon="8.728199"><ele>320.0</ele><time>2026-04-16T09:03:08.551Z</time></trkpt><trkpt lat="45.7015524" lon="8.7282654"><ele>321.0</ele><time>2026-04-16T09:03:09.55Z</time></trkpt><trkpt lat="45.7014677" lon="8.7283047"><ele>322.0</ele><time>2026-04-16T09:03:10.56Z</time></trkpt><trkpt lat="45.7013851" lon="8.7283533"><ele>322.0</ele><time>2026-04-16T09:03:11.545Z</time></trkpt><trkpt lat="45.7012892" lon="8.7283732"><ele>322.0</ele><time>2026-04-16T09:03:12.547Z</time></trkpt><trkpt lat="45.7012068" lon="8.728391"><ele>322.0</ele><time>2026-04-16T09:03:13.546Z</time></trkpt><trkpt lat="45.7011346" lon="8.7284309"><ele>322.0</ele><time>2026-04-16T09:03:14.549Z</time></trkpt><trkpt lat="45.7010491" lon="8.7284277"><ele>322.0</ele><time>2026-04-16T09:03:15.545Z</time></trkpt><trkpt lat="45.7009423" lon="8.7284836"><ele>321.0</ele><time>2026-04-16T09:03:16.55Z</time></trkpt><trkpt lat="45.7008115" lon="8.7285064"><ele>320.0</ele><time>2026-04-16T09:03:17.548Z</time></trkpt><trkpt lat="45.700671" lon="8.7285348"><ele>319.0</ele><time>2026-04-16T09:03:18.551Z</time></trkpt><trkpt lat="45.7005504" lon="8.7285499"><ele>318.0</ele><time>2026-04-16T09:03:19.546Z</time></trkpt><trkpt lat="45.7004202" lon="8.7285642"><ele>318.0</ele><time>2026-04-16T09:03:20.544Z</time></trkpt><trkpt lat="45.7003036" lon="8.7285739"><ele>318.0</ele><time>2026-04-16T09:03:21.55Z</time></trkpt><trkpt lat="45.7001435" lon="8.7285537"><ele>318.0</ele><time>2026-04-16T09:03:22.562Z</time></trkpt><trkpt lat="45.6999837" lon="8.7285724"><ele>318.0</ele><time>2026-04-16T09:03:23.556Z</time></trkpt><trkpt lat="45.6998059" lon="8.7285997"><ele>317.75</ele><time>2026-04-16T09:03:24.555Z</time></trkpt><trkpt lat="45.6996568" lon="8.7286078"><ele>317.5</ele><time>2026-04-16T09:03:25.555Z</time></trkpt><trkpt lat="45.6995619" lon="8.7286152"><ele>317.25</ele><time>2026-04-16T09:03:26.56Z</time></trkpt><trkpt lat="45.6994539" lon="8.7285786"><ele>317.0</ele><time>2026-04-16T09:03:27.557Z</time></trkpt><trkpt lat="45.69935" lon="8.7285666"><ele>317.0</ele><time>2026-04-16T09:03:28.558Z</time></trkpt><trkpt lat="45.699215" lon="8.7285602"><ele>317.0</ele><time>2026-04-16T09:03:29.559Z</time></trkpt><trkpt lat="45.6990609" lon="8.7285766"><ele>317.0</ele><time>2026-04-16T09:03:30.56Z</time></trkpt><trkpt lat="45.6989176" lon="8.7286072"><ele>317.0</ele><time>2026-04-16T09:03:31.551Z</time></trkpt><trkpt lat="45.6987818" lon="8.7286153"><ele>317.0</ele><time>2026-04-16T09:03:32.56Z</time></trkpt><trkpt lat="45.6986435" lon="8.7286355"><ele>317.0</ele><time>2026-04-16T09:03:33.561Z</time></trkpt><trkpt lat="45.6985083" lon="8.7286433"><ele>317.0</ele><time>2026-04-16T09:03:34.563Z</time></trkpt><trkpt lat="45.6983656" lon="8.7286532"><ele>317.0</ele><time>2026-04-16T09:03:35.561Z</time></trkpt><trkpt lat="45.6982188" lon="8.7286504"><ele>316.0</ele><time>2026-04-16T09:03:36.56Z</time></trkpt><trkpt lat="45.6980781" lon="8.7286765"><ele>315.0</ele><time>2026-04-16T09:03:37.56Z</time></trkpt><trkpt lat="45.6979279" lon="8.7287121"><ele>314.0</ele><time>2026-04-16T09:03:38.557Z</time></trkpt><trkpt lat="45.6977861" lon="8.7287226"><ele>313.0</ele><time>2026-04-16T09:03:39.559Z</time></trkpt><trkpt lat="45.697644" lon="8.728768"><ele>311.0</ele><time>2026-04-16T09:03:40.563Z</time></trkpt><trkpt lat="45.6975159" lon="8.7287819"><ele>309.0</ele><time>2026-04-16T09:03:41.553Z</time></trkpt><trkpt lat="45.697356" lon="8.7288366"><ele>307.0</ele><time>2026-04-16T09:03:42.556Z</time></trkpt><trkpt lat="45.6971968" lon="8.7288855"><ele>307.0</ele><time>2026-04-16T09:03:43.551Z</time></trkpt><trkpt lat="45.6970711" lon="8.7289155"><ele>307.0</ele><time>2026-04-16T09:03:44.547Z</time></trkpt><trkpt lat="45.6969258" lon="8.7289295"><ele>307.0</ele><time>2026-04-16T09:03:45.546Z</time></trkpt><trkpt lat="45.6967895" lon="8.7289395"><ele>307.0</ele><time>2026-04-16T09:03:46.551Z</time></trkpt><trkpt lat="45.6966689" lon="8.7289721"><ele>305.0</ele><time>2026-04-16T09:03:47.55Z</time></trkpt><trkpt lat="45.6965387" lon="8.7290075"><ele>303.0</ele><time>2026-04-16T09:03:48.554Z</time></trkpt><trkpt lat="45.6964047" lon="8.7290157"><ele>301.0</ele><time>2026-04-16T09:03:49.553Z</time></trkpt><trkpt lat="45.6962617" lon="8.7290198"><ele>299.0</ele><time>2026-04-16T09:03:50.56Z</time></trkpt><trkpt lat="45.6961483" lon="8.7290069"><ele>298.8</ele><time>2026-04-16T09:03:51.553Z</time></trkpt><trkpt lat="45.6960366" lon="8.7290051"><ele>298.59999999999997</ele><time>2026-04-16T09:03:52.556Z</time></trkpt><trkpt lat="45.6959407" lon="8.7289694"><ele>298.4</ele><time>2026-04-16T09:03:53.569Z</time></trkpt><trkpt lat="45.6958422" lon="8.7289317"><ele>298.2</ele><time>2026-04-16T09:03:54.563Z</time></trkpt><trkpt lat="45.6957516" lon="8.728871"><ele>298.0</ele><time>2026-04-16T09:03:55.56Z</time></trkpt><trkpt lat="45.695649" lon="8.7288067"><ele>298.0</ele><time>2026-04-16T09:03:56.557Z</time></trkpt><trkpt lat="45.6955463" lon="8.7287481"><ele>298.0</ele><time>2026-04-16T09:03:57.56Z</time></trkpt><trkpt lat="45.6954312" lon="8.7286855"><ele>298.0</ele><time>2026-04-16T09:03:58.567Z</time></trkpt><trkpt lat="45.6953245" lon="8.7286213"><ele>298.0</ele><time>2026-04-16T09:03:59.563Z</time></trkpt><trkpt lat="45.6952238" lon="8.7285612"><ele>299.8</ele><time>2026-04-16T09:04:00.562Z</time></trkpt><trkpt lat="45.6951224" lon="8.7285068"><ele>301.6</ele><time>2026-04-16T09:04:01.558Z</time></trkpt><trkpt lat="45.6950305" lon="8.7284548"><ele>303.4</ele><time>2026-04-16T09:04:02.556Z</time></trkpt><trkpt lat="45.6949622" lon="8.7283954"><ele>305.2</ele><time>2026-04-16T09:04:03.562Z</time></trkpt><trkpt lat="45.6949222" lon="8.7282977"><ele>307.0</ele><time>2026-04-16T09:04:06.565Z</time></trkpt><trkpt lat="45.695014" lon="8.7283845"><ele>307.0</ele><time>2026-04-16T09:04:11.562Z</time></trkpt><trkpt lat="45.6950926" lon="8.7284602"><ele>307.0</ele><time>2026-04-16T09:04:12.564Z</time></trkpt><trkpt lat="45.6951653" lon="8.7285086"><ele>307.0</ele><time>2026-04-16T09:04:13.561Z</time></trkpt><trkpt lat="45.6952533" lon="8.7285371"><ele>307.0</ele><time>2026-04-16T09:04:14.568Z</time></trkpt><trkpt lat="45.6953461" lon="8.7285873"><ele>307.0</ele><time>2026-04-16T09:04:15.564Z</time></trkpt><trkpt lat="45.6954545" lon="8.7286557"><ele>304.75</ele><time>2026-04-16T09:04:16.572Z</time></trkpt><trkpt lat="45.6955572" lon="8.7287172"><ele>302.5</ele><time>2026-04-16T09:04:17.57Z</time></trkpt><trkpt lat="45.6956685" lon="8.7287822"><ele>300.25</ele><time>2026-04-16T09:04:18.574Z</time></trkpt><trkpt lat="45.6957888" lon="8.728837"><ele>298.0</ele><time>2026-04-16T09:04:19.571Z</time></trkpt><trkpt lat="45.695895" lon="8.7288918"><ele>298.0</ele><time>2026-04-16T09:04:20.58Z</time></trkpt><trkpt lat="45.6959989" lon="8.7289396"><ele>298.0</ele><time>2026-04-16T09:04:21.576Z</time></trkpt><trkpt lat="45.6961001" lon="8.7289934"><ele>298.0</ele><time>2026-04-16T09:04:22.572Z</time></trkpt><trkpt lat="45.6961955" lon="8.7290402"><ele>298.0</ele><time>2026-04-16T09:04:23.568Z</time></trkpt><trkpt lat="45.6962936" lon="8.7290659"><ele>298.0</ele><time>2026-04-16T09:04:24.581Z</time></trkpt><trkpt lat="45.6963894" lon="8.7291133"><ele>298.25</ele><time>2026-04-16T09:04:25.56Z</time></trkpt><trkpt lat="45.6964886" lon="8.7291654"><ele>298.5</ele><time>2026-04-16T09:04:26.562Z</time></trkpt><trkpt lat="45.696603" lon="8.7291961"><ele>298.75</ele><time>2026-04-16T09:04:27.562Z</time></trkpt><trkpt lat="45.696729" lon="8.7292058"><ele>299.0</ele><time>2026-04-16T09:04:28.563Z</time></trkpt><trkpt lat="45.6968548" lon="8.7292161"><ele>301.0</ele><time>2026-04-16T09:04:29.558Z</time></trkpt><trkpt lat="45.6969791" lon="8.7292268"><ele>303.0</ele><time>2026-04-16T09:04:30.552Z</time></trkpt><trkpt lat="45.6971198" lon="8.7292266"><ele>305.0</ele><time>2026-04-16T09:04:31.549Z</time></trkpt><trkpt lat="45.6972618" lon="8.7292058"><ele>307.0</ele><time>2026-04-16T09:04:32.553Z</time></trkpt><trkpt lat="45.6973892" lon="8.7291702"><ele>307.0</ele><time>2026-04-16T09:04:33.546Z</time></trkpt><trkpt lat="45.6975566" lon="8.7291052"><ele>307.0</ele><time>2026-04-16T09:04:34.552Z</time></trkpt><trkpt lat="45.6977378" lon="8.7290357"><ele>307.0</ele><time>2026-04-16T09:04:35.552Z</time></trkpt><trkpt lat="45.697928" lon="8.7289471"><ele>309.0</ele><time>2026-04-16T09:04:36.558Z</time></trkpt><trkpt lat="45.6981132" lon="8.7288727"><ele>311.0</ele><time>2026-04-16T09:04:37.557Z</time></trkpt><trkpt lat="45.6983128" lon="8.7287757"><ele>313.0</ele><time>2026-04-16T09:04:38.557Z</time></trkpt><trkpt lat="45.6985167" lon="8.7286856"><ele>313.66666666666663</ele><time>2026-04-16T09:04:39.558Z</time></trkpt><trkpt lat="45.6987172" lon="8.7286047"><ele>314.3333333333333</ele><time>2026-04-16T09:04:40.56Z</time></trkpt><trkpt lat="45.6989102" lon="8.7285508"><ele>315.0</ele><time>2026-04-16T09:04:41.554Z</time></trkpt><trkpt lat="45.6990748" lon="8.7285112"><ele>315.0</ele><time>2026-04-16T09:04:42.56Z</time></trkpt><trkpt lat="45.6992293" lon="8.728478"><ele>315.0</ele><time>2026-04-16T09:04:43.561Z</time></trkpt><trkpt lat="45.6994051" lon="8.7284112"><ele>315.0</ele><time>2026-04-16T09:04:44.561Z</time></trkpt><trkpt lat="45.6995799" lon="8.7283257"><ele>316.0</ele><time>2026-04-16T09:04:45.556Z</time></trkpt><trkpt lat="45.6997361" lon="8.7282347"><ele>317.0</ele><time>2026-04-16T09:04:46.551Z</time></trkpt><trkpt lat="45.6998821" lon="8.728156"><ele>318.0</ele><time>2026-04-16T09:04:47.554Z</time></trkpt><trkpt lat="45.7000244" lon="8.7280803"><ele>318.0</ele><time>2026-04-16T09:04:48.551Z</time></trkpt><trkpt lat="45.7001561" lon="8.7280461"><ele>318.0</ele><time>2026-04-16T09:04:49.557Z</time></trkpt><trkpt lat="45.7002808" lon="8.7280171"><ele>318.0</ele><time>2026-04-16T09:04:50.555Z</time></trkpt><trkpt lat="45.700392" lon="8.728003"><ele>318.0</ele><time>2026-04-16T09:04:51.556Z</time></trkpt><trkpt lat="45.7005239" lon="8.7280898"><ele>318.0</ele><time>2026-04-16T09:04:52.558Z</time></trkpt><trkpt lat="45.7006946" lon="8.7281472"><ele>318.0</ele><time>2026-04-16T09:04:53.551Z</time></trkpt><trkpt lat="45.7008702" lon="8.7282063"><ele>318.0</ele><time>2026-04-16T09:04:54.549Z</time></trkpt><trkpt lat="45.7010332" lon="8.7282598"><ele>319.0</ele><time>2026-04-16T09:04:55.559Z</time></trkpt><trkpt lat="45.7011996" lon="8.7282569"><ele>320.0</ele><time>2026-04-16T09:04:56.546Z</time></trkpt><trkpt lat="45.7013233" lon="8.7282929"><ele>321.0</ele><time>2026-04-16T09:04:57.547Z</time></trkpt><trkpt lat="45.7014284" lon="8.7283314"><ele>322.0</ele><time>2026-04-16T09:04:58.543Z</time></trkpt><trkpt lat="45.7015141" lon="8.7283694"><ele>322.0</ele><time>2026-04-16T09:04:59.542Z</time></trkpt><trkpt lat="45.7016107" lon="8.7283804"><ele>322.0</ele><time>2026-04-16T09:05:00.547Z</time></trkpt><trkpt lat="45.7016753" lon="8.7283807"><ele>322.0</ele><time>2026-04-16T09:05:01.542Z</time></trkpt><trkpt lat="45.7017472" lon="8.728388"><ele>322.0</ele><time>2026-04-16T09:05:02.545Z</time></trkpt><trkpt lat="45.7018016" lon="8.7282806"><ele>322.0</ele><time>2026-04-16T09:05:03.546Z</time></trkpt><trkpt lat="45.7019292" lon="8.7281611"><ele>320.3333333333333</ele><time>2026-04-16T09:05:04.55Z</time></trkpt><trkpt lat="45.7020576" lon="8.7281122"><ele>318.6666666666667</ele><time>2026-04-16T09:05:05.548Z</time></trkpt><trkpt lat="45.7021942" lon="8.7280171"><ele>317.0</ele><time>2026-04-16T09:05:06.554Z</time></trkpt><trkpt lat="45.7023689" lon="8.7278762"><ele>316.6666666666667</ele><time>2026-04-16T09:05:07.556Z</time></trkpt><trkpt lat="45.7025601" lon="8.7276967"><ele>316.3333333333333</ele><time>2026-04-16T09:05:08.554Z</time></trkpt><trkpt lat="45.7027146" lon="8.7275395"><ele>316.0</ele><time>2026-04-16T09:05:09.552Z</time></trkpt><trkpt lat="45.7028565" lon="8.7274092"><ele>316.0</ele><time>2026-04-16T09:05:10.554Z</time></trkpt><trkpt lat="45.7030024" lon="8.7272923"><ele>316.0</ele><time>2026-04-16T09:05:11.547Z</time></trkpt><trkpt lat="45.7031715" lon="8.7271997"><ele>316.0</ele><time>2026-04-16T09:05:12.551Z</time></trkpt><trkpt lat="45.7033235" lon="8.7270838"><ele>316.0</ele><time>2026-04-16T09:05:13.551Z</time></trkpt><trkpt lat="45.7034741" lon="8.7269868"><ele>316.0</ele><time>2026-04-16T09:05:14.541Z</time></trkpt><trkpt lat="45.7035929" lon="8.726923"><ele>316.0</ele><time>2026-04-16T09:05:15.539Z</time></trkpt><trkpt lat="45.7036996" lon="8.7268564"><ele>316.0</ele><time>2026-04-16T09:05:16.544Z</time></trkpt><trkpt lat="45.703793" lon="8.7267926"><ele>315.75</ele><time>2026-04-16T09:05:17.538Z</time></trkpt><trkpt lat="45.7038855" lon="8.7267533"><ele>315.5</ele><time>2026-04-16T09:05:18.54Z</time></trkpt><trkpt lat="45.704" lon="8.726792"><ele>315.25</ele><time>2026-04-16T09:05:19.535Z</time></trkpt><trkpt lat="45.7041299" lon="8.7269382"><ele>315.0</ele><time>2026-04-16T09:05:20.543Z</time></trkpt><trkpt lat="45.7042743" lon="8.7270071"><ele>313.3333333333333</ele><time>2026-04-16T09:05:21.54Z</time></trkpt><trkpt lat="45.7044241" lon="8.7272326"><ele>311.66666666666663</ele><time>2026-04-16T09:05:22.547Z</time></trkpt><trkpt lat="45.7045775" lon="8.7273604"><ele>310.0</ele><time>2026-04-16T09:05:23.544Z</time></trkpt><trkpt lat="45.704733" lon="8.7274836"><ele>310.0</ele><time>2026-04-16T09:05:24.556Z</time></trkpt><trkpt lat="45.7048887" lon="8.7275606"><ele>310.0</ele><time>2026-04-16T09:05:25.55Z</time></trkpt><trkpt lat="45.7050094" lon="8.7276078"><ele>310.0</ele><time>2026-04-16T09:05:26.568Z</time></trkpt><trkpt lat="45.7050993" lon="8.7276431"><ele>310.0</ele><time>2026-04-16T09:05:27.555Z</time></trkpt><trkpt lat="45.7051989" lon="8.7276667"><ele>308.6</ele><time>2026-04-16T09:05:28.559Z</time></trkpt><trkpt lat="45.705314" lon="8.727683"><ele>307.2</ele><time>2026-04-16T09:05:29.556Z</time></trkpt><trkpt lat="45.7054226" lon="8.7276535"><ele>305.8</ele><time>2026-04-16T09:05:30.565Z</time></trkpt><trkpt lat="45.7055195" lon="8.7276014"><ele>304.4</ele><time>2026-04-16T09:05:31.56Z</time></trkpt><trkpt lat="45.7055915" lon="8.7275294"><ele>303.0</ele><time>2026-04-16T09:05:32.567Z</time></trkpt><trkpt lat="45.7056487" lon="8.7274221"><ele>303.0</ele><time>2026-04-16T09:05:33.562Z</time></trkpt><trkpt lat="45.7057029" lon="8.7272995"><ele>303.0</ele><time>2026-04-16T09:05:34.562Z</time></trkpt><trkpt lat="45.7057668" lon="8.727173"><ele>303.0</ele><time>2026-04-16T09:05:35.555Z</time></trkpt><trkpt lat="45.7058308" lon="8.7270669"><ele>303.0</ele><time>2026-04-16T09:05:36.559Z</time></trkpt><trkpt lat="45.7058937" lon="8.7269597"><ele>303.0</ele><time>2026-04-16T09:05:37.556Z</time></trkpt><trkpt lat="45.7059463" lon="8.7268468"><ele>302.8</ele><time>2026-04-16T09:05:38.557Z</time></trkpt><trkpt lat="45.7060121" lon="8.7267368"><ele>302.6</ele><time>2026-04-16T09:05:39.557Z</time></trkpt><trkpt lat="45.706093" lon="8.7266273"><ele>302.4</ele><time>2026-04-16T09:05:40.568Z</time></trkpt><trkpt lat="45.7061745" lon="8.7265295"><ele>302.2</ele><time>2026-04-16T09:05:41.561Z</time></trkpt><trkpt lat="45.7062374" lon="8.726443"><ele>302.0</ele><time>2026-04-16T09:05:42.561Z</time></trkpt><trkpt lat="45.7063073" lon="8.7263584"><ele>302.0</ele><time>2026-04-16T09:05:43.556Z</time></trkpt><trkpt lat="45.7063762" lon="8.7262559"><ele>302.0</ele><time>2026-04-16T09:05:44.561Z</time></trkpt><trkpt lat="45.7064478" lon="8.7261338"><ele>302.0</ele><time>2026-04-16T09:05:45.556Z</time></trkpt><trkpt lat="45.7065262" lon="8.7260156"><ele>302.0</ele><time>2026-04-16T09:05:46.554Z</time></trkpt><trkpt lat="45.7066027" lon="8.7258945"><ele>302.0</ele><time>2026-04-16T09:05:47.55Z</time></trkpt><trkpt lat="45.7066875" lon="8.7257647"><ele>300.75</ele><time>2026-04-16T09:05:48.555Z</time></trkpt><trkpt lat="45.7067714" lon="8.7256269"><ele>299.5</ele><time>2026-04-16T09:05:49.553Z</time></trkpt><trkpt lat="45.7068445" lon="8.7254717"><ele>298.25</ele><time>2026-04-16T09:05:50.554Z</time></trkpt><trkpt lat="45.7069174" lon="8.7253501"><ele>297.0</ele><time>2026-04-16T09:05:51.551Z</time></trkpt><trkpt lat="45.7069824" lon="8.7252142"><ele>297.0</ele><time>2026-04-16T09:05:52.55Z</time></trkpt><trkpt lat="45.7070232" lon="8.7251051"><ele>297.0</ele><time>2026-04-16T09:05:53.557Z</time></trkpt><trkpt lat="45.7070681" lon="8.7250373"><ele>297.0</ele><time>2026-04-16T09:05:54.557Z</time></trkpt><trkpt lat="45.7071231" lon="8.7249391"><ele>297.0</ele><time>2026-04-16T09:05:55.552Z</time></trkpt><trkpt lat="45.7072108" lon="8.7248636"><ele>297.0</ele><time>2026-04-16T09:05:57.573Z</time></trkpt><trkpt lat="45.7073326" lon="8.7248544"><ele>297.0</ele><time>2026-04-16T09:05:59.559Z</time></trkpt><trkpt lat="45.7074001" lon="8.7249227"><ele>297.0</ele><time>2026-04-16T09:06:00.571Z</time></trkpt><trkpt lat="45.7074786" lon="8.7250078"><ele>297.0</ele><time>2026-04-16T09:06:01.565Z</time></trkpt><trkpt lat="45.7075626" lon="8.7251346"><ele>297.0</ele><time>2026-04-16T09:06:02.58Z</time></trkpt><trkpt lat="45.707666" lon="8.725228"><ele>297.0</ele><time>2026-04-16T09:06:03.585Z</time></trkpt><trkpt lat="45.7077635" lon="8.7253391"><ele>295.8</ele><time>2026-04-16T09:06:04.581Z</time></trkpt><trkpt lat="45.707856" lon="8.7254513"><ele>294.6</ele><time>2026-04-16T09:06:05.581Z</time></trkpt><trkpt lat="45.7079459" lon="8.7255489"><ele>293.40000000000003</ele><time>2026-04-16T09:06:06.579Z</time></trkpt><trkpt lat="45.7080207" lon="8.725651"><ele>292.2</ele><time>2026-04-16T09:06:07.571Z</time></trkpt><trkpt lat="45.7080946" lon="8.725761"><ele>291.0</ele><time>2026-04-16T09:06:08.578Z</time></trkpt><trkpt lat="45.7081503" lon="8.7258735"><ele>291.0</ele><time>2026-04-16T09:06:09.561Z</time></trkpt><trkpt lat="45.7081846" lon="8.7259877"><ele>291.0</ele><time>2026-04-16T09:06:10.574Z</time></trkpt><trkpt lat="45.7081953" lon="8.7260893"><ele>291.0</ele><time>2026-04-16T09:06:11.564Z</time></trkpt><trkpt lat="45.7082103" lon="8.7262849"><ele>291.0</ele><time>2026-04-16T09:06:13.564Z</time></trkpt><trkpt lat="45.7081743" lon="8.7263882"><ele>291.0</ele><time>2026-04-16T09:06:14.563Z</time></trkpt><trkpt lat="45.7081173" lon="8.7264789"><ele>291.0</ele><time>2026-04-16T09:06:15.574Z</time></trkpt><trkpt lat="45.7080274" lon="8.7266121"><ele>291.0</ele><time>2026-04-16T09:06:16.562Z</time></trkpt><trkpt lat="45.7079486" lon="8.7267484"><ele>291.0</ele><time>2026-04-16T09:06:17.555Z</time></trkpt><trkpt lat="45.7078501" lon="8.7268868"><ele>291.0</ele><time>2026-04-16T09:06:18.563Z</time></trkpt><trkpt lat="45.7077877" lon="8.7270035"><ele>291.0</ele><time>2026-04-16T09:06:19.557Z</time></trkpt><trkpt lat="45.7077681" lon="8.7271112"><ele>291.0</ele><time>2026-04-16T09:06:20.563Z</time></trkpt><trkpt lat="45.7077986" lon="8.7272321"><ele>291.0</ele><time>2026-04-16T09:06:22.558Z</time></trkpt><trkpt lat="45.7078592" lon="8.7272809"><ele>291.0</ele><time>2026-04-16T09:06:23.561Z</time></trkpt><trkpt lat="45.7079207" lon="8.7273145"><ele>291.0</ele><time>2026-04-16T09:06:24.562Z</time></trkpt><trkpt lat="45.7080183" lon="8.7272769"><ele>291.0</ele><time>2026-04-16T09:06:26.557Z</time></trkpt><trkpt lat="45.7080647" lon="8.7271327"><ele>291.0</ele><time>2026-04-16T09:06:28.572Z</time></trkpt><trkpt lat="45.7081095" lon="8.7269578"><ele>291.0</ele><time>2026-04-16T09:06:29.557Z</time></trkpt><trkpt lat="45.7081651" lon="8.7267826"><ele>291.0</ele><time>2026-04-16T09:06:30.566Z</time></trkpt><trkpt lat="45.7082071" lon="8.7266707"><ele>291.0</ele><time>2026-04-16T09:06:31.558Z</time></trkpt><trkpt lat="45.7082458" lon="8.7265679"><ele>291.0</ele><time>2026-04-16T09:06:32.557Z</time></trkpt><trkpt lat="45.7082854" lon="8.7264936"><ele>291.5</ele><time>2026-04-16T09:06:33.554Z</time></trkpt><trkpt lat="45.7083408" lon="8.7264464"><ele>292.0</ele><time>2026-04-16T09:06:35.559Z</time></trkpt><trkpt lat="45.7084694" lon="8.7263758"><ele>292.5</ele><time>2026-04-16T09:06:37.557Z</time></trkpt><trkpt lat="45.7085378" lon="8.7263878"><ele>293.0</ele><time>2026-04-16T09:06:38.56Z</time></trkpt><trkpt lat="45.7086051" lon="8.7264081"><ele>293.5</ele><time>2026-04-16T09:06:39.561Z</time></trkpt><trkpt lat="45.7086887" lon="8.7264273"><ele>294.0</ele><time>2026-04-16T09:06:40.564Z</time></trkpt><trkpt lat="45.7087659" lon="8.7264511"><ele>294.0</ele><time>2026-04-16T09:06:41.561Z</time></trkpt><trkpt lat="45.7088445" lon="8.726537"><ele>294.0</ele><time>2026-04-16T09:06:43.559Z</time></trkpt><trkpt lat="45.7089042" lon="8.7266466"><ele>294.0</ele><time>2026-04-16T09:06:45.558Z</time></trkpt><trkpt lat="45.7089492" lon="8.726735"><ele>294.0</ele><time>2026-04-16T09:06:46.562Z</time></trkpt><trkpt lat="45.7089782" lon="8.7268472"><ele>294.0</ele><time>2026-04-16T09:06:47.56Z</time></trkpt><trkpt lat="45.7089765" lon="8.7270117"><ele>293.8</ele><time>2026-04-16T09:06:48.564Z</time></trkpt><trkpt lat="45.7089808" lon="8.7271831"><ele>293.59999999999997</ele><time>2026-04-16T09:06:49.56Z</time></trkpt><trkpt lat="45.7089638" lon="8.7273596"><ele>293.4</ele><time>2026-04-16T09:06:50.561Z</time></trkpt><trkpt lat="45.7089366" lon="8.7275071"><ele>293.2</ele><time>2026-04-16T09:06:51.556Z</time></trkpt><trkpt lat="45.7089049" lon="8.7276364"><ele>293.0</ele><time>2026-04-16T09:06:52.563Z</time></trkpt><trkpt lat="45.7088772" lon="8.7277349"><ele>293.6</ele><time>2026-04-16T09:06:53.553Z</time></trkpt><trkpt lat="45.7087932" lon="8.7278581"><ele>294.20000000000005</ele><time>2026-04-16T09:06:55.557Z</time></trkpt><trkpt lat="45.7087243" lon="8.7278551"><ele>294.8</ele><time>2026-04-16T09:06:56.558Z</time></trkpt><trkpt lat="45.7086295" lon="8.7278579"><ele>295.40000000000003</ele><time>2026-04-16T09:06:57.558Z</time></trkpt><trkpt lat="45.7085143" lon="8.7278666"><ele>296.0</ele><time>2026-04-16T09:06:58.556Z</time></trkpt><trkpt lat="45.7084029" lon="8.7278863"><ele>294.6666666666667</ele><time>2026-04-16T09:06:59.589Z</time></trkpt><trkpt lat="45.7083221" lon="8.7279289"><ele>293.33333333333337</ele><time>2026-04-16T09:07:00.559Z</time></trkpt><trkpt lat="45.7082461" lon="8.7279673"><ele>292.0</ele><time>2026-04-16T09:07:01.551Z</time></trkpt><trkpt lat="45.7081788" lon="8.7280052"><ele>290.6666666666667</ele><time>2026-04-16T09:07:02.554Z</time></trkpt><trkpt lat="45.7080718" lon="8.7280659"><ele>289.3333333333333</ele><time>2026-04-16T09:07:04.544Z</time></trkpt><trkpt lat="45.7080063" lon="8.7281013"><ele>288.0</ele><time>2026-04-16T09:07:05.542Z</time></trkpt><trkpt lat="45.7079352" lon="8.7281179"><ele>288.0</ele><time>2026-04-16T09:07:06.552Z</time></trkpt><trkpt lat="45.7078662" lon="8.7281415"><ele>288.0</ele><time>2026-04-16T09:07:07.555Z</time></trkpt><trkpt lat="45.7077917" lon="8.7281916"><ele>288.0</ele><time>2026-04-16T09:07:08.552Z</time></trkpt><trkpt lat="45.7077124" lon="8.7282281"><ele>288.0</ele><time>2026-04-16T09:07:09.556Z</time></trkpt><trkpt lat="45.7076375" lon="8.7282648"><ele>288.0</ele><time>2026-04-16T09:07:10.56Z</time></trkpt><trkpt lat="45.7075597" lon="8.7283003"><ele>288.0</ele><time>2026-04-16T09:07:11.552Z</time></trkpt><trkpt lat="45.7074766" lon="8.7283626"><ele>287.8</ele><time>2026-04-16T09:07:12.551Z</time></trkpt><trkpt lat="45.7073824" lon="8.7284491"><ele>287.6</ele><time>2026-04-16T09:07:13.548Z</time></trkpt><trkpt lat="45.7072926" lon="8.7285118"><ele>287.4</ele><time>2026-04-16T09:07:14.55Z</time></trkpt><trkpt lat="45.7072133" lon="8.7285684"><ele>287.2</ele><time>2026-04-16T09:07:15.554Z</time></trkpt><trkpt lat="45.707121" lon="8.7286193"><ele>287.0</ele><time>2026-04-16T09:07:16.557Z</time></trkpt><trkpt lat="45.7070399" lon="8.7286775"><ele>287.0</ele><time>2026-04-16T09:07:17.558Z</time></trkpt><trkpt lat="45.7069506" lon="8.72873"><ele>287.0</ele><time>2026-04-16T09:07:18.555Z</time></trkpt><trkpt lat="45.7068669" lon="8.7287935"><ele>287.0</ele><time>2026-04-16T09:07:19.558Z</time></trkpt><trkpt lat="45.706783" lon="8.7288583"><ele>287.0</ele><time>2026-04-16T09:07:20.556Z</time></trkpt><trkpt lat="45.706716" lon="8.7289116"><ele>287.0</ele><time>2026-04-16T09:07:21.551Z</time></trkpt><trkpt lat="45.7066702" lon="8.7290131"><ele>287.0</ele><time>2026-04-16T09:07:23.557Z</time></trkpt><trkpt lat="45.7066474" lon="8.7291238"><ele>287.6</ele><time>2026-04-16T09:07:25.558Z</time></trkpt><trkpt lat="45.7066882" lon="8.7292705"><ele>288.2</ele><time>2026-04-16T09:07:27.559Z</time></trkpt><trkpt lat="45.706731" lon="8.7293667"><ele>288.8</ele><time>2026-04-16T09:07:28.556Z</time></trkpt><trkpt lat="45.7067784" lon="8.729513"><ele>289.4</ele><time>2026-04-16T09:07:30.559Z</time></trkpt><trkpt lat="45.7067945" lon="8.7296171"><ele>290.0</ele><time>2026-04-16T09:07:31.557Z</time></trkpt><trkpt lat="45.7067689" lon="8.7297477"><ele>290.6</ele><time>2026-04-16T09:07:33.555Z</time></trkpt><trkpt lat="45.7067129" lon="8.7299124"><ele>291.2</ele><time>2026-04-16T09:07:35.554Z</time></trkpt><trkpt lat="45.706677" lon="8.7300041"><ele>291.8</ele><time>2026-04-16T09:07:36.554Z</time></trkpt><trkpt lat="45.7066369" lon="8.7300871"><ele>292.4</ele><time>2026-04-16T09:07:37.551Z</time></trkpt><trkpt lat="45.7065605" lon="8.7302083"><ele>293.0</ele><time>2026-04-16T09:07:39.56Z</time></trkpt><trkpt lat="45.7064935" lon="8.7302982"><ele>293.1666666666667</ele><time>2026-04-16T09:07:41.551Z</time></trkpt><trkpt lat="45.7064329" lon="8.7304572"><ele>293.33333333333337</ele><time>2026-04-16T09:07:43.55Z</time></trkpt><trkpt lat="45.7064039" lon="8.7305536"><ele>293.5</ele><time>2026-04-16T09:07:44.552Z</time></trkpt><trkpt lat="45.7063554" lon="8.7306405"><ele>293.6666666666667</ele><time>2026-04-16T09:07:45.55Z</time></trkpt><trkpt lat="45.7063042" lon="8.7307177"><ele>293.8333333333333</ele><time>2026-04-16T09:07:46.552Z</time></trkpt><trkpt lat="45.7063434" lon="8.7306326"><ele>294.0</ele><time>2026-04-16T09:08:39.589Z</time></trkpt><trkpt lat="45.7064174" lon="8.7305652"><ele>294.0</ele><time>2026-04-16T09:08:47.569Z</time></trkpt><trkpt lat="45.7064574" lon="8.7304755"><ele>294.0</ele><time>2026-04-16T09:08:50.565Z</time></trkpt><trkpt lat="45.7064803" lon="8.7303517"><ele>294.0</ele><time>2026-04-16T09:08:52.562Z</time></trkpt><trkpt lat="45.7065479" lon="8.7301923"><ele>294.0</ele><time>2026-04-16T09:08:54.567Z</time></trkpt><trkpt lat="45.7065808" lon="8.730112"><ele>294.0</ele><time>2026-04-16T09:08:55.562Z</time></trkpt><trkpt lat="45.7066033" lon="8.7300275"><ele>294.0</ele><time>2026-04-16T09:08:56.567Z</time></trkpt><trkpt lat="45.7066577" lon="8.7299213"><ele>293.8</ele><time>2026-04-16T09:08:58.571Z</time></trkpt><trkpt lat="45.7067229" lon="8.7297987"><ele>293.59999999999997</ele><time>2026-04-16T09:09:00.571Z</time></trkpt><trkpt lat="45.7068274" lon="8.7296452"><ele>293.4</ele><time>2026-04-16T09:09:02.576Z</time></trkpt><trkpt lat="45.7068695" lon="8.7295659"><ele>293.2</ele><time>2026-04-16T09:09:03.556Z</time></trkpt><trkpt lat="45.7069035" lon="8.7294868"><ele>293.0</ele><time>2026-04-16T09:09:04.565Z</time></trkpt><trkpt lat="45.7069586" lon="8.7293619"><ele>292.0</ele><time>2026-04-16T09:09:06.557Z</time></trkpt><trkpt lat="45.7069996" lon="8.7292334"><ele>291.0</ele><time>2026-04-16T09:09:08.558Z</time></trkpt><trkpt lat="45.7070087" lon="8.7290474"><ele>290.0</ele><time>2026-04-16T09:09:10.566Z</time></trkpt><trkpt lat="45.7070001" lon="8.728924"><ele>289.0</ele><time>2026-04-16T09:09:12.557Z</time></trkpt><trkpt lat="45.7069581" lon="8.7288471"><ele>288.0</ele><time>2026-04-16T09:09:15.558Z</time></trkpt><trkpt lat="45.7069962" lon="8.7287717"><ele>287.0</ele><time>2026-04-16T09:09:17.561Z</time></trkpt><trkpt lat="45.7070313" lon="8.7286646"><ele>287.0</ele><time>2026-04-16T09:09:19.564Z</time></trkpt><trkpt lat="45.7071278" lon="8.7285599"><ele>287.0</ele><time>2026-04-16T09:09:21.564Z</time></trkpt><trkpt lat="45.7071832" lon="8.7284964"><ele>287.0</ele><time>2026-04-16T09:09:22.565Z</time></trkpt><trkpt lat="45.7072616" lon="8.7284367"><ele>287.0</ele><time>2026-04-16T09:09:23.564Z</time></trkpt><trkpt lat="45.7073471" lon="8.7283762"><ele>287.0</ele><time>2026-04-16T09:09:24.569Z</time></trkpt><trkpt lat="45.7074369" lon="8.7283236"><ele>287.2</ele><time>2026-04-16T09:09:25.568Z</time></trkpt><trkpt lat="45.7075246" lon="8.7282686"><ele>287.4</ele><time>2026-04-16T09:09:26.565Z</time></trkpt><trkpt lat="45.7076218" lon="8.7282136"><ele>287.6</ele><time>2026-04-16T09:09:27.569Z</time></trkpt><trkpt lat="45.7077134" lon="8.7281443"><ele>287.8</ele><time>2026-04-16T09:09:28.571Z</time></trkpt><trkpt lat="45.707819" lon="8.7280767"><ele>288.0</ele><time>2026-04-16T09:09:29.566Z</time></trkpt><trkpt lat="45.7079216" lon="8.7280065"><ele>288.0</ele><time>2026-04-16T09:09:30.572Z</time></trkpt><trkpt lat="45.708001" lon="8.7279544"><ele>288.0</ele><time>2026-04-16T09:09:31.563Z</time></trkpt><trkpt lat="45.7080689" lon="8.727912"><ele>288.0</ele><time>2026-04-16T09:09:32.563Z</time></trkpt><trkpt lat="45.7081888" lon="8.7278591"><ele>288.0</ele><time>2026-04-16T09:09:34.566Z</time></trkpt><trkpt lat="45.7082614" lon="8.727851"><ele>288.0</ele><time>2026-04-16T09:09:35.563Z</time></trkpt><trkpt lat="45.7083311" lon="8.7278237"><ele>288.0</ele><time>2026-04-16T09:09:36.56Z</time></trkpt><trkpt lat="45.70842" lon="8.7277213"><ele>288.5</ele><time>2026-04-16T09:09:38.561Z</time></trkpt><trkpt lat="45.7085221" lon="8.7276599"><ele>289.0</ele><time>2026-04-16T09:09:40.559Z</time></trkpt><trkpt lat="45.7085853" lon="8.7276419"><ele>289.5</ele><time>2026-04-16T09:09:45.567Z</time></trkpt><trkpt lat="45.7086564" lon="8.7276685"><ele>290.0</ele><time>2026-04-16T09:09:49.571Z</time></trkpt><trkpt lat="45.7087122" lon="8.7277733"><ele>290.5</ele><time>2026-04-16T09:09:51.566Z</time></trkpt><trkpt lat="45.7087491" lon="8.7278804"><ele>291.0</ele><time>2026-04-16T09:09:53.569Z</time></trkpt><trkpt lat="45.7087494" lon="8.7279938"><ele>291.8333333333333</ele><time>2026-04-16T09:09:54.568Z</time></trkpt><trkpt lat="45.7087253" lon="8.7281066"><ele>292.6666666666667</ele><time>2026-04-16T09:09:55.562Z</time></trkpt><trkpt lat="45.708696" lon="8.7282"><ele>293.5</ele><time>2026-04-16T09:09:56.566Z</time></trkpt><trkpt lat="45.7086795" lon="8.7282905"><ele>294.33333333333337</ele><time>2026-04-16T09:09:57.563Z</time></trkpt><trkpt lat="45.7086466" lon="8.7284343"><ele>295.1666666666667</ele><time>2026-04-16T09:09:58.567Z</time></trkpt><trkpt lat="45.7086115" lon="8.7285858"><ele>296.0</ele><time>2026-04-16T09:09:59.565Z</time></trkpt><trkpt lat="45.7086034" lon="8.7287114"><ele>296.1666666666667</ele><time>2026-04-16T09:10:00.559Z</time></trkpt><trkpt lat="45.7086121" lon="8.7288467"><ele>296.33333333333337</ele><time>2026-04-16T09:10:01.562Z</time></trkpt><trkpt lat="45.7086211" lon="8.7290196"><ele>296.5</ele><time>2026-04-16T09:10:03.563Z</time></trkpt><trkpt lat="45.7086224" lon="8.7291194"><ele>296.6666666666667</ele><time>2026-04-16T09:10:06.567Z</time></trkpt><trkpt lat="45.7085677" lon="8.7291927"><ele>296.8333333333333</ele><time>2026-04-16T09:10:17.582Z</time></trkpt><trkpt lat="45.708593" lon="8.7292887"><ele>297.0</ele><time>2026-04-16T09:10:22.573Z</time></trkpt><trkpt lat="45.7086189" lon="8.7294433"><ele>297.0</ele><time>2026-04-16T09:10:24.563Z</time></trkpt><trkpt lat="45.7086611" lon="8.7295947"><ele>297.0</ele><time>2026-04-16T09:10:26.57Z</time></trkpt><trkpt lat="45.7086852" lon="8.7296923"><ele>297.0</ele><time>2026-04-16T09:10:27.571Z</time></trkpt><trkpt lat="45.708718" lon="8.7298046"><ele>297.0</ele><time>2026-04-16T09:10:28.567Z</time></trkpt><trkpt lat="45.7087481" lon="8.7299117"><ele>297.0</ele><time>2026-04-16T09:10:29.568Z</time></trkpt><trkpt lat="45.7087812" lon="8.7300264"><ele>297.0</ele><time>2026-04-16T09:10:30.567Z</time></trkpt><trkpt lat="45.708806" lon="8.7301556"><ele>296.8333333333333</ele><time>2026-04-16T09:10:31.569Z</time></trkpt><trkpt lat="45.7088274" lon="8.7302977"><ele>296.6666666666667</ele><time>2026-04-16T09:10:32.575Z</time></trkpt><trkpt lat="45.7088403" lon="8.7304303"><ele>296.5</ele><time>2026-04-16T09:10:33.568Z</time></trkpt><trkpt lat="45.7088607" lon="8.7305579"><ele>296.33333333333337</ele><time>2026-04-16T09:10:34.571Z</time></trkpt><trkpt lat="45.7088848" lon="8.7306671"><ele>296.1666666666667</ele><time>2026-04-16T09:10:35.584Z</time></trkpt><trkpt lat="45.7089159" lon="8.730777"><ele>296.0</ele><time>2026-04-16T09:10:36.571Z</time></trkpt><trkpt lat="45.7089322" lon="8.7308748"><ele>296.0</ele><time>2026-04-16T09:10:37.567Z</time></trkpt><trkpt lat="45.7089454" lon="8.7309665"><ele>296.0</ele><time>2026-04-16T09:10:38.567Z</time></trkpt><trkpt lat="45.7089728" lon="8.7310723"><ele>296.0</ele><time>2026-04-16T09:10:39.573Z</time></trkpt><trkpt lat="45.7090424" lon="8.7312104"><ele>296.0</ele><time>2026-04-16T09:10:41.565Z</time></trkpt><trkpt lat="45.7091059" lon="8.7313274"><ele>296.0</ele><time>2026-04-16T09:10:43.563Z</time></trkpt><trkpt lat="45.7091515" lon="8.7314171"><ele>296.0</ele><time>2026-04-16T09:10:45.56Z</time></trkpt><trkpt lat="45.7091609" lon="8.7315166"><ele>295.33333333333337</ele><time>2026-04-16T09:10:47.558Z</time></trkpt><trkpt lat="45.7091535" lon="8.7316155"><ele>294.6666666666667</ele><time>2026-04-16T09:10:49.558Z</time></trkpt><trkpt lat="45.7090623" lon="8.7315499"><ele>294.0</ele><time>2026-04-16T09:10:54.564Z</time></trkpt><trkpt lat="45.7090011" lon="8.731523"><ele>293.3333333333333</ele><time>2026-04-16T09:10:55.555Z</time></trkpt><trkpt lat="45.7089283" lon="8.7314665"><ele>292.66666666666663</ele><time>2026-04-16T09:10:56.56Z</time></trkpt><trkpt lat="45.7088586" lon="8.7314486"><ele>292.0</ele><time>2026-04-16T09:10:58.565Z</time></trkpt><trkpt lat="45.7087559" lon="8.7315054"><ele>292.0</ele><time>2026-04-16T09:11:00.562Z</time></trkpt><trkpt lat="45.708665" lon="8.7315285"><ele>292.0</ele><time>2026-04-16T09:11:02.56Z</time></trkpt><trkpt lat="45.708611" lon="8.7315942"><ele>292.0</ele><time>2026-04-16T09:11:05.57Z</time></trkpt><trkpt lat="45.7085426" lon="8.7315903"><ele>292.0</ele><time>2026-04-16T09:11:08.573Z</time></trkpt><trkpt lat="45.7084736" lon="8.7315813"><ele>292.0</ele><time>2026-04-16T09:11:10.571Z</time></trkpt><trkpt lat="45.7083987" lon="8.7315706"><ele>292.0</ele><time>2026-04-16T09:11:12.572Z</time></trkpt><trkpt lat="45.7083252" lon="8.7315754"><ele>291.4</ele><time>2026-04-16T09:11:15.565Z</time></trkpt><trkpt lat="45.7082583" lon="8.7315012"><ele>290.79999999999995</ele><time>2026-04-16T09:11:18.565Z</time></trkpt><trkpt lat="45.7082445" lon="8.7313598"><ele>290.2</ele><time>2026-04-16T09:11:20.56Z</time></trkpt><trkpt lat="45.7082484" lon="8.7312379"><ele>289.59999999999997</ele><time>2026-04-16T09:11:21.56Z</time></trkpt><trkpt lat="45.7082744" lon="8.7310713"><ele>289.0</ele><time>2026-04-16T09:11:23.556Z</time></trkpt><trkpt lat="45.708217" lon="8.7308234"><ele>288.4</ele><time>2026-04-16T09:11:24.558Z</time></trkpt><trkpt lat="45.7081774" lon="8.7306695"><ele>287.79999999999995</ele><time>2026-04-16T09:11:25.555Z</time></trkpt><trkpt lat="45.708133" lon="8.7305283"><ele>287.20000000000005</ele><time>2026-04-16T09:11:26.564Z</time></trkpt><trkpt lat="45.7080573" lon="8.730431"><ele>286.6</ele><time>2026-04-16T09:11:27.563Z</time></trkpt><trkpt lat="45.7080145" lon="8.7303322"><ele>286.0</ele><time>2026-04-16T09:11:29.558Z</time></trkpt><trkpt lat="45.7079987" lon="8.7302322"><ele>286.3333333333333</ele><time>2026-04-16T09:11:30.567Z</time></trkpt><trkpt lat="45.7079742" lon="8.7301333"><ele>286.66666666666663</ele><time>2026-04-16T09:11:31.566Z</time></trkpt><trkpt lat="45.7079388" lon="8.7299998"><ele>287.0</ele><time>2026-04-16T09:11:33.563Z</time></trkpt><trkpt lat="45.7079181" lon="8.7298993"><ele>287.3333333333333</ele><time>2026-04-16T09:11:35.562Z</time></trkpt><trkpt lat="45.7079802" lon="8.7298459"><ele>287.6666666666667</ele><time>2026-04-16T09:11:38.579Z</time></trkpt><trkpt lat="45.7080468" lon="8.729928"><ele>288.0</ele><time>2026-04-16T09:11:40.581Z</time></trkpt><trkpt lat="45.7080789" lon="8.730015"><ele>288.0</ele><time>2026-04-16T09:11:41.578Z</time></trkpt><trkpt lat="45.7081122" lon="8.7301257"><ele>288.0</ele><time>2026-04-16T09:11:42.567Z</time></trkpt><trkpt lat="45.7081433" lon="8.7302555"><ele>288.0</ele><time>2026-04-16T09:11:43.566Z</time></trkpt><trkpt lat="45.708174" lon="8.730378"><ele>288.0</ele><time>2026-04-16T09:11:44.565Z</time></trkpt><trkpt lat="45.7081816" lon="8.7305229"><ele>288.0</ele><time>2026-04-16T09:11:45.565Z</time></trkpt><trkpt lat="45.7081894" lon="8.7306682"><ele>288.2</ele><time>2026-04-16T09:11:46.574Z</time></trkpt><trkpt lat="45.708189" lon="8.7308201"><ele>288.4</ele><time>2026-04-16T09:11:47.568Z</time></trkpt><trkpt lat="45.7082046" lon="8.7309903"><ele>288.59999999999997</ele><time>2026-04-16T09:11:48.568Z</time></trkpt><trkpt lat="45.7082267" lon="8.7311016"><ele>288.8</ele><time>2026-04-16T09:11:49.563Z</time></trkpt><trkpt lat="45.7082262" lon="8.7312258"><ele>289.0</ele><time>2026-04-16T09:11:50.572Z</time></trkpt><trkpt lat="45.7082302" lon="8.7313278"><ele>289.0</ele><time>2026-04-16T09:11:51.572Z</time></trkpt><trkpt lat="45.7082651" lon="8.7314712"><ele>289.0</ele><time>2026-04-16T09:11:53.566Z</time></trkpt><trkpt lat="45.7083301" lon="8.7315459"><ele>289.0</ele><time>2026-04-16T09:11:55.564Z</time></trkpt><trkpt lat="45.7084021" lon="8.731617"><ele>289.0</ele><time>2026-04-16T09:11:57.569Z</time></trkpt><trkpt lat="45.7084976" lon="8.7316403"><ele>289.0</ele><time>2026-04-16T09:11:59.57Z</time></trkpt><trkpt lat="45.7085982" lon="8.731593"><ele>289.5</ele><time>2026-04-16T09:12:01.56Z</time></trkpt><trkpt lat="45.7086634" lon="8.7315416"><ele>290.0</ele><time>2026-04-16T09:12:04.565Z</time></trkpt><trkpt lat="45.7087929" lon="8.7315454"><ele>290.5</ele><time>2026-04-16T09:12:08.563Z</time></trkpt><trkpt lat="45.7088829" lon="8.731522"><ele>291.0</ele><time>2026-04-16T09:12:09.561Z</time></trkpt><trkpt lat="45.7089487" lon="8.7315287"><ele>291.5</ele><time>2026-04-16T09:12:10.565Z</time></trkpt><trkpt lat="45.7090215" lon="8.7315138"><ele>292.0</ele><time>2026-04-16T09:12:11.566Z</time></trkpt><trkpt lat="45.7090605" lon="8.7314306"><ele>292.0</ele><time>2026-04-16T09:12:15.564Z</time></trkpt><trkpt lat="45.7090273" lon="8.7313265"><ele>292.0</ele><time>2026-04-16T09:12:23.567Z</time></trkpt><trkpt lat="45.7089906" lon="8.7312512"><ele>292.0</ele><time>2026-04-16T09:12:25.555Z</time></trkpt><trkpt lat="45.7089508" lon="8.7311803"><ele>292.0</ele><time>2026-04-16T09:12:26.557Z</time></trkpt><trkpt lat="45.7088829" lon="8.7310596"><ele>292.0</ele><time>2026-04-16T09:12:27.56Z</time></trkpt><trkpt lat="45.7088254" lon="8.7309369"><ele>292.0</ele><time>2026-04-16T09:12:28.562Z</time></trkpt><trkpt lat="45.7087796" lon="8.7307927"><ele>292.66666666666663</ele><time>2026-04-16T09:12:29.559Z</time></trkpt><trkpt lat="45.7087598" lon="8.7306957"><ele>293.3333333333333</ele><time>2026-04-16T09:12:30.557Z</time></trkpt><trkpt lat="45.7087249" lon="8.7306002"><ele>294.0</ele><time>2026-04-16T09:12:31.56Z</time></trkpt><trkpt lat="45.7087186" lon="8.7304499"><ele>294.6666666666667</ele><time>2026-04-16T09:12:33.567Z</time></trkpt><trkpt lat="45.7087149" lon="8.7302999"><ele>295.33333333333337</ele><time>2026-04-16T09:12:35.57Z</time></trkpt><trkpt lat="45.7087294" lon="8.7301848"><ele>296.0</ele><time>2026-04-16T09:12:37.57Z</time></trkpt><trkpt lat="45.7087124" lon="8.730081"><ele>296.2</ele><time>2026-04-16T09:12:39.565Z</time></trkpt><trkpt lat="45.7086947" lon="8.7299555"><ele>296.40000000000003</ele><time>2026-04-16T09:12:41.567Z</time></trkpt><trkpt lat="45.708675" lon="8.7298188"><ele>296.6</ele><time>2026-04-16T09:12:43.568Z</time></trkpt><trkpt lat="45.7086684" lon="8.7296845"><ele>296.8</ele><time>2026-04-16T09:12:45.57Z</time></trkpt><trkpt lat="45.708638" lon="8.7295715"><ele>297.0</ele><time>2026-04-16T09:12:47.572Z</time></trkpt><trkpt lat="45.7086003" lon="8.7294625"><ele>297.1666666666667</ele><time>2026-04-16T09:12:50.57Z</time></trkpt><trkpt lat="45.7085819" lon="8.7293726"><ele>297.3333333333333</ele><time>2026-04-16T09:12:53.57Z</time></trkpt><trkpt lat="45.7085625" lon="8.7292601"><ele>297.5</ele><time>2026-04-16T09:12:56.572Z</time></trkpt><trkpt lat="45.7085146" lon="8.7291922"><ele>297.66666666666663</ele><time>2026-04-16T09:13:13.564Z</time></trkpt><trkpt lat="45.7084743" lon="8.729088"><ele>297.8333333333333</ele><time>2026-04-16T09:13:16.561Z</time></trkpt><trkpt lat="45.7084474" lon="8.7289387"><ele>298.0</ele><time>2026-04-16T09:13:18.566Z</time></trkpt><trkpt lat="45.7084518" lon="8.7287674"><ele>297.66666666666663</ele><time>2026-04-16T09:13:20.562Z</time></trkpt><trkpt lat="45.708472" lon="8.7286768"><ele>297.3333333333333</ele><time>2026-04-16T09:13:21.563Z</time></trkpt><trkpt lat="45.7085148" lon="8.728595"><ele>297.0</ele><time>2026-04-16T09:13:22.567Z</time></trkpt><trkpt lat="45.7085483" lon="8.7284874"><ele>296.6666666666667</ele><time>2026-04-16T09:13:23.567Z</time></trkpt><trkpt lat="45.7085658" lon="8.7283976"><ele>296.33333333333337</ele><time>2026-04-16T09:13:24.567Z</time></trkpt><trkpt lat="45.7086223" lon="8.7282128"><ele>296.0</ele><time>2026-04-16T09:13:26.568Z</time></trkpt><trkpt lat="45.708653" lon="8.7281116"><ele>296.0</ele><time>2026-04-16T09:13:27.568Z</time></trkpt><trkpt lat="45.7086783" lon="8.7280229"><ele>296.0</ele><time>2026-04-16T09:13:28.568Z</time></trkpt><trkpt lat="45.7086939" lon="8.7279299"><ele>296.0</ele><time>2026-04-16T09:13:29.568Z</time></trkpt><trkpt lat="45.7087168" lon="8.7278326"><ele>296.0</ele><time>2026-04-16T09:13:30.57Z</time></trkpt><trkpt lat="45.7087283" lon="8.7277277"><ele>296.0</ele><time>2026-04-16T09:13:31.567Z</time></trkpt><trkpt lat="45.708768" lon="8.7275782"><ele>296.0</ele><time>2026-04-16T09:13:33.572Z</time></trkpt><trkpt lat="45.7087811" lon="8.7274876"><ele>295.6666666666667</ele><time>2026-04-16T09:13:34.57Z</time></trkpt><trkpt lat="45.7087984" lon="8.7273964"><ele>295.33333333333337</ele><time>2026-04-16T09:13:35.568Z</time></trkpt><trkpt lat="45.7088031" lon="8.7273025"><ele>295.0</ele><time>2026-04-16T09:13:36.571Z</time></trkpt><trkpt lat="45.7088056" lon="8.7271782"><ele>294.6666666666667</ele><time>2026-04-16T09:13:38.577Z</time></trkpt><trkpt lat="45.7087992" lon="8.7270436"><ele>294.3333333333333</ele><time>2026-04-16T09:13:41.571Z</time></trkpt><trkpt lat="45.7087955" lon="8.7269284"><ele>294.0</ele><time>2026-04-16T09:13:43.562Z</time></trkpt><trkpt lat="45.7087911" lon="8.7267731"><ele>294.0</ele><time>2026-04-16T09:13:45.574Z</time></trkpt><trkpt lat="45.7087857" lon="8.7265983"><ele>294.0</ele><time>2026-04-16T09:13:47.56Z</time></trkpt><trkpt lat="45.7088045" lon="8.7265105"><ele>294.0</ele><time>2026-04-16T09:13:48.557Z</time></trkpt><trkpt lat="45.7088299" lon="8.7264275"><ele>294.0</ele><time>2026-04-16T09:13:49.561Z</time></trkpt><trkpt lat="45.7088405" lon="8.7263241"><ele>294.0</ele><time>2026-04-16T09:13:52.568Z</time></trkpt><trkpt lat="45.7089591" lon="8.726354"><ele>294.0</ele><time>2026-04-16T09:13:55.558Z</time></trkpt><trkpt lat="45.7090022" lon="8.7264276"><ele>294.0</ele><time>2026-04-16T09:13:56.563Z</time></trkpt><trkpt lat="45.7090731" lon="8.7265062"><ele>294.0</ele><time>2026-04-16T09:13:57.563Z</time></trkpt><trkpt lat="45.7091865" lon="8.7265863"><ele>294.0</ele><time>2026-04-16T09:13:58.563Z</time></trkpt><trkpt lat="45.7092987" lon="8.7266344"><ele>294.0</ele><time>2026-04-16T09:13:59.561Z</time></trkpt><trkpt lat="45.7094067" lon="8.7267214"><ele>293.75</ele><time>2026-04-16T09:14:00.559Z</time></trkpt><trkpt lat="45.7095107" lon="8.7268141"><ele>293.5</ele><time>2026-04-16T09:14:01.558Z</time></trkpt><trkpt lat="45.709606" lon="8.7269309"><ele>293.25</ele><time>2026-04-16T09:14:02.565Z</time></trkpt><trkpt lat="45.7097049" lon="8.7269943"><ele>293.0</ele><time>2026-04-16T09:14:03.559Z</time></trkpt><trkpt lat="45.7098133" lon="8.7270695"><ele>292.4</ele><time>2026-04-16T09:14:04.563Z</time></trkpt><trkpt lat="45.7099073" lon="8.7271432"><ele>291.8</ele><time>2026-04-16T09:14:05.561Z</time></trkpt><trkpt lat="45.7099999" lon="8.7271788"><ele>291.2</ele><time>2026-04-16T09:14:06.56Z</time></trkpt><trkpt lat="45.7101032" lon="8.7272449"><ele>290.6</ele><time>2026-04-16T09:14:07.559Z</time></trkpt><trkpt lat="45.7102061" lon="8.7273247"><ele>290.0</ele><time>2026-04-16T09:14:08.554Z</time></trkpt><trkpt lat="45.7103356" lon="8.7274079"><ele>288.5</ele><time>2026-04-16T09:14:09.558Z</time></trkpt><trkpt lat="45.7104489" lon="8.7274591"><ele>287.0</ele><time>2026-04-16T09:14:10.562Z</time></trkpt><trkpt lat="45.7105745" lon="8.727531"><ele>285.5</ele><time>2026-04-16T09:14:11.572Z</time></trkpt><trkpt lat="45.7106701" lon="8.7276057"><ele>284.0</ele><time>2026-04-16T09:14:12.56Z</time></trkpt><trkpt lat="45.7107892" lon="8.7276627"><ele>283.4</ele><time>2026-04-16T09:14:13.557Z</time></trkpt><trkpt lat="45.7108879" lon="8.7277421"><ele>282.79999999999995</ele><time>2026-04-16T09:14:14.559Z</time></trkpt><trkpt lat="45.7109834" lon="8.7278075"><ele>282.20000000000005</ele><time>2026-04-16T09:14:15.557Z</time></trkpt><trkpt lat="45.7110494" lon="8.7279014"><ele>281.6</ele><time>2026-04-16T09:14:16.556Z</time></trkpt><trkpt lat="45.7111299" lon="8.728028"><ele>281.0</ele><time>2026-04-16T09:14:17.558Z</time></trkpt><trkpt lat="45.7112089" lon="8.7281508"><ele>278.40000000000003</ele><time>2026-04-16T09:14:18.561Z</time></trkpt><trkpt lat="45.7112934" lon="8.7282574"><ele>275.8</ele><time>2026-04-16T09:14:19.563Z</time></trkpt><trkpt lat="45.7113661" lon="8.7283679"><ele>273.20000000000005</ele><time>2026-04-16T09:14:20.56Z</time></trkpt><trkpt lat="45.7114128" lon="8.7284785"><ele>270.6</ele><time>2026-04-16T09:14:21.563Z</time></trkpt><trkpt lat="45.7114748" lon="8.7285935"><ele>268.0</ele><time>2026-04-16T09:14:22.563Z</time></trkpt><trkpt lat="45.7115285" lon="8.7286749"><ele>267.3333333333333</ele><time>2026-04-16T09:14:23.559Z</time></trkpt><trkpt lat="45.7115791" lon="8.728747"><ele>266.66666666666663</ele><time>2026-04-16T09:14:24.558Z</time></trkpt><trkpt lat="45.7116518" lon="8.7288137"><ele>266.0</ele><time>2026-04-16T09:14:25.562Z</time></trkpt><trkpt lat="45.7117175" lon="8.7289115"><ele>265.3333333333333</ele><time>2026-04-16T09:14:26.571Z</time></trkpt><trkpt lat="45.7117799" lon="8.7290021"><ele>264.6666666666667</ele><time>2026-04-16T09:14:27.576Z</time></trkpt><trkpt lat="45.7118593" lon="8.7291043"><ele>264.0</ele><time>2026-04-16T09:14:28.571Z</time></trkpt><trkpt lat="45.7119326" lon="8.7292024"><ele>263.75</ele><time>2026-04-16T09:14:29.567Z</time></trkpt><trkpt lat="45.7120169" lon="8.7293217"><ele>263.5</ele><time>2026-04-16T09:14:30.574Z</time></trkpt><trkpt lat="45.7120882" lon="8.7294484"><ele>263.25</ele><time>2026-04-16T09:14:31.576Z</time></trkpt><trkpt lat="45.7121805" lon="8.7295318"><ele>263.0</ele><time>2026-04-16T09:14:32.578Z</time></trkpt><trkpt lat="45.7122769" lon="8.7296169"><ele>262.8</ele><time>2026-04-16T09:14:33.575Z</time></trkpt><trkpt lat="45.7123643" lon="8.7296964"><ele>262.6</ele><time>2026-04-16T09:14:34.576Z</time></trkpt><trkpt lat="45.7124594" lon="8.7297723"><ele>262.4</ele><time>2026-04-16T09:14:35.582Z</time></trkpt><trkpt lat="45.7125517" lon="8.7298427"><ele>262.2</ele><time>2026-04-16T09:14:36.585Z</time></trkpt><trkpt lat="45.7126339" lon="8.7298944"><ele>262.0</ele><time>2026-04-16T09:14:37.59Z</time></trkpt><trkpt lat="45.7127079" lon="8.7299503"><ele>262.3333333333333</ele><time>2026-04-16T09:14:38.591Z</time></trkpt><trkpt lat="45.7127801" lon="8.7300061"><ele>262.66666666666663</ele><time>2026-04-16T09:14:39.587Z</time></trkpt><trkpt lat="45.7128617" lon="8.7300622"><ele>263.0</ele><time>2026-04-16T09:14:40.583Z</time></trkpt><trkpt lat="45.7129421" lon="8.7301204"><ele>263.3333333333333</ele><time>2026-04-16T09:14:41.584Z</time></trkpt><trkpt lat="45.7130078" lon="8.7301695"><ele>263.6666666666667</ele><time>2026-04-16T09:14:42.591Z</time></trkpt><trkpt lat="45.7130723" lon="8.7302115"><ele>264.0</ele><time>2026-04-16T09:14:43.568Z</time></trkpt><trkpt lat="45.7131457" lon="8.7302533"><ele>264.0</ele><time>2026-04-16T09:14:44.574Z</time></trkpt><trkpt lat="45.713232" lon="8.7302906"><ele>264.0</ele><time>2026-04-16T09:14:46.574Z</time></trkpt><trkpt lat="45.7132728" lon="8.7303687"><ele>264.0</ele><time>2026-04-16T09:14:53.559Z</time></trkpt><trkpt lat="45.7133509" lon="8.7304081"><ele>264.0</ele><time>2026-04-16T09:14:55.565Z</time></trkpt><trkpt lat="45.7134687" lon="8.7304797"><ele>264.0</ele><time>2026-04-16T09:14:57.554Z</time></trkpt><trkpt lat="45.7135232" lon="8.730541"><ele>264.0</ele><time>2026-04-16T09:14:58.561Z</time></trkpt><trkpt lat="45.7136249" lon="8.7306603"><ele>264.0</ele><time>2026-04-16T09:15:00.562Z</time></trkpt><trkpt lat="45.7136925" lon="8.7307087"><ele>264.0</ele><time>2026-04-16T09:15:01.551Z</time></trkpt><trkpt lat="45.7137662" lon="8.7307815"><ele>264.0</ele><time>2026-04-16T09:15:02.56Z</time></trkpt><trkpt lat="45.7138515" lon="8.73085"><ele>264.0</ele><time>2026-04-16T09:15:03.558Z</time></trkpt><trkpt lat="45.7139283" lon="8.7309114"><ele>264.0</ele><time>2026-04-16T09:15:04.567Z</time></trkpt><trkpt lat="45.7140286" lon="8.7309737"><ele>264.0</ele><time>2026-04-16T09:15:05.557Z</time></trkpt><trkpt lat="45.7141235" lon="8.7310291"><ele>264.0</ele><time>2026-04-16T09:15:06.567Z</time></trkpt><trkpt lat="45.7142139" lon="8.7310786"><ele>264.0</ele><time>2026-04-16T09:15:07.568Z</time></trkpt><trkpt lat="45.7142976" lon="8.7311456"><ele>264.0</ele><time>2026-04-16T09:15:08.572Z</time></trkpt><trkpt lat="45.7143756" lon="8.7312269"><ele>264.0</ele><time>2026-04-16T09:15:09.562Z</time></trkpt><trkpt lat="45.7144462" lon="8.7313139"><ele>264.5</ele><time>2026-04-16T09:15:10.571Z</time></trkpt><trkpt lat="45.7145255" lon="8.7313897"><ele>265.0</ele><time>2026-04-16T09:15:11.568Z</time></trkpt><trkpt lat="45.7145984" lon="8.7314532"><ele>265.5</ele><time>2026-04-16T09:15:12.571Z</time></trkpt><trkpt lat="45.7146565" lon="8.7315013"><ele>266.0</ele><time>2026-04-16T09:15:13.577Z</time></trkpt><trkpt lat="45.714725" lon="8.7315595"><ele>266.5</ele><time>2026-04-16T09:15:14.575Z</time></trkpt><trkpt lat="45.7148008" lon="8.7315981"><ele>267.0</ele><time>2026-04-16T09:15:15.569Z</time></trkpt><trkpt lat="45.7148678" lon="8.7316517"><ele>267.0</ele><time>2026-04-16T09:15:16.566Z</time></trkpt><trkpt lat="45.7149294" lon="8.7317012"><ele>267.0</ele><time>2026-04-16T09:15:17.57Z</time></trkpt><trkpt lat="45.7150208" lon="8.731755"><ele>267.0</ele><time>2026-04-16T09:15:19.563Z</time></trkpt><trkpt lat="45.7150895" lon="8.7317754"><ele>267.0</ele><time>2026-04-16T09:15:20.565Z</time></trkpt><trkpt lat="45.7151638" lon="8.731794"><ele>267.0</ele><time>2026-04-16T09:15:21.559Z</time></trkpt><trkpt lat="45.7152339" lon="8.7318352"><ele>267.0</ele><time>2026-04-16T09:15:22.563Z</time></trkpt><trkpt lat="45.7153151" lon="8.7319069"><ele>266.4</ele><time>2026-04-16T09:15:23.552Z</time></trkpt><trkpt lat="45.7153835" lon="8.731979"><ele>265.79999999999995</ele><time>2026-04-16T09:15:24.555Z</time></trkpt><trkpt lat="45.7154477" lon="8.7320454"><ele>265.2</ele><time>2026-04-16T09:15:25.55Z</time></trkpt><trkpt lat="45.7155278" lon="8.7321104"><ele>264.59999999999997</ele><time>2026-04-16T09:15:26.556Z</time></trkpt><trkpt lat="45.7156236" lon="8.732195"><ele>264.0</ele><time>2026-04-16T09:15:27.554Z</time></trkpt><trkpt lat="45.7157175" lon="8.7322825"><ele>264.0</ele><time>2026-04-16T09:15:28.554Z</time></trkpt><trkpt lat="45.7158154" lon="8.7323656"><ele>264.0</ele><time>2026-04-16T09:15:29.557Z</time></trkpt><trkpt lat="45.7159163" lon="8.7324445"><ele>264.0</ele><time>2026-04-16T09:15:30.557Z</time></trkpt><trkpt lat="45.7160247" lon="8.7325377"><ele>264.0</ele><time>2026-04-16T09:15:31.553Z</time></trkpt><trkpt lat="45.7161347" lon="8.7326351"><ele>264.0</ele><time>2026-04-16T09:15:32.552Z</time></trkpt><trkpt lat="45.7162484" lon="8.7327133"><ele>264.0</ele><time>2026-04-16T09:15:33.549Z</time></trkpt><trkpt lat="45.7163575" lon="8.7328014"><ele>264.0</ele><time>2026-04-16T09:15:34.55Z</time></trkpt><trkpt lat="45.7164716" lon="8.7329"><ele>264.0</ele><time>2026-04-16T09:15:35.551Z</time></trkpt><trkpt lat="45.7165899" lon="8.7329889"><ele>264.25</ele><time>2026-04-16T09:15:36.551Z</time></trkpt><trkpt lat="45.7167167" lon="8.7330893"><ele>264.5</ele><time>2026-04-16T09:15:37.554Z</time></trkpt><trkpt lat="45.7168435" lon="8.7331778"><ele>264.75</ele><time>2026-04-16T09:15:38.548Z</time></trkpt><trkpt lat="45.7169647" lon="8.7332745"><ele>265.0</ele><time>2026-04-16T09:15:39.551Z</time></trkpt><trkpt lat="45.7170846" lon="8.7333687"><ele>265.0</ele><time>2026-04-16T09:15:40.555Z</time></trkpt><trkpt lat="45.7172021" lon="8.7334514"><ele>265.0</ele><time>2026-04-16T09:15:41.546Z</time></trkpt><trkpt lat="45.7173224" lon="8.7335426"><ele>265.0</ele><time>2026-04-16T09:15:42.547Z</time></trkpt><trkpt lat="45.7174305" lon="8.7336056"><ele>265.0</ele><time>2026-04-16T09:15:43.551Z</time></trkpt><trkpt lat="45.7175401" lon="8.7336722"><ele>265.5</ele><time>2026-04-16T09:15:44.567Z</time></trkpt><trkpt lat="45.7176274" lon="8.7337458"><ele>266.0</ele><time>2026-04-16T09:15:45.554Z</time></trkpt><trkpt lat="45.7176954" lon="8.733792"><ele>266.5</ele><time>2026-04-16T09:15:46.56Z</time></trkpt><trkpt lat="45.7177544" lon="8.7338254"><ele>267.0</ele><time>2026-04-16T09:15:47.561Z</time></trkpt><trkpt lat="45.7178744" lon="8.7338767"><ele>267.5</ele><time>2026-04-16T09:15:49.554Z</time></trkpt><trkpt lat="45.717936" lon="8.7339192"><ele>268.0</ele><time>2026-04-16T09:15:50.554Z</time></trkpt><trkpt lat="45.7180521" lon="8.7340093"><ele>269.0</ele><time>2026-04-16T09:15:52.559Z</time></trkpt><trkpt lat="45.718114" lon="8.7340862"><ele>270.0</ele><time>2026-04-16T09:15:53.553Z</time></trkpt><trkpt lat="45.7181638" lon="8.7341701"><ele>271.0</ele><time>2026-04-16T09:15:54.549Z</time></trkpt><trkpt lat="45.7182341" lon="8.734265"><ele>272.0</ele><time>2026-04-16T09:15:55.545Z</time></trkpt><trkpt lat="45.7182905" lon="8.7343703"><ele>273.0</ele><time>2026-04-16T09:15:56.548Z</time></trkpt><trkpt lat="45.7183312" lon="8.7344665"><ele>274.0</ele><time>2026-04-16T09:15:57.549Z</time></trkpt><trkpt lat="45.7183666" lon="8.7345541"><ele>274.16666666666663</ele><time>2026-04-16T09:15:58.549Z</time></trkpt><trkpt lat="45.718394" lon="8.7347385"><ele>274.3333333333333</ele><time>2026-04-16T09:16:00.547Z</time></trkpt><trkpt lat="45.7184273" lon="8.7348317"><ele>274.5</ele><time>2026-04-16T09:16:01.547Z</time></trkpt><trkpt lat="45.7184541" lon="8.7349436"><ele>274.6666666666667</ele><time>2026-04-16T09:16:02.555Z</time></trkpt><trkpt lat="45.7184692" lon="8.735046"><ele>274.83333333333337</ele><time>2026-04-16T09:16:03.551Z</time></trkpt><trkpt lat="45.7184769" lon="8.7351402"><ele>275.0</ele><time>2026-04-16T09:16:04.559Z</time></trkpt><trkpt lat="45.7185127" lon="8.7352317"><ele>275.5</ele><time>2026-04-16T09:16:05.555Z</time></trkpt><trkpt lat="45.7185588" lon="8.7353177"><ele>276.0</ele><time>2026-04-16T09:16:06.557Z</time></trkpt><trkpt lat="45.7185916" lon="8.735416"><ele>276.5</ele><time>2026-04-16T09:16:07.553Z</time></trkpt><trkpt lat="45.7186223" lon="8.7355273"><ele>277.0</ele><time>2026-04-16T09:16:08.552Z</time></trkpt><trkpt lat="45.7186527" lon="8.7356563"><ele>277.5</ele><time>2026-04-16T09:16:09.553Z</time></trkpt><trkpt lat="45.718673" lon="8.7358074"><ele>278.0</ele><time>2026-04-16T09:16:10.556Z</time></trkpt><trkpt lat="45.7186721" lon="8.7359702"><ele>278.6</ele><time>2026-04-16T09:16:11.546Z</time></trkpt><trkpt lat="45.7186815" lon="8.7361413"><ele>279.20000000000005</ele><time>2026-04-16T09:16:12.55Z</time></trkpt><trkpt lat="45.7186986" lon="8.7363046"><ele>279.8</ele><time>2026-04-16T09:16:13.551Z</time></trkpt><trkpt lat="45.718709" lon="8.7364621"><ele>280.40000000000003</ele><time>2026-04-16T09:16:14.552Z</time></trkpt><trkpt lat="45.7187056" lon="8.7365996"><ele>281.0</ele><time>2026-04-16T09:16:15.557Z</time></trkpt><trkpt lat="45.7186976" lon="8.7367388"><ele>281.0</ele><time>2026-04-16T09:16:16.539Z</time></trkpt><trkpt lat="45.7186821" lon="8.7368848"><ele>281.0</ele><time>2026-04-16T09:16:17.543Z</time></trkpt><trkpt lat="45.7186863" lon="8.7370055"><ele>281.0</ele><time>2026-04-16T09:16:18.538Z</time></trkpt><trkpt lat="45.7186677" lon="8.7371363"><ele>281.0</ele><time>2026-04-16T09:16:19.55Z</time></trkpt><trkpt lat="45.7186859" lon="8.7372811"><ele>281.0</ele><time>2026-04-16T09:16:20.543Z</time></trkpt><trkpt lat="45.7186689" lon="8.7374039"><ele>280.8</ele><time>2026-04-16T09:16:21.538Z</time></trkpt><trkpt lat="45.7186597" lon="8.7375044"><ele>280.6</ele><time>2026-04-16T09:16:22.54Z</time></trkpt><trkpt lat="45.7186645" lon="8.7376611"><ele>280.4</ele><time>2026-04-16T09:16:24.543Z</time></trkpt><trkpt lat="45.718675" lon="8.7377619"><ele>280.2</ele><time>2026-04-16T09:16:25.538Z</time></trkpt><trkpt lat="45.7186874" lon="8.7378716"><ele>280.0</ele><time>2026-04-16T09:16:26.538Z</time></trkpt><trkpt lat="45.7186779" lon="8.7380946"><ele>279.16666666666663</ele><time>2026-04-16T09:16:28.446Z</time></trkpt><trkpt lat="45.7186761" lon="8.7382394"><ele>278.3333333333333</ele><time>2026-04-16T09:16:29.443Z</time></trkpt><trkpt lat="45.7186664" lon="8.7383574"><ele>277.5</ele><time>2026-04-16T09:16:30.445Z</time></trkpt><trkpt lat="45.7186532" lon="8.7384695"><ele>276.6666666666667</ele><time>2026-04-16T09:16:31.444Z</time></trkpt><trkpt lat="45.7186478" lon="8.7385883"><ele>275.83333333333337</ele><time>2026-04-16T09:16:32.448Z</time></trkpt><trkpt lat="45.7186275" lon="8.7387112"><ele>275.0</ele><time>2026-04-16T09:16:33.442Z</time></trkpt><trkpt lat="45.7186088" lon="8.7388069"><ele>274.8</ele><time>2026-04-16T09:16:34.443Z</time></trkpt><trkpt lat="45.7185908" lon="8.7389823"><ele>274.6</ele><time>2026-04-16T09:16:36.444Z</time></trkpt><trkpt lat="45.7185733" lon="8.7390863"><ele>274.4</ele><time>2026-04-16T09:16:37.438Z</time></trkpt><trkpt lat="45.7185481" lon="8.7391886"><ele>274.2</ele><time>2026-04-16T09:16:38.348Z</time></trkpt><trkpt lat="45.7185231" lon="8.7393474"><ele>274.0</ele><time>2026-04-16T09:16:40.143Z</time></trkpt><trkpt lat="45.7184905" lon="8.7395278"><ele>274.0</ele><time>2026-04-16T09:16:41.942Z</time></trkpt><trkpt lat="45.7184551" lon="8.739696"><ele>274.0</ele><time>2026-04-16T09:16:43.938Z</time></trkpt><trkpt lat="45.7184318" lon="8.7397877"><ele>274.0</ele><time>2026-04-16T09:16:44.844Z</time></trkpt><trkpt lat="45.718351" lon="8.7400044"><ele>274.0</ele><time>2026-04-16T09:16:47.644Z</time></trkpt><trkpt lat="45.7182963" lon="8.7401722"><ele>274.3333333333333</ele><time>2026-04-16T09:16:49.556Z</time></trkpt><trkpt lat="45.718272" lon="8.7402891"><ele>274.66666666666663</ele><time>2026-04-16T09:16:50.55Z</time></trkpt><trkpt lat="45.7182348" lon="8.7403837"><ele>275.0</ele><time>2026-04-16T09:16:51.545Z</time></trkpt><trkpt lat="45.7181997" lon="8.7404609"><ele>275.3333333333333</ele><time>2026-04-16T09:16:52.542Z</time></trkpt><trkpt lat="45.7181618" lon="8.7405543"><ele>275.6666666666667</ele><time>2026-04-16T09:16:53.546Z</time></trkpt><trkpt lat="45.7181175" lon="8.7406478"><ele>276.0</ele><time>2026-04-16T09:16:54.539Z</time></trkpt><trkpt lat="45.7180756" lon="8.7407334"><ele>276.0</ele><time>2026-04-16T09:16:55.542Z</time></trkpt><trkpt lat="45.7180207" lon="8.74083"><ele>276.0</ele><time>2026-04-16T09:16:56.537Z</time></trkpt><trkpt lat="45.7179697" lon="8.7409546"><ele>276.0</ele><time>2026-04-16T09:16:57.535Z</time></trkpt><trkpt lat="45.7179291" lon="8.7410733"><ele>276.0</ele><time>2026-04-16T09:16:58.537Z</time></trkpt><trkpt lat="45.7178804" lon="8.7412112"><ele>276.0</ele><time>2026-04-16T09:16:59.536Z</time></trkpt><trkpt lat="45.7178288" lon="8.7413567"><ele>276.0</ele><time>2026-04-16T09:17:00.537Z</time></trkpt><trkpt lat="45.7177822" lon="8.7415097"><ele>276.0</ele><time>2026-04-16T09:17:01.54Z</time></trkpt><trkpt lat="45.7177301" lon="8.7416543"><ele>276.0</ele><time>2026-04-16T09:17:02.542Z</time></trkpt><trkpt lat="45.7176797" lon="8.7417761"><ele>276.0</ele><time>2026-04-16T09:17:03.542Z</time></trkpt><trkpt lat="45.7176186" lon="8.7419011"><ele>276.0</ele><time>2026-04-16T09:17:04.547Z</time></trkpt><trkpt lat="45.7175728" lon="8.7420265"><ele>275.8</ele><time>2026-04-16T09:17:05.54Z</time></trkpt><trkpt lat="45.717525" lon="8.742147"><ele>275.6</ele><time>2026-04-16T09:17:06.552Z</time></trkpt><trkpt lat="45.7174911" lon="8.7422764"><ele>275.4</ele><time>2026-04-16T09:17:07.546Z</time></trkpt><trkpt lat="45.7174534" lon="8.7423886"><ele>275.2</ele><time>2026-04-16T09:17:08.548Z</time></trkpt><trkpt lat="45.7174158" lon="8.7425095"><ele>275.0</ele><time>2026-04-16T09:17:09.543Z</time></trkpt><trkpt lat="45.7173746" lon="8.7426106"><ele>275.0</ele><time>2026-04-16T09:17:10.549Z</time></trkpt><trkpt lat="45.7173396" lon="8.7427026"><ele>275.0</ele><time>2026-04-16T09:17:11.546Z</time></trkpt><trkpt lat="45.7173" lon="8.742864"><ele>275.0</ele><time>2026-04-16T09:17:13.543Z</time></trkpt><trkpt lat="45.7172791" lon="8.7430247"><ele>275.0</ele><time>2026-04-16T09:17:15.553Z</time></trkpt><trkpt lat="45.717277" lon="8.743161"><ele>275.0</ele><time>2026-04-16T09:17:17.548Z</time></trkpt><trkpt lat="45.717356" lon="8.7432388"><ele>274.6</ele><time>2026-04-16T09:17:19.549Z</time></trkpt><trkpt lat="45.7174706" lon="8.7433145"><ele>274.2</ele><time>2026-04-16T09:17:21.547Z</time></trkpt><trkpt lat="45.7175386" lon="8.7433311"><ele>273.8</ele><time>2026-04-16T09:17:22.543Z</time></trkpt><trkpt lat="45.7176368" lon="8.7433818"><ele>273.4</ele><time>2026-04-16T09:17:23.546Z</time></trkpt><trkpt lat="45.7177466" lon="8.7434462"><ele>273.0</ele><time>2026-04-16T09:17:24.55Z</time></trkpt><trkpt lat="45.7178421" lon="8.7434926"><ele>273.0</ele><time>2026-04-16T09:17:25.546Z</time></trkpt><trkpt lat="45.7179372" lon="8.7435038"><ele>273.0</ele><time>2026-04-16T09:17:26.55Z</time></trkpt><trkpt lat="45.7180274" lon="8.7435173"><ele>273.0</ele><time>2026-04-16T09:17:27.55Z</time></trkpt><trkpt lat="45.7180925" lon="8.7435434"><ele>273.0</ele><time>2026-04-16T09:17:28.552Z</time></trkpt><trkpt lat="45.7181969" lon="8.7435145"><ele>273.0</ele><time>2026-04-16T09:17:30.553Z</time></trkpt><trkpt lat="45.7182842" lon="8.7433988"><ele>273.0</ele><time>2026-04-16T09:17:32.557Z</time></trkpt><trkpt lat="45.7183361" lon="8.7433356"><ele>273.0</ele><time>2026-04-16T09:17:33.55Z</time></trkpt><trkpt lat="45.7184013" lon="8.7432795"><ele>273.0</ele><time>2026-04-16T09:17:34.554Z</time></trkpt><trkpt lat="45.7184753" lon="8.7432171"><ele>273.0</ele><time>2026-04-16T09:17:35.547Z</time></trkpt><trkpt lat="45.7185471" lon="8.7431725"><ele>273.0</ele><time>2026-04-16T09:17:36.548Z</time></trkpt><trkpt lat="45.7186434" lon="8.7430988"><ele>273.0</ele><time>2026-04-16T09:17:37.546Z</time></trkpt><trkpt lat="45.718721" lon="8.7430426"><ele>272.6</ele><time>2026-04-16T09:17:38.551Z</time></trkpt><trkpt lat="45.7188021" lon="8.7429777"><ele>272.20000000000005</ele><time>2026-04-16T09:17:39.547Z</time></trkpt><trkpt lat="45.7188805" lon="8.7428954"><ele>271.8</ele><time>2026-04-16T09:17:40.548Z</time></trkpt><trkpt lat="45.71897" lon="8.7428182"><ele>271.40000000000003</ele><time>2026-04-16T09:17:41.545Z</time></trkpt><trkpt lat="45.7190724" lon="8.7427451"><ele>271.0</ele><time>2026-04-16T09:17:42.557Z</time></trkpt><trkpt lat="45.7191861" lon="8.7426503"><ele>271.0</ele><time>2026-04-16T09:17:43.555Z</time></trkpt><trkpt lat="45.7192977" lon="8.7425523"><ele>271.0</ele><time>2026-04-16T09:17:44.563Z</time></trkpt><trkpt lat="45.7194086" lon="8.74245"><ele>271.0</ele><time>2026-04-16T09:17:45.562Z</time></trkpt><trkpt lat="45.7195219" lon="8.7423509"><ele>271.0</ele><time>2026-04-16T09:17:46.563Z</time></trkpt><trkpt lat="45.7196316" lon="8.7422536"><ele>270.8</ele><time>2026-04-16T09:17:47.572Z</time></trkpt><trkpt lat="45.7197283" lon="8.7421511"><ele>270.6</ele><time>2026-04-16T09:17:48.554Z</time></trkpt><trkpt lat="45.7198156" lon="8.7420497"><ele>270.4</ele><time>2026-04-16T09:17:49.557Z</time></trkpt><trkpt lat="45.7198901" lon="8.7419448"><ele>270.2</ele><time>2026-04-16T09:17:50.552Z</time></trkpt><trkpt lat="45.7199725" lon="8.7418382"><ele>270.0</ele><time>2026-04-16T09:17:51.561Z</time></trkpt><trkpt lat="45.720039" lon="8.7416997"><ele>269.6</ele><time>2026-04-16T09:17:52.565Z</time></trkpt><trkpt lat="45.7200977" lon="8.7415653"><ele>269.2</ele><time>2026-04-16T09:17:53.565Z</time></trkpt><trkpt lat="45.7201456" lon="8.7414306"><ele>268.8</ele><time>2026-04-16T09:17:54.574Z</time></trkpt><trkpt lat="45.7201739" lon="8.7412796"><ele>268.4</ele><time>2026-04-16T09:17:55.567Z</time></trkpt><trkpt lat="45.7201916" lon="8.7411049"><ele>268.0</ele><time>2026-04-16T09:17:56.576Z</time></trkpt><trkpt lat="45.7202009" lon="8.7409479"><ele>268.0</ele><time>2026-04-16T09:17:57.577Z</time></trkpt><trkpt lat="45.7201994" lon="8.7407743"><ele>268.0</ele><time>2026-04-16T09:17:58.581Z</time></trkpt><trkpt lat="45.7201889" lon="8.7405857"><ele>268.0</ele><time>2026-04-16T09:17:59.578Z</time></trkpt><trkpt lat="45.7201828" lon="8.7404127"><ele>268.0</ele><time>2026-04-16T09:18:00.578Z</time></trkpt><trkpt lat="45.7201688" lon="8.7402281"><ele>267.5</ele><time>2026-04-16T09:18:01.575Z</time></trkpt><trkpt lat="45.7201629" lon="8.7400474"><ele>267.0</ele><time>2026-04-16T09:18:02.582Z</time></trkpt><trkpt lat="45.7201588" lon="8.7398617"><ele>266.5</ele><time>2026-04-16T09:18:03.584Z</time></trkpt><trkpt lat="45.7201569" lon="8.7396806"><ele>266.0</ele><time>2026-04-16T09:18:04.585Z</time></trkpt><trkpt lat="45.7201615" lon="8.7395051"><ele>265.5</ele><time>2026-04-16T09:18:05.581Z</time></trkpt><trkpt lat="45.7201743" lon="8.739328"><ele>265.0</ele><time>2026-04-16T09:18:06.589Z</time></trkpt><trkpt lat="45.7201912" lon="8.7391466"><ele>264.5</ele><time>2026-04-16T09:18:07.585Z</time></trkpt><trkpt lat="45.7202171" lon="8.7389653"><ele>264.0</ele><time>2026-04-16T09:18:08.59Z</time></trkpt><trkpt lat="45.7202449" lon="8.7387872"><ele>264.75</ele><time>2026-04-16T09:18:09.587Z</time></trkpt><trkpt lat="45.720277" lon="8.7386139"><ele>265.5</ele><time>2026-04-16T09:18:10.588Z</time></trkpt><trkpt lat="45.7203119" lon="8.7384302"><ele>266.25</ele><time>2026-04-16T09:18:11.583Z</time></trkpt><trkpt lat="45.7203478" lon="8.7382529"><ele>267.0</ele><time>2026-04-16T09:18:12.587Z</time></trkpt><trkpt lat="45.720384" lon="8.7380709"><ele>267.0</ele><time>2026-04-16T09:18:13.583Z</time></trkpt><trkpt lat="45.7204102" lon="8.7379009"><ele>267.0</ele><time>2026-04-16T09:18:14.584Z</time></trkpt><trkpt lat="45.7204452" lon="8.7377485"><ele>267.0</ele><time>2026-04-16T09:18:15.579Z</time></trkpt><trkpt lat="45.7204806" lon="8.7376032"><ele>267.0</ele><time>2026-04-16T09:18:16.574Z</time></trkpt><trkpt lat="45.7205088" lon="8.7374618"><ele>267.0</ele><time>2026-04-16T09:18:17.574Z</time></trkpt><trkpt lat="45.7205236" lon="8.7373046"><ele>267.2</ele><time>2026-04-16T09:18:18.574Z</time></trkpt><trkpt lat="45.7205385" lon="8.7371552"><ele>267.4</ele><time>2026-04-16T09:18:19.566Z</time></trkpt><trkpt lat="45.7205482" lon="8.7370038"><ele>267.6</ele><time>2026-04-16T09:18:20.574Z</time></trkpt><trkpt lat="45.7205696" lon="8.7368491"><ele>267.8</ele><time>2026-04-16T09:18:21.562Z</time></trkpt><trkpt lat="45.7205822" lon="8.7366865"><ele>268.0</ele><time>2026-04-16T09:18:22.568Z</time></trkpt><trkpt lat="45.7205886" lon="8.7365226"><ele>269.0</ele><time>2026-04-16T09:18:23.561Z</time></trkpt><trkpt lat="45.7206018" lon="8.7363726"><ele>270.0</ele><time>2026-04-16T09:18:24.572Z</time></trkpt><trkpt lat="45.7206033" lon="8.7362245"><ele>271.0</ele><time>2026-04-16T09:18:25.569Z</time></trkpt><trkpt lat="45.720609" lon="8.736078"><ele>272.0</ele><time>2026-04-16T09:18:26.569Z</time></trkpt><trkpt lat="45.7206238" lon="8.7359384"><ele>273.0</ele><time>2026-04-16T09:18:27.56Z</time></trkpt><trkpt lat="45.7206506" lon="8.7357648"><ele>273.2</ele><time>2026-04-16T09:18:28.571Z</time></trkpt><trkpt lat="45.7206911" lon="8.7356315"><ele>273.4</ele><time>2026-04-16T09:18:29.556Z</time></trkpt><trkpt lat="45.7207349" lon="8.7354932"><ele>273.59999999999997</ele><time>2026-04-16T09:18:30.557Z</time></trkpt><trkpt lat="45.7207809" lon="8.7353531"><ele>273.8</ele><time>2026-04-16T09:18:31.561Z</time></trkpt><trkpt lat="45.7208363" lon="8.7352099"><ele>274.0</ele><time>2026-04-16T09:18:32.571Z</time></trkpt><trkpt lat="45.7208825" lon="8.7350623"><ele>274.59999999999997</ele><time>2026-04-16T09:18:33.574Z</time></trkpt><trkpt lat="45.7209425" lon="8.7349093"><ele>275.2</ele><time>2026-04-16T09:18:34.576Z</time></trkpt><trkpt lat="45.7209895" lon="8.734768"><ele>275.79999999999995</ele><time>2026-04-16T09:18:35.571Z</time></trkpt><trkpt lat="45.721034" lon="8.7346312"><ele>276.4</ele><time>2026-04-16T09:18:36.574Z</time></trkpt><trkpt lat="45.7210675" lon="8.7344917"><ele>277.0</ele><time>2026-04-16T09:18:37.571Z</time></trkpt><trkpt lat="45.7210971" lon="8.7343535"><ele>275.4</ele><time>2026-04-16T09:18:38.572Z</time></trkpt><trkpt lat="45.7211304" lon="8.7341973"><ele>273.79999999999995</ele><time>2026-04-16T09:18:39.565Z</time></trkpt><trkpt lat="45.7211543" lon="8.7340494"><ele>272.2</ele><time>2026-04-16T09:18:40.573Z</time></trkpt><trkpt lat="45.7211785" lon="8.7338929"><ele>270.59999999999997</ele><time>2026-04-16T09:18:41.565Z</time></trkpt><trkpt lat="45.7212049" lon="8.7337401"><ele>269.0</ele><time>2026-04-16T09:18:42.569Z</time></trkpt><trkpt lat="45.7212394" lon="8.7335812"><ele>269.2</ele><time>2026-04-16T09:18:43.566Z</time></trkpt><trkpt lat="45.7212775" lon="8.7334277"><ele>269.4</ele><time>2026-04-16T09:18:44.57Z</time></trkpt><trkpt lat="45.7213199" lon="8.7332769"><ele>269.6</ele><time>2026-04-16T09:18:45.568Z</time></trkpt><trkpt lat="45.7213688" lon="8.7331416"><ele>269.8</ele><time>2026-04-16T09:18:46.57Z</time></trkpt><trkpt lat="45.7214409" lon="8.7330209"><ele>270.0</ele><time>2026-04-16T09:18:47.569Z</time></trkpt><trkpt lat="45.7215246" lon="8.7329304"><ele>270.0</ele><time>2026-04-16T09:18:48.571Z</time></trkpt><trkpt lat="45.7216099" lon="8.7328496"><ele>270.0</ele><time>2026-04-16T09:18:49.579Z</time></trkpt><trkpt lat="45.7216993" lon="8.7327711"><ele>270.0</ele><time>2026-04-16T09:18:50.573Z</time></trkpt><trkpt lat="45.7218058" lon="8.7326935"><ele>270.0</ele><time>2026-04-16T09:18:51.564Z</time></trkpt><trkpt lat="45.7219171" lon="8.7325965"><ele>271.25</ele><time>2026-04-16T09:18:52.563Z</time></trkpt><trkpt lat="45.722026" lon="8.7325092"><ele>272.5</ele><time>2026-04-16T09:18:53.567Z</time></trkpt><trkpt lat="45.7221289" lon="8.732421"><ele>273.75</ele><time>2026-04-16T09:18:54.556Z</time></trkpt><trkpt lat="45.7222275" lon="8.7323471"><ele>275.0</ele><time>2026-04-16T09:18:55.554Z</time></trkpt><trkpt lat="45.7223215" lon="8.7322588"><ele>275.0</ele><time>2026-04-16T09:18:56.551Z</time></trkpt><trkpt lat="45.7224225" lon="8.7321817"><ele>275.0</ele><time>2026-04-16T09:18:57.551Z</time></trkpt><trkpt lat="45.7225084" lon="8.7321088"><ele>275.0</ele><time>2026-04-16T09:18:58.554Z</time></trkpt><trkpt lat="45.722578" lon="8.732045"><ele>275.0</ele><time>2026-04-16T09:18:59.549Z</time></trkpt><trkpt lat="45.7226465" lon="8.7319935"><ele>275.0</ele><time>2026-04-16T09:19:00.551Z</time></trkpt><trkpt lat="45.7227142" lon="8.7319442"><ele>275.42857142857144</ele><time>2026-04-16T09:19:01.551Z</time></trkpt><trkpt lat="45.7227709" lon="8.7318961"><ele>275.85714285714283</ele><time>2026-04-16T09:19:02.548Z</time></trkpt><trkpt lat="45.7228263" lon="8.7318371"><ele>276.2857142857143</ele><time>2026-04-16T09:19:04.547Z</time></trkpt><trkpt lat="45.7228917" lon="8.7317608"><ele>276.7142857142857</ele><time>2026-04-16T09:19:16.559Z</time></trkpt><trkpt lat="45.7229465" lon="8.7317058"><ele>277.14285714285717</ele><time>2026-04-16T09:19:17.556Z</time></trkpt><trkpt lat="45.7229907" lon="8.7316303"><ele>277.57142857142856</ele><time>2026-04-16T09:19:18.558Z</time></trkpt><trkpt lat="45.7230358" lon="8.731564"><ele>278.0</ele><time>2026-04-16T09:19:19.555Z</time></trkpt><trkpt lat="45.723051" lon="8.7314751"><ele>278.0</ele><time>2026-04-16T09:19:20.573Z</time></trkpt><trkpt lat="45.7230817" lon="8.7313872"><ele>278.0</ele><time>2026-04-16T09:19:22.556Z</time></trkpt><trkpt lat="45.7231313" lon="8.7313022"><ele>278.0</ele><time>2026-04-16T09:19:31.566Z</time></trkpt><trkpt lat="45.7232008" lon="8.731186"><ele>278.0</ele><time>2026-04-16T09:19:33.545Z</time></trkpt><trkpt lat="45.7232338" lon="8.7311073"><ele>278.0</ele><time>2026-04-16T09:19:34.545Z</time></trkpt><trkpt lat="45.7232949" lon="8.730924"><ele>278.0</ele><time>2026-04-16T09:19:35.542Z</time></trkpt><trkpt lat="45.7233173" lon="8.7307715"><ele>278.0</ele><time>2026-04-16T09:19:36.537Z</time></trkpt><trkpt lat="45.7233471" lon="8.7306019"><ele>278.0</ele><time>2026-04-16T09:19:37.536Z</time></trkpt><trkpt lat="45.7233857" lon="8.7304314"><ele>278.0</ele><time>2026-04-16T09:19:38.541Z</time></trkpt><trkpt lat="45.7234265" lon="8.7303024"><ele>278.0</ele><time>2026-04-16T09:19:39.536Z</time></trkpt><trkpt lat="45.723474" lon="8.7301511"><ele>278.0</ele><time>2026-04-16T09:19:40.547Z</time></trkpt><trkpt lat="45.7235334" lon="8.7300228"><ele>278.0</ele><time>2026-04-16T09:19:41.549Z</time></trkpt><trkpt lat="45.7236066" lon="8.7298944"><ele>278.0</ele><time>2026-04-16T09:19:42.551Z</time></trkpt><trkpt lat="45.7236927" lon="8.7297795"><ele>278.0</ele><time>2026-04-16T09:19:43.551Z</time></trkpt><trkpt lat="45.7237481" lon="8.729668"><ele>278.0</ele><time>2026-04-16T09:19:44.557Z</time></trkpt><trkpt lat="45.7238179" lon="8.7295865"><ele>278.0</ele><time>2026-04-16T09:19:45.553Z</time></trkpt><trkpt lat="45.7238929" lon="8.7294868"><ele>278.0</ele><time>2026-04-16T09:19:46.553Z</time></trkpt><trkpt lat="45.7239396" lon="8.7293929"><ele>278.0</ele><time>2026-04-16T09:19:47.557Z</time></trkpt><trkpt lat="45.723996" lon="8.7291851"><ele>277.6</ele><time>2026-04-16T09:19:49.558Z</time></trkpt><trkpt lat="45.7240206" lon="8.7290486"><ele>277.20000000000005</ele><time>2026-04-16T09:19:50.553Z</time></trkpt><trkpt lat="45.7240372" lon="8.7289039"><ele>276.8</ele><time>2026-04-16T09:19:51.563Z</time></trkpt><trkpt lat="45.7240504" lon="8.7287797"><ele>276.40000000000003</ele><time>2026-04-16T09:19:52.548Z</time></trkpt><trkpt lat="45.7240478" lon="8.7286478"><ele>276.0</ele><time>2026-04-16T09:19:53.551Z</time></trkpt><trkpt lat="45.7240477" lon="8.7285046"><ele>275.1666666666667</ele><time>2026-04-16T09:19:54.551Z</time></trkpt><trkpt lat="45.7240494" lon="8.7283925"><ele>274.3333333333333</ele><time>2026-04-16T09:19:55.558Z</time></trkpt><trkpt lat="45.7240439" lon="8.7282933"><ele>273.5</ele><time>2026-04-16T09:19:56.554Z</time></trkpt><trkpt lat="45.7240463" lon="8.7282004"><ele>272.66666666666663</ele><time>2026-04-16T09:19:57.552Z</time></trkpt><trkpt lat="45.724033" lon="8.7280837"><ele>271.8333333333333</ele><time>2026-04-16T09:19:59.547Z</time></trkpt><trkpt lat="45.7241216" lon="8.7281795"><ele>271.0</ele><time>2026-04-16T09:20:05.543Z</time></trkpt><trkpt lat="45.7241804" lon="8.7283573"><ele>271.0</ele><time>2026-04-16T09:20:06.55Z</time></trkpt><trkpt lat="45.7242849" lon="8.7285891"><ele>271.0</ele><time>2026-04-16T09:20:07.549Z</time></trkpt><trkpt lat="45.7243972" lon="8.7288583"><ele>271.0</ele><time>2026-04-16T09:20:08.552Z</time></trkpt><trkpt lat="45.7244753" lon="8.7291202"><ele>271.0</ele><time>2026-04-16T09:20:09.548Z</time></trkpt><trkpt lat="45.7245758" lon="8.7292829"><ele>271.0</ele><time>2026-04-16T09:20:10.554Z</time></trkpt><trkpt lat="45.724646" lon="8.729464"><ele>271.0</ele><time>2026-04-16T09:20:11.552Z</time></trkpt><trkpt lat="45.7246903" lon="8.7296636"><ele>271.0</ele><time>2026-04-16T09:20:12.564Z</time></trkpt><trkpt lat="45.7247262" lon="8.7298107"><ele>272.25</ele><time>2026-04-16T09:20:13.558Z</time></trkpt><trkpt lat="45.724767" lon="8.7299628"><ele>273.5</ele><time>2026-04-16T09:20:14.56Z</time></trkpt><trkpt lat="45.7248126" lon="8.7300995"><ele>274.75</ele><time>2026-04-16T09:20:15.558Z</time></trkpt><trkpt lat="45.7248611" lon="8.7302776"><ele>276.0</ele><time>2026-04-16T09:20:16.558Z</time></trkpt><trkpt lat="45.7249152" lon="8.7304544"><ele>276.40000000000003</ele><time>2026-04-16T09:20:17.548Z</time></trkpt><trkpt lat="45.7249525" lon="8.7306204"><ele>276.8</ele><time>2026-04-16T09:20:18.555Z</time></trkpt><trkpt lat="45.7249914" lon="8.7307755"><ele>277.20000000000005</ele><time>2026-04-16T09:20:19.551Z</time></trkpt><trkpt lat="45.7250293" lon="8.7308759"><ele>277.6</ele><time>2026-04-16T09:20:20.548Z</time></trkpt><trkpt lat="45.7250307" lon="8.7309779"><ele>278.0</ele><time>2026-04-16T09:20:21.537Z</time></trkpt><trkpt lat="45.7251223" lon="8.7309649"><ele>278.0</ele><time>2026-04-16T09:20:24.549Z</time></trkpt><trkpt lat="45.7250292" lon="8.7309236"><ele>278.0</ele><time>2026-04-16T09:20:36.552Z</time></trkpt><trkpt lat="45.7250884" lon="8.7309654"><ele>278.0</ele><time>2026-04-16T09:20:57.571Z</time></trkpt><trkpt lat="45.7251301" lon="8.7310463"><ele>278.0</ele><time>2026-04-16T09:21:01.568Z</time></trkpt><trkpt lat="45.7251521" lon="8.7311392"><ele>278.0</ele><time>2026-04-16T09:21:06.569Z</time></trkpt><trkpt lat="45.7251843" lon="8.7312168"><ele>278.0</ele><time>2026-04-16T09:21:10.571Z</time></trkpt><trkpt lat="45.7252045" lon="8.7313025"><ele>278.0</ele><time>2026-04-16T09:21:46.578Z</time></trkpt><trkpt lat="45.7252415" lon="8.7313982"><ele>277.0</ele><time>2026-04-16T09:21:50.568Z</time></trkpt><trkpt lat="45.725286" lon="8.7314753"><ele>276.0</ele><time>2026-04-16T09:21:56.569Z</time></trkpt><trkpt lat="45.7252993" lon="8.7316467"><ele>275.0</ele><time>2026-04-16T09:22:07.543Z</time></trkpt><trkpt lat="45.7253359" lon="8.7317689"><ele>274.0</ele><time>2026-04-16T09:22:08.545Z</time></trkpt><trkpt lat="45.7253885" lon="8.7319182"><ele>273.0</ele><time>2026-04-16T09:22:09.538Z</time></trkpt><trkpt lat="45.725482" lon="8.7320985"><ele>273.0</ele><time>2026-04-16T09:22:10.55Z</time></trkpt><trkpt lat="45.7255886" lon="8.7323089"><ele>273.0</ele><time>2026-04-16T09:22:11.538Z</time></trkpt><trkpt lat="45.725691" lon="8.7325226"><ele>273.0</ele><time>2026-04-16T09:22:12.538Z</time></trkpt><trkpt lat="45.7257674" lon="8.7327214"><ele>274.0</ele><time>2026-04-16T09:22:13.533Z</time></trkpt><trkpt lat="45.7258452" lon="8.732944"><ele>275.0</ele><time>2026-04-16T09:22:14.545Z</time></trkpt><trkpt lat="45.7258931" lon="8.7331034"><ele>276.0</ele><time>2026-04-16T09:22:15.541Z</time></trkpt><trkpt lat="45.7259423" lon="8.7332209"><ele>277.0</ele><time>2026-04-16T09:22:16.549Z</time></trkpt><trkpt lat="45.7260187" lon="8.7333806"><ele>277.0</ele><time>2026-04-16T09:22:17.552Z</time></trkpt><trkpt lat="45.7260945" lon="8.7335485"><ele>277.0</ele><time>2026-04-16T09:22:18.549Z</time></trkpt><trkpt lat="45.7261615" lon="8.7337116"><ele>277.0</ele><time>2026-04-16T09:22:19.546Z</time></trkpt><trkpt lat="45.7262095" lon="8.7338458"><ele>277.0</ele><time>2026-04-16T09:22:20.541Z</time></trkpt><trkpt lat="45.726254" lon="8.7339103"><ele>277.0</ele><time>2026-04-16T09:22:21.55Z</time></trkpt><trkpt lat="45.72635" lon="8.7338857"><ele>277.0</ele><time>2026-04-16T09:22:23.552Z</time></trkpt><trkpt lat="45.7264336" lon="8.7337365"><ele>277.0</ele><time>2026-04-16T09:22:25.555Z</time></trkpt><trkpt lat="45.7264683" lon="8.7336313"><ele>277.0</ele><time>2026-04-16T09:22:26.558Z</time></trkpt><trkpt lat="45.726512" lon="8.7335515"><ele>277.0</ele><time>2026-04-16T09:22:27.553Z</time></trkpt><trkpt lat="45.7265471" lon="8.7334578"><ele>277.0</ele><time>2026-04-16T09:22:28.563Z</time></trkpt><trkpt lat="45.7266" lon="8.7333654"><ele>277.0</ele><time>2026-04-16T09:22:29.554Z</time></trkpt><trkpt lat="45.7266586" lon="8.7332816"><ele>276.66666666666663</ele><time>2026-04-16T09:22:30.565Z</time></trkpt><trkpt lat="45.7267173" lon="8.7332143"><ele>276.3333333333333</ele><time>2026-04-16T09:22:31.558Z</time></trkpt><trkpt lat="45.7267733" lon="8.7331611"><ele>276.0</ele><time>2026-04-16T09:22:32.557Z</time></trkpt><trkpt lat="45.726832" lon="8.7330976"><ele>275.6666666666667</ele><time>2026-04-16T09:22:33.557Z</time></trkpt><trkpt lat="45.7268984" lon="8.7330304"><ele>275.33333333333337</ele><time>2026-04-16T09:22:34.557Z</time></trkpt><trkpt lat="45.7269674" lon="8.7329598"><ele>275.0</ele><time>2026-04-16T09:22:35.549Z</time></trkpt><trkpt lat="45.7270643" lon="8.7328645"><ele>275.0</ele><time>2026-04-16T09:22:36.557Z</time></trkpt><trkpt lat="45.7271628" lon="8.7327751"><ele>275.0</ele><time>2026-04-16T09:22:37.549Z</time></trkpt><trkpt lat="45.7272864" lon="8.7326457"><ele>275.0</ele><time>2026-04-16T09:22:38.556Z</time></trkpt><trkpt lat="45.7274076" lon="8.7325383"><ele>275.0</ele><time>2026-04-16T09:22:39.553Z</time></trkpt><trkpt lat="45.7275552" lon="8.7324146"><ele>274.33333333333337</ele><time>2026-04-16T09:22:40.554Z</time></trkpt><trkpt lat="45.7277031" lon="8.7322855"><ele>273.6666666666667</ele><time>2026-04-16T09:22:41.56Z</time></trkpt><trkpt lat="45.7278411" lon="8.7321678"><ele>273.0</ele><time>2026-04-16T09:22:42.564Z</time></trkpt><trkpt lat="45.7279755" lon="8.7320532"><ele>273.0</ele><time>2026-04-16T09:22:43.556Z</time></trkpt><trkpt lat="45.7281163" lon="8.7319311"><ele>273.0</ele><time>2026-04-16T09:22:44.56Z</time></trkpt><trkpt lat="45.7282475" lon="8.7318131"><ele>273.0</ele><time>2026-04-16T09:22:45.554Z</time></trkpt><trkpt lat="45.7283903" lon="8.7316959"><ele>272.3333333333333</ele><time>2026-04-16T09:22:46.564Z</time></trkpt><trkpt lat="45.7285372" lon="8.7315829"><ele>271.66666666666663</ele><time>2026-04-16T09:22:47.558Z</time></trkpt><trkpt lat="45.7286698" lon="8.7314668"><ele>271.0</ele><time>2026-04-16T09:22:48.562Z</time></trkpt><trkpt lat="45.728812" lon="8.7313411"><ele>271.0</ele><time>2026-04-16T09:22:49.561Z</time></trkpt><trkpt lat="45.728952" lon="8.7312227"><ele>271.0</ele><time>2026-04-16T09:22:50.564Z</time></trkpt><trkpt lat="45.7290728" lon="8.7311163"><ele>271.0</ele><time>2026-04-16T09:22:51.565Z</time></trkpt><trkpt lat="45.7291629" lon="8.7310246"><ele>271.0</ele><time>2026-04-16T09:22:52.571Z</time></trkpt><trkpt lat="45.7292492" lon="8.7309361"><ele>271.0</ele><time>2026-04-16T09:22:53.569Z</time></trkpt><trkpt lat="45.7293213" lon="8.7308607"><ele>271.0</ele><time>2026-04-16T09:22:54.578Z</time></trkpt><trkpt lat="45.7293883" lon="8.7307972"><ele>271.0</ele><time>2026-04-16T09:22:55.586Z</time></trkpt><trkpt lat="45.7294596" lon="8.7307086"><ele>271.0</ele><time>2026-04-16T09:22:56.577Z</time></trkpt><trkpt lat="45.7295291" lon="8.7306466"><ele>271.0</ele><time>2026-04-16T09:22:57.572Z</time></trkpt><trkpt lat="45.729596" lon="8.7305784"><ele>271.0</ele><time>2026-04-16T09:22:58.57Z</time></trkpt><trkpt lat="45.729661" lon="8.7305167"><ele>271.0</ele><time>2026-04-16T09:22:59.567Z</time></trkpt><trkpt lat="45.7297224" lon="8.730467"><ele>271.0</ele><time>2026-04-16T09:23:00.572Z</time></trkpt><trkpt lat="45.7298222" lon="8.730385"><ele>271.0</ele><time>2026-04-16T09:23:02.571Z</time></trkpt><trkpt lat="45.7299026" lon="8.7303805"><ele>271.0</ele><time>2026-04-16T09:23:04.568Z</time></trkpt><trkpt lat="45.7299578" lon="8.7304496"><ele>271.0</ele><time>2026-04-16T09:23:07.576Z</time></trkpt><trkpt lat="45.7299082" lon="8.7305097"><ele>271.0</ele><time>2026-04-16T09:23:10.57Z</time></trkpt><trkpt lat="45.7298957" lon="8.7306216"><ele>271.0</ele><time>2026-04-16T09:23:12.57Z</time></trkpt><trkpt lat="45.7299266" lon="8.7307076"><ele>271.0</ele><time>2026-04-16T09:23:13.562Z</time></trkpt><trkpt lat="45.7299609" lon="8.7308126"><ele>271.0</ele><time>2026-04-16T09:23:14.566Z</time></trkpt><trkpt lat="45.729991" lon="8.730929"><ele>271.0</ele><time>2026-04-16T09:23:15.568Z</time></trkpt><trkpt lat="45.7300129" lon="8.7310597"><ele>271.0</ele><time>2026-04-16T09:23:16.577Z</time></trkpt><trkpt lat="45.7300247" lon="8.7311845"><ele>271.0</ele><time>2026-04-16T09:23:17.567Z</time></trkpt><trkpt lat="45.7300375" lon="8.7312788"><ele>271.0</ele><time>2026-04-16T09:23:18.589Z</time></trkpt><trkpt lat="45.7301394" lon="8.7313411"><ele>271.0</ele><time>2026-04-16T09:23:20.593Z</time></trkpt><trkpt lat="45.730198" lon="8.7312582"><ele>271.0</ele><time>2026-04-16T09:23:22.584Z</time></trkpt><trkpt lat="45.7301804" lon="8.7310868"><ele>271.0</ele><time>2026-04-16T09:23:24.575Z</time></trkpt><trkpt lat="45.730144" lon="8.7309996"><ele>271.0</ele><time>2026-04-16T09:23:25.568Z</time></trkpt><trkpt lat="45.7300962" lon="8.7309277"><ele>271.0</ele><time>2026-04-16T09:23:26.599Z</time></trkpt><trkpt lat="45.7300212" lon="8.7308342"><ele>271.0</ele><time>2026-04-16T09:23:27.572Z</time></trkpt><trkpt lat="45.7299476" lon="8.7307144"><ele>271.0</ele><time>2026-04-16T09:23:28.57Z</time></trkpt><trkpt lat="45.7298648" lon="8.7305613"><ele>271.0</ele><time>2026-04-16T09:23:29.566Z</time></trkpt><trkpt lat="45.7297957" lon="8.7304034"><ele>271.0</ele><time>2026-04-16T09:23:30.584Z</time></trkpt><trkpt lat="45.7297293" lon="8.7302268"><ele>271.0</ele><time>2026-04-16T09:23:31.576Z</time></trkpt><trkpt lat="45.729663" lon="8.7300629"><ele>271.0</ele><time>2026-04-16T09:23:32.574Z</time></trkpt><trkpt lat="45.7295838" lon="8.7298991"><ele>271.0</ele><time>2026-04-16T09:23:33.574Z</time></trkpt><trkpt lat="45.7294997" lon="8.7297229"><ele>271.0</ele><time>2026-04-16T09:23:34.57Z</time></trkpt><trkpt lat="45.7294318" lon="8.7295465"><ele>271.0</ele><time>2026-04-16T09:23:35.574Z</time></trkpt><trkpt lat="45.7293654" lon="8.7293696"><ele>271.0</ele><time>2026-04-16T09:23:36.573Z</time></trkpt><trkpt lat="45.7292938" lon="8.7291909"><ele>271.0</ele><time>2026-04-16T09:23:37.57Z</time></trkpt><trkpt lat="45.7292211" lon="8.7290183"><ele>270.75</ele><time>2026-04-16T09:23:38.572Z</time></trkpt><trkpt lat="45.7291442" lon="8.7288356"><ele>270.5</ele><time>2026-04-16T09:23:39.574Z</time></trkpt><trkpt lat="45.7290714" lon="8.7286755"><ele>270.25</ele><time>2026-04-16T09:23:40.576Z</time></trkpt><trkpt lat="45.7289919" lon="8.7285122"><ele>270.0</ele><time>2026-04-16T09:23:41.573Z</time></trkpt><trkpt lat="45.7289279" lon="8.7283483"><ele>270.0</ele><time>2026-04-16T09:23:42.568Z</time></trkpt><trkpt lat="45.7288567" lon="8.7281851"><ele>270.0</ele><time>2026-04-16T09:23:43.571Z</time></trkpt><trkpt lat="45.728783" lon="8.7280232"><ele>270.0</ele><time>2026-04-16T09:23:44.578Z</time></trkpt><trkpt lat="45.72872" lon="8.7278681"><ele>270.0</ele><time>2026-04-16T09:23:45.568Z</time></trkpt><trkpt lat="45.7286646" lon="8.7277144"><ele>270.4</ele><time>2026-04-16T09:23:46.577Z</time></trkpt><trkpt lat="45.7286025" lon="8.7275853"><ele>270.8</ele><time>2026-04-16T09:23:47.563Z</time></trkpt><trkpt lat="45.7285449" lon="8.7274639"><ele>271.2</ele><time>2026-04-16T09:23:48.573Z</time></trkpt><trkpt lat="45.7285026" lon="8.7273562"><ele>271.6</ele><time>2026-04-16T09:23:49.57Z</time></trkpt><trkpt lat="45.7284526" lon="8.7272267"><ele>272.0</ele><time>2026-04-16T09:23:51.566Z</time></trkpt><trkpt lat="45.7284521" lon="8.7270942"><ele>272.0</ele><time>2026-04-16T09:23:54.562Z</time></trkpt><trkpt lat="45.7284601" lon="8.7269456"><ele>272.0</ele><time>2026-04-16T09:23:56.567Z</time></trkpt><trkpt lat="45.7284432" lon="8.7267864"><ele>272.0</ele><time>2026-04-16T09:23:58.57Z</time></trkpt><trkpt lat="45.7284033" lon="8.7267162"><ele>272.0</ele><time>2026-04-16T09:23:59.57Z</time></trkpt><trkpt lat="45.7283517" lon="8.7266433"><ele>272.0</ele><time>2026-04-16T09:24:00.571Z</time></trkpt><trkpt lat="45.7282829" lon="8.7265706"><ele>272.0</ele><time>2026-04-16T09:24:01.573Z</time></trkpt><trkpt lat="45.7282246" lon="8.7264643"><ele>271.8</ele><time>2026-04-16T09:24:02.572Z</time></trkpt><trkpt lat="45.7281641" lon="8.7263555"><ele>271.6</ele><time>2026-04-16T09:24:03.567Z</time></trkpt><trkpt lat="45.728109" lon="8.7262467"><ele>271.40000000000003</ele><time>2026-04-16T09:24:04.567Z</time></trkpt><trkpt lat="45.7280551" lon="8.7261258"><ele>271.2</ele><time>2026-04-16T09:24:05.566Z</time></trkpt><trkpt lat="45.7279939" lon="8.7260068"><ele>271.0</ele><time>2026-04-16T09:24:06.57Z</time></trkpt><trkpt lat="45.7279466" lon="8.7258768"><ele>272.0</ele><time>2026-04-16T09:24:07.557Z</time></trkpt><trkpt lat="45.7279023" lon="8.7257269"><ele>273.0</ele><time>2026-04-16T09:24:08.562Z</time></trkpt><trkpt lat="45.7278642" lon="8.7255687"><ele>274.0</ele><time>2026-04-16T09:24:09.562Z</time></trkpt><trkpt lat="45.7278205" lon="8.7254219"><ele>275.0</ele><time>2026-04-16T09:24:10.56Z</time></trkpt><trkpt lat="45.7277886" lon="8.7252738"><ele>274.75</ele><time>2026-04-16T09:24:11.559Z</time></trkpt><trkpt lat="45.7277444" lon="8.7251088"><ele>274.5</ele><time>2026-04-16T09:24:12.561Z</time></trkpt><trkpt lat="45.7277006" lon="8.7249344"><ele>274.25</ele><time>2026-04-16T09:24:13.563Z</time></trkpt><trkpt lat="45.7276708" lon="8.7247536"><ele>274.0</ele><time>2026-04-16T09:24:14.57Z</time></trkpt><trkpt lat="45.7276494" lon="8.7245659"><ele>273.75</ele><time>2026-04-16T09:24:15.556Z</time></trkpt><trkpt lat="45.72762" lon="8.724365"><ele>273.5</ele><time>2026-04-16T09:24:16.569Z</time></trkpt><trkpt lat="45.7275959" lon="8.7241622"><ele>273.25</ele><time>2026-04-16T09:24:17.571Z</time></trkpt><trkpt lat="45.7275599" lon="8.7239606"><ele>273.0</ele><time>2026-04-16T09:24:18.57Z</time></trkpt><trkpt lat="45.7275148" lon="8.7237615"><ele>273.5</ele><time>2026-04-16T09:24:19.574Z</time></trkpt><trkpt lat="45.7274655" lon="8.7235616"><ele>274.0</ele><time>2026-04-16T09:24:20.573Z</time></trkpt><trkpt lat="45.7274266" lon="8.7233621"><ele>274.5</ele><time>2026-04-16T09:24:21.576Z</time></trkpt><trkpt lat="45.7273984" lon="8.7231877"><ele>275.0</ele><time>2026-04-16T09:24:22.58Z</time></trkpt><trkpt lat="45.727361" lon="8.7230098"><ele>275.0</ele><time>2026-04-16T09:24:23.584Z</time></trkpt><trkpt lat="45.7273254" lon="8.7228402"><ele>275.0</ele><time>2026-04-16T09:24:24.575Z</time></trkpt><trkpt lat="45.7272857" lon="8.7226688"><ele>275.0</ele><time>2026-04-16T09:24:25.573Z</time></trkpt><trkpt lat="45.7272439" lon="8.7224863"><ele>275.0</ele><time>2026-04-16T09:24:26.57Z</time></trkpt><trkpt lat="45.7271984" lon="8.7223064"><ele>275.75</ele><time>2026-04-16T09:24:27.568Z</time></trkpt><trkpt lat="45.7271539" lon="8.7221145"><ele>276.5</ele><time>2026-04-16T09:24:28.573Z</time></trkpt><trkpt lat="45.7271008" lon="8.721921"><ele>277.25</ele><time>2026-04-16T09:24:29.559Z</time></trkpt><trkpt lat="45.7270499" lon="8.7217102"><ele>278.0</ele><time>2026-04-16T09:24:30.571Z</time></trkpt><trkpt lat="45.7269962" lon="8.7215042"><ele>278.0</ele><time>2026-04-16T09:24:31.551Z</time></trkpt><trkpt lat="45.7269324" lon="8.7213007"><ele>278.0</ele><time>2026-04-16T09:24:32.56Z</time></trkpt><trkpt lat="45.7268843" lon="8.7211096"><ele>278.0</ele><time>2026-04-16T09:24:33.558Z</time></trkpt><trkpt lat="45.7268111" lon="8.7209232"><ele>278.0</ele><time>2026-04-16T09:24:34.559Z</time></trkpt><trkpt lat="45.7267513" lon="8.7207393"><ele>278.0</ele><time>2026-04-16T09:24:35.554Z</time></trkpt><trkpt lat="45.7266886" lon="8.7205775"><ele>278.0</ele><time>2026-04-16T09:24:36.55Z</time></trkpt><trkpt lat="45.7266314" lon="8.7204091"><ele>278.0</ele><time>2026-04-16T09:24:37.542Z</time></trkpt><trkpt lat="45.7266177" lon="8.7202354"><ele>278.0</ele><time>2026-04-16T09:24:38.551Z</time></trkpt><trkpt lat="45.7266034" lon="8.7200708"><ele>277.75</ele><time>2026-04-16T09:24:39.551Z</time></trkpt><trkpt lat="45.7265816" lon="8.7199177"><ele>277.5</ele><time>2026-04-16T09:24:40.555Z</time></trkpt><trkpt lat="45.7265612" lon="8.7197302"><ele>277.25</ele><time>2026-04-16T09:24:41.553Z</time></trkpt><trkpt lat="45.726553" lon="8.7195761"><ele>277.0</ele><time>2026-04-16T09:24:42.56Z</time></trkpt><trkpt lat="45.7265424" lon="8.719421"><ele>276.66666666666663</ele><time>2026-04-16T09:24:43.556Z</time></trkpt><trkpt lat="45.7265134" lon="8.7192922"><ele>276.3333333333333</ele><time>2026-04-16T09:24:44.555Z</time></trkpt><trkpt lat="45.7264997" lon="8.719163"><ele>276.0</ele><time>2026-04-16T09:24:45.554Z</time></trkpt><trkpt lat="45.7264632" lon="8.7190343"><ele>275.6666666666667</ele><time>2026-04-16T09:24:46.563Z</time></trkpt><trkpt lat="45.7264319" lon="8.7189376"><ele>275.33333333333337</ele><time>2026-04-16T09:24:47.561Z</time></trkpt><trkpt lat="45.7264108" lon="8.7188346"><ele>275.0</ele><time>2026-04-16T09:24:48.571Z</time></trkpt><trkpt lat="45.7263748" lon="8.7186916"><ele>274.8</ele><time>2026-04-16T09:24:50.57Z</time></trkpt><trkpt lat="45.7263363" lon="8.7185452"><ele>274.6</ele><time>2026-04-16T09:24:52.571Z</time></trkpt><trkpt lat="45.7263333" lon="8.7183973"><ele>274.4</ele><time>2026-04-16T09:24:54.575Z</time></trkpt><trkpt lat="45.726356" lon="8.7182547"><ele>274.2</ele><time>2026-04-16T09:24:56.594Z</time></trkpt><trkpt lat="45.7263497" lon="8.7181121"><ele>274.0</ele><time>2026-04-16T09:24:58.603Z</time></trkpt><trkpt lat="45.7262785" lon="8.7179799"><ele>274.0</ele><time>2026-04-16T09:25:00.595Z</time></trkpt><trkpt lat="45.7262153" lon="8.7179175"><ele>274.0</ele><time>2026-04-16T09:25:01.604Z</time></trkpt><trkpt lat="45.7261503" lon="8.7178611"><ele>274.0</ele><time>2026-04-16T09:25:02.599Z</time></trkpt><trkpt lat="45.726084" lon="8.7177898"><ele>274.0</ele><time>2026-04-16T09:25:03.603Z</time></trkpt><trkpt lat="45.7260307" lon="8.7177199"><ele>274.0</ele><time>2026-04-16T09:25:04.602Z</time></trkpt><trkpt lat="45.7259757" lon="8.7176318"><ele>274.0</ele><time>2026-04-16T09:25:05.597Z</time></trkpt><trkpt lat="45.7259413" lon="8.7175456"><ele>273.8333333333333</ele><time>2026-04-16T09:25:06.587Z</time></trkpt><trkpt lat="45.7259079" lon="8.717466"><ele>273.66666666666663</ele><time>2026-04-16T09:25:07.58Z</time></trkpt><trkpt lat="45.7258538" lon="8.7173437"><ele>273.5</ele><time>2026-04-16T09:25:09.573Z</time></trkpt><trkpt lat="45.7258128" lon="8.7172444"><ele>273.3333333333333</ele><time>2026-04-16T09:25:11.568Z</time></trkpt><trkpt lat="45.7257718" lon="8.7171465"><ele>273.1666666666667</ele><time>2026-04-16T09:25:14.561Z</time></trkpt><trkpt lat="45.7257696" lon="8.7170391"><ele>273.0</ele><time>2026-04-16T09:25:16.567Z</time></trkpt><trkpt lat="45.7257548" lon="8.7169151"><ele>272.8333333333333</ele><time>2026-04-16T09:25:18.579Z</time></trkpt><trkpt lat="45.7256993" lon="8.7168159"><ele>272.6666666666667</ele><time>2026-04-16T09:25:20.585Z</time></trkpt><trkpt lat="45.7256123" lon="8.7167375"><ele>272.5</ele><time>2026-04-16T09:25:22.581Z</time></trkpt><trkpt lat="45.7255458" lon="8.7166801"><ele>272.33333333333337</ele><time>2026-04-16T09:25:23.586Z</time></trkpt><trkpt lat="45.7254988" lon="8.7166029"><ele>272.1666666666667</ele><time>2026-04-16T09:25:24.58Z</time></trkpt><trkpt lat="45.725447" lon="8.7165144"><ele>272.0</ele><time>2026-04-16T09:25:25.581Z</time></trkpt><trkpt lat="45.7253875" lon="8.7163997"><ele>272.0</ele><time>2026-04-16T09:25:26.578Z</time></trkpt><trkpt lat="45.7253297" lon="8.7162781"><ele>272.0</ele><time>2026-04-16T09:25:27.572Z</time></trkpt><trkpt lat="45.7252679" lon="8.7161538"><ele>272.0</ele><time>2026-04-16T09:25:28.569Z</time></trkpt><trkpt lat="45.7252074" lon="8.7160177"><ele>272.0</ele><time>2026-04-16T09:25:29.567Z</time></trkpt><trkpt lat="45.7251511" lon="8.7158882"><ele>272.0</ele><time>2026-04-16T09:25:30.58Z</time></trkpt><trkpt lat="45.7250882" lon="8.7157571"><ele>273.1666666666667</ele><time>2026-04-16T09:25:31.568Z</time></trkpt><trkpt lat="45.7250389" lon="8.7156395"><ele>274.33333333333337</ele><time>2026-04-16T09:25:32.572Z</time></trkpt><trkpt lat="45.7249943" lon="8.7155186"><ele>275.5</ele><time>2026-04-16T09:25:33.565Z</time></trkpt><trkpt lat="45.7249572" lon="8.7154155"><ele>276.6666666666667</ele><time>2026-04-16T09:25:34.564Z</time></trkpt><trkpt lat="45.7249231" lon="8.7153227"><ele>277.8333333333333</ele><time>2026-04-16T09:25:35.562Z</time></trkpt><trkpt lat="45.7248795" lon="8.7152026"><ele>279.0</ele><time>2026-04-16T09:25:37.557Z</time></trkpt><trkpt lat="45.7247859" lon="8.7152017"><ele>279.8</ele><time>2026-04-16T09:26:06.568Z</time></trkpt><trkpt lat="45.7247306" lon="8.7151233"><ele>280.59999999999997</ele><time>2026-04-16T09:26:07.563Z</time></trkpt><trkpt lat="45.7246862" lon="8.7150232"><ele>281.4</ele><time>2026-04-16T09:26:08.557Z</time></trkpt><trkpt lat="45.7246491" lon="8.7149033"><ele>282.2</ele><time>2026-04-16T09:26:09.555Z</time></trkpt><trkpt lat="45.7245836" lon="8.7147598"><ele>283.0</ele><time>2026-04-16T09:26:10.558Z</time></trkpt><trkpt lat="45.7245305" lon="8.7146501"><ele>283.0</ele><time>2026-04-16T09:26:11.558Z</time></trkpt><trkpt lat="45.7244814" lon="8.714547"><ele>283.0</ele><time>2026-04-16T09:26:12.561Z</time></trkpt><trkpt lat="45.7244275" lon="8.7144296"><ele>283.0</ele><time>2026-04-16T09:26:13.562Z</time></trkpt><trkpt lat="45.7243612" lon="8.7142924"><ele>283.0</ele><time>2026-04-16T09:26:14.56Z</time></trkpt><trkpt lat="45.7242862" lon="8.7141466"><ele>283.0</ele><time>2026-04-16T09:26:15.56Z</time></trkpt><trkpt lat="45.7242142" lon="8.7139889"><ele>282.0</ele><time>2026-04-16T09:26:16.566Z</time></trkpt><trkpt lat="45.7241403" lon="8.7138352"><ele>281.0</ele><time>2026-04-16T09:26:17.56Z</time></trkpt><trkpt lat="45.7240618" lon="8.7136861"><ele>280.0</ele><time>2026-04-16T09:26:18.561Z</time></trkpt><trkpt lat="45.7239836" lon="8.7135254"><ele>279.0</ele><time>2026-04-16T09:26:19.559Z</time></trkpt><trkpt lat="45.7239088" lon="8.7133503"><ele>279.0</ele><time>2026-04-16T09:26:20.558Z</time></trkpt><trkpt lat="45.7238322" lon="8.7131667"><ele>279.0</ele><time>2026-04-16T09:26:21.557Z</time></trkpt><trkpt lat="45.7237465" lon="8.7129716"><ele>279.0</ele><time>2026-04-16T09:26:22.553Z</time></trkpt><trkpt lat="45.7236736" lon="8.7127959"><ele>279.6666666666667</ele><time>2026-04-16T09:26:23.559Z</time></trkpt><trkpt lat="45.723599" lon="8.7126013"><ele>280.33333333333337</ele><time>2026-04-16T09:26:24.554Z</time></trkpt><trkpt lat="45.7235018" lon="8.7123916"><ele>281.0</ele><time>2026-04-16T09:26:25.561Z</time></trkpt><trkpt lat="45.7234107" lon="8.7121825"><ele>279.0</ele><time>2026-04-16T09:26:26.558Z</time></trkpt><trkpt lat="45.7233118" lon="8.7119843"><ele>277.0</ele><time>2026-04-16T09:26:27.564Z</time></trkpt><trkpt lat="45.7232082" lon="8.7117749"><ele>275.0</ele><time>2026-04-16T09:26:28.561Z</time></trkpt><trkpt lat="45.7231235" lon="8.711576"><ele>274.6666666666667</ele><time>2026-04-16T09:26:29.564Z</time></trkpt><trkpt lat="45.7230318" lon="8.7113604"><ele>274.3333333333333</ele><time>2026-04-16T09:26:30.563Z</time></trkpt><trkpt lat="45.722944" lon="8.711137"><ele>274.0</ele><time>2026-04-16T09:26:31.566Z</time></trkpt><trkpt lat="45.722844" lon="8.7109234"><ele>274.0</ele><time>2026-04-16T09:26:32.583Z</time></trkpt><trkpt lat="45.7227497" lon="8.7107235"><ele>274.0</ele><time>2026-04-16T09:26:33.57Z</time></trkpt><trkpt lat="45.7226545" lon="8.7105113"><ele>274.0</ele><time>2026-04-16T09:26:34.573Z</time></trkpt><trkpt lat="45.7225706" lon="8.7103016"><ele>274.66666666666663</ele><time>2026-04-16T09:26:35.57Z</time></trkpt><trkpt lat="45.7224775" lon="8.710086"><ele>275.3333333333333</ele><time>2026-04-16T09:26:36.574Z</time></trkpt><trkpt lat="45.7223923" lon="8.709863"><ele>276.0</ele><time>2026-04-16T09:26:37.574Z</time></trkpt><trkpt lat="45.7223261" lon="8.7096554"><ele>276.0</ele><time>2026-04-16T09:26:38.567Z</time></trkpt><trkpt lat="45.7222701" lon="8.7094388"><ele>276.0</ele><time>2026-04-16T09:26:39.561Z</time></trkpt><trkpt lat="45.7222295" lon="8.7092036"><ele>276.0</ele><time>2026-04-16T09:26:40.566Z</time></trkpt><trkpt lat="45.7222063" lon="8.7090053"><ele>275.3333333333333</ele><time>2026-04-16T09:26:41.564Z</time></trkpt><trkpt lat="45.7221874" lon="8.7087962"><ele>274.66666666666663</ele><time>2026-04-16T09:26:42.562Z</time></trkpt><trkpt lat="45.7221797" lon="8.7085646"><ele>274.0</ele><time>2026-04-16T09:26:43.551Z</time></trkpt><trkpt lat="45.7221614" lon="8.7083525"><ele>274.0</ele><time>2026-04-16T09:26:44.56Z</time></trkpt><trkpt lat="45.7221546" lon="8.7081505"><ele>274.0</ele><time>2026-04-16T09:26:45.557Z</time></trkpt><trkpt lat="45.7221491" lon="8.7079212"><ele>274.0</ele><time>2026-04-16T09:26:46.557Z</time></trkpt><trkpt lat="45.7221686" lon="8.7076955"><ele>273.66666666666663</ele><time>2026-04-16T09:26:47.556Z</time></trkpt><trkpt lat="45.7222077" lon="8.7074653"><ele>273.3333333333333</ele><time>2026-04-16T09:26:48.564Z</time></trkpt><trkpt lat="45.7222475" lon="8.7072252"><ele>273.0</ele><time>2026-04-16T09:26:49.565Z</time></trkpt><trkpt lat="45.7222792" lon="8.7069955"><ele>273.3333333333333</ele><time>2026-04-16T09:26:50.56Z</time></trkpt><trkpt lat="45.7223046" lon="8.706774"><ele>273.66666666666663</ele><time>2026-04-16T09:26:51.566Z</time></trkpt><trkpt lat="45.7223245" lon="8.7065511"><ele>274.0</ele><time>2026-04-16T09:26:52.568Z</time></trkpt><trkpt lat="45.7223477" lon="8.7063384"><ele>274.0</ele><time>2026-04-16T09:26:53.567Z</time></trkpt><trkpt lat="45.7223681" lon="8.7061185"><ele>274.0</ele><time>2026-04-16T09:26:54.574Z</time></trkpt><trkpt lat="45.7223764" lon="8.7059041"><ele>274.0</ele><time>2026-04-16T09:26:55.567Z</time></trkpt><trkpt lat="45.7223937" lon="8.70569"><ele>274.25</ele><time>2026-04-16T09:26:56.571Z</time></trkpt><trkpt lat="45.7224006" lon="8.7054868"><ele>274.5</ele><time>2026-04-16T09:26:57.57Z</time></trkpt><trkpt lat="45.7224118" lon="8.7052799"><ele>274.75</ele><time>2026-04-16T09:26:58.574Z</time></trkpt><trkpt lat="45.7224132" lon="8.7050725"><ele>275.0</ele><time>2026-04-16T09:26:59.559Z</time></trkpt><trkpt lat="45.7224153" lon="8.7048367"><ele>274.6666666666667</ele><time>2026-04-16T09:27:00.575Z</time></trkpt><trkpt lat="45.72242" lon="8.7045965"><ele>274.3333333333333</ele><time>2026-04-16T09:27:01.575Z</time></trkpt><trkpt lat="45.7224246" lon="8.7043508"><ele>274.0</ele><time>2026-04-16T09:27:02.573Z</time></trkpt><trkpt lat="45.7224282" lon="8.7041252"><ele>274.0</ele><time>2026-04-16T09:27:03.587Z</time></trkpt><trkpt lat="45.7224199" lon="8.7039118"><ele>274.0</ele><time>2026-04-16T09:27:04.574Z</time></trkpt><trkpt lat="45.7224142" lon="8.7036679"><ele>274.0</ele><time>2026-04-16T09:27:05.573Z</time></trkpt><trkpt lat="45.7224093" lon="8.7034345"><ele>273.3333333333333</ele><time>2026-04-16T09:27:06.567Z</time></trkpt><trkpt lat="45.7223946" lon="8.7032101"><ele>272.6666666666667</ele><time>2026-04-16T09:27:07.57Z</time></trkpt><trkpt lat="45.7224032" lon="8.702966"><ele>272.0</ele><time>2026-04-16T09:27:08.575Z</time></trkpt><trkpt lat="45.7224049" lon="8.7027369"><ele>271.6666666666667</ele><time>2026-04-16T09:27:09.575Z</time></trkpt><trkpt lat="45.7224156" lon="8.7025066"><ele>271.3333333333333</ele><time>2026-04-16T09:27:10.577Z</time></trkpt><trkpt lat="45.7224129" lon="8.7022852"><ele>271.0</ele><time>2026-04-16T09:27:11.572Z</time></trkpt><trkpt lat="45.7224067" lon="8.7020641"><ele>271.0</ele><time>2026-04-16T09:27:12.573Z</time></trkpt><trkpt lat="45.7223966" lon="8.7018382"><ele>271.0</ele><time>2026-04-16T09:27:13.56Z</time></trkpt><trkpt lat="45.7223981" lon="8.7016223"><ele>271.0</ele><time>2026-04-16T09:27:14.571Z</time></trkpt><trkpt lat="45.7224004" lon="8.7013815"><ele>271.0</ele><time>2026-04-16T09:27:15.566Z</time></trkpt><trkpt lat="45.7223905" lon="8.7011448"><ele>271.0</ele><time>2026-04-16T09:27:16.581Z</time></trkpt><trkpt lat="45.7223773" lon="8.7009112"><ele>271.0</ele><time>2026-04-16T09:27:17.568Z</time></trkpt><trkpt lat="45.7223719" lon="8.7006864"><ele>270.66666666666663</ele><time>2026-04-16T09:27:18.573Z</time></trkpt><trkpt lat="45.7223701" lon="8.7004441"><ele>270.3333333333333</ele><time>2026-04-16T09:27:19.568Z</time></trkpt><trkpt lat="45.7223724" lon="8.7001907"><ele>270.0</ele><time>2026-04-16T09:27:20.572Z</time></trkpt><trkpt lat="45.7223714" lon="8.6999439"><ele>270.0</ele><time>2026-04-16T09:27:21.568Z</time></trkpt><trkpt lat="45.722378" lon="8.6997205"><ele>270.0</ele><time>2026-04-16T09:27:22.572Z</time></trkpt><trkpt lat="45.7223914" lon="8.6995079"><ele>270.0</ele><time>2026-04-16T09:27:23.566Z</time></trkpt><trkpt lat="45.7223854" lon="8.6992865"><ele>269.6666666666667</ele><time>2026-04-16T09:27:24.575Z</time></trkpt><trkpt lat="45.7223884" lon="8.699056"><ele>269.33333333333337</ele><time>2026-04-16T09:27:25.568Z</time></trkpt><trkpt lat="45.7223936" lon="8.6988321"><ele>269.0</ele><time>2026-04-16T09:27:26.576Z</time></trkpt><trkpt lat="45.7223886" lon="8.698635"><ele>269.25</ele><time>2026-04-16T09:27:27.569Z</time></trkpt><trkpt lat="45.7223983" lon="8.6984251"><ele>269.5</ele><time>2026-04-16T09:27:28.572Z</time></trkpt><trkpt lat="45.7224056" lon="8.6981993"><ele>269.75</ele><time>2026-04-16T09:27:29.569Z</time></trkpt><trkpt lat="45.7224191" lon="8.6979929"><ele>270.0</ele><time>2026-04-16T09:27:30.582Z</time></trkpt><trkpt lat="45.7224175" lon="8.6977723"><ele>270.0</ele><time>2026-04-16T09:27:31.576Z</time></trkpt><trkpt lat="45.7223992" lon="8.6975518"><ele>270.0</ele><time>2026-04-16T09:27:32.579Z</time></trkpt><trkpt lat="45.7223854" lon="8.6973348"><ele>270.0</ele><time>2026-04-16T09:27:33.568Z</time></trkpt><trkpt lat="45.7223697" lon="8.6971445"><ele>270.0</ele><time>2026-04-16T09:27:34.587Z</time></trkpt><trkpt lat="45.7223384" lon="8.6969793"><ele>270.25</ele><time>2026-04-16T09:27:35.559Z</time></trkpt><trkpt lat="45.722307" lon="8.6968015"><ele>270.5</ele><time>2026-04-16T09:27:36.565Z</time></trkpt><trkpt lat="45.7222667" lon="8.6965979"><ele>270.75</ele><time>2026-04-16T09:27:37.562Z</time></trkpt><trkpt lat="45.722228" lon="8.6964248"><ele>271.0</ele><time>2026-04-16T09:27:38.57Z</time></trkpt><trkpt lat="45.7221858" lon="8.696309"><ele>271.0</ele><time>2026-04-16T09:27:39.562Z</time></trkpt><trkpt lat="45.7221597" lon="8.6961584"><ele>271.0</ele><time>2026-04-16T09:27:40.564Z</time></trkpt><trkpt lat="45.7221201" lon="8.6960049"><ele>271.0</ele><time>2026-04-16T09:27:41.557Z</time></trkpt><trkpt lat="45.7220879" lon="8.6958466"><ele>271.0</ele><time>2026-04-16T09:27:42.56Z</time></trkpt><trkpt lat="45.7220549" lon="8.6957101"><ele>271.0</ele><time>2026-04-16T09:27:43.559Z</time></trkpt><trkpt lat="45.7220306" lon="8.6955749"><ele>271.0</ele><time>2026-04-16T09:27:44.558Z</time></trkpt><trkpt lat="45.7220141" lon="8.695476"><ele>271.0</ele><time>2026-04-16T09:27:45.557Z</time></trkpt><trkpt lat="45.7219949" lon="8.6953802"><ele>271.0</ele><time>2026-04-16T09:27:46.553Z</time></trkpt><trkpt lat="45.7219775" lon="8.695277"><ele>271.0</ele><time>2026-04-16T09:27:47.551Z</time></trkpt><trkpt lat="45.7219555" lon="8.6951661"><ele>271.0</ele><time>2026-04-16T09:27:48.551Z</time></trkpt><trkpt lat="45.7219263" lon="8.6950629"><ele>271.0</ele><time>2026-04-16T09:27:49.552Z</time></trkpt><trkpt lat="45.7218995" lon="8.6949593"><ele>270.8</ele><time>2026-04-16T09:27:50.552Z</time></trkpt><trkpt lat="45.7218811" lon="8.6948453"><ele>270.6</ele><time>2026-04-16T09:27:51.561Z</time></trkpt><trkpt lat="45.7218574" lon="8.6947225"><ele>270.4</ele><time>2026-04-16T09:27:52.564Z</time></trkpt><trkpt lat="45.721825" lon="8.6945878"><ele>270.2</ele><time>2026-04-16T09:27:53.561Z</time></trkpt><trkpt lat="45.7218002" lon="8.6944813"><ele>270.0</ele><time>2026-04-16T09:27:54.564Z</time></trkpt><trkpt lat="45.7217712" lon="8.6943102"><ele>269.6666666666667</ele><time>2026-04-16T09:27:56.564Z</time></trkpt><trkpt lat="45.7217503" lon="8.6942231"><ele>269.3333333333333</ele><time>2026-04-16T09:27:57.561Z</time></trkpt><trkpt lat="45.7217255" lon="8.6941215"><ele>269.0</ele><time>2026-04-16T09:27:58.562Z</time></trkpt><trkpt lat="45.7216997" lon="8.6940146"><ele>268.66666666666663</ele><time>2026-04-16T09:27:59.56Z</time></trkpt><trkpt lat="45.7216644" lon="8.6939074"><ele>268.3333333333333</ele><time>2026-04-16T09:28:00.558Z</time></trkpt><trkpt lat="45.7216306" lon="8.6938086"><ele>268.0</ele><time>2026-04-16T09:28:01.559Z</time></trkpt><trkpt lat="45.7216015" lon="8.6937126"><ele>268.0</ele><time>2026-04-16T09:28:02.557Z</time></trkpt><trkpt lat="45.7215713" lon="8.6935944"><ele>268.0</ele><time>2026-04-16T09:28:03.554Z</time></trkpt><trkpt lat="45.7215661" lon="8.6934858"><ele>268.0</ele><time>2026-04-16T09:28:04.558Z</time></trkpt><trkpt lat="45.7215546" lon="8.6933637"><ele>268.0</ele><time>2026-04-16T09:28:05.561Z</time></trkpt><trkpt lat="45.7215709" lon="8.6932218"><ele>268.0</ele><time>2026-04-16T09:28:06.555Z</time></trkpt><trkpt lat="45.7216116" lon="8.6930755"><ele>267.75</ele><time>2026-04-16T09:28:07.561Z</time></trkpt><trkpt lat="45.7216483" lon="8.6929348"><ele>267.5</ele><time>2026-04-16T09:28:08.551Z</time></trkpt><trkpt lat="45.7216811" lon="8.6927988"><ele>267.25</ele><time>2026-04-16T09:28:09.557Z</time></trkpt><trkpt lat="45.7217087" lon="8.6926343"><ele>267.0</ele><time>2026-04-16T09:28:10.564Z</time></trkpt><trkpt lat="45.7217278" lon="8.6924529"><ele>266.6</ele><time>2026-04-16T09:28:11.563Z</time></trkpt><trkpt lat="45.7217516" lon="8.6922787"><ele>266.2</ele><time>2026-04-16T09:28:12.569Z</time></trkpt><trkpt lat="45.7217628" lon="8.6921269"><ele>265.8</ele><time>2026-04-16T09:28:13.565Z</time></trkpt><trkpt lat="45.7217745" lon="8.6919804"><ele>265.4</ele><time>2026-04-16T09:28:14.575Z</time></trkpt><trkpt lat="45.7217966" lon="8.6918406"><ele>265.0</ele><time>2026-04-16T09:28:15.577Z</time></trkpt><trkpt lat="45.721825" lon="8.6917111"><ele>264.85714285714283</ele><time>2026-04-16T09:28:16.577Z</time></trkpt><trkpt lat="45.7218469" lon="8.6916"><ele>264.7142857142857</ele><time>2026-04-16T09:28:17.572Z</time></trkpt><trkpt lat="45.7218678" lon="8.6915081"><ele>264.57142857142856</ele><time>2026-04-16T09:28:18.579Z</time></trkpt><trkpt lat="45.7218851" lon="8.6914137"><ele>264.42857142857144</ele><time>2026-04-16T09:28:19.577Z</time></trkpt><trkpt lat="45.7219009" lon="8.6913208"><ele>264.2857142857143</ele><time>2026-04-16T09:28:20.576Z</time></trkpt><trkpt lat="45.7219278" lon="8.6912111"><ele>264.1428571428571</ele><time>2026-04-16T09:28:21.563Z</time></trkpt><trkpt lat="45.7219475" lon="8.6911102"><ele>264.0</ele><time>2026-04-16T09:28:22.564Z</time></trkpt><trkpt lat="45.7219695" lon="8.6910067"><ele>263.8333333333333</ele><time>2026-04-16T09:28:23.562Z</time></trkpt><trkpt lat="45.7219951" lon="8.6908829"><ele>263.6666666666667</ele><time>2026-04-16T09:28:24.558Z</time></trkpt><trkpt lat="45.7220266" lon="8.6907571"><ele>263.5</ele><time>2026-04-16T09:28:25.552Z</time></trkpt><trkpt lat="45.7220632" lon="8.6906598"><ele>263.33333333333337</ele><time>2026-04-16T09:28:26.569Z</time></trkpt><trkpt lat="45.7220886" lon="8.690555"><ele>263.1666666666667</ele><time>2026-04-16T09:28:27.564Z</time></trkpt><trkpt lat="45.7221166" lon="8.6904598"><ele>263.0</ele><time>2026-04-16T09:28:28.568Z</time></trkpt><trkpt lat="45.7221622" lon="8.6903694"><ele>263.0</ele><time>2026-04-16T09:28:30.567Z</time></trkpt><trkpt lat="45.7221939" lon="8.6902752"><ele>263.0</ele><time>2026-04-16T09:28:33.56Z</time></trkpt><trkpt lat="45.7221254" lon="8.6902979"><ele>263.0</ele><time>2026-04-16T09:28:41.56Z</time></trkpt><trkpt lat="45.7220811" lon="8.6903791"><ele>263.0</ele><time>2026-04-16T09:28:45.563Z</time></trkpt><trkpt lat="45.7221182" lon="8.6904549"><ele>263.0</ele><time>2026-04-16T09:33:35.588Z</time></trkpt><trkpt lat="45.7221565" lon="8.6905674"><ele>263.0</ele><time>2026-04-16T09:34:46.567Z</time></trkpt><trkpt lat="45.7221579" lon="8.6906918"><ele>263.0</ele><time>2026-04-16T09:34:48.547Z</time></trkpt><trkpt lat="45.7221275" lon="8.6908642"><ele>263.0</ele><time>2026-04-16T09:34:49.553Z</time></trkpt><trkpt lat="45.7220781" lon="8.6910397"><ele>263.0</ele><time>2026-04-16T09:34:50.553Z</time></trkpt><trkpt lat="45.7220301" lon="8.6912153"><ele>263.0</ele><time>2026-04-16T09:34:51.55Z</time></trkpt><trkpt lat="45.7219828" lon="8.6913555"><ele>263.0</ele><time>2026-04-16T09:34:52.558Z</time></trkpt><trkpt lat="45.7219464" lon="8.6914885"><ele>263.0</ele><time>2026-04-16T09:34:53.562Z</time></trkpt><trkpt lat="45.7219186" lon="8.6916139"><ele>263.0</ele><time>2026-04-16T09:34:54.561Z</time></trkpt><trkpt lat="45.721881" lon="8.6917442"><ele>263.0</ele><time>2026-04-16T09:34:55.571Z</time></trkpt><trkpt lat="45.7218409" lon="8.6918694"><ele>263.0</ele><time>2026-04-16T09:34:56.573Z</time></trkpt><trkpt lat="45.7218039" lon="8.6920105"><ele>263.4</ele><time>2026-04-16T09:34:57.579Z</time></trkpt><trkpt lat="45.7217792" lon="8.692144"><ele>263.8</ele><time>2026-04-16T09:34:58.573Z</time></trkpt><trkpt lat="45.7217569" lon="8.6922757"><ele>264.2</ele><time>2026-04-16T09:34:59.573Z</time></trkpt><trkpt lat="45.7217395" lon="8.6924068"><ele>264.6</ele><time>2026-04-16T09:35:00.577Z</time></trkpt><trkpt lat="45.7217265" lon="8.692544"><ele>265.0</ele><time>2026-04-16T09:35:01.575Z</time></trkpt><trkpt lat="45.7217214" lon="8.6926904"><ele>265.4</ele><time>2026-04-16T09:35:02.578Z</time></trkpt><trkpt lat="45.7217137" lon="8.6928273"><ele>265.8</ele><time>2026-04-16T09:35:03.574Z</time></trkpt><trkpt lat="45.7217122" lon="8.692968"><ele>266.2</ele><time>2026-04-16T09:35:04.578Z</time></trkpt><trkpt lat="45.7217133" lon="8.6931002"><ele>266.6</ele><time>2026-04-16T09:35:05.567Z</time></trkpt><trkpt lat="45.7217072" lon="8.693228"><ele>267.0</ele><time>2026-04-16T09:35:06.569Z</time></trkpt><trkpt lat="45.7217002" lon="8.6933335"><ele>267.0</ele><time>2026-04-16T09:35:07.572Z</time></trkpt><trkpt lat="45.7216843" lon="8.6934365"><ele>267.0</ele><time>2026-04-16T09:35:08.575Z</time></trkpt><trkpt lat="45.7216768" lon="8.6935458"><ele>267.0</ele><time>2026-04-16T09:35:09.577Z</time></trkpt><trkpt lat="45.7216743" lon="8.6936499"><ele>267.0</ele><time>2026-04-16T09:35:10.571Z</time></trkpt><trkpt lat="45.7216699" lon="8.6937553"><ele>267.0</ele><time>2026-04-16T09:35:11.559Z</time></trkpt><trkpt lat="45.7216701" lon="8.6939344"><ele>267.0</ele><time>2026-04-16T09:35:13.561Z</time></trkpt><trkpt lat="45.7216832" lon="8.6940864"><ele>267.1666666666667</ele><time>2026-04-16T09:35:15.563Z</time></trkpt><trkpt lat="45.7216569" lon="8.6942234"><ele>267.3333333333333</ele><time>2026-04-16T09:35:17.559Z</time></trkpt><trkpt lat="45.7216262" lon="8.6943181"><ele>267.5</ele><time>2026-04-16T09:35:19.574Z</time></trkpt><trkpt lat="45.7216392" lon="8.6944236"><ele>267.66666666666663</ele><time>2026-04-16T09:35:23.578Z</time></trkpt><trkpt lat="45.7216893" lon="8.6944982"><ele>267.8333333333333</ele><time>2026-04-16T09:35:25.576Z</time></trkpt><trkpt lat="45.7217471" lon="8.694586"><ele>268.0</ele><time>2026-04-16T09:35:26.563Z</time></trkpt><trkpt lat="45.7218108" lon="8.6946881"><ele>268.5</ele><time>2026-04-16T09:35:27.563Z</time></trkpt><trkpt lat="45.721865" lon="8.6948106"><ele>269.0</ele><time>2026-04-16T09:35:28.559Z</time></trkpt><trkpt lat="45.721908" lon="8.6949611"><ele>269.5</ele><time>2026-04-16T09:35:29.545Z</time></trkpt><trkpt lat="45.7219461" lon="8.6951156"><ele>270.0</ele><time>2026-04-16T09:35:30.547Z</time></trkpt><trkpt lat="45.7219812" lon="8.6952821"><ele>270.25</ele><time>2026-04-16T09:35:31.547Z</time></trkpt><trkpt lat="45.7220184" lon="8.6954637"><ele>270.5</ele><time>2026-04-16T09:35:32.549Z</time></trkpt><trkpt lat="45.7220543" lon="8.6956358"><ele>270.75</ele><time>2026-04-16T09:35:33.551Z</time></trkpt><trkpt lat="45.7220913" lon="8.6958087"><ele>271.0</ele><time>2026-04-16T09:35:34.55Z</time></trkpt><trkpt lat="45.7221214" lon="8.6959701"><ele>271.0</ele><time>2026-04-16T09:35:35.545Z</time></trkpt><trkpt lat="45.7221543" lon="8.6961415"><ele>271.0</ele><time>2026-04-16T09:35:36.551Z</time></trkpt><trkpt lat="45.7221768" lon="8.6963135"><ele>271.0</ele><time>2026-04-16T09:35:37.558Z</time></trkpt><trkpt lat="45.722194" lon="8.6964855"><ele>271.0</ele><time>2026-04-16T09:35:38.563Z</time></trkpt><trkpt lat="45.7222064" lon="8.6966426"><ele>271.0</ele><time>2026-04-16T09:35:39.56Z</time></trkpt><trkpt lat="45.7222147" lon="8.6968026"><ele>271.0</ele><time>2026-04-16T09:35:40.57Z</time></trkpt><trkpt lat="45.7222301" lon="8.6969652"><ele>271.0</ele><time>2026-04-16T09:35:41.566Z</time></trkpt><trkpt lat="45.7222503" lon="8.6971127"><ele>271.0</ele><time>2026-04-16T09:35:42.571Z</time></trkpt><trkpt lat="45.7222705" lon="8.6972564"><ele>271.0</ele><time>2026-04-16T09:35:43.566Z</time></trkpt><trkpt lat="45.7222874" lon="8.6974017"><ele>270.8333333333333</ele><time>2026-04-16T09:35:44.573Z</time></trkpt><trkpt lat="45.7223045" lon="8.6975179"><ele>270.66666666666663</ele><time>2026-04-16T09:35:45.562Z</time></trkpt><trkpt lat="45.7223359" lon="8.6976437"><ele>270.5</ele><time>2026-04-16T09:35:46.563Z</time></trkpt><trkpt lat="45.7223676" lon="8.6977561"><ele>270.3333333333333</ele><time>2026-04-16T09:35:47.559Z</time></trkpt><trkpt lat="45.7223843" lon="8.6978538"><ele>270.1666666666667</ele><time>2026-04-16T09:35:48.567Z</time></trkpt><trkpt lat="45.7224016" lon="8.6980183"><ele>270.0</ele><time>2026-04-16T09:35:50.57Z</time></trkpt><trkpt lat="45.7224112" lon="8.6981819"><ele>270.0</ele><time>2026-04-16T09:35:52.566Z</time></trkpt><trkpt lat="45.7224056" lon="8.6983262"><ele>270.0</ele><time>2026-04-16T09:35:54.582Z</time></trkpt><trkpt lat="45.7223902" lon="8.6984749"><ele>270.0</ele><time>2026-04-16T09:35:56.584Z</time></trkpt><trkpt lat="45.7223939" lon="8.6986727"><ele>270.0</ele><time>2026-04-16T09:35:58.581Z</time></trkpt><trkpt lat="45.7223959" lon="8.6987728"><ele>270.0</ele><time>2026-04-16T09:35:59.579Z</time></trkpt><trkpt lat="45.7223981" lon="8.6988765"><ele>270.0</ele><time>2026-04-16T09:36:00.584Z</time></trkpt><trkpt lat="45.7223976" lon="8.6989979"><ele>270.0</ele><time>2026-04-16T09:36:01.575Z</time></trkpt><trkpt lat="45.7223962" lon="8.6991079"><ele>270.0</ele><time>2026-04-16T09:36:02.582Z</time></trkpt><trkpt lat="45.7223907" lon="8.6992301"><ele>270.0</ele><time>2026-04-16T09:36:03.578Z</time></trkpt><trkpt lat="45.722386" lon="8.6993671"><ele>270.0</ele><time>2026-04-16T09:36:04.581Z</time></trkpt><trkpt lat="45.7223827" lon="8.6995017"><ele>270.0</ele><time>2026-04-16T09:36:05.576Z</time></trkpt><trkpt lat="45.7223768" lon="8.6996445"><ele>270.0</ele><time>2026-04-16T09:36:06.584Z</time></trkpt><trkpt lat="45.7223775" lon="8.6997771"><ele>270.0</ele><time>2026-04-16T09:36:07.577Z</time></trkpt><trkpt lat="45.722379" lon="8.6999114"><ele>270.0</ele><time>2026-04-16T09:36:08.577Z</time></trkpt><trkpt lat="45.722379" lon="8.7000652"><ele>270.0</ele><time>2026-04-16T09:36:09.573Z</time></trkpt><trkpt lat="45.7223896" lon="8.70021"><ele>270.0</ele><time>2026-04-16T09:36:10.569Z</time></trkpt><trkpt lat="45.7223978" lon="8.7003609"><ele>269.75</ele><time>2026-04-16T09:36:11.568Z</time></trkpt><trkpt lat="45.7224075" lon="8.7005282"><ele>269.5</ele><time>2026-04-16T09:36:12.573Z</time></trkpt><trkpt lat="45.7224184" lon="8.7007069"><ele>269.25</ele><time>2026-04-16T09:36:13.57Z</time></trkpt><trkpt lat="45.722419" lon="8.7009005"><ele>269.0</ele><time>2026-04-16T09:36:14.575Z</time></trkpt><trkpt lat="45.722415" lon="8.701089"><ele>269.5</ele><time>2026-04-16T09:36:15.568Z</time></trkpt><trkpt lat="45.7224079" lon="8.7012896"><ele>270.0</ele><time>2026-04-16T09:36:16.57Z</time></trkpt><trkpt lat="45.7224063" lon="8.7014947"><ele>270.5</ele><time>2026-04-16T09:36:17.57Z</time></trkpt><trkpt lat="45.722401" lon="8.7017048"><ele>271.0</ele><time>2026-04-16T09:36:18.562Z</time></trkpt><trkpt lat="45.7223999" lon="8.701915"><ele>271.0</ele><time>2026-04-16T09:36:19.565Z</time></trkpt><trkpt lat="45.7223935" lon="8.7021236"><ele>271.0</ele><time>2026-04-16T09:36:20.576Z</time></trkpt><trkpt lat="45.7223845" lon="8.7023205"><ele>271.0</ele><time>2026-04-16T09:36:21.564Z</time></trkpt><trkpt lat="45.7223831" lon="8.702513"><ele>271.0</ele><time>2026-04-16T09:36:22.571Z</time></trkpt><trkpt lat="45.7223892" lon="8.7026939"><ele>271.25</ele><time>2026-04-16T09:36:23.573Z</time></trkpt><trkpt lat="45.7223915" lon="8.7028871"><ele>271.5</ele><time>2026-04-16T09:36:24.577Z</time></trkpt><trkpt lat="45.7223883" lon="8.7030828"><ele>271.75</ele><time>2026-04-16T09:36:25.57Z</time></trkpt><trkpt lat="45.7223808" lon="8.7032591"><ele>272.0</ele><time>2026-04-16T09:36:26.575Z</time></trkpt><trkpt lat="45.7223817" lon="8.7034366"><ele>272.5</ele><time>2026-04-16T09:36:27.57Z</time></trkpt><trkpt lat="45.7223815" lon="8.7036119"><ele>273.0</ele><time>2026-04-16T09:36:28.569Z</time></trkpt><trkpt lat="45.722387" lon="8.703779"><ele>273.5</ele><time>2026-04-16T09:36:29.565Z</time></trkpt><trkpt lat="45.7223835" lon="8.7039635"><ele>274.0</ele><time>2026-04-16T09:36:30.576Z</time></trkpt><trkpt lat="45.7223803" lon="8.7041492"><ele>274.0</ele><time>2026-04-16T09:36:31.568Z</time></trkpt><trkpt lat="45.7223773" lon="8.704338"><ele>274.0</ele><time>2026-04-16T09:36:32.572Z</time></trkpt><trkpt lat="45.7223745" lon="8.7045147"><ele>274.0</ele><time>2026-04-16T09:36:33.566Z</time></trkpt><trkpt lat="45.7223731" lon="8.7046988"><ele>274.0</ele><time>2026-04-16T09:36:34.575Z</time></trkpt><trkpt lat="45.722369" lon="8.7048631"><ele>273.75</ele><time>2026-04-16T09:36:35.574Z</time></trkpt><trkpt lat="45.7223641" lon="8.7050297"><ele>273.5</ele><time>2026-04-16T09:36:36.577Z</time></trkpt><trkpt lat="45.7223654" lon="8.7051936"><ele>273.25</ele><time>2026-04-16T09:36:37.57Z</time></trkpt><trkpt lat="45.7223638" lon="8.7053672"><ele>273.0</ele><time>2026-04-16T09:36:38.576Z</time></trkpt><trkpt lat="45.7223609" lon="8.7055532"><ele>273.25</ele><time>2026-04-16T09:36:39.575Z</time></trkpt><trkpt lat="45.7223583" lon="8.7057402"><ele>273.5</ele><time>2026-04-16T09:36:40.584Z</time></trkpt><trkpt lat="45.722356" lon="8.7059278"><ele>273.75</ele><time>2026-04-16T09:36:41.584Z</time></trkpt><trkpt lat="45.7223514" lon="8.7061122"><ele>274.0</ele><time>2026-04-16T09:36:42.584Z</time></trkpt><trkpt lat="45.7223436" lon="8.7062818"><ele>274.0</ele><time>2026-04-16T09:36:43.576Z</time></trkpt><trkpt lat="45.7223376" lon="8.7064363"><ele>274.0</ele><time>2026-04-16T09:36:44.579Z</time></trkpt><trkpt lat="45.7223248" lon="8.7065886"><ele>274.0</ele><time>2026-04-16T09:36:45.573Z</time></trkpt><trkpt lat="45.722314" lon="8.706741"><ele>274.0</ele><time>2026-04-16T09:36:46.578Z</time></trkpt><trkpt lat="45.722307" lon="8.7068934"><ele>274.0</ele><time>2026-04-16T09:36:47.574Z</time></trkpt><trkpt lat="45.7222941" lon="8.7070648"><ele>274.0</ele><time>2026-04-16T09:36:48.581Z</time></trkpt><trkpt lat="45.7222832" lon="8.7072398"><ele>274.0</ele><time>2026-04-16T09:36:49.569Z</time></trkpt><trkpt lat="45.7222678" lon="8.7074134"><ele>274.0</ele><time>2026-04-16T09:36:50.577Z</time></trkpt><trkpt lat="45.7222595" lon="8.7075756"><ele>274.0</ele><time>2026-04-16T09:36:51.581Z</time></trkpt><trkpt lat="45.7222498" lon="8.7077494"><ele>274.0</ele><time>2026-04-16T09:36:52.565Z</time></trkpt><trkpt lat="45.7222451" lon="8.7079063"><ele>274.0</ele><time>2026-04-16T09:36:53.564Z</time></trkpt><trkpt lat="45.7222336" lon="8.7080593"><ele>274.0</ele><time>2026-04-16T09:36:54.552Z</time></trkpt><trkpt lat="45.7222198" lon="8.7082077"><ele>274.0</ele><time>2026-04-16T09:36:55.562Z</time></trkpt><trkpt lat="45.7222107" lon="8.7083576"><ele>274.0</ele><time>2026-04-16T09:36:56.569Z</time></trkpt><trkpt lat="45.7222049" lon="8.7085069"><ele>275.2</ele><time>2026-04-16T09:36:57.563Z</time></trkpt><trkpt lat="45.7221967" lon="8.7086495"><ele>276.4</ele><time>2026-04-16T09:36:58.568Z</time></trkpt><trkpt lat="45.7221854" lon="8.7088009"><ele>277.6</ele><time>2026-04-16T09:36:59.566Z</time></trkpt><trkpt lat="45.7221853" lon="8.708946"><ele>278.8</ele><time>2026-04-16T09:37:00.562Z</time></trkpt><trkpt lat="45.7221892" lon="8.7090859"><ele>280.0</ele><time>2026-04-16T09:37:01.562Z</time></trkpt><trkpt lat="45.7221996" lon="8.709221"><ele>280.0</ele><time>2026-04-16T09:37:02.561Z</time></trkpt><trkpt lat="45.7222161" lon="8.7093491"><ele>280.0</ele><time>2026-04-16T09:37:03.567Z</time></trkpt><trkpt lat="45.7222254" lon="8.7094753"><ele>280.0</ele><time>2026-04-16T09:37:04.565Z</time></trkpt><trkpt lat="45.722233" lon="8.7095947"><ele>280.0</ele><time>2026-04-16T09:37:05.566Z</time></trkpt><trkpt lat="45.7222516" lon="8.7097256"><ele>280.0</ele><time>2026-04-16T09:37:06.57Z</time></trkpt><trkpt lat="45.7222811" lon="8.7098375"><ele>280.0</ele><time>2026-04-16T09:37:07.562Z</time></trkpt><trkpt lat="45.72232" lon="8.7099513"><ele>279.3333333333333</ele><time>2026-04-16T09:37:08.57Z</time></trkpt><trkpt lat="45.7223546" lon="8.7100584"><ele>278.66666666666663</ele><time>2026-04-16T09:37:09.561Z</time></trkpt><trkpt lat="45.7223874" lon="8.7101692"><ele>278.0</ele><time>2026-04-16T09:37:10.566Z</time></trkpt><trkpt lat="45.7224268" lon="8.7102541"><ele>277.3333333333333</ele><time>2026-04-16T09:37:11.567Z</time></trkpt><trkpt lat="45.7224649" lon="8.7103449"><ele>276.6666666666667</ele><time>2026-04-16T09:37:12.566Z</time></trkpt><trkpt lat="45.7225024" lon="8.7104224"><ele>276.0</ele><time>2026-04-16T09:37:13.557Z</time></trkpt><trkpt lat="45.7225912" lon="8.7105676"><ele>275.6</ele><time>2026-04-16T09:37:15.567Z</time></trkpt><trkpt lat="45.7226311" lon="8.710647"><ele>275.20000000000005</ele><time>2026-04-16T09:37:16.566Z</time></trkpt><trkpt lat="45.7226992" lon="8.7108065"><ele>274.79999999999995</ele><time>2026-04-16T09:37:18.574Z</time></trkpt><trkpt lat="45.7227471" lon="8.710907"><ele>274.4</ele><time>2026-04-16T09:37:19.576Z</time></trkpt><trkpt lat="45.7227999" lon="8.7110326"><ele>274.0</ele><time>2026-04-16T09:37:20.578Z</time></trkpt><trkpt lat="45.7228542" lon="8.7111397"><ele>273.8</ele><time>2026-04-16T09:37:21.577Z</time></trkpt><trkpt lat="45.7229086" lon="8.7112575"><ele>273.59999999999997</ele><time>2026-04-16T09:37:22.588Z</time></trkpt><trkpt lat="45.7229601" lon="8.7113772"><ele>273.4</ele><time>2026-04-16T09:37:23.564Z</time></trkpt><trkpt lat="45.7230165" lon="8.7114934"><ele>273.2</ele><time>2026-04-16T09:37:24.557Z</time></trkpt><trkpt lat="45.7230634" lon="8.711601"><ele>273.0</ele><time>2026-04-16T09:37:25.561Z</time></trkpt><trkpt lat="45.7231119" lon="8.7117036"><ele>273.0</ele><time>2026-04-16T09:37:26.558Z</time></trkpt><trkpt lat="45.7231685" lon="8.711807"><ele>273.0</ele><time>2026-04-16T09:37:27.572Z</time></trkpt><trkpt lat="45.7232376" lon="8.7119108"><ele>273.0</ele><time>2026-04-16T09:37:28.57Z</time></trkpt><trkpt lat="45.7233044" lon="8.712014"><ele>273.0</ele><time>2026-04-16T09:37:29.57Z</time></trkpt><trkpt lat="45.7233603" lon="8.7121165"><ele>273.0</ele><time>2026-04-16T09:37:30.571Z</time></trkpt><trkpt lat="45.723415" lon="8.7122198"><ele>273.4</ele><time>2026-04-16T09:37:31.57Z</time></trkpt><trkpt lat="45.7234685" lon="8.7123283"><ele>273.8</ele><time>2026-04-16T09:37:32.568Z</time></trkpt><trkpt lat="45.7235176" lon="8.7124387"><ele>274.2</ele><time>2026-04-16T09:37:33.564Z</time></trkpt><trkpt lat="45.7235618" lon="8.7125462"><ele>274.6</ele><time>2026-04-16T09:37:34.569Z</time></trkpt><trkpt lat="45.7236189" lon="8.712666"><ele>275.0</ele><time>2026-04-16T09:37:35.562Z</time></trkpt><trkpt lat="45.7236806" lon="8.7127866"><ele>276.0</ele><time>2026-04-16T09:37:36.567Z</time></trkpt><trkpt lat="45.7237455" lon="8.7129267"><ele>277.0</ele><time>2026-04-16T09:37:37.565Z</time></trkpt><trkpt lat="45.7238205" lon="8.7130808"><ele>278.0</ele><time>2026-04-16T09:37:38.563Z</time></trkpt><trkpt lat="45.7239034" lon="8.7132309"><ele>279.0</ele><time>2026-04-16T09:37:39.56Z</time></trkpt><trkpt lat="45.7239775" lon="8.7134003"><ele>279.0</ele><time>2026-04-16T09:37:40.56Z</time></trkpt><trkpt lat="45.7240583" lon="8.7135499"><ele>279.0</ele><time>2026-04-16T09:37:41.557Z</time></trkpt><trkpt lat="45.7241408" lon="8.7137266"><ele>279.0</ele><time>2026-04-16T09:37:42.558Z</time></trkpt><trkpt lat="45.7242117" lon="8.7139005"><ele>279.0</ele><time>2026-04-16T09:37:43.554Z</time></trkpt><trkpt lat="45.724284" lon="8.7140954"><ele>278.6666666666667</ele><time>2026-04-16T09:37:44.555Z</time></trkpt><trkpt lat="45.7243561" lon="8.7142799"><ele>278.33333333333337</ele><time>2026-04-16T09:37:45.561Z</time></trkpt><trkpt lat="45.7244386" lon="8.7144679"><ele>278.0</ele><time>2026-04-16T09:37:46.563Z</time></trkpt><trkpt lat="45.7245227" lon="8.7146537"><ele>278.25</ele><time>2026-04-16T09:37:47.558Z</time></trkpt><trkpt lat="45.7246026" lon="8.7148273"><ele>278.5</ele><time>2026-04-16T09:37:48.565Z</time></trkpt><trkpt lat="45.7246874" lon="8.7149835"><ele>278.75</ele><time>2026-04-16T09:37:49.567Z</time></trkpt><trkpt lat="45.7247712" lon="8.7151496"><ele>279.0</ele><time>2026-04-16T09:37:50.567Z</time></trkpt><trkpt lat="45.7248488" lon="8.7153149"><ele>279.0</ele><time>2026-04-16T09:37:51.563Z</time></trkpt><trkpt lat="45.7249459" lon="8.7154832"><ele>279.0</ele><time>2026-04-16T09:37:52.57Z</time></trkpt><trkpt lat="45.7250291" lon="8.7156535"><ele>279.0</ele><time>2026-04-16T09:37:53.58Z</time></trkpt><trkpt lat="45.7251115" lon="8.7158027"><ele>279.0</ele><time>2026-04-16T09:37:54.562Z</time></trkpt><trkpt lat="45.7251924" lon="8.7159296"><ele>277.75</ele><time>2026-04-16T09:37:55.564Z</time></trkpt><trkpt lat="45.7252638" lon="8.7160682"><ele>276.5</ele><time>2026-04-16T09:37:56.56Z</time></trkpt><trkpt lat="45.7253298" lon="8.7161674"><ele>275.25</ele><time>2026-04-16T09:37:57.566Z</time></trkpt><trkpt lat="45.7253748" lon="8.716271"><ele>274.0</ele><time>2026-04-16T09:37:58.561Z</time></trkpt><trkpt lat="45.7254496" lon="8.7164668"><ele>273.8</ele><time>2026-04-16T09:38:00.572Z</time></trkpt><trkpt lat="45.7255062" lon="8.7165671"><ele>273.59999999999997</ele><time>2026-04-16T09:38:01.564Z</time></trkpt><trkpt lat="45.7255413" lon="8.7166801"><ele>273.4</ele><time>2026-04-16T09:38:02.567Z</time></trkpt><trkpt lat="45.7255784" lon="8.7167621"><ele>273.2</ele><time>2026-04-16T09:38:03.573Z</time></trkpt><trkpt lat="45.7256458" lon="8.7168972"><ele>273.0</ele><time>2026-04-16T09:38:05.573Z</time></trkpt><trkpt lat="45.7257103" lon="8.7170553"><ele>273.0</ele><time>2026-04-16T09:38:07.572Z</time></trkpt><trkpt lat="45.725741" lon="8.7171446"><ele>273.0</ele><time>2026-04-16T09:38:08.579Z</time></trkpt><trkpt lat="45.7257881" lon="8.7172987"><ele>273.0</ele><time>2026-04-16T09:38:10.583Z</time></trkpt><trkpt lat="45.7258623" lon="8.7174495"><ele>273.0</ele><time>2026-04-16T09:38:12.576Z</time></trkpt><trkpt lat="45.7259098" lon="8.717539"><ele>273.0</ele><time>2026-04-16T09:38:13.575Z</time></trkpt><trkpt lat="45.7259499" lon="8.7176192"><ele>273.0</ele><time>2026-04-16T09:38:14.577Z</time></trkpt><trkpt lat="45.7259884" lon="8.717719"><ele>273.0</ele><time>2026-04-16T09:38:15.581Z</time></trkpt><trkpt lat="45.7260275" lon="8.7178073"><ele>273.0</ele><time>2026-04-16T09:38:16.59Z</time></trkpt><trkpt lat="45.7260725" lon="8.7179124"><ele>273.0</ele><time>2026-04-16T09:38:17.577Z</time></trkpt><trkpt lat="45.7261067" lon="8.7180016"><ele>273.0</ele><time>2026-04-16T09:38:18.583Z</time></trkpt><trkpt lat="45.7261402" lon="8.7180886"><ele>273.0</ele><time>2026-04-16T09:38:19.582Z</time></trkpt><trkpt lat="45.7261729" lon="8.7181923"><ele>273.1666666666667</ele><time>2026-04-16T09:38:20.582Z</time></trkpt><trkpt lat="45.7262008" lon="8.7182983"><ele>273.3333333333333</ele><time>2026-04-16T09:38:21.579Z</time></trkpt><trkpt lat="45.7262329" lon="8.7184083"><ele>273.5</ele><time>2026-04-16T09:38:22.579Z</time></trkpt><trkpt lat="45.7262712" lon="8.7185114"><ele>273.66666666666663</ele><time>2026-04-16T09:38:23.567Z</time></trkpt><trkpt lat="45.7263166" lon="8.7186156"><ele>273.8333333333333</ele><time>2026-04-16T09:38:24.592Z</time></trkpt><trkpt lat="45.7263484" lon="8.7187281"><ele>274.0</ele><time>2026-04-16T09:38:25.571Z</time></trkpt><trkpt lat="45.7263819" lon="8.7188318"><ele>274.2</ele><time>2026-04-16T09:38:26.569Z</time></trkpt><trkpt lat="45.7264237" lon="8.7189431"><ele>274.4</ele><time>2026-04-16T09:38:27.563Z</time></trkpt><trkpt lat="45.7264756" lon="8.7190512"><ele>274.6</ele><time>2026-04-16T09:38:28.562Z</time></trkpt><trkpt lat="45.7265199" lon="8.719175"><ele>274.8</ele><time>2026-04-16T09:38:29.573Z</time></trkpt><trkpt lat="45.7265567" lon="8.7193135"><ele>275.0</ele><time>2026-04-16T09:38:30.571Z</time></trkpt><trkpt lat="45.7265952" lon="8.7194679"><ele>275.5</ele><time>2026-04-16T09:38:31.562Z</time></trkpt><trkpt lat="45.7266386" lon="8.7196319"><ele>276.0</ele><time>2026-04-16T09:38:32.557Z</time></trkpt><trkpt lat="45.7266705" lon="8.7198111"><ele>276.5</ele><time>2026-04-16T09:38:33.563Z</time></trkpt><trkpt lat="45.7267115" lon="8.7199889"><ele>277.0</ele><time>2026-04-16T09:38:34.56Z</time></trkpt><trkpt lat="45.7267511" lon="8.7201547"><ele>277.25</ele><time>2026-04-16T09:38:35.561Z</time></trkpt><trkpt lat="45.7267917" lon="8.720321"><ele>277.5</ele><time>2026-04-16T09:38:36.558Z</time></trkpt><trkpt lat="45.7268243" lon="8.7204857"><ele>277.75</ele><time>2026-04-16T09:38:37.56Z</time></trkpt><trkpt lat="45.7268474" lon="8.7206505"><ele>278.0</ele><time>2026-04-16T09:38:38.563Z</time></trkpt><trkpt lat="45.7268787" lon="8.7208212"><ele>277.75</ele><time>2026-04-16T09:38:39.562Z</time></trkpt><trkpt lat="45.7269137" lon="8.7209966"><ele>277.5</ele><time>2026-04-16T09:38:40.56Z</time></trkpt><trkpt lat="45.7269495" lon="8.7211822"><ele>277.25</ele><time>2026-04-16T09:38:41.559Z</time></trkpt><trkpt lat="45.7269815" lon="8.7213648"><ele>277.0</ele><time>2026-04-16T09:38:42.561Z</time></trkpt><trkpt lat="45.7270148" lon="8.7215392"><ele>277.25</ele><time>2026-04-16T09:38:43.557Z</time></trkpt><trkpt lat="45.7270517" lon="8.721718"><ele>277.5</ele><time>2026-04-16T09:38:44.56Z</time></trkpt><trkpt lat="45.7270888" lon="8.7219074"><ele>277.75</ele><time>2026-04-16T09:38:45.559Z</time></trkpt><trkpt lat="45.7271321" lon="8.722095"><ele>278.0</ele><time>2026-04-16T09:38:46.564Z</time></trkpt><trkpt lat="45.727171" lon="8.7222685"><ele>278.0</ele><time>2026-04-16T09:38:47.555Z</time></trkpt><trkpt lat="45.7272139" lon="8.7224446"><ele>278.0</ele><time>2026-04-16T09:38:48.566Z</time></trkpt><trkpt lat="45.7272549" lon="8.7226413"><ele>278.0</ele><time>2026-04-16T09:38:49.571Z</time></trkpt><trkpt lat="45.7272996" lon="8.7228298"><ele>278.0</ele><time>2026-04-16T09:38:50.573Z</time></trkpt><trkpt lat="45.7273531" lon="8.7230132"><ele>277.25</ele><time>2026-04-16T09:38:51.578Z</time></trkpt><trkpt lat="45.7274005" lon="8.7231836"><ele>276.5</ele><time>2026-04-16T09:38:52.572Z</time></trkpt><trkpt lat="45.7274474" lon="8.7233458"><ele>275.75</ele><time>2026-04-16T09:38:53.569Z</time></trkpt><trkpt lat="45.727507" lon="8.7235202"><ele>275.0</ele><time>2026-04-16T09:38:54.578Z</time></trkpt><trkpt lat="45.7275324" lon="8.7236799"><ele>274.75</ele><time>2026-04-16T09:38:55.584Z</time></trkpt><trkpt lat="45.7275612" lon="8.723862"><ele>274.5</ele><time>2026-04-16T09:38:56.572Z</time></trkpt><trkpt lat="45.7275929" lon="8.724055"><ele>274.25</ele><time>2026-04-16T09:38:57.574Z</time></trkpt><trkpt lat="45.7276357" lon="8.7242511"><ele>274.0</ele><time>2026-04-16T09:38:58.572Z</time></trkpt><trkpt lat="45.7276838" lon="8.724459"><ele>274.0</ele><time>2026-04-16T09:38:59.568Z</time></trkpt><trkpt lat="45.7277331" lon="8.7246699"><ele>274.0</ele><time>2026-04-16T09:39:00.572Z</time></trkpt><trkpt lat="45.7277739" lon="8.7248879"><ele>274.0</ele><time>2026-04-16T09:39:01.571Z</time></trkpt><trkpt lat="45.727812" lon="8.7250991"><ele>274.25</ele><time>2026-04-16T09:39:02.576Z</time></trkpt><trkpt lat="45.7278492" lon="8.7252914"><ele>274.5</ele><time>2026-04-16T09:39:03.567Z</time></trkpt><trkpt lat="45.7278803" lon="8.7254878"><ele>274.75</ele><time>2026-04-16T09:39:04.564Z</time></trkpt><trkpt lat="45.7279066" lon="8.7256526"><ele>275.0</ele><time>2026-04-16T09:39:05.564Z</time></trkpt><trkpt lat="45.7279368" lon="8.7257992"><ele>275.0</ele><time>2026-04-16T09:39:06.567Z</time></trkpt><trkpt lat="45.727978" lon="8.7259427"><ele>275.0</ele><time>2026-04-16T09:39:07.564Z</time></trkpt><trkpt lat="45.7280155" lon="8.7261083"><ele>275.0</ele><time>2026-04-16T09:39:08.56Z</time></trkpt><trkpt lat="45.7280624" lon="8.726269"><ele>275.0</ele><time>2026-04-16T09:39:09.563Z</time></trkpt><trkpt lat="45.7281016" lon="8.7264282"><ele>274.4</ele><time>2026-04-16T09:39:10.562Z</time></trkpt><trkpt lat="45.7281475" lon="8.7265559"><ele>273.8</ele><time>2026-04-16T09:39:11.563Z</time></trkpt><trkpt lat="45.7281864" lon="8.726662"><ele>273.2</ele><time>2026-04-16T09:39:12.568Z</time></trkpt><trkpt lat="45.7282416" lon="8.7267955"><ele>272.6</ele><time>2026-04-16T09:39:14.57Z</time></trkpt><trkpt lat="45.7282947" lon="8.7268945"><ele>272.0</ele><time>2026-04-16T09:39:16.572Z</time></trkpt><trkpt lat="45.7283313" lon="8.727002"><ele>272.0</ele><time>2026-04-16T09:39:18.562Z</time></trkpt><trkpt lat="45.7283269" lon="8.7271325"><ele>272.0</ele><time>2026-04-16T09:39:20.563Z</time></trkpt><trkpt lat="45.7282577" lon="8.7271775"><ele>272.0</ele><time>2026-04-16T09:39:22.571Z</time></trkpt><trkpt lat="45.728185" lon="8.7271365"><ele>272.0</ele><time>2026-04-16T09:39:23.563Z</time></trkpt><trkpt lat="45.7280789" lon="8.7270521"><ele>272.0</ele><time>2026-04-16T09:39:24.565Z</time></trkpt><trkpt lat="45.7279673" lon="8.7269149"><ele>271.75</ele><time>2026-04-16T09:39:25.561Z</time></trkpt><trkpt lat="45.7278469" lon="8.7267852"><ele>271.5</ele><time>2026-04-16T09:39:26.58Z</time></trkpt><trkpt lat="45.7277415" lon="8.7266844"><ele>271.25</ele><time>2026-04-16T09:39:27.553Z</time></trkpt><trkpt lat="45.7276237" lon="8.7265642"><ele>271.0</ele><time>2026-04-16T09:39:28.562Z</time></trkpt><trkpt lat="45.7275099" lon="8.7264481"><ele>271.66666666666663</ele><time>2026-04-16T09:39:29.561Z</time></trkpt><trkpt lat="45.7273846" lon="8.7263259"><ele>272.3333333333333</ele><time>2026-04-16T09:39:30.57Z</time></trkpt><trkpt lat="45.7272472" lon="8.726196"><ele>273.0</ele><time>2026-04-16T09:39:31.569Z</time></trkpt><trkpt lat="45.7271026" lon="8.7260577"><ele>273.0</ele><time>2026-04-16T09:39:32.57Z</time></trkpt><trkpt lat="45.7269724" lon="8.7259173"><ele>273.0</ele><time>2026-04-16T09:39:33.565Z</time></trkpt><trkpt lat="45.726848" lon="8.725743"><ele>273.0</ele><time>2026-04-16T09:39:34.567Z</time></trkpt><trkpt lat="45.7267169" lon="8.7255518"><ele>273.0</ele><time>2026-04-16T09:39:35.567Z</time></trkpt><trkpt lat="45.7265923" lon="8.7253613"><ele>273.0</ele><time>2026-04-16T09:39:36.568Z</time></trkpt><trkpt lat="45.7264654" lon="8.725202"><ele>273.0</ele><time>2026-04-16T09:39:37.566Z</time></trkpt><trkpt lat="45.7263675" lon="8.7250484"><ele>273.0</ele><time>2026-04-16T09:39:38.564Z</time></trkpt><trkpt lat="45.7262557" lon="8.7248836"><ele>273.0</ele><time>2026-04-16T09:39:39.565Z</time></trkpt><trkpt lat="45.7261269" lon="8.7246862"><ele>273.0</ele><time>2026-04-16T09:39:40.562Z</time></trkpt><trkpt lat="45.7260015" lon="8.7244896"><ele>272.0</ele><time>2026-04-16T09:39:41.568Z</time></trkpt><trkpt lat="45.7258748" lon="8.7242902"><ele>271.0</ele><time>2026-04-16T09:39:42.57Z</time></trkpt><trkpt lat="45.7257497" lon="8.7240848"><ele>270.0</ele><time>2026-04-16T09:39:43.58Z</time></trkpt><trkpt lat="45.7256352" lon="8.723871"><ele>270.0</ele><time>2026-04-16T09:39:44.58Z</time></trkpt><trkpt lat="45.7255184" lon="8.7236578"><ele>270.0</ele><time>2026-04-16T09:39:45.576Z</time></trkpt><trkpt lat="45.7253941" lon="8.7234618"><ele>270.0</ele><time>2026-04-16T09:39:46.571Z</time></trkpt><trkpt lat="45.7252743" lon="8.7232795"><ele>270.6666666666667</ele><time>2026-04-16T09:39:47.566Z</time></trkpt><trkpt lat="45.7251275" lon="8.7230938"><ele>271.33333333333337</ele><time>2026-04-16T09:39:48.562Z</time></trkpt><trkpt lat="45.7249645" lon="8.7229254"><ele>272.0</ele><time>2026-04-16T09:39:49.564Z</time></trkpt><trkpt lat="45.7247814" lon="8.7227933"><ele>274.6666666666667</ele><time>2026-04-16T09:39:50.565Z</time></trkpt><trkpt lat="45.7245909" lon="8.7226549"><ele>277.3333333333333</ele><time>2026-04-16T09:39:51.565Z</time></trkpt><trkpt lat="45.724412" lon="8.7225218"><ele>280.0</ele><time>2026-04-16T09:39:52.563Z</time></trkpt><trkpt lat="45.7242415" lon="8.7223956"><ele>280.0</ele><time>2026-04-16T09:39:53.553Z</time></trkpt><trkpt lat="45.7240685" lon="8.7222625"><ele>280.0</ele><time>2026-04-16T09:39:54.554Z</time></trkpt><trkpt lat="45.723905" lon="8.7221255"><ele>280.0</ele><time>2026-04-16T09:39:55.556Z</time></trkpt><trkpt lat="45.7237284" lon="8.7219871"><ele>279.66666666666663</ele><time>2026-04-16T09:39:56.552Z</time></trkpt><trkpt lat="45.7235296" lon="8.7218624"><ele>279.3333333333333</ele><time>2026-04-16T09:39:57.56Z</time></trkpt><trkpt lat="45.7233129" lon="8.7217434"><ele>279.0</ele><time>2026-04-16T09:39:58.548Z</time></trkpt><trkpt lat="45.72311" lon="8.7215849"><ele>279.0</ele><time>2026-04-16T09:39:59.548Z</time></trkpt><trkpt lat="45.7229277" lon="8.7214224"><ele>279.0</ele><time>2026-04-16T09:40:00.557Z</time></trkpt><trkpt lat="45.722717" lon="8.7212614"><ele>278.3333333333333</ele><time>2026-04-16T09:40:01.542Z</time></trkpt><trkpt lat="45.7225438" lon="8.7211325"><ele>277.66666666666663</ele><time>2026-04-16T09:40:02.561Z</time></trkpt><trkpt lat="45.7223373" lon="8.7209908"><ele>277.0</ele><time>2026-04-16T09:40:03.553Z</time></trkpt><trkpt lat="45.7221669" lon="8.7208831"><ele>276.66666666666663</ele><time>2026-04-16T09:40:04.563Z</time></trkpt><trkpt lat="45.7219667" lon="8.7207425"><ele>276.3333333333333</ele><time>2026-04-16T09:40:05.553Z</time></trkpt><trkpt lat="45.7217717" lon="8.7206006"><ele>276.0</ele><time>2026-04-16T09:40:06.555Z</time></trkpt><trkpt lat="45.7215914" lon="8.7204572"><ele>276.6666666666667</ele><time>2026-04-16T09:40:07.556Z</time></trkpt><trkpt lat="45.7214055" lon="8.7203214"><ele>277.33333333333337</ele><time>2026-04-16T09:40:08.552Z</time></trkpt><trkpt lat="45.721245" lon="8.7201951"><ele>278.0</ele><time>2026-04-16T09:40:09.549Z</time></trkpt><trkpt lat="45.721079" lon="8.7200691"><ele>277.33333333333337</ele><time>2026-04-16T09:40:10.556Z</time></trkpt><trkpt lat="45.7209084" lon="8.7199467"><ele>276.6666666666667</ele><time>2026-04-16T09:40:11.55Z</time></trkpt><trkpt lat="45.7207364" lon="8.7197982"><ele>276.0</ele><time>2026-04-16T09:40:12.557Z</time></trkpt><trkpt lat="45.7205627" lon="8.7196624"><ele>276.0</ele><time>2026-04-16T09:40:13.551Z</time></trkpt><trkpt lat="45.7203723" lon="8.7195253"><ele>276.0</ele><time>2026-04-16T09:40:14.556Z</time></trkpt><trkpt lat="45.7201944" lon="8.719391"><ele>276.0</ele><time>2026-04-16T09:40:15.553Z</time></trkpt><trkpt lat="45.720002" lon="8.7192426"><ele>276.6666666666667</ele><time>2026-04-16T09:40:16.562Z</time></trkpt><trkpt lat="45.7198215" lon="8.7191187"><ele>277.33333333333337</ele><time>2026-04-16T09:40:17.554Z</time></trkpt><trkpt lat="45.7196429" lon="8.7189685"><ele>278.0</ele><time>2026-04-16T09:40:18.561Z</time></trkpt><trkpt lat="45.7194787" lon="8.7188257"><ele>277.0</ele><time>2026-04-16T09:40:19.546Z</time></trkpt><trkpt lat="45.7193109" lon="8.7186758"><ele>276.0</ele><time>2026-04-16T09:40:20.55Z</time></trkpt><trkpt lat="45.7191448" lon="8.7185104"><ele>275.0</ele><time>2026-04-16T09:40:21.546Z</time></trkpt><trkpt lat="45.7189987" lon="8.7183831"><ele>275.0</ele><time>2026-04-16T09:40:22.543Z</time></trkpt><trkpt lat="45.7188535" lon="8.7183388"><ele>275.0</ele><time>2026-04-16T09:40:23.547Z</time></trkpt><trkpt lat="45.7187146" lon="8.7182587"><ele>275.0</ele><time>2026-04-16T09:40:24.538Z</time></trkpt><trkpt lat="45.7186161" lon="8.718251"><ele>275.0</ele><time>2026-04-16T09:40:25.543Z</time></trkpt><trkpt lat="45.7185109" lon="8.7182462"><ele>274.5</ele><time>2026-04-16T09:40:26.546Z</time></trkpt><trkpt lat="45.7184119" lon="8.7182178"><ele>274.0</ele><time>2026-04-16T09:40:27.551Z</time></trkpt><trkpt lat="45.7183072" lon="8.7181714"><ele>273.5</ele><time>2026-04-16T09:40:28.564Z</time></trkpt><trkpt lat="45.7182438" lon="8.7181384"><ele>273.0</ele><time>2026-04-16T09:40:29.556Z</time></trkpt><trkpt lat="45.7181731" lon="8.718125"><ele>272.5</ele><time>2026-04-16T09:40:30.554Z</time></trkpt><trkpt lat="45.7180866" lon="8.7181119"><ele>272.0</ele><time>2026-04-16T09:40:31.553Z</time></trkpt><trkpt lat="45.7179954" lon="8.7181909"><ele>272.0</ele><time>2026-04-16T09:40:33.56Z</time></trkpt><trkpt lat="45.717901" lon="8.7182297"><ele>272.0</ele><time>2026-04-16T09:40:35.553Z</time></trkpt><trkpt lat="45.7178362" lon="8.7182516"><ele>272.0</ele><time>2026-04-16T09:40:37.556Z</time></trkpt><trkpt lat="45.7177484" lon="8.7182679"><ele>272.0</ele><time>2026-04-16T09:40:39.551Z</time></trkpt><trkpt lat="45.7176613" lon="8.7182494"><ele>272.0</ele><time>2026-04-16T09:40:41.558Z</time></trkpt><trkpt lat="45.7175616" lon="8.7182311"><ele>272.0</ele><time>2026-04-16T09:40:43.558Z</time></trkpt><trkpt lat="45.717487" lon="8.7182139"><ele>272.8</ele><time>2026-04-16T09:40:44.567Z</time></trkpt><trkpt lat="45.7174037" lon="8.718179"><ele>273.6</ele><time>2026-04-16T09:40:45.559Z</time></trkpt><trkpt lat="45.7173135" lon="8.718173"><ele>274.40000000000003</ele><time>2026-04-16T09:40:46.566Z</time></trkpt><trkpt lat="45.7172199" lon="8.7181585"><ele>275.2</ele><time>2026-04-16T09:40:47.555Z</time></trkpt><trkpt lat="45.7171341" lon="8.7181627"><ele>276.0</ele><time>2026-04-16T09:40:48.557Z</time></trkpt><trkpt lat="45.7170402" lon="8.7181555"><ele>276.0</ele><time>2026-04-16T09:40:49.55Z</time></trkpt><trkpt lat="45.7169402" lon="8.7181751"><ele>276.0</ele><time>2026-04-16T09:40:50.553Z</time></trkpt><trkpt lat="45.7168437" lon="8.7181983"><ele>276.0</ele><time>2026-04-16T09:40:51.555Z</time></trkpt><trkpt lat="45.7167608" lon="8.718203"><ele>276.0</ele><time>2026-04-16T09:40:52.554Z</time></trkpt><trkpt lat="45.7166754" lon="8.7182009"><ele>276.0</ele><time>2026-04-16T09:40:53.554Z</time></trkpt><trkpt lat="45.7165798" lon="8.7181906"><ele>276.0</ele><time>2026-04-16T09:40:54.558Z</time></trkpt><trkpt lat="45.7164956" lon="8.7181695"><ele>276.0</ele><time>2026-04-16T09:40:55.559Z</time></trkpt><trkpt lat="45.7164002" lon="8.7181611"><ele>276.0</ele><time>2026-04-16T09:40:56.563Z</time></trkpt><trkpt lat="45.7163041" lon="8.7181496"><ele>276.0</ele><time>2026-04-16T09:40:57.566Z</time></trkpt><trkpt lat="45.7162221" lon="8.7181648"><ele>276.0</ele><time>2026-04-16T09:40:58.568Z</time></trkpt><trkpt lat="45.716139" lon="8.718192"><ele>276.0</ele><time>2026-04-16T09:40:59.573Z</time></trkpt><trkpt lat="45.7160642" lon="8.7182228"><ele>276.0</ele><time>2026-04-16T09:41:00.561Z</time></trkpt><trkpt lat="45.7160004" lon="8.7182546"><ele>276.0</ele><time>2026-04-16T09:41:01.563Z</time></trkpt><trkpt lat="45.7158758" lon="8.7183075"><ele>276.0</ele><time>2026-04-16T09:41:03.564Z</time></trkpt><trkpt lat="45.7158154" lon="8.7183484"><ele>276.0</ele><time>2026-04-16T09:41:04.565Z</time></trkpt><trkpt lat="45.7157467" lon="8.718389"><ele>276.0</ele><time>2026-04-16T09:41:05.564Z</time></trkpt><trkpt lat="45.7156814" lon="8.7184179"><ele>276.0</ele><time>2026-04-16T09:41:06.563Z</time></trkpt><trkpt lat="45.7156008" lon="8.7184495"><ele>276.0</ele><time>2026-04-16T09:41:07.567Z</time></trkpt><trkpt lat="45.7155216" lon="8.7184498"><ele>276.0</ele><time>2026-04-16T09:41:08.562Z</time></trkpt><trkpt lat="45.7154319" lon="8.7184274"><ele>276.0</ele><time>2026-04-16T09:41:09.556Z</time></trkpt><trkpt lat="45.7153516" lon="8.7183883"><ele>276.0</ele><time>2026-04-16T09:41:10.566Z</time></trkpt><trkpt lat="45.7152569" lon="8.7183243"><ele>276.0</ele><time>2026-04-16T09:41:11.557Z</time></trkpt><trkpt lat="45.7151547" lon="8.7182745"><ele>274.40000000000003</ele><time>2026-04-16T09:41:12.554Z</time></trkpt><trkpt lat="45.7150439" lon="8.7182267"><ele>272.8</ele><time>2026-04-16T09:41:13.553Z</time></trkpt><trkpt lat="45.7149614" lon="8.7181581"><ele>271.20000000000005</ele><time>2026-04-16T09:41:14.548Z</time></trkpt><trkpt lat="45.7148735" lon="8.7181009"><ele>269.6</ele><time>2026-04-16T09:41:15.559Z</time></trkpt><trkpt lat="45.7147869" lon="8.7180586"><ele>268.0</ele><time>2026-04-16T09:41:16.564Z</time></trkpt><trkpt lat="45.7146923" lon="8.7179999"><ele>268.0</ele><time>2026-04-16T09:41:17.564Z</time></trkpt><trkpt lat="45.7146027" lon="8.7179583"><ele>268.0</ele><time>2026-04-16T09:41:18.566Z</time></trkpt><trkpt lat="45.7145152" lon="8.717937"><ele>268.0</ele><time>2026-04-16T09:41:19.569Z</time></trkpt><trkpt lat="45.7144249" lon="8.7179701"><ele>268.0</ele><time>2026-04-16T09:41:20.559Z</time></trkpt><trkpt lat="45.7143521" lon="8.7180171"><ele>268.0</ele><time>2026-04-16T09:41:21.561Z</time></trkpt><trkpt lat="45.7142708" lon="8.71807"><ele>268.0</ele><time>2026-04-16T09:41:22.563Z</time></trkpt><trkpt lat="45.7141772" lon="8.7181357"><ele>267.6</ele><time>2026-04-16T09:41:23.554Z</time></trkpt><trkpt lat="45.7140736" lon="8.7181924"><ele>267.20000000000005</ele><time>2026-04-16T09:41:24.557Z</time></trkpt><trkpt lat="45.7139689" lon="8.718231"><ele>266.8</ele><time>2026-04-16T09:41:25.558Z</time></trkpt><trkpt lat="45.7138855" lon="8.7182662"><ele>266.40000000000003</ele><time>2026-04-16T09:41:26.555Z</time></trkpt><trkpt lat="45.7138089" lon="8.7183014"><ele>266.0</ele><time>2026-04-16T09:41:27.553Z</time></trkpt><trkpt lat="45.7137262" lon="8.7183567"><ele>266.0</ele><time>2026-04-16T09:41:28.554Z</time></trkpt><trkpt lat="45.713647" lon="8.7184145"><ele>266.0</ele><time>2026-04-16T09:41:29.557Z</time></trkpt><trkpt lat="45.7135624" lon="8.7184772"><ele>266.0</ele><time>2026-04-16T09:41:30.581Z</time></trkpt><trkpt lat="45.7134822" lon="8.7185428"><ele>266.0</ele><time>2026-04-16T09:41:31.558Z</time></trkpt><trkpt lat="45.7133928" lon="8.7185833"><ele>266.0</ele><time>2026-04-16T09:41:32.557Z</time></trkpt><trkpt lat="45.7132939" lon="8.7186368"><ele>267.8</ele><time>2026-04-16T09:41:33.557Z</time></trkpt><trkpt lat="45.713199" lon="8.7186788"><ele>269.6</ele><time>2026-04-16T09:41:34.561Z</time></trkpt><trkpt lat="45.7131015" lon="8.7187169"><ele>271.4</ele><time>2026-04-16T09:41:35.56Z</time></trkpt><trkpt lat="45.7130053" lon="8.7187605"><ele>273.2</ele><time>2026-04-16T09:41:36.561Z</time></trkpt><trkpt lat="45.7129077" lon="8.7188165"><ele>275.0</ele><time>2026-04-16T09:41:37.553Z</time></trkpt><trkpt lat="45.7128096" lon="8.7188921"><ele>275.25</ele><time>2026-04-16T09:41:38.562Z</time></trkpt><trkpt lat="45.7127015" lon="8.7189733"><ele>275.5</ele><time>2026-04-16T09:41:39.555Z</time></trkpt><trkpt lat="45.7125914" lon="8.7190577"><ele>275.75</ele><time>2026-04-16T09:41:40.557Z</time></trkpt><trkpt lat="45.7124771" lon="8.7191663"><ele>276.0</ele><time>2026-04-16T09:41:41.548Z</time></trkpt><trkpt lat="45.7123626" lon="8.7192745"><ele>276.0</ele><time>2026-04-16T09:41:42.559Z</time></trkpt><trkpt lat="45.7122551" lon="8.719378"><ele>276.0</ele><time>2026-04-16T09:41:43.55Z</time></trkpt><trkpt lat="45.7121508" lon="8.7195231"><ele>276.0</ele><time>2026-04-16T09:41:44.546Z</time></trkpt><trkpt lat="45.7120298" lon="8.7196552"><ele>276.0</ele><time>2026-04-16T09:41:45.544Z</time></trkpt><trkpt lat="45.7119088" lon="8.7197489"><ele>276.6666666666667</ele><time>2026-04-16T09:41:46.548Z</time></trkpt><trkpt lat="45.7117721" lon="8.71988"><ele>277.33333333333337</ele><time>2026-04-16T09:41:47.55Z</time></trkpt><trkpt lat="45.7116384" lon="8.7200196"><ele>278.0</ele><time>2026-04-16T09:41:48.544Z</time></trkpt><trkpt lat="45.7115061" lon="8.7201325"><ele>277.6666666666667</ele><time>2026-04-16T09:41:49.548Z</time></trkpt><trkpt lat="45.7113645" lon="8.7202776"><ele>277.3333333333333</ele><time>2026-04-16T09:41:50.548Z</time></trkpt><trkpt lat="45.7112077" lon="8.7204731"><ele>277.0</ele><time>2026-04-16T09:41:51.555Z</time></trkpt><trkpt lat="45.7110557" lon="8.7206241"><ele>276.66666666666663</ele><time>2026-04-16T09:41:52.55Z</time></trkpt><trkpt lat="45.7108833" lon="8.7208013"><ele>276.3333333333333</ele><time>2026-04-16T09:41:53.553Z</time></trkpt><trkpt lat="45.7107019" lon="8.7209681"><ele>276.0</ele><time>2026-04-16T09:41:54.556Z</time></trkpt><trkpt lat="45.7105253" lon="8.7211268"><ele>276.3333333333333</ele><time>2026-04-16T09:41:55.551Z</time></trkpt><trkpt lat="45.7103581" lon="8.7212896"><ele>276.66666666666663</ele><time>2026-04-16T09:41:56.555Z</time></trkpt><trkpt lat="45.710215" lon="8.7214147"><ele>277.0</ele><time>2026-04-16T09:41:57.55Z</time></trkpt><trkpt lat="45.7100686" lon="8.7215559"><ele>277.0</ele><time>2026-04-16T09:41:58.556Z</time></trkpt><trkpt lat="45.7099045" lon="8.7216835"><ele>277.0</ele><time>2026-04-16T09:41:59.542Z</time></trkpt><trkpt lat="45.7097615" lon="8.7218106"><ele>277.0</ele><time>2026-04-16T09:42:00.551Z</time></trkpt><trkpt lat="45.7095993" lon="8.7219754"><ele>278.3333333333333</ele><time>2026-04-16T09:42:01.559Z</time></trkpt><trkpt lat="45.7094889" lon="8.7221007"><ele>279.6666666666667</ele><time>2026-04-16T09:42:02.542Z</time></trkpt><trkpt lat="45.7093995" lon="8.7222813"><ele>281.0</ele><time>2026-04-16T09:42:03.54Z</time></trkpt><trkpt lat="45.7093002" lon="8.7224646"><ele>281.0</ele><time>2026-04-16T09:42:04.539Z</time></trkpt><trkpt lat="45.7092436" lon="8.7227272"><ele>281.0</ele><time>2026-04-16T09:42:05.538Z</time></trkpt><trkpt lat="45.7091907" lon="8.7229891"><ele>281.0</ele><time>2026-04-16T09:42:06.542Z</time></trkpt><trkpt lat="45.7090894" lon="8.7232619"><ele>280.6666666666667</ele><time>2026-04-16T09:42:07.535Z</time></trkpt><trkpt lat="45.7089997" lon="8.7235139"><ele>280.3333333333333</ele><time>2026-04-16T09:42:08.538Z</time></trkpt><trkpt lat="45.7089265" lon="8.7237717"><ele>280.0</ele><time>2026-04-16T09:42:09.532Z</time></trkpt><trkpt lat="45.7088502" lon="8.7240363"><ele>282.0</ele><time>2026-04-16T09:42:10.536Z</time></trkpt><trkpt lat="45.7087762" lon="8.7243097"><ele>284.0</ele><time>2026-04-16T09:42:11.533Z</time></trkpt><trkpt lat="45.7087214" lon="8.7245731"><ele>286.0</ele><time>2026-04-16T09:42:12.539Z</time></trkpt><trkpt lat="45.7086575" lon="8.7248117"><ele>287.66666666666663</ele><time>2026-04-16T09:42:13.535Z</time></trkpt><trkpt lat="45.7085783" lon="8.7250431"><ele>289.3333333333333</ele><time>2026-04-16T09:42:14.532Z</time></trkpt><trkpt lat="45.7085147" lon="8.7252811"><ele>291.0</ele><time>2026-04-16T09:42:15.53Z</time></trkpt><trkpt lat="45.7084531" lon="8.725511"><ele>291.0</ele><time>2026-04-16T09:42:16.542Z</time></trkpt><trkpt lat="45.7083902" lon="8.7257278"><ele>291.0</ele><time>2026-04-16T09:42:17.531Z</time></trkpt><trkpt lat="45.7083467" lon="8.7259695"><ele>291.0</ele><time>2026-04-16T09:42:18.53Z</time></trkpt><trkpt lat="45.7083019" lon="8.7262059"><ele>291.5</ele><time>2026-04-16T09:42:19.534Z</time></trkpt><trkpt lat="45.7082741" lon="8.7263354"><ele>292.0</ele><time>2026-04-16T09:42:20.533Z</time></trkpt><trkpt lat="45.7082487" lon="8.7264321"><ele>292.5</ele><time>2026-04-16T09:42:21.529Z</time></trkpt><trkpt lat="45.7083306" lon="8.7265053"><ele>293.0</ele><time>2026-04-16T09:42:27.549Z</time></trkpt><trkpt lat="45.7084122" lon="8.7264897"><ele>293.5</ele><time>2026-04-16T09:42:29.543Z</time></trkpt><trkpt lat="45.7084552" lon="8.7266048"><ele>294.0</ele><time>2026-04-16T09:42:32.559Z</time></trkpt><trkpt lat="45.7085648" lon="8.7266862"><ele>294.0</ele><time>2026-04-16T09:42:34.552Z</time></trkpt><trkpt lat="45.7086319" lon="8.7267205"><ele>294.0</ele><time>2026-04-16T09:42:35.553Z</time></trkpt><trkpt lat="45.70875" lon="8.7267699"><ele>294.0</ele><time>2026-04-16T09:42:36.553Z</time></trkpt><trkpt lat="45.7088926" lon="8.726802"><ele>294.0</ele><time>2026-04-16T09:42:37.546Z</time></trkpt><trkpt lat="45.7090167" lon="8.7268365"><ele>294.0</ele><time>2026-04-16T09:42:38.544Z</time></trkpt><trkpt lat="45.7091425" lon="8.7268827"><ele>294.0</ele><time>2026-04-16T09:42:39.546Z</time></trkpt><trkpt lat="45.7093062" lon="8.7269298"><ele>294.0</ele><time>2026-04-16T09:42:40.545Z</time></trkpt><trkpt lat="45.7094717" lon="8.7269784"><ele>292.6666666666667</ele><time>2026-04-16T09:42:41.546Z</time></trkpt><trkpt lat="45.7096427" lon="8.7270365"><ele>291.33333333333337</ele><time>2026-04-16T09:42:42.544Z</time></trkpt><trkpt lat="45.7097732" lon="8.727119"><ele>290.0</ele><time>2026-04-16T09:42:43.55Z</time></trkpt><trkpt lat="45.7099029" lon="8.7271784"><ele>290.0</ele><time>2026-04-16T09:42:44.546Z</time></trkpt><trkpt lat="45.7100401" lon="8.7272319"><ele>290.0</ele><time>2026-04-16T09:42:45.545Z</time></trkpt><trkpt lat="45.7102136" lon="8.7272973"><ele>290.0</ele><time>2026-04-16T09:42:46.547Z</time></trkpt><trkpt lat="45.7103649" lon="8.727366"><ele>288.0</ele><time>2026-04-16T09:42:47.546Z</time></trkpt><trkpt lat="45.7105266" lon="8.7274289"><ele>286.0</ele><time>2026-04-16T09:42:48.548Z</time></trkpt><trkpt lat="45.710687" lon="8.7275006"><ele>284.0</ele><time>2026-04-16T09:42:49.549Z</time></trkpt><trkpt lat="45.7107981" lon="8.7275566"><ele>284.0</ele><time>2026-04-16T09:42:50.548Z</time></trkpt><trkpt lat="45.7109042" lon="8.7276064"><ele>284.0</ele><time>2026-04-16T09:42:51.547Z</time></trkpt><trkpt lat="45.7110174" lon="8.7276778"><ele>284.0</ele><time>2026-04-16T09:42:52.551Z</time></trkpt><trkpt lat="45.7110995" lon="8.7277825"><ele>284.0</ele><time>2026-04-16T09:42:53.545Z</time></trkpt><trkpt lat="45.7111826" lon="8.7278735"><ele>280.8</ele><time>2026-04-16T09:42:54.552Z</time></trkpt><trkpt lat="45.7112742" lon="8.7279849"><ele>277.59999999999997</ele><time>2026-04-16T09:42:55.551Z</time></trkpt><trkpt lat="45.711346" lon="8.7280898"><ele>274.4</ele><time>2026-04-16T09:42:56.553Z</time></trkpt><trkpt lat="45.7114177" lon="8.7282172"><ele>271.2</ele><time>2026-04-16T09:42:57.553Z</time></trkpt><trkpt lat="45.7114632" lon="8.7283151"><ele>268.0</ele><time>2026-04-16T09:42:58.548Z</time></trkpt><trkpt lat="45.7115202" lon="8.7283903"><ele>268.0</ele><time>2026-04-16T09:42:59.543Z</time></trkpt><trkpt lat="45.7115341" lon="8.72848"><ele>268.0</ele><time>2026-04-16T09:43:00.547Z</time></trkpt><trkpt lat="45.7115436" lon="8.7285745"><ele>268.0</ele><time>2026-04-16T09:43:02.55Z</time></trkpt><trkpt lat="45.7114585" lon="8.7285147"><ele>268.0</ele><time>2026-04-16T09:43:09.559Z</time></trkpt><trkpt lat="45.711381" lon="8.7284673"><ele>268.0</ele><time>2026-04-16T09:43:23.551Z</time></trkpt><trkpt lat="45.7114275" lon="8.7285442"><ele>268.0</ele><time>2026-04-16T09:43:26.549Z</time></trkpt><trkpt lat="45.7114667" lon="8.7286186"><ele>268.0</ele><time>2026-04-16T09:43:28.549Z</time></trkpt><trkpt lat="45.7115769" lon="8.7287315"><ele>267.2</ele><time>2026-04-16T09:43:30.555Z</time></trkpt><trkpt lat="45.7116488" lon="8.7288025"><ele>266.4</ele><time>2026-04-16T09:43:31.555Z</time></trkpt><trkpt lat="45.7117312" lon="8.7288782"><ele>265.59999999999997</ele><time>2026-04-16T09:43:32.561Z</time></trkpt><trkpt lat="45.7118005" lon="8.7289696"><ele>264.8</ele><time>2026-04-16T09:43:33.557Z</time></trkpt><trkpt lat="45.7118659" lon="8.7290656"><ele>264.0</ele><time>2026-04-16T09:43:34.579Z</time></trkpt><trkpt lat="45.7119352" lon="8.7291756"><ele>263.8333333333333</ele><time>2026-04-16T09:43:35.561Z</time></trkpt><trkpt lat="45.7119969" lon="8.7292846"><ele>263.6666666666667</ele><time>2026-04-16T09:43:36.567Z</time></trkpt><trkpt lat="45.7120574" lon="8.729383"><ele>263.5</ele><time>2026-04-16T09:43:37.56Z</time></trkpt><trkpt lat="45.7121217" lon="8.729488"><ele>263.33333333333337</ele><time>2026-04-16T09:43:38.563Z</time></trkpt><trkpt lat="45.7121741" lon="8.7295759"><ele>263.1666666666667</ele><time>2026-04-16T09:43:39.564Z</time></trkpt><trkpt lat="45.7122355" lon="8.7296442"><ele>263.0</ele><time>2026-04-16T09:43:40.565Z</time></trkpt><trkpt lat="45.7123193" lon="8.729697"><ele>262.83333333333337</ele><time>2026-04-16T09:43:41.564Z</time></trkpt><trkpt lat="45.7124038" lon="8.7297662"><ele>262.6666666666667</ele><time>2026-04-16T09:43:42.566Z</time></trkpt><trkpt lat="45.7124853" lon="8.7298194"><ele>262.5</ele><time>2026-04-16T09:43:43.561Z</time></trkpt><trkpt lat="45.7125693" lon="8.7298661"><ele>262.3333333333333</ele><time>2026-04-16T09:43:44.571Z</time></trkpt><trkpt lat="45.7126431" lon="8.7299327"><ele>262.16666666666663</ele><time>2026-04-16T09:43:45.568Z</time></trkpt><trkpt lat="45.7127103" lon="8.7299959"><ele>262.0</ele><time>2026-04-16T09:43:46.565Z</time></trkpt><trkpt lat="45.7127826" lon="8.7300646"><ele>262.3333333333333</ele><time>2026-04-16T09:43:47.561Z</time></trkpt><trkpt lat="45.7128599" lon="8.7301417"><ele>262.66666666666663</ele><time>2026-04-16T09:43:48.561Z</time></trkpt><trkpt lat="45.7129437" lon="8.7302147"><ele>263.0</ele><time>2026-04-16T09:43:49.555Z</time></trkpt><trkpt lat="45.71302" lon="8.7302832"><ele>263.3333333333333</ele><time>2026-04-16T09:43:50.566Z</time></trkpt><trkpt lat="45.7130905" lon="8.7303331"><ele>263.6666666666667</ele><time>2026-04-16T09:43:51.562Z</time></trkpt><trkpt lat="45.7131583" lon="8.7303863"><ele>264.0</ele><time>2026-04-16T09:43:52.567Z</time></trkpt><trkpt lat="45.7132368" lon="8.7304264"><ele>264.0</ele><time>2026-04-16T09:43:53.563Z</time></trkpt><trkpt lat="45.7133086" lon="8.7304747"><ele>264.0</ele><time>2026-04-16T09:43:54.566Z</time></trkpt><trkpt lat="45.7133826" lon="8.7305306"><ele>264.0</ele><time>2026-04-16T09:43:55.559Z</time></trkpt><trkpt lat="45.7134587" lon="8.7305788"><ele>264.0</ele><time>2026-04-16T09:43:56.564Z</time></trkpt><trkpt lat="45.7135529" lon="8.7306381"><ele>264.0</ele><time>2026-04-16T09:43:57.561Z</time></trkpt><trkpt lat="45.7136339" lon="8.7306985"><ele>264.0</ele><time>2026-04-16T09:43:58.565Z</time></trkpt><trkpt lat="45.7137223" lon="8.7307612"><ele>264.0</ele><time>2026-04-16T09:43:59.564Z</time></trkpt><trkpt lat="45.7138182" lon="8.7308253"><ele>264.0</ele><time>2026-04-16T09:44:00.564Z</time></trkpt><trkpt lat="45.7139034" lon="8.7308917"><ele>264.0</ele><time>2026-04-16T09:44:01.568Z</time></trkpt><trkpt lat="45.7140035" lon="8.7309533"><ele>264.0</ele><time>2026-04-16T09:44:02.572Z</time></trkpt><trkpt lat="45.7141025" lon="8.7310166"><ele>264.0</ele><time>2026-04-16T09:44:03.568Z</time></trkpt><trkpt lat="45.714195" lon="8.7310818"><ele>264.4</ele><time>2026-04-16T09:44:04.583Z</time></trkpt><trkpt lat="45.7142897" lon="8.7311645"><ele>264.79999999999995</ele><time>2026-04-16T09:44:05.564Z</time></trkpt><trkpt lat="45.7143705" lon="8.7312521"><ele>265.20000000000005</ele><time>2026-04-16T09:44:06.566Z</time></trkpt><trkpt lat="45.7144573" lon="8.7313314"><ele>265.6</ele><time>2026-04-16T09:44:07.561Z</time></trkpt><trkpt lat="45.7145305" lon="8.7314141"><ele>266.0</ele><time>2026-04-16T09:44:08.565Z</time></trkpt><trkpt lat="45.7146107" lon="8.731476"><ele>266.1666666666667</ele><time>2026-04-16T09:44:09.569Z</time></trkpt><trkpt lat="45.714689" lon="8.7315473"><ele>266.33333333333337</ele><time>2026-04-16T09:44:10.566Z</time></trkpt><trkpt lat="45.7147722" lon="8.731617"><ele>266.5</ele><time>2026-04-16T09:44:11.57Z</time></trkpt><trkpt lat="45.7148528" lon="8.7316842"><ele>266.6666666666667</ele><time>2026-04-16T09:44:12.566Z</time></trkpt><trkpt lat="45.7149242" lon="8.7317369"><ele>266.8333333333333</ele><time>2026-04-16T09:44:13.564Z</time></trkpt><trkpt lat="45.7149884" lon="8.731789"><ele>267.0</ele><time>2026-04-16T09:44:14.568Z</time></trkpt><trkpt lat="45.7150548" lon="8.7318246"><ele>267.0</ele><time>2026-04-16T09:44:15.563Z</time></trkpt><trkpt lat="45.7151068" lon="8.7318757"><ele>267.0</ele><time>2026-04-16T09:44:16.57Z</time></trkpt><trkpt lat="45.715177" lon="8.7319109"><ele>267.0</ele><time>2026-04-16T09:44:17.565Z</time></trkpt><trkpt lat="45.7152656" lon="8.7319643"><ele>267.0</ele><time>2026-04-16T09:44:18.561Z</time></trkpt><trkpt lat="45.7153684" lon="8.7319969"><ele>267.0</ele><time>2026-04-16T09:44:19.559Z</time></trkpt><trkpt lat="45.7154541" lon="8.7320469"><ele>267.0</ele><time>2026-04-16T09:44:20.558Z</time></trkpt><trkpt lat="45.7155471" lon="8.7321118"><ele>266.25</ele><time>2026-04-16T09:44:21.555Z</time></trkpt><trkpt lat="45.7156422" lon="8.732179"><ele>265.5</ele><time>2026-04-16T09:44:22.56Z</time></trkpt><trkpt lat="45.7157541" lon="8.7322738"><ele>264.75</ele><time>2026-04-16T09:44:23.554Z</time></trkpt><trkpt lat="45.7158685" lon="8.7323721"><ele>264.0</ele><time>2026-04-16T09:44:24.557Z</time></trkpt><trkpt lat="45.7159905" lon="8.7324703"><ele>264.0</ele><time>2026-04-16T09:44:25.558Z</time></trkpt><trkpt lat="45.7161095" lon="8.7325681"><ele>264.0</ele><time>2026-04-16T09:44:26.559Z</time></trkpt><trkpt lat="45.7162342" lon="8.7326668"><ele>264.0</ele><time>2026-04-16T09:44:27.559Z</time></trkpt><trkpt lat="45.7163403" lon="8.7327651"><ele>264.0</ele><time>2026-04-16T09:44:28.559Z</time></trkpt><trkpt lat="45.7164642" lon="8.7328653"><ele>264.25</ele><time>2026-04-16T09:44:29.559Z</time></trkpt><trkpt lat="45.7165795" lon="8.7329687"><ele>264.5</ele><time>2026-04-16T09:44:30.564Z</time></trkpt><trkpt lat="45.7166974" lon="8.7330674"><ele>264.75</ele><time>2026-04-16T09:44:31.562Z</time></trkpt><trkpt lat="45.7168224" lon="8.7331665"><ele>265.0</ele><time>2026-04-16T09:44:32.57Z</time></trkpt><trkpt lat="45.7169358" lon="8.7332543"><ele>265.0</ele><time>2026-04-16T09:44:33.563Z</time></trkpt><trkpt lat="45.7170542" lon="8.7333475"><ele>265.0</ele><time>2026-04-16T09:44:34.567Z</time></trkpt><trkpt lat="45.7171809" lon="8.733434"><ele>265.0</ele><time>2026-04-16T09:44:35.573Z</time></trkpt><trkpt lat="45.7173116" lon="8.7335359"><ele>265.0</ele><time>2026-04-16T09:44:36.562Z</time></trkpt><trkpt lat="45.7174332" lon="8.7336339"><ele>265.75</ele><time>2026-04-16T09:44:37.558Z</time></trkpt><trkpt lat="45.7175537" lon="8.7337167"><ele>266.5</ele><time>2026-04-16T09:44:38.557Z</time></trkpt><trkpt lat="45.7176771" lon="8.7337958"><ele>267.25</ele><time>2026-04-16T09:44:39.559Z</time></trkpt><trkpt lat="45.7177969" lon="8.7338601"><ele>268.0</ele><time>2026-04-16T09:44:40.565Z</time></trkpt><trkpt lat="45.717922" lon="8.7339171"><ele>269.2</ele><time>2026-04-16T09:44:41.555Z</time></trkpt><trkpt lat="45.7180162" lon="8.7339828"><ele>270.4</ele><time>2026-04-16T09:44:42.556Z</time></trkpt><trkpt lat="45.7181204" lon="8.734045"><ele>271.59999999999997</ele><time>2026-04-16T09:44:43.554Z</time></trkpt><trkpt lat="45.718223" lon="8.7341321"><ele>272.8</ele><time>2026-04-16T09:44:44.549Z</time></trkpt><trkpt lat="45.7183146" lon="8.7342057"><ele>274.0</ele><time>2026-04-16T09:44:45.553Z</time></trkpt><trkpt lat="45.7183959" lon="8.7342878"><ele>274.0</ele><time>2026-04-16T09:44:46.551Z</time></trkpt><trkpt lat="45.7184485" lon="8.7343861"><ele>274.0</ele><time>2026-04-16T09:44:47.556Z</time></trkpt><trkpt lat="45.7184958" lon="8.7344835"><ele>274.0</ele><time>2026-04-16T09:44:48.552Z</time></trkpt><trkpt lat="45.7185345" lon="8.7345647"><ele>274.0</ele><time>2026-04-16T09:44:49.547Z</time></trkpt><trkpt lat="45.7185672" lon="8.7346611"><ele>274.0</ele><time>2026-04-16T09:44:50.559Z</time></trkpt><trkpt lat="45.7186012" lon="8.734753"><ele>274.0</ele><time>2026-04-16T09:44:51.559Z</time></trkpt><trkpt lat="45.7186326" lon="8.7348497"><ele>274.4</ele><time>2026-04-16T09:44:52.555Z</time></trkpt><trkpt lat="45.7186584" lon="8.7349612"><ele>274.79999999999995</ele><time>2026-04-16T09:44:53.55Z</time></trkpt><trkpt lat="45.7186931" lon="8.7350853"><ele>275.20000000000005</ele><time>2026-04-16T09:44:54.555Z</time></trkpt><trkpt lat="45.7187171" lon="8.7352134"><ele>275.6</ele><time>2026-04-16T09:44:55.563Z</time></trkpt><trkpt lat="45.7187393" lon="8.7353554"><ele>276.0</ele><time>2026-04-16T09:44:56.559Z</time></trkpt><trkpt lat="45.7187502" lon="8.7354928"><ele>276.40000000000003</ele><time>2026-04-16T09:44:57.557Z</time></trkpt><trkpt lat="45.7187841" lon="8.7356167"><ele>276.8</ele><time>2026-04-16T09:44:58.551Z</time></trkpt><trkpt lat="45.7188067" lon="8.7357474"><ele>277.20000000000005</ele><time>2026-04-16T09:44:59.547Z</time></trkpt><trkpt lat="45.7188379" lon="8.7358841"><ele>277.6</ele><time>2026-04-16T09:45:00.545Z</time></trkpt><trkpt lat="45.7188613" lon="8.736021"><ele>278.0</ele><time>2026-04-16T09:45:01.545Z</time></trkpt><trkpt lat="45.718878" lon="8.7361768"><ele>278.6</ele><time>2026-04-16T09:45:02.548Z</time></trkpt><trkpt lat="45.7188822" lon="8.7363178"><ele>279.20000000000005</ele><time>2026-04-16T09:45:03.547Z</time></trkpt><trkpt lat="45.7188902" lon="8.7364427"><ele>279.8</ele><time>2026-04-16T09:45:04.548Z</time></trkpt><trkpt lat="45.7188953" lon="8.7365734"><ele>280.40000000000003</ele><time>2026-04-16T09:45:05.547Z</time></trkpt><trkpt lat="45.7189178" lon="8.7367071"><ele>281.0</ele><time>2026-04-16T09:45:06.562Z</time></trkpt><trkpt lat="45.7189196" lon="8.7368624"><ele>280.8</ele><time>2026-04-16T09:45:07.545Z</time></trkpt><trkpt lat="45.7189365" lon="8.7370091"><ele>280.6</ele><time>2026-04-16T09:45:08.548Z</time></trkpt><trkpt lat="45.7189276" lon="8.7371656"><ele>280.4</ele><time>2026-04-16T09:45:09.547Z</time></trkpt><trkpt lat="45.7189299" lon="8.7373094"><ele>280.2</ele><time>2026-04-16T09:45:10.551Z</time></trkpt><trkpt lat="45.7189246" lon="8.7374799"><ele>280.0</ele><time>2026-04-16T09:45:11.554Z</time></trkpt><trkpt lat="45.7188998" lon="8.7376509"><ele>279.0</ele><time>2026-04-16T09:45:12.547Z</time></trkpt><trkpt lat="45.7188966" lon="8.737767"><ele>278.0</ele><time>2026-04-16T09:45:13.538Z</time></trkpt><trkpt lat="45.7188872" lon="8.7378994"><ele>277.0</ele><time>2026-04-16T09:45:14.545Z</time></trkpt><trkpt lat="45.718882" lon="8.7380237"><ele>276.0</ele><time>2026-04-16T09:45:15.546Z</time></trkpt><trkpt lat="45.7188703" lon="8.7381418"><ele>275.0</ele><time>2026-04-16T09:45:16.548Z</time></trkpt><trkpt lat="45.7188399" lon="8.7383031"><ele>275.0</ele><time>2026-04-16T09:45:17.554Z</time></trkpt><trkpt lat="45.7188055" lon="8.7384648"><ele>275.0</ele><time>2026-04-16T09:45:18.551Z</time></trkpt><trkpt lat="45.7187758" lon="8.7386038"><ele>275.0</ele><time>2026-04-16T09:45:19.553Z</time></trkpt><trkpt lat="45.7187454" lon="8.7387776"><ele>275.0</ele><time>2026-04-16T09:45:20.552Z</time></trkpt><trkpt lat="45.718722" lon="8.7389515"><ele>274.8</ele><time>2026-04-16T09:45:21.549Z</time></trkpt><trkpt lat="45.7187103" lon="8.7391029"><ele>274.6</ele><time>2026-04-16T09:45:22.558Z</time></trkpt><trkpt lat="45.7186772" lon="8.7392511"><ele>274.4</ele><time>2026-04-16T09:45:23.555Z</time></trkpt><trkpt lat="45.7186463" lon="8.7393891"><ele>274.2</ele><time>2026-04-16T09:45:24.574Z</time></trkpt><trkpt lat="45.7185868" lon="8.7395087"><ele>274.0</ele><time>2026-04-16T09:45:25.568Z</time></trkpt><trkpt lat="45.7185451" lon="8.7395955"><ele>274.0</ele><time>2026-04-16T09:45:26.571Z</time></trkpt><trkpt lat="45.7185164" lon="8.7397"><ele>274.0</ele><time>2026-04-16T09:45:27.568Z</time></trkpt><trkpt lat="45.7184762" lon="8.7397945"><ele>274.0</ele><time>2026-04-16T09:45:28.568Z</time></trkpt><trkpt lat="45.7184382" lon="8.7398984"><ele>274.0</ele><time>2026-04-16T09:45:29.567Z</time></trkpt><trkpt lat="45.7183877" lon="8.7400347"><ele>274.0</ele><time>2026-04-16T09:45:30.563Z</time></trkpt><trkpt lat="45.7183241" lon="8.7401734"><ele>274.5</ele><time>2026-04-16T09:45:31.567Z</time></trkpt><trkpt lat="45.7182637" lon="8.7403354"><ele>275.0</ele><time>2026-04-16T09:45:32.568Z</time></trkpt><trkpt lat="45.7182058" lon="8.7404861"><ele>275.5</ele><time>2026-04-16T09:45:33.57Z</time></trkpt><trkpt lat="45.7181366" lon="8.7406554"><ele>276.0</ele><time>2026-04-16T09:45:34.571Z</time></trkpt><trkpt lat="45.7180654" lon="8.7408113"><ele>276.0</ele><time>2026-04-16T09:45:35.572Z</time></trkpt><trkpt lat="45.7180007" lon="8.7409502"><ele>276.0</ele><time>2026-04-16T09:45:36.568Z</time></trkpt><trkpt lat="45.7179371" lon="8.7410755"><ele>276.0</ele><time>2026-04-16T09:45:37.581Z</time></trkpt><trkpt lat="45.7178622" lon="8.7412041"><ele>276.0</ele><time>2026-04-16T09:45:38.572Z</time></trkpt><trkpt lat="45.7177885" lon="8.7413403"><ele>276.0</ele><time>2026-04-16T09:45:39.568Z</time></trkpt><trkpt lat="45.7177328" lon="8.7414618"><ele>276.0</ele><time>2026-04-16T09:45:40.567Z</time></trkpt><trkpt lat="45.7176858" lon="8.7415625"><ele>276.0</ele><time>2026-04-16T09:45:41.568Z</time></trkpt><trkpt lat="45.7176415" lon="8.7416693"><ele>276.0</ele><time>2026-04-16T09:45:42.573Z</time></trkpt><trkpt lat="45.717609" lon="8.7418166"><ele>276.0</ele><time>2026-04-16T09:45:44.574Z</time></trkpt><trkpt lat="45.7175674" lon="8.7419398"><ele>275.8333333333333</ele><time>2026-04-16T09:45:46.571Z</time></trkpt><trkpt lat="45.717531" lon="8.7420241"><ele>275.6666666666667</ele><time>2026-04-16T09:46:00.575Z</time></trkpt><trkpt lat="45.7175" lon="8.7421235"><ele>275.5</ele><time>2026-04-16T09:46:02.561Z</time></trkpt><trkpt lat="45.7174792" lon="8.742236"><ele>275.33333333333337</ele><time>2026-04-16T09:46:04.561Z</time></trkpt><trkpt lat="45.7174454" lon="8.7423521"><ele>275.1666666666667</ele><time>2026-04-16T09:46:07.559Z</time></trkpt><trkpt lat="45.7174235" lon="8.742471"><ele>275.0</ele><time>2026-04-16T09:46:09.562Z</time></trkpt><trkpt lat="45.7173842" lon="8.7426182"><ele>274.4</ele><time>2026-04-16T09:46:11.563Z</time></trkpt><trkpt lat="45.71742" lon="8.7428073"><ele>273.8</ele><time>2026-04-16T09:46:13.567Z</time></trkpt><trkpt lat="45.7174502" lon="8.7429336"><ele>273.2</ele><time>2026-04-16T09:46:14.562Z</time></trkpt><trkpt lat="45.7175207" lon="8.7430366"><ele>272.6</ele><time>2026-04-16T09:46:15.558Z</time></trkpt><trkpt lat="45.7176041" lon="8.7431236"><ele>272.0</ele><time>2026-04-16T09:46:16.563Z</time></trkpt><trkpt lat="45.7176983" lon="8.7432032"><ele>272.25</ele><time>2026-04-16T09:46:17.569Z</time></trkpt><trkpt lat="45.7178177" lon="8.7432673"><ele>272.5</ele><time>2026-04-16T09:46:18.568Z</time></trkpt><trkpt lat="45.7179178" lon="8.7433239"><ele>272.75</ele><time>2026-04-16T09:46:19.565Z</time></trkpt><trkpt lat="45.7180316" lon="8.7433827"><ele>273.0</ele><time>2026-04-16T09:46:20.571Z</time></trkpt><trkpt lat="45.7181141" lon="8.7434472"><ele>273.0</ele><time>2026-04-16T09:46:21.568Z</time></trkpt><trkpt lat="45.7181962" lon="8.7435058"><ele>273.0</ele><time>2026-04-16T09:46:22.567Z</time></trkpt><trkpt lat="45.7182621" lon="8.7435772"><ele>273.0</ele><time>2026-04-16T09:46:23.564Z</time></trkpt><trkpt lat="45.7183251" lon="8.7436427"><ele>273.0</ele><time>2026-04-16T09:46:24.564Z</time></trkpt><trkpt lat="45.7183802" lon="8.7437345"><ele>273.0</ele><time>2026-04-16T09:46:25.574Z</time></trkpt><trkpt lat="45.7184245" lon="8.7438134"><ele>273.0</ele><time>2026-04-16T09:46:26.575Z</time></trkpt><trkpt lat="45.7184925" lon="8.7439008"><ele>273.4</ele><time>2026-04-16T09:46:27.573Z</time></trkpt><trkpt lat="45.7185582" lon="8.743978"><ele>273.8</ele><time>2026-04-16T09:46:28.572Z</time></trkpt><trkpt lat="45.7186366" lon="8.7440456"><ele>274.2</ele><time>2026-04-16T09:46:29.573Z</time></trkpt><trkpt lat="45.718725" lon="8.7441215"><ele>274.6</ele><time>2026-04-16T09:46:30.572Z</time></trkpt><trkpt lat="45.7188101" lon="8.7441907"><ele>275.0</ele><time>2026-04-16T09:46:31.579Z</time></trkpt><trkpt lat="45.718903" lon="8.7442624"><ele>274.0</ele><time>2026-04-16T09:46:32.575Z</time></trkpt><trkpt lat="45.7189849" lon="8.7443526"><ele>273.0</ele><time>2026-04-16T09:46:33.575Z</time></trkpt><trkpt lat="45.7190645" lon="8.7444527"><ele>272.0</ele><time>2026-04-16T09:46:34.58Z</time></trkpt><trkpt lat="45.7191458" lon="8.744556"><ele>271.0</ele><time>2026-04-16T09:46:35.584Z</time></trkpt><trkpt lat="45.7192312" lon="8.7446442"><ele>270.0</ele><time>2026-04-16T09:46:36.588Z</time></trkpt><trkpt lat="45.7193263" lon="8.7447262"><ele>270.0</ele><time>2026-04-16T09:46:37.593Z</time></trkpt><trkpt lat="45.7194241" lon="8.7447939"><ele>270.0</ele><time>2026-04-16T09:46:38.586Z</time></trkpt><trkpt lat="45.7195153" lon="8.744867"><ele>270.0</ele><time>2026-04-16T09:46:39.594Z</time></trkpt><trkpt lat="45.7196105" lon="8.7449235"><ele>270.0</ele><time>2026-04-16T09:46:40.59Z</time></trkpt><trkpt lat="45.7197147" lon="8.7449717"><ele>270.0</ele><time>2026-04-16T09:46:41.589Z</time></trkpt><trkpt lat="45.719828" lon="8.7450176"><ele>270.0</ele><time>2026-04-16T09:46:42.582Z</time></trkpt><trkpt lat="45.7199373" lon="8.7450597"><ele>270.0</ele><time>2026-04-16T09:46:43.585Z</time></trkpt><trkpt lat="45.7200475" lon="8.7451112"><ele>270.0</ele><time>2026-04-16T09:46:44.584Z</time></trkpt><trkpt lat="45.7201583" lon="8.7451621"><ele>270.0</ele><time>2026-04-16T09:46:45.575Z</time></trkpt><trkpt lat="45.7202715" lon="8.7452255"><ele>270.0</ele><time>2026-04-16T09:46:46.573Z</time></trkpt><trkpt lat="45.7203883" lon="8.7453084"><ele>270.0</ele><time>2026-04-16T09:46:47.589Z</time></trkpt><trkpt lat="45.7205086" lon="8.7454163"><ele>270.0</ele><time>2026-04-16T09:46:48.593Z</time></trkpt><trkpt lat="45.7206253" lon="8.7455233"><ele>270.0</ele><time>2026-04-16T09:46:49.593Z</time></trkpt><trkpt lat="45.7207392" lon="8.7456171"><ele>270.0</ele><time>2026-04-16T09:46:50.584Z</time></trkpt><trkpt lat="45.7208536" lon="8.7457104"><ele>270.0</ele><time>2026-04-16T09:46:51.579Z</time></trkpt><trkpt lat="45.7209747" lon="8.7457919"><ele>270.0</ele><time>2026-04-16T09:46:52.586Z</time></trkpt><trkpt lat="45.7211034" lon="8.7458664"><ele>270.0</ele><time>2026-04-16T09:46:53.58Z</time></trkpt><trkpt lat="45.7212405" lon="8.7459309"><ele>270.25</ele><time>2026-04-16T09:46:54.584Z</time></trkpt><trkpt lat="45.7213746" lon="8.7459793"><ele>270.5</ele><time>2026-04-16T09:46:55.584Z</time></trkpt><trkpt lat="45.7215059" lon="8.746038"><ele>270.75</ele><time>2026-04-16T09:46:56.588Z</time></trkpt><trkpt lat="45.7216482" lon="8.7460957"><ele>271.0</ele><time>2026-04-16T09:46:57.59Z</time></trkpt><trkpt lat="45.7217918" lon="8.7461588"><ele>271.25</ele><time>2026-04-16T09:46:58.577Z</time></trkpt><trkpt lat="45.7219422" lon="8.7462143"><ele>271.5</ele><time>2026-04-16T09:46:59.584Z</time></trkpt><trkpt lat="45.7220888" lon="8.746255"><ele>271.75</ele><time>2026-04-16T09:47:00.577Z</time></trkpt><trkpt lat="45.7222273" lon="8.7462958"><ele>272.0</ele><time>2026-04-16T09:47:01.576Z</time></trkpt><trkpt lat="45.7223625" lon="8.7463333"><ele>272.0</ele><time>2026-04-16T09:47:02.582Z</time></trkpt><trkpt lat="45.7224981" lon="8.746372"><ele>272.0</ele><time>2026-04-16T09:47:03.581Z</time></trkpt><trkpt lat="45.7226318" lon="8.7464191"><ele>272.0</ele><time>2026-04-16T09:47:04.585Z</time></trkpt><trkpt lat="45.7227499" lon="8.7464587"><ele>272.0</ele><time>2026-04-16T09:47:05.581Z</time></trkpt><trkpt lat="45.7228647" lon="8.746502"><ele>271.6</ele><time>2026-04-16T09:47:06.582Z</time></trkpt><trkpt lat="45.7229606" lon="8.7465409"><ele>271.2</ele><time>2026-04-16T09:47:07.585Z</time></trkpt><trkpt lat="45.7230509" lon="8.7465604"><ele>270.8</ele><time>2026-04-16T09:47:08.589Z</time></trkpt><trkpt lat="45.7231598" lon="8.7465428"><ele>270.4</ele><time>2026-04-16T09:47:09.582Z</time></trkpt><trkpt lat="45.7232477" lon="8.746515"><ele>270.0</ele><time>2026-04-16T09:47:10.602Z</time></trkpt><trkpt lat="45.7233257" lon="8.7464493"><ele>270.0</ele><time>2026-04-16T09:47:11.58Z</time></trkpt><trkpt lat="45.723392" lon="8.74639"><ele>270.0</ele><time>2026-04-16T09:47:12.578Z</time></trkpt><trkpt lat="45.72345" lon="8.7463265"><ele>270.0</ele><time>2026-04-16T09:47:13.579Z</time></trkpt><trkpt lat="45.7235379" lon="8.7462433"><ele>270.0</ele><time>2026-04-16T09:47:15.575Z</time></trkpt><trkpt lat="45.723615" lon="8.7462704"><ele>270.0</ele><time>2026-04-16T09:47:16.577Z</time></trkpt><trkpt lat="45.7236886" lon="8.7463273"><ele>270.0</ele><time>2026-04-16T09:47:17.58Z</time></trkpt><trkpt lat="45.7237571" lon="8.7463887"><ele>270.8</ele><time>2026-04-16T09:47:18.586Z</time></trkpt><trkpt lat="45.7238312" lon="8.7464517"><ele>271.6</ele><time>2026-04-16T09:47:19.585Z</time></trkpt><trkpt lat="45.723921" lon="8.7464907"><ele>272.4</ele><time>2026-04-16T09:47:20.584Z</time></trkpt><trkpt lat="45.7240285" lon="8.746515"><ele>273.2</ele><time>2026-04-16T09:47:21.59Z</time></trkpt><trkpt lat="45.724138" lon="8.7465462"><ele>274.0</ele><time>2026-04-16T09:47:22.586Z</time></trkpt><trkpt lat="45.7242408" lon="8.746576"><ele>274.0</ele><time>2026-04-16T09:47:23.585Z</time></trkpt><trkpt lat="45.7243513" lon="8.7466102"><ele>274.0</ele><time>2026-04-16T09:47:24.574Z</time></trkpt><trkpt lat="45.7244539" lon="8.7466436"><ele>274.0</ele><time>2026-04-16T09:47:25.568Z</time></trkpt><trkpt lat="45.724566" lon="8.7466917"><ele>274.0</ele><time>2026-04-16T09:47:26.572Z</time></trkpt><trkpt lat="45.7246779" lon="8.7467335"><ele>274.5</ele><time>2026-04-16T09:47:27.566Z</time></trkpt><trkpt lat="45.7247942" lon="8.7467862"><ele>275.0</ele><time>2026-04-16T09:47:28.567Z</time></trkpt><trkpt lat="45.7249065" lon="8.7468327"><ele>275.5</ele><time>2026-04-16T09:47:29.564Z</time></trkpt><trkpt lat="45.7250199" lon="8.7468797"><ele>276.0</ele><time>2026-04-16T09:47:30.568Z</time></trkpt><trkpt lat="45.7251322" lon="8.7469499"><ele>276.5</ele><time>2026-04-16T09:47:31.567Z</time></trkpt><trkpt lat="45.7252488" lon="8.7470213"><ele>277.0</ele><time>2026-04-16T09:47:32.579Z</time></trkpt><trkpt lat="45.7253587" lon="8.7470904"><ele>277.5</ele><time>2026-04-16T09:47:33.572Z</time></trkpt><trkpt lat="45.7254754" lon="8.7471646"><ele>278.0</ele><time>2026-04-16T09:47:34.575Z</time></trkpt><trkpt lat="45.725574" lon="8.7472407"><ele>278.0</ele><time>2026-04-16T09:47:35.567Z</time></trkpt><trkpt lat="45.7256802" lon="8.747313"><ele>278.0</ele><time>2026-04-16T09:47:36.567Z</time></trkpt><trkpt lat="45.7257933" lon="8.7473804"><ele>278.0</ele><time>2026-04-16T09:47:37.567Z</time></trkpt><trkpt lat="45.7259043" lon="8.7474437"><ele>278.0</ele><time>2026-04-16T09:47:38.558Z</time></trkpt><trkpt lat="45.7260113" lon="8.7474998"><ele>278.2</ele><time>2026-04-16T09:47:39.558Z</time></trkpt><trkpt lat="45.7261079" lon="8.747565"><ele>278.4</ele><time>2026-04-16T09:47:40.556Z</time></trkpt><trkpt lat="45.7262012" lon="8.7476237"><ele>278.59999999999997</ele><time>2026-04-16T09:47:41.568Z</time></trkpt><trkpt lat="45.7262914" lon="8.7476793"><ele>278.8</ele><time>2026-04-16T09:47:42.562Z</time></trkpt><trkpt lat="45.7263762" lon="8.7477218"><ele>279.0</ele><time>2026-04-16T09:47:43.559Z</time></trkpt><trkpt lat="45.7264593" lon="8.747728"><ele>279.0</ele><time>2026-04-16T09:47:44.564Z</time></trkpt><trkpt lat="45.726564" lon="8.7477187"><ele>279.0</ele><time>2026-04-16T09:47:45.565Z</time></trkpt><trkpt lat="45.7266528" lon="8.7476744"><ele>279.0</ele><time>2026-04-16T09:47:46.57Z</time></trkpt><trkpt lat="45.7267324" lon="8.747665"><ele>279.0</ele><time>2026-04-16T09:47:47.567Z</time></trkpt><trkpt lat="45.7268237" lon="8.7476456"><ele>279.0</ele><time>2026-04-16T09:47:48.565Z</time></trkpt><trkpt lat="45.726895" lon="8.7476282"><ele>279.0</ele><time>2026-04-16T09:47:49.571Z</time></trkpt><trkpt lat="45.726971" lon="8.7476292"><ele>279.3333333333333</ele><time>2026-04-16T09:47:50.564Z</time></trkpt><trkpt lat="45.7270273" lon="8.7475714"><ele>279.6666666666667</ele><time>2026-04-16T09:47:52.573Z</time></trkpt><trkpt lat="45.7271144" lon="8.7475772"><ele>280.0</ele><time>2026-04-16T09:47:55.576Z</time></trkpt><trkpt lat="45.727196" lon="8.7476031"><ele>280.33333333333337</ele><time>2026-04-16T09:47:57.573Z</time></trkpt><trkpt lat="45.7273011" lon="8.7476505"><ele>280.6666666666667</ele><time>2026-04-16T09:47:59.561Z</time></trkpt><trkpt lat="45.7273789" lon="8.7476835"><ele>281.0</ele><time>2026-04-16T09:48:00.568Z</time></trkpt><trkpt lat="45.7274365" lon="8.7477241"><ele>281.33333333333337</ele><time>2026-04-16T09:48:01.558Z</time></trkpt><trkpt lat="45.7274998" lon="8.7477426"><ele>281.6666666666667</ele><time>2026-04-16T09:48:02.56Z</time></trkpt><trkpt lat="45.7275945" lon="8.7477626"><ele>282.0</ele><time>2026-04-16T09:48:03.563Z</time></trkpt><trkpt lat="45.7276739" lon="8.7477755"><ele>282.3333333333333</ele><time>2026-04-16T09:48:04.572Z</time></trkpt><trkpt lat="45.7277539" lon="8.7477934"><ele>282.66666666666663</ele><time>2026-04-16T09:48:05.57Z</time></trkpt><trkpt lat="45.7278273" lon="8.7478003"><ele>283.0</ele><time>2026-04-16T09:48:06.561Z</time></trkpt><trkpt lat="45.7278958" lon="8.7478356"><ele>283.5</ele><time>2026-04-16T09:48:07.554Z</time></trkpt><trkpt lat="45.7279446" lon="8.7479053"><ele>284.0</ele><time>2026-04-16T09:48:08.56Z</time></trkpt><trkpt lat="45.7279928" lon="8.7479911"><ele>284.5</ele><time>2026-04-16T09:48:09.558Z</time></trkpt><trkpt lat="45.7280537" lon="8.7480502"><ele>285.0</ele><time>2026-04-16T09:48:10.556Z</time></trkpt><trkpt lat="45.7280385" lon="8.7481869"><ele>285.5</ele><time>2026-04-16T09:48:13.559Z</time></trkpt><trkpt lat="45.7280121" lon="8.7483012"><ele>286.0</ele><time>2026-04-16T09:48:15.554Z</time></trkpt><trkpt lat="45.7280043" lon="8.7484048"><ele>286.0</ele><time>2026-04-16T09:48:18.549Z</time></trkpt><trkpt lat="45.7278991" lon="8.7484245"><ele>286.0</ele><time>2026-04-16T09:48:20.548Z</time></trkpt><trkpt lat="45.7277708" lon="8.7484344"><ele>286.0</ele><time>2026-04-16T09:48:22.546Z</time></trkpt><trkpt lat="45.7277459" lon="8.7485843"><ele>286.0</ele><time>2026-04-16T09:48:28.558Z</time></trkpt><trkpt lat="45.7277889" lon="8.7486611"><ele>286.0</ele><time>2026-04-16T09:48:29.555Z</time></trkpt><trkpt lat="45.7278399" lon="8.7487692"><ele>286.16666666666663</ele><time>2026-04-16T09:48:30.555Z</time></trkpt><trkpt lat="45.7278728" lon="8.7488678"><ele>286.3333333333333</ele><time>2026-04-16T09:48:31.549Z</time></trkpt><trkpt lat="45.727899" lon="8.7489647"><ele>286.5</ele><time>2026-04-16T09:48:32.552Z</time></trkpt><trkpt lat="45.7279232" lon="8.7490639"><ele>286.6666666666667</ele><time>2026-04-16T09:48:33.551Z</time></trkpt><trkpt lat="45.7279076" lon="8.7491754"><ele>286.83333333333337</ele><time>2026-04-16T09:48:34.565Z</time></trkpt><trkpt lat="45.7278724" lon="8.7492828"><ele>287.0</ele><time>2026-04-16T09:48:35.567Z</time></trkpt><trkpt lat="45.7278134" lon="8.7493978"><ele>287.0</ele><time>2026-04-16T09:48:36.567Z</time></trkpt><trkpt lat="45.7277341" lon="8.7495176"><ele>287.0</ele><time>2026-04-16T09:48:37.57Z</time></trkpt><trkpt lat="45.727661" lon="8.7496442"><ele>287.0</ele><time>2026-04-16T09:48:38.572Z</time></trkpt><trkpt lat="45.7276101" lon="8.7497607"><ele>287.0</ele><time>2026-04-16T09:48:39.577Z</time></trkpt><trkpt lat="45.7275479" lon="8.7498887"><ele>287.0</ele><time>2026-04-16T09:48:40.573Z</time></trkpt><trkpt lat="45.7274712" lon="8.7500456"><ele>286.75</ele><time>2026-04-16T09:48:41.575Z</time></trkpt><trkpt lat="45.7274151" lon="8.7502048"><ele>286.5</ele><time>2026-04-16T09:48:42.584Z</time></trkpt><trkpt lat="45.7273661" lon="8.7503695"><ele>286.25</ele><time>2026-04-16T09:48:43.571Z</time></trkpt><trkpt lat="45.7273333" lon="8.7505438"><ele>286.0</ele><time>2026-04-16T09:48:44.574Z</time></trkpt><trkpt lat="45.7273089" lon="8.7507145"><ele>286.5</ele><time>2026-04-16T09:48:45.577Z</time></trkpt><trkpt lat="45.7272788" lon="8.7508989"><ele>287.0</ele><time>2026-04-16T09:48:46.575Z</time></trkpt><trkpt lat="45.7272537" lon="8.7510831"><ele>287.5</ele><time>2026-04-16T09:48:47.575Z</time></trkpt><trkpt lat="45.7272483" lon="8.7512583"><ele>288.0</ele><time>2026-04-16T09:48:48.582Z</time></trkpt><trkpt lat="45.7272369" lon="8.751427"><ele>288.8</ele><time>2026-04-16T09:48:49.574Z</time></trkpt><trkpt lat="45.7272269" lon="8.7515897"><ele>289.6</ele><time>2026-04-16T09:48:50.579Z</time></trkpt><trkpt lat="45.7272148" lon="8.7517548"><ele>290.4</ele><time>2026-04-16T09:48:51.576Z</time></trkpt><trkpt lat="45.727202" lon="8.7519097"><ele>291.2</ele><time>2026-04-16T09:48:52.575Z</time></trkpt><trkpt lat="45.7271888" lon="8.7520537"><ele>292.0</ele><time>2026-04-16T09:48:53.568Z</time></trkpt><trkpt lat="45.7271739" lon="8.7521813"><ele>293.0</ele><time>2026-04-16T09:48:54.574Z</time></trkpt><trkpt lat="45.7271421" lon="8.7522977"><ele>294.0</ele><time>2026-04-16T09:48:55.575Z</time></trkpt><trkpt lat="45.7270773" lon="8.7523586"><ele>295.0</ele><time>2026-04-16T09:48:56.564Z</time></trkpt><trkpt lat="45.7269923" lon="8.7523843"><ele>296.0</ele><time>2026-04-16T09:48:57.57Z</time></trkpt><trkpt lat="45.7268769" lon="8.752415"><ele>297.0</ele><time>2026-04-16T09:48:58.568Z</time></trkpt><trkpt lat="45.7267604" lon="8.7524442"><ele>297.0</ele><time>2026-04-16T09:48:59.572Z</time></trkpt><trkpt lat="45.7266428" lon="8.7524887"><ele>297.0</ele><time>2026-04-16T09:49:00.57Z</time></trkpt><trkpt lat="45.7265397" lon="8.7525295"><ele>297.0</ele><time>2026-04-16T09:49:01.579Z</time></trkpt><trkpt lat="45.7264333" lon="8.7525966"><ele>297.0</ele><time>2026-04-16T09:49:02.579Z</time></trkpt><trkpt lat="45.7263556" lon="8.752679"><ele>297.0</ele><time>2026-04-16T09:49:03.579Z</time></trkpt><trkpt lat="45.7262783" lon="8.7527816"><ele>297.6</ele><time>2026-04-16T09:49:04.572Z</time></trkpt><trkpt lat="45.726213" lon="8.7528984"><ele>298.2</ele><time>2026-04-16T09:49:05.574Z</time></trkpt><trkpt lat="45.7261463" lon="8.7530168"><ele>298.8</ele><time>2026-04-16T09:49:06.571Z</time></trkpt><trkpt lat="45.72609" lon="8.7531209"><ele>299.4</ele><time>2026-04-16T09:49:07.567Z</time></trkpt><trkpt lat="45.7260241" lon="8.7532492"><ele>300.0</ele><time>2026-04-16T09:49:08.579Z</time></trkpt><trkpt lat="45.7259663" lon="8.7533895"><ele>302.0</ele><time>2026-04-16T09:49:09.579Z</time></trkpt><trkpt lat="45.7259154" lon="8.7535468"><ele>304.0</ele><time>2026-04-16T09:49:10.58Z</time></trkpt><trkpt lat="45.7258783" lon="8.7537096"><ele>306.0</ele><time>2026-04-16T09:49:11.58Z</time></trkpt><trkpt lat="45.7258539" lon="8.7538609"><ele>308.0</ele><time>2026-04-16T09:49:12.575Z</time></trkpt><trkpt lat="45.7258262" lon="8.7540115"><ele>308.0</ele><time>2026-04-16T09:49:13.579Z</time></trkpt><trkpt lat="45.7257996" lon="8.7541623"><ele>308.0</ele><time>2026-04-16T09:49:14.567Z</time></trkpt><trkpt lat="45.7257829" lon="8.7542913"><ele>308.0</ele><time>2026-04-16T09:49:15.567Z</time></trkpt><trkpt lat="45.7257595" lon="8.7544009"><ele>308.0</ele><time>2026-04-16T09:49:16.558Z</time></trkpt><trkpt lat="45.7257475" lon="8.7544982"><ele>308.0</ele><time>2026-04-16T09:49:17.556Z</time></trkpt><trkpt lat="45.7257282" lon="8.754595"><ele>308.0</ele><time>2026-04-16T09:49:18.556Z</time></trkpt><trkpt lat="45.7256966" lon="8.7547658"><ele>308.0</ele><time>2026-04-16T09:49:20.555Z</time></trkpt><trkpt lat="45.7256216" lon="8.7548272"><ele>308.0</ele><time>2026-04-16T09:49:22.554Z</time></trkpt><trkpt lat="45.725531" lon="8.7548709"><ele>308.0</ele><time>2026-04-16T09:49:24.555Z</time></trkpt><trkpt lat="45.7254241" lon="8.7548819"><ele>308.0</ele><time>2026-04-16T09:49:26.556Z</time></trkpt><trkpt lat="45.7253074" lon="8.7549504"><ele>308.0</ele><time>2026-04-16T09:49:28.557Z</time></trkpt><trkpt lat="45.725241" lon="8.7550009"><ele>308.5</ele><time>2026-04-16T09:49:29.552Z</time></trkpt><trkpt lat="45.7251611" lon="8.7550426"><ele>309.0</ele><time>2026-04-16T09:49:30.557Z</time></trkpt><trkpt lat="45.7250919" lon="8.755102"><ele>309.5</ele><time>2026-04-16T09:49:31.553Z</time></trkpt><trkpt lat="45.7250374" lon="8.7551683"><ele>310.0</ele><time>2026-04-16T09:49:32.558Z</time></trkpt><trkpt lat="45.7249828" lon="8.7552364"><ele>310.5</ele><time>2026-04-16T09:49:33.554Z</time></trkpt><trkpt lat="45.7248863" lon="8.7553322"><ele>311.0</ele><time>2026-04-16T09:49:35.554Z</time></trkpt><trkpt lat="45.7248047" lon="8.7553958"><ele>311.0</ele><time>2026-04-16T09:49:37.554Z</time></trkpt><trkpt lat="45.7247293" lon="8.7554507"><ele>311.0</ele><time>2026-04-16T09:49:39.553Z</time></trkpt><trkpt lat="45.7247761" lon="8.7555691"><ele>311.0</ele><time>2026-04-16T09:49:50.551Z</time></trkpt><trkpt lat="45.7247844" lon="8.7556768"><ele>311.0</ele><time>2026-04-16T09:49:52.555Z</time></trkpt><trkpt lat="45.7247817" lon="8.7557674"><ele>311.0</ele><time>2026-04-16T09:49:53.551Z</time></trkpt><trkpt lat="45.7247663" lon="8.7558588"><ele>311.0</ele><time>2026-04-16T09:49:54.557Z</time></trkpt><trkpt lat="45.7247509" lon="8.7559798"><ele>308.6666666666667</ele><time>2026-04-16T09:49:56.551Z</time></trkpt><trkpt lat="45.7247822" lon="8.7560824"><ele>306.33333333333337</ele><time>2026-04-16T09:49:58.555Z</time></trkpt><trkpt lat="45.7247804" lon="8.7562129"><ele>304.0</ele><time>2026-04-16T09:50:01.556Z</time></trkpt><trkpt lat="45.7247731" lon="8.7563066"><ele>301.6666666666667</ele><time>2026-04-16T09:50:02.558Z</time></trkpt><trkpt lat="45.7247704" lon="8.7564499"><ele>299.3333333333333</ele><time>2026-04-16T09:50:04.567Z</time></trkpt><trkpt lat="45.7247633" lon="8.7565436"><ele>297.0</ele><time>2026-04-16T09:50:06.567Z</time></trkpt><trkpt lat="45.7248018" lon="8.7566265"><ele>297.0</ele><time>2026-04-16T09:50:11.56Z</time></trkpt><trkpt lat="45.724865" lon="8.756628"><ele>297.0</ele><time>2026-04-16T09:50:14.56Z</time></trkpt><trkpt lat="45.7249508" lon="8.7566321"><ele>297.0</ele><time>2026-04-16T09:50:16.546Z</time></trkpt><trkpt lat="45.7250151" lon="8.7566205"><ele>297.0</ele><time>2026-04-16T09:50:17.548Z</time></trkpt><trkpt lat="45.7251121" lon="8.7566413"><ele>297.0</ele><time>2026-04-16T09:50:18.55Z</time></trkpt><trkpt lat="45.7252215" lon="8.7566421"><ele>297.0</ele><time>2026-04-16T09:50:19.559Z</time></trkpt><trkpt lat="45.725388" lon="8.7565978"><ele>296.25</ele><time>2026-04-16T09:50:20.559Z</time></trkpt><trkpt lat="45.7255283" lon="8.7565636"><ele>295.5</ele><time>2026-04-16T09:50:21.564Z</time></trkpt><trkpt lat="45.7256246" lon="8.7564573"><ele>294.75</ele><time>2026-04-16T09:50:22.558Z</time></trkpt><trkpt lat="45.7257335" lon="8.7563592"><ele>294.0</ele><time>2026-04-16T09:50:23.558Z</time></trkpt><trkpt lat="45.7258134" lon="8.7562938"><ele>294.0</ele><time>2026-04-16T09:50:24.557Z</time></trkpt><trkpt lat="45.7258868" lon="8.756259"><ele>294.0</ele><time>2026-04-16T09:50:25.549Z</time></trkpt><trkpt lat="45.7260136" lon="8.7561897"><ele>294.0</ele><time>2026-04-16T09:50:27.544Z</time></trkpt><trkpt lat="45.7261028" lon="8.7562138"><ele>294.0</ele><time>2026-04-16T09:50:28.557Z</time></trkpt><trkpt lat="45.7261898" lon="8.7562211"><ele>294.0</ele><time>2026-04-16T09:50:29.551Z</time></trkpt><trkpt lat="45.7262532" lon="8.7562381"><ele>294.5</ele><time>2026-04-16T09:50:30.553Z</time></trkpt><trkpt lat="45.7263341" lon="8.7562373"><ele>295.0</ele><time>2026-04-16T09:50:31.546Z</time></trkpt><trkpt lat="45.726428" lon="8.7562326"><ele>295.5</ele><time>2026-04-16T09:50:33.549Z</time></trkpt><trkpt lat="45.7265199" lon="8.7562907"><ele>296.0</ele><time>2026-04-16T09:50:35.557Z</time></trkpt><trkpt lat="45.7265834" lon="8.7563432"><ele>296.5</ele><time>2026-04-16T09:50:38.554Z</time></trkpt><trkpt lat="45.7265641" lon="8.7564742"><ele>297.0</ele><time>2026-04-16T09:50:40.558Z</time></trkpt><trkpt lat="45.7265362" lon="8.7565999"><ele>297.0</ele><time>2026-04-16T09:50:41.547Z</time></trkpt><trkpt lat="45.7265156" lon="8.7567116"><ele>297.0</ele><time>2026-04-16T09:50:42.555Z</time></trkpt><trkpt lat="45.7264774" lon="8.7568649"><ele>297.0</ele><time>2026-04-16T09:50:43.547Z</time></trkpt><trkpt lat="45.7264414" lon="8.7570175"><ele>297.0</ele><time>2026-04-16T09:50:44.56Z</time></trkpt><trkpt lat="45.7263663" lon="8.7572458"><ele>296.0</ele><time>2026-04-16T09:50:45.547Z</time></trkpt><trkpt lat="45.7262888" lon="8.7574781"><ele>295.0</ele><time>2026-04-16T09:50:46.542Z</time></trkpt><trkpt lat="45.7262172" lon="8.7577049"><ele>294.0</ele><time>2026-04-16T09:50:47.543Z</time></trkpt><trkpt lat="45.7261774" lon="8.7578786"><ele>292.75</ele><time>2026-04-16T09:50:48.539Z</time></trkpt><trkpt lat="45.7261161" lon="8.7580766"><ele>291.5</ele><time>2026-04-16T09:50:49.542Z</time></trkpt><trkpt lat="45.7260531" lon="8.7582843"><ele>290.25</ele><time>2026-04-16T09:50:50.535Z</time></trkpt><trkpt lat="45.726012" lon="8.758461"><ele>289.0</ele><time>2026-04-16T09:50:51.537Z</time></trkpt><trkpt lat="45.7259459" lon="8.7586898"><ele>288.5</ele><time>2026-04-16T09:50:52.536Z</time></trkpt><trkpt lat="45.7258934" lon="8.7588919"><ele>288.0</ele><time>2026-04-16T09:50:53.537Z</time></trkpt><trkpt lat="45.7258557" lon="8.7590646"><ele>287.5</ele><time>2026-04-16T09:50:54.532Z</time></trkpt><trkpt lat="45.7257872" lon="8.7592411"><ele>287.0</ele><time>2026-04-16T09:50:55.545Z</time></trkpt><trkpt lat="45.7256857" lon="8.7594144"><ele>284.5</ele><time>2026-04-16T09:50:56.552Z</time></trkpt><trkpt lat="45.725524" lon="8.7596182"><ele>282.0</ele><time>2026-04-16T09:50:57.557Z</time></trkpt><trkpt lat="45.7253291" lon="8.7598102"><ele>281.3333333333333</ele><time>2026-04-16T09:50:58.562Z</time></trkpt><trkpt lat="45.7252118" lon="8.7600659"><ele>280.66666666666663</ele><time>2026-04-16T09:50:59.565Z</time></trkpt><trkpt lat="45.7251401" lon="8.7603299"><ele>280.0</ele><time>2026-04-16T09:51:00.567Z</time></trkpt><trkpt lat="45.7250853" lon="8.7605701"><ele>280.0</ele><time>2026-04-16T09:51:01.568Z</time></trkpt><trkpt lat="45.7250242" lon="8.7608093"><ele>280.0</ele><time>2026-04-16T09:51:02.572Z</time></trkpt><trkpt lat="45.7249654" lon="8.7610364"><ele>280.0</ele><time>2026-04-16T09:51:03.555Z</time></trkpt><trkpt lat="45.7249125" lon="8.7612719"><ele>282.66666666666663</ele><time>2026-04-16T09:51:04.572Z</time></trkpt><trkpt lat="45.7248596" lon="8.7615064"><ele>285.3333333333333</ele><time>2026-04-16T09:51:05.567Z</time></trkpt><trkpt lat="45.7247838" lon="8.7617187"><ele>288.0</ele><time>2026-04-16T09:51:06.564Z</time></trkpt><trkpt lat="45.7247334" lon="8.7619421"><ele>290.5</ele><time>2026-04-16T09:51:07.559Z</time></trkpt><trkpt lat="45.7246964" lon="8.7621661"><ele>293.0</ele><time>2026-04-16T09:51:08.564Z</time></trkpt><trkpt lat="45.7246698" lon="8.7623684"><ele>295.5</ele><time>2026-04-16T09:51:09.556Z</time></trkpt><trkpt lat="45.724626" lon="8.7625422"><ele>298.0</ele><time>2026-04-16T09:51:10.556Z</time></trkpt><trkpt lat="45.7245784" lon="8.7626877"><ele>299.0</ele><time>2026-04-16T09:51:11.555Z</time></trkpt><trkpt lat="45.7245523" lon="8.7627927"><ele>300.0</ele><time>2026-04-16T09:51:12.561Z</time></trkpt><trkpt lat="45.724453" lon="8.7629131"><ele>301.0</ele><time>2026-04-16T09:51:13.556Z</time></trkpt><trkpt lat="45.7243641" lon="8.7629999"><ele>302.0</ele><time>2026-04-16T09:51:14.553Z</time></trkpt><trkpt lat="45.7242494" lon="8.7630366"><ele>303.0</ele><time>2026-04-16T09:51:15.573Z</time></trkpt><trkpt lat="45.7241023" lon="8.7630548"><ele>304.5</ele><time>2026-04-16T09:51:16.551Z</time></trkpt><trkpt lat="45.7239585" lon="8.7630715"><ele>306.0</ele><time>2026-04-16T09:51:17.548Z</time></trkpt><trkpt lat="45.7238391" lon="8.7630555"><ele>307.5</ele><time>2026-04-16T09:51:18.543Z</time></trkpt><trkpt lat="45.7237609" lon="8.7631008"><ele>309.0</ele><time>2026-04-16T09:51:19.544Z</time></trkpt><trkpt lat="45.7236309" lon="8.7630554"><ele>309.4</ele><time>2026-04-16T09:51:20.542Z</time></trkpt><trkpt lat="45.7235389" lon="8.7630605"><ele>309.79999999999995</ele><time>2026-04-16T09:51:21.547Z</time></trkpt><trkpt lat="45.723418" lon="8.7630475"><ele>310.20000000000005</ele><time>2026-04-16T09:51:23.546Z</time></trkpt><trkpt lat="45.7233597" lon="8.7631831"><ele>310.6</ele><time>2026-04-16T09:51:25.546Z</time></trkpt><trkpt lat="45.7233609" lon="8.763315"><ele>311.0</ele><time>2026-04-16T09:51:27.54Z</time></trkpt><trkpt lat="45.7233641" lon="8.7634058"><ele>313.0</ele><time>2026-04-16T09:51:28.55Z</time></trkpt><trkpt lat="45.7233981" lon="8.7635331"><ele>315.0</ele><time>2026-04-16T09:51:30.545Z</time></trkpt><trkpt lat="45.7234331" lon="8.7636417"><ele>317.0</ele><time>2026-04-16T09:51:31.547Z</time></trkpt><trkpt lat="45.7235262" lon="8.7637157"><ele>319.0</ele><time>2026-04-16T09:51:32.548Z</time></trkpt><trkpt lat="45.7236293" lon="8.7638549"><ele>321.0</ele><time>2026-04-16T09:51:33.554Z</time></trkpt><trkpt lat="45.7237277" lon="8.7640054"><ele>321.0</ele><time>2026-04-16T09:51:34.555Z</time></trkpt><trkpt lat="45.723855" lon="8.7641177"><ele>321.0</ele><time>2026-04-16T09:51:35.548Z</time></trkpt><trkpt lat="45.7239642" lon="8.764248"><ele>321.0</ele><time>2026-04-16T09:51:36.554Z</time></trkpt><trkpt lat="45.724123" lon="8.7644157"><ele>321.5</ele><time>2026-04-16T09:51:37.554Z</time></trkpt><trkpt lat="45.7242694" lon="8.7645435"><ele>322.0</ele><time>2026-04-16T09:51:38.562Z</time></trkpt><trkpt lat="45.7243383" lon="8.7646169"><ele>322.5</ele><time>2026-04-16T09:51:39.559Z</time></trkpt><trkpt lat="45.7244328" lon="8.7647409"><ele>323.0</ele><time>2026-04-16T09:51:41.563Z</time></trkpt><trkpt lat="45.7244644" lon="8.7648272"><ele>323.0</ele><time>2026-04-16T09:51:42.566Z</time></trkpt><trkpt lat="45.7244865" lon="8.7649724"><ele>323.0</ele><time>2026-04-16T09:51:44.564Z</time></trkpt><trkpt lat="45.7244548" lon="8.7650872"><ele>323.0</ele><time>2026-04-16T09:51:45.557Z</time></trkpt><trkpt lat="45.724411" lon="8.7652063"><ele>323.0</ele><time>2026-04-16T09:51:46.578Z</time></trkpt><trkpt lat="45.7243726" lon="8.7653254"><ele>323.0</ele><time>2026-04-16T09:51:47.557Z</time></trkpt><trkpt lat="45.7243265" lon="8.7654541"><ele>323.0</ele><time>2026-04-16T09:51:48.559Z</time></trkpt><trkpt lat="45.7242678" lon="8.7655543"><ele>323.0</ele><time>2026-04-16T09:51:49.555Z</time></trkpt><trkpt lat="45.7241985" lon="8.7657032"><ele>323.0</ele><time>2026-04-16T09:51:50.561Z</time></trkpt><trkpt lat="45.7241122" lon="8.7658421"><ele>323.0</ele><time>2026-04-16T09:51:51.555Z</time></trkpt><trkpt lat="45.7240553" lon="8.7659699"><ele>323.79999999999995</ele><time>2026-04-16T09:51:52.562Z</time></trkpt><trkpt lat="45.7239909" lon="8.7660829"><ele>324.6</ele><time>2026-04-16T09:51:53.56Z</time></trkpt><trkpt lat="45.7239459" lon="8.766194"><ele>325.4</ele><time>2026-04-16T09:51:54.565Z</time></trkpt><trkpt lat="45.7238606" lon="8.7663417"><ele>326.20000000000005</ele><time>2026-04-16T09:51:56.568Z</time></trkpt><trkpt lat="45.7237957" lon="8.7664032"><ele>327.0</ele><time>2026-04-16T09:51:58.573Z</time></trkpt><trkpt lat="45.7238066" lon="8.766288"><ele>327.0</ele><time>2026-04-16T09:52:00.573Z</time></trkpt><trkpt lat="45.7238358" lon="8.766206"><ele>327.0</ele><time>2026-04-16T09:52:01.562Z</time></trkpt><trkpt lat="45.7238746" lon="8.7661193"><ele>327.0</ele><time>2026-04-16T09:52:02.558Z</time></trkpt><trkpt lat="45.7239334" lon="8.766008"><ele>327.0</ele><time>2026-04-16T09:52:04.566Z</time></trkpt><trkpt lat="45.7239548" lon="8.7658397"><ele>327.0</ele><time>2026-04-16T09:52:06.568Z</time></trkpt><trkpt lat="45.7240241" lon="8.7656665"><ele>326.5</ele><time>2026-04-16T09:52:08.568Z</time></trkpt><trkpt lat="45.7240704" lon="8.7655805"><ele>326.0</ele><time>2026-04-16T09:52:09.559Z</time></trkpt><trkpt lat="45.724099" lon="8.7654702"><ele>325.5</ele><time>2026-04-16T09:52:10.562Z</time></trkpt><trkpt lat="45.7241428" lon="8.7653657"><ele>325.0</ele><time>2026-04-16T09:52:11.557Z</time></trkpt><trkpt lat="45.7241651" lon="8.7652665"><ele>324.5</ele><time>2026-04-16T09:52:12.562Z</time></trkpt><trkpt lat="45.7241997" lon="8.7651539"><ele>324.0</ele><time>2026-04-16T09:52:13.559Z</time></trkpt><trkpt lat="45.7242653" lon="8.7650413"><ele>324.0</ele><time>2026-04-16T09:52:14.564Z</time></trkpt><trkpt lat="45.7243314" lon="8.7649197"><ele>324.0</ele><time>2026-04-16T09:52:15.558Z</time></trkpt><trkpt lat="45.7243798" lon="8.7648093"><ele>324.0</ele><time>2026-04-16T09:52:16.559Z</time></trkpt><trkpt lat="45.7244301" lon="8.7647155"><ele>324.0</ele><time>2026-04-16T09:52:17.571Z</time></trkpt><trkpt lat="45.7244782" lon="8.7646126"><ele>324.0</ele><time>2026-04-16T09:52:18.554Z</time></trkpt><trkpt lat="45.7245094" lon="8.7645139"><ele>324.0</ele><time>2026-04-16T09:52:19.553Z</time></trkpt><trkpt lat="45.7245486" lon="8.7644155"><ele>321.59999999999997</ele><time>2026-04-16T09:52:20.547Z</time></trkpt><trkpt lat="45.7245664" lon="8.764323"><ele>319.2</ele><time>2026-04-16T09:52:21.553Z</time></trkpt><trkpt lat="45.72458" lon="8.7642318"><ele>316.79999999999995</ele><time>2026-04-16T09:52:22.552Z</time></trkpt><trkpt lat="45.7246041" lon="8.7641367"><ele>314.4</ele><time>2026-04-16T09:52:25.547Z</time></trkpt><trkpt lat="45.7246792" lon="8.7641458"><ele>312.0</ele><time>2026-04-16T09:52:30.563Z</time></trkpt><trkpt lat="45.7248552" lon="8.7641685"><ele>312.0</ele><time>2026-04-16T09:52:33.553Z</time></trkpt><trkpt lat="45.7249437" lon="8.7641811"><ele>312.0</ele><time>2026-04-16T09:52:36.552Z</time></trkpt><trkpt lat="45.72507" lon="8.7642095"><ele>312.0</ele><time>2026-04-16T09:52:38.551Z</time></trkpt><trkpt lat="45.7251657" lon="8.7642052"><ele>312.0</ele><time>2026-04-16T09:52:39.549Z</time></trkpt><trkpt lat="45.7252755" lon="8.7642088"><ele>312.0</ele><time>2026-04-16T09:52:40.548Z</time></trkpt><trkpt lat="45.7253448" lon="8.7642121"><ele>311.2</ele><time>2026-04-16T09:52:41.547Z</time></trkpt><trkpt lat="45.7254596" lon="8.7642403"><ele>310.4</ele><time>2026-04-16T09:52:43.552Z</time></trkpt><trkpt lat="45.7255315" lon="8.7642456"><ele>309.6</ele><time>2026-04-16T09:52:44.557Z</time></trkpt><trkpt lat="45.7256221" lon="8.7642639"><ele>308.8</ele><time>2026-04-16T09:52:45.555Z</time></trkpt><trkpt lat="45.7256968" lon="8.7642665"><ele>308.0</ele><time>2026-04-16T09:52:46.561Z</time></trkpt><trkpt lat="45.725801" lon="8.7642795"><ele>308.0</ele><time>2026-04-16T09:52:48.55Z</time></trkpt><trkpt lat="45.7258668" lon="8.7642962"><ele>308.0</ele><time>2026-04-16T09:52:49.548Z</time></trkpt><trkpt lat="45.7259362" lon="8.7642906"><ele>308.0</ele><time>2026-04-16T09:52:50.549Z</time></trkpt><trkpt lat="45.7260451" lon="8.7642745"><ele>308.0</ele><time>2026-04-16T09:52:52.556Z</time></trkpt><trkpt lat="45.726119" lon="8.7642772"><ele>308.0</ele><time>2026-04-16T09:52:53.556Z</time></trkpt><trkpt lat="45.7262299" lon="8.7642876"><ele>308.0</ele><time>2026-04-16T09:52:55.551Z</time></trkpt><trkpt lat="45.726327" lon="8.7643146"><ele>307.2</ele><time>2026-04-16T09:52:57.554Z</time></trkpt><trkpt lat="45.726412" lon="8.7642817"><ele>306.4</ele><time>2026-04-16T09:52:59.545Z</time></trkpt><trkpt lat="45.7264776" lon="8.7642136"><ele>305.59999999999997</ele><time>2026-04-16T09:53:02.553Z</time></trkpt><trkpt lat="45.726563" lon="8.7641741"><ele>304.8</ele><time>2026-04-16T09:53:05.549Z</time></trkpt><trkpt lat="45.7266628" lon="8.764171"><ele>304.0</ele><time>2026-04-16T09:53:07.548Z</time></trkpt><trkpt lat="45.7267606" lon="8.7641716"><ele>304.0</ele><time>2026-04-16T09:53:09.546Z</time></trkpt><trkpt lat="45.7268351" lon="8.7641772"><ele>304.0</ele><time>2026-04-16T09:53:10.549Z</time></trkpt><trkpt lat="45.7269158" lon="8.7641799"><ele>304.0</ele><time>2026-04-16T09:53:11.547Z</time></trkpt><trkpt lat="45.7269941" lon="8.7641765"><ele>304.0</ele><time>2026-04-16T09:53:12.545Z</time></trkpt><trkpt lat="45.7271114" lon="8.7642209"><ele>304.0</ele><time>2026-04-16T09:53:14.546Z</time></trkpt><trkpt lat="45.727139" lon="8.7643133"><ele>304.0</ele><time>2026-04-16T09:53:16.543Z</time></trkpt><trkpt lat="45.7272179" lon="8.7643667"><ele>304.16666666666663</ele><time>2026-04-16T09:53:19.536Z</time></trkpt><trkpt lat="45.7272818" lon="8.7643649"><ele>304.3333333333333</ele><time>2026-04-16T09:53:20.556Z</time></trkpt><trkpt lat="45.7273731" lon="8.7643378"><ele>304.5</ele><time>2026-04-16T09:53:22.55Z</time></trkpt><trkpt lat="45.7274454" lon="8.7643208"><ele>304.6666666666667</ele><time>2026-04-16T09:53:24.542Z</time></trkpt><trkpt lat="45.7275515" lon="8.764346"><ele>304.83333333333337</ele><time>2026-04-16T09:53:26.535Z</time></trkpt><trkpt lat="45.7276239" lon="8.764381"><ele>305.0</ele><time>2026-04-16T09:53:27.532Z</time></trkpt><trkpt lat="45.7277102" lon="8.7643986"><ele>306.25</ele><time>2026-04-16T09:53:28.535Z</time></trkpt><trkpt lat="45.7277956" lon="8.7644205"><ele>307.5</ele><time>2026-04-16T09:53:29.538Z</time></trkpt><trkpt lat="45.7278699" lon="8.7644183"><ele>308.75</ele><time>2026-04-16T09:53:30.547Z</time></trkpt><trkpt lat="45.7279871" lon="8.7642908"><ele>310.0</ele><time>2026-04-16T09:53:31.557Z</time></trkpt><trkpt lat="45.7281182" lon="8.7641576"><ele>310.0</ele><time>2026-04-16T09:53:32.557Z</time></trkpt><trkpt lat="45.7282426" lon="8.7640149"><ele>310.0</ele><time>2026-04-16T09:53:33.553Z</time></trkpt><trkpt lat="45.7283672" lon="8.7639075"><ele>310.0</ele><time>2026-04-16T09:53:34.554Z</time></trkpt><trkpt lat="45.7284618" lon="8.7638197"><ele>310.0</ele><time>2026-04-16T09:53:35.559Z</time></trkpt><trkpt lat="45.7285654" lon="8.7637233"><ele>309.4</ele><time>2026-04-16T09:53:36.567Z</time></trkpt><trkpt lat="45.728665" lon="8.7636268"><ele>308.8</ele><time>2026-04-16T09:53:37.563Z</time></trkpt><trkpt lat="45.7287465" lon="8.7635554"><ele>308.2</ele><time>2026-04-16T09:53:38.569Z</time></trkpt><trkpt lat="45.7288154" lon="8.763517"><ele>307.6</ele><time>2026-04-16T09:53:39.566Z</time></trkpt><trkpt lat="45.7288767" lon="8.7634852"><ele>307.0</ele><time>2026-04-16T09:53:40.559Z</time></trkpt><trkpt lat="45.7289959" lon="8.7634521"><ele>307.0</ele><time>2026-04-16T09:53:42.563Z</time></trkpt><trkpt lat="45.7291081" lon="8.7634429"><ele>307.0</ele><time>2026-04-16T09:53:44.563Z</time></trkpt><trkpt lat="45.7292037" lon="8.7634596"><ele>307.0</ele><time>2026-04-16T09:53:46.566Z</time></trkpt><trkpt lat="45.7292935" lon="8.763475"><ele>307.0</ele><time>2026-04-16T09:53:47.562Z</time></trkpt><trkpt lat="45.7293645" lon="8.7634721"><ele>307.0</ele><time>2026-04-16T09:53:48.596Z</time></trkpt><trkpt lat="45.7294506" lon="8.7634496"><ele>306.66666666666663</ele><time>2026-04-16T09:53:49.565Z</time></trkpt><trkpt lat="45.7295229" lon="8.7634355"><ele>306.3333333333333</ele><time>2026-04-16T09:53:50.563Z</time></trkpt><trkpt lat="45.7295865" lon="8.7634172"><ele>306.0</ele><time>2026-04-16T09:53:51.561Z</time></trkpt><trkpt lat="45.7296488" lon="8.7634036"><ele>305.6666666666667</ele><time>2026-04-16T09:53:52.564Z</time></trkpt><trkpt lat="45.7297374" lon="8.7633536"><ele>305.33333333333337</ele><time>2026-04-16T09:53:54.564Z</time></trkpt><trkpt lat="45.7297938" lon="8.7632978"><ele>305.0</ele><time>2026-04-16T09:53:55.571Z</time></trkpt><trkpt lat="45.7299007" lon="8.7632432"><ele>305.0</ele><time>2026-04-16T09:53:57.558Z</time></trkpt><trkpt lat="45.7300194" lon="8.7632404"><ele>305.0</ele><time>2026-04-16T09:53:59.552Z</time></trkpt><trkpt lat="45.7301792" lon="8.7632519"><ele>305.0</ele><time>2026-04-16T09:54:01.557Z</time></trkpt><trkpt lat="45.7302861" lon="8.7632437"><ele>305.0</ele><time>2026-04-16T09:54:02.564Z</time></trkpt><trkpt lat="45.7303965" lon="8.7632832"><ele>304.8</ele><time>2026-04-16T09:54:03.564Z</time></trkpt><trkpt lat="45.73049" lon="8.7632942"><ele>304.6</ele><time>2026-04-16T09:54:04.563Z</time></trkpt><trkpt lat="45.730612" lon="8.7633072"><ele>304.4</ele><time>2026-04-16T09:54:05.562Z</time></trkpt><trkpt lat="45.7307222" lon="8.7632995"><ele>304.2</ele><time>2026-04-16T09:54:06.568Z</time></trkpt><trkpt lat="45.7308137" lon="8.7632743"><ele>304.0</ele><time>2026-04-16T09:54:07.564Z</time></trkpt><trkpt lat="45.7308983" lon="8.76325"><ele>304.0</ele><time>2026-04-16T09:54:08.567Z</time></trkpt><trkpt lat="45.7309822" lon="8.7632273"><ele>304.0</ele><time>2026-04-16T09:54:09.567Z</time></trkpt><trkpt lat="45.7310531" lon="8.7631874"><ele>304.0</ele><time>2026-04-16T09:54:10.567Z</time></trkpt><trkpt lat="45.7311343" lon="8.7631626"><ele>304.0</ele><time>2026-04-16T09:54:11.567Z</time></trkpt><trkpt lat="45.7312076" lon="8.7631311"><ele>304.0</ele><time>2026-04-16T09:54:12.564Z</time></trkpt><trkpt lat="45.7312871" lon="8.7630933"><ele>304.0</ele><time>2026-04-16T09:54:13.566Z</time></trkpt><trkpt lat="45.7313819" lon="8.7630597"><ele>303.5</ele><time>2026-04-16T09:54:14.565Z</time></trkpt><trkpt lat="45.7314665" lon="8.7630176"><ele>303.0</ele><time>2026-04-16T09:54:15.566Z</time></trkpt><trkpt lat="45.7315574" lon="8.7629687"><ele>302.5</ele><time>2026-04-16T09:54:16.564Z</time></trkpt><trkpt lat="45.7316416" lon="8.7629269"><ele>302.0</ele><time>2026-04-16T09:54:17.566Z</time></trkpt><trkpt lat="45.7317196" lon="8.7629082"><ele>301.5</ele><time>2026-04-16T09:54:18.582Z</time></trkpt><trkpt lat="45.7318077" lon="8.7628711"><ele>301.0</ele><time>2026-04-16T09:54:19.56Z</time></trkpt><trkpt lat="45.7318957" lon="8.7628483"><ele>300.40000000000003</ele><time>2026-04-16T09:54:20.566Z</time></trkpt><trkpt lat="45.7319886" lon="8.7628281"><ele>299.8</ele><time>2026-04-16T09:54:21.566Z</time></trkpt><trkpt lat="45.7320937" lon="8.7628109"><ele>299.20000000000005</ele><time>2026-04-16T09:54:22.575Z</time></trkpt><trkpt lat="45.7321864" lon="8.7627779"><ele>298.6</ele><time>2026-04-16T09:54:23.565Z</time></trkpt><trkpt lat="45.7322655" lon="8.7627427"><ele>298.0</ele><time>2026-04-16T09:54:24.566Z</time></trkpt><trkpt lat="45.7323335" lon="8.7627071"><ele>296.2</ele><time>2026-04-16T09:54:25.563Z</time></trkpt><trkpt lat="45.7324488" lon="8.7626458"><ele>294.4</ele><time>2026-04-16T09:54:27.563Z</time></trkpt><trkpt lat="45.7325346" lon="8.7625762"><ele>292.59999999999997</ele><time>2026-04-16T09:54:29.575Z</time></trkpt><trkpt lat="45.7325907" lon="8.762469"><ele>290.8</ele><time>2026-04-16T09:54:31.569Z</time></trkpt><trkpt lat="45.732588" lon="8.7623233"><ele>289.0</ele><time>2026-04-16T09:54:33.574Z</time></trkpt><trkpt lat="45.7325749" lon="8.7622195"><ele>289.0</ele><time>2026-04-16T09:54:34.575Z</time></trkpt><trkpt lat="45.7325682" lon="8.7621139"><ele>289.0</ele><time>2026-04-16T09:54:35.577Z</time></trkpt><trkpt lat="45.7325749" lon="8.7619926"><ele>289.0</ele><time>2026-04-16T09:54:36.575Z</time></trkpt><trkpt lat="45.7325916" lon="8.7618563"><ele>289.0</ele><time>2026-04-16T09:54:37.575Z</time></trkpt><trkpt lat="45.7326217" lon="8.7617218"><ele>289.0</ele><time>2026-04-16T09:54:38.584Z</time></trkpt><trkpt lat="45.7326676" lon="8.7615819"><ele>288.0</ele><time>2026-04-16T09:54:39.578Z</time></trkpt><trkpt lat="45.7327282" lon="8.7614407"><ele>287.0</ele><time>2026-04-16T09:54:40.579Z</time></trkpt><trkpt lat="45.7328095" lon="8.7612995"><ele>286.0</ele><time>2026-04-16T09:54:41.567Z</time></trkpt><trkpt lat="45.7328996" lon="8.761169"><ele>285.0</ele><time>2026-04-16T09:54:42.578Z</time></trkpt><trkpt lat="45.7329899" lon="8.7610461"><ele>285.0</ele><time>2026-04-16T09:54:43.573Z</time></trkpt><trkpt lat="45.7330826" lon="8.760931"><ele>285.0</ele><time>2026-04-16T09:54:44.581Z</time></trkpt><trkpt lat="45.7331675" lon="8.7608262"><ele>285.0</ele><time>2026-04-16T09:54:45.571Z</time></trkpt><trkpt lat="45.7332446" lon="8.7607346"><ele>285.0</ele><time>2026-04-16T09:54:46.582Z</time></trkpt><trkpt lat="45.7333126" lon="8.7606321"><ele>285.0</ele><time>2026-04-16T09:54:47.576Z</time></trkpt><trkpt lat="45.7333837" lon="8.7605302"><ele>285.0</ele><time>2026-04-16T09:54:48.581Z</time></trkpt><trkpt lat="45.7334527" lon="8.7604217"><ele>285.0</ele><time>2026-04-16T09:54:49.589Z</time></trkpt><trkpt lat="45.733525" lon="8.7603076"><ele>285.0</ele><time>2026-04-16T09:54:50.58Z</time></trkpt><trkpt lat="45.733592" lon="8.7601957"><ele>285.0</ele><time>2026-04-16T09:54:51.571Z</time></trkpt><trkpt lat="45.7336479" lon="8.7600849"><ele>285.0</ele><time>2026-04-16T09:54:52.571Z</time></trkpt><trkpt lat="45.7336993" lon="8.7599799"><ele>286.4</ele><time>2026-04-16T09:54:53.558Z</time></trkpt><trkpt lat="45.7337479" lon="8.7598773"><ele>287.8</ele><time>2026-04-16T09:54:54.553Z</time></trkpt><trkpt lat="45.7337886" lon="8.7598004"><ele>289.2</ele><time>2026-04-16T09:54:55.556Z</time></trkpt><trkpt lat="45.7338241" lon="8.7596713"><ele>290.6</ele><time>2026-04-16T09:55:02.566Z</time></trkpt><trkpt lat="45.7338922" lon="8.7595133"><ele>292.0</ele><time>2026-04-16T09:55:04.567Z</time></trkpt><trkpt lat="45.7339334" lon="8.7594216"><ele>290.8</ele><time>2026-04-16T09:55:05.568Z</time></trkpt><trkpt lat="45.7339891" lon="8.7593267"><ele>289.6</ele><time>2026-04-16T09:55:06.569Z</time></trkpt><trkpt lat="45.7340632" lon="8.7592273"><ele>288.40000000000003</ele><time>2026-04-16T09:55:07.576Z</time></trkpt><trkpt lat="45.7341442" lon="8.7591085"><ele>287.2</ele><time>2026-04-16T09:55:08.573Z</time></trkpt><trkpt lat="45.7342246" lon="8.758978"><ele>286.0</ele><time>2026-04-16T09:55:09.568Z</time></trkpt><trkpt lat="45.7343017" lon="8.7588487"><ele>286.0</ele><time>2026-04-16T09:55:10.574Z</time></trkpt><trkpt lat="45.7343657" lon="8.7587161"><ele>286.0</ele><time>2026-04-16T09:55:11.572Z</time></trkpt><trkpt lat="45.7344195" lon="8.7585801"><ele>286.0</ele><time>2026-04-16T09:55:12.58Z</time></trkpt><trkpt lat="45.7344645" lon="8.7584268"><ele>286.0</ele><time>2026-04-16T09:55:13.574Z</time></trkpt><trkpt lat="45.7345054" lon="8.7582751"><ele>286.25</ele><time>2026-04-16T09:55:14.575Z</time></trkpt><trkpt lat="45.7345419" lon="8.7581081"><ele>286.5</ele><time>2026-04-16T09:55:15.572Z</time></trkpt><trkpt lat="45.7345743" lon="8.7579413"><ele>286.75</ele><time>2026-04-16T09:55:16.567Z</time></trkpt><trkpt lat="45.7346083" lon="8.7577694"><ele>287.0</ele><time>2026-04-16T09:55:17.571Z</time></trkpt><trkpt lat="45.7346446" lon="8.7576015"><ele>287.0</ele><time>2026-04-16T09:55:18.565Z</time></trkpt><trkpt lat="45.7346801" lon="8.757449"><ele>287.0</ele><time>2026-04-16T09:55:19.585Z</time></trkpt><trkpt lat="45.7347088" lon="8.7573212"><ele>287.0</ele><time>2026-04-16T09:55:20.57Z</time></trkpt><trkpt lat="45.7347344" lon="8.7572028"><ele>287.0</ele><time>2026-04-16T09:55:21.565Z</time></trkpt><trkpt lat="45.7347659" lon="8.7570879"><ele>287.0</ele><time>2026-04-16T09:55:22.571Z</time></trkpt><trkpt lat="45.7347942" lon="8.7569741"><ele>289.1666666666667</ele><time>2026-04-16T09:55:23.566Z</time></trkpt><trkpt lat="45.7348234" lon="8.7568585"><ele>291.33333333333337</ele><time>2026-04-16T09:55:24.563Z</time></trkpt><trkpt lat="45.7348563" lon="8.7567556"><ele>293.5</ele><time>2026-04-16T09:55:25.571Z</time></trkpt><trkpt lat="45.7348911" lon="8.7566552"><ele>295.6666666666667</ele><time>2026-04-16T09:55:26.578Z</time></trkpt><trkpt lat="45.7349254" lon="8.7565661"><ele>297.8333333333333</ele><time>2026-04-16T09:55:27.57Z</time></trkpt><trkpt lat="45.7349825" lon="8.7565118"><ele>300.0</ele><time>2026-04-16T09:55:29.575Z</time></trkpt><trkpt lat="45.7350584" lon="8.756598"><ele>300.0</ele><time>2026-04-16T09:55:31.583Z</time></trkpt><trkpt lat="45.735098" lon="8.7566684"><ele>300.0</ele><time>2026-04-16T09:55:32.582Z</time></trkpt><trkpt lat="45.7351336" lon="8.7567509"><ele>300.0</ele><time>2026-04-16T09:55:33.583Z</time></trkpt><trkpt lat="45.7351776" lon="8.7568363"><ele>300.0</ele><time>2026-04-16T09:55:34.581Z</time></trkpt><trkpt lat="45.7352143" lon="8.7569136"><ele>300.0</ele><time>2026-04-16T09:55:35.583Z</time></trkpt><trkpt lat="45.7352894" lon="8.7570394"><ele>300.0</ele><time>2026-04-16T09:55:37.581Z</time></trkpt><trkpt lat="45.7353645" lon="8.7571741"><ele>297.0</ele><time>2026-04-16T09:55:39.578Z</time></trkpt><trkpt lat="45.7354205" lon="8.757342"><ele>294.0</ele><time>2026-04-16T09:55:41.57Z</time></trkpt><trkpt lat="45.7354532" lon="8.7574461"><ele>291.0</ele><time>2026-04-16T09:55:42.576Z</time></trkpt><trkpt lat="45.7354887" lon="8.757567"><ele>288.0</ele><time>2026-04-16T09:55:43.574Z</time></trkpt><trkpt lat="45.7355141" lon="8.7576886"><ele>285.0</ele><time>2026-04-16T09:55:44.571Z</time></trkpt><trkpt lat="45.7355431" lon="8.7578208"><ele>285.0</ele><time>2026-04-16T09:55:45.572Z</time></trkpt><trkpt lat="45.7355691" lon="8.7579339"><ele>285.0</ele><time>2026-04-16T09:55:46.577Z</time></trkpt><trkpt lat="45.7355984" lon="8.7580449"><ele>285.0</ele><time>2026-04-16T09:55:47.577Z</time></trkpt><trkpt lat="45.735637" lon="8.7581176"><ele>285.0</ele><time>2026-04-16T09:55:48.581Z</time></trkpt><trkpt lat="45.7357585" lon="8.7581852"><ele>285.0</ele><time>2026-04-16T09:55:50.598Z</time></trkpt><trkpt lat="45.7358236" lon="8.7582017"><ele>285.0</ele><time>2026-04-16T09:55:51.57Z</time></trkpt><trkpt lat="45.735896" lon="8.7582235"><ele>285.0</ele><time>2026-04-16T09:55:52.581Z</time></trkpt><trkpt lat="45.7359707" lon="8.7582454"><ele>285.0</ele><time>2026-04-16T09:55:53.571Z</time></trkpt><trkpt lat="45.7360443" lon="8.7582759"><ele>285.0</ele><time>2026-04-16T09:55:54.577Z</time></trkpt><trkpt lat="45.7361153" lon="8.7583074"><ele>285.0</ele><time>2026-04-16T09:55:55.573Z</time></trkpt><trkpt lat="45.7361823" lon="8.7583415"><ele>285.0</ele><time>2026-04-16T09:55:56.573Z</time></trkpt><trkpt lat="45.7362437" lon="8.7583705"><ele>285.0</ele><time>2026-04-16T09:55:57.571Z</time></trkpt><trkpt lat="45.7363381" lon="8.7584402"><ele>284.6</ele><time>2026-04-16T09:55:59.572Z</time></trkpt><trkpt lat="45.736387" lon="8.7585208"><ele>284.2</ele><time>2026-04-16T09:56:01.561Z</time></trkpt><trkpt lat="45.7364137" lon="8.7586638"><ele>283.8</ele><time>2026-04-16T09:56:03.566Z</time></trkpt><trkpt lat="45.7363878" lon="8.7588659"><ele>283.4</ele><time>2026-04-16T09:56:05.564Z</time></trkpt><trkpt lat="45.7363676" lon="8.7589851"><ele>283.0</ele><time>2026-04-16T09:56:06.564Z</time></trkpt><trkpt lat="45.7363525" lon="8.7590986"><ele>284.5</ele><time>2026-04-16T09:56:07.561Z</time></trkpt><trkpt lat="45.7363449" lon="8.759195"><ele>286.0</ele><time>2026-04-16T09:56:08.557Z</time></trkpt><trkpt lat="45.7363662" lon="8.7593226"><ele>287.5</ele><time>2026-04-16T09:56:10.565Z</time></trkpt><trkpt lat="45.7364512" lon="8.759443"><ele>289.0</ele><time>2026-04-16T09:56:12.568Z</time></trkpt><trkpt lat="45.7365055" lon="8.7595037"><ele>290.5</ele><time>2026-04-16T09:56:13.565Z</time></trkpt><trkpt lat="45.7365554" lon="8.7595623"><ele>292.0</ele><time>2026-04-16T09:56:14.57Z</time></trkpt><trkpt lat="45.7366344" lon="8.759665"><ele>292.8333333333333</ele><time>2026-04-16T09:56:16.565Z</time></trkpt><trkpt lat="45.7367015" lon="8.7597554"><ele>293.66666666666663</ele><time>2026-04-16T09:56:18.57Z</time></trkpt><trkpt lat="45.7367575" lon="8.7598138"><ele>294.5</ele><time>2026-04-16T09:56:20.575Z</time></trkpt><trkpt lat="45.7368378" lon="8.7597884"><ele>295.3333333333333</ele><time>2026-04-16T09:56:28.571Z</time></trkpt><trkpt lat="45.7369305" lon="8.7598175"><ele>296.1666666666667</ele><time>2026-04-16T09:56:30.559Z</time></trkpt><trkpt lat="45.7370306" lon="8.7598245"><ele>297.0</ele><time>2026-04-16T09:56:32.567Z</time></trkpt><trkpt lat="45.7371573" lon="8.7598591"><ele>297.0</ele><time>2026-04-16T09:56:34.56Z</time></trkpt><trkpt lat="45.7372269" lon="8.7598806"><ele>297.0</ele><time>2026-04-16T09:56:35.562Z</time></trkpt><trkpt lat="45.7372916" lon="8.75991"><ele>297.0</ele><time>2026-04-16T09:56:36.564Z</time></trkpt><trkpt lat="45.7373511" lon="8.7599552"><ele>297.0</ele><time>2026-04-16T09:56:37.564Z</time></trkpt><trkpt lat="45.7374001" lon="8.7600149"><ele>297.0</ele><time>2026-04-16T09:56:38.561Z</time></trkpt><trkpt lat="45.7374714" lon="8.7601437"><ele>297.0</ele><time>2026-04-16T09:56:40.559Z</time></trkpt><trkpt lat="45.7375246" lon="8.760267"><ele>297.2</ele><time>2026-04-16T09:56:42.563Z</time></trkpt><trkpt lat="45.7376063" lon="8.7603651"><ele>297.4</ele><time>2026-04-16T09:57:09.558Z</time></trkpt><trkpt lat="45.7376463" lon="8.7604357"><ele>297.6</ele><time>2026-04-16T09:57:10.557Z</time></trkpt><trkpt lat="45.737704" lon="8.7605189"><ele>297.8</ele><time>2026-04-16T09:57:11.551Z</time></trkpt><trkpt lat="45.737766" lon="8.7606347"><ele>298.0</ele><time>2026-04-16T09:57:12.552Z</time></trkpt><trkpt lat="45.7378212" lon="8.7607751"><ele>297.8333333333333</ele><time>2026-04-16T09:57:13.548Z</time></trkpt><trkpt lat="45.7378735" lon="8.7609227"><ele>297.66666666666663</ele><time>2026-04-16T09:57:14.547Z</time></trkpt><trkpt lat="45.737908" lon="8.7610631"><ele>297.5</ele><time>2026-04-16T09:57:15.55Z</time></trkpt><trkpt lat="45.7379281" lon="8.7611815"><ele>297.3333333333333</ele><time>2026-04-16T09:57:16.554Z</time></trkpt><trkpt lat="45.737932" lon="8.7612834"><ele>297.1666666666667</ele><time>2026-04-16T09:57:17.552Z</time></trkpt><trkpt lat="45.7379244" lon="8.7613788"><ele>297.0</ele><time>2026-04-16T09:57:18.553Z</time></trkpt><trkpt lat="45.7378929" lon="8.7615294"><ele>297.0</ele><time>2026-04-16T09:57:20.56Z</time></trkpt><trkpt lat="45.7378743" lon="8.7616687"><ele>297.0</ele><time>2026-04-16T09:57:22.579Z</time></trkpt><trkpt lat="45.7378311" lon="8.7617587"><ele>297.0</ele><time>2026-04-16T09:57:24.565Z</time></trkpt><trkpt lat="45.7377631" lon="8.7618361"><ele>297.0</ele><time>2026-04-16T09:57:26.57Z</time></trkpt><trkpt lat="45.7377217" lon="8.7619223"><ele>297.0</ele><time>2026-04-16T09:57:28.566Z</time></trkpt><trkpt lat="45.7376932" lon="8.7620394"><ele>297.0</ele><time>2026-04-16T09:57:31.563Z</time></trkpt><trkpt lat="45.7377141" lon="8.7621908"><ele>296.6666666666667</ele><time>2026-04-16T09:57:33.561Z</time></trkpt><trkpt lat="45.7377858" lon="8.762325"><ele>296.3333333333333</ele><time>2026-04-16T09:57:35.565Z</time></trkpt><trkpt lat="45.7378282" lon="8.7623963"><ele>296.0</ele><time>2026-04-16T09:57:36.568Z</time></trkpt><trkpt lat="45.7378757" lon="8.7624879"><ele>295.66666666666663</ele><time>2026-04-16T09:57:37.565Z</time></trkpt><trkpt lat="45.7379315" lon="8.7625836"><ele>295.3333333333333</ele><time>2026-04-16T09:57:38.568Z</time></trkpt><trkpt lat="45.7379922" lon="8.762676"><ele>295.0</ele><time>2026-04-16T09:57:39.561Z</time></trkpt><trkpt lat="45.7380564" lon="8.762784"><ele>294.8333333333333</ele><time>2026-04-16T09:57:40.566Z</time></trkpt><trkpt lat="45.7381153" lon="8.7628976"><ele>294.66666666666663</ele><time>2026-04-16T09:57:41.561Z</time></trkpt><trkpt lat="45.7381727" lon="8.7629983"><ele>294.5</ele><time>2026-04-16T09:57:42.568Z</time></trkpt><trkpt lat="45.7382381" lon="8.7630916"><ele>294.3333333333333</ele><time>2026-04-16T09:57:43.562Z</time></trkpt><trkpt lat="45.7383087" lon="8.7631791"><ele>294.1666666666667</ele><time>2026-04-16T09:57:44.566Z</time></trkpt><trkpt lat="45.7383635" lon="8.7632376"><ele>294.0</ele><time>2026-04-16T09:57:45.562Z</time></trkpt><trkpt lat="45.7384677" lon="8.763312"><ele>294.2</ele><time>2026-04-16T09:57:47.562Z</time></trkpt><trkpt lat="45.7385949" lon="8.7633466"><ele>294.4</ele><time>2026-04-16T09:57:49.56Z</time></trkpt><trkpt lat="45.7386658" lon="8.7633072"><ele>294.6</ele><time>2026-04-16T09:57:50.562Z</time></trkpt><trkpt lat="45.7387363" lon="8.7632383"><ele>294.8</ele><time>2026-04-16T09:57:51.552Z</time></trkpt><trkpt lat="45.7388001" lon="8.7631677"><ele>295.0</ele><time>2026-04-16T09:57:52.556Z</time></trkpt><trkpt lat="45.7388614" lon="8.763082"><ele>295.0</ele><time>2026-04-16T09:57:53.588Z</time></trkpt><trkpt lat="45.7389131" lon="8.7629801"><ele>295.0</ele><time>2026-04-16T09:57:54.556Z</time></trkpt><trkpt lat="45.7389701" lon="8.7628531"><ele>295.0</ele><time>2026-04-16T09:57:55.56Z</time></trkpt><trkpt lat="45.7390276" lon="8.7627111"><ele>295.0</ele><time>2026-04-16T09:57:56.558Z</time></trkpt><trkpt lat="45.7390904" lon="8.7625887"><ele>295.0</ele><time>2026-04-16T09:57:57.564Z</time></trkpt><trkpt lat="45.7391525" lon="8.7624688"><ele>295.16666666666663</ele><time>2026-04-16T09:57:58.569Z</time></trkpt><trkpt lat="45.7392136" lon="8.7623633"><ele>295.3333333333333</ele><time>2026-04-16T09:57:59.567Z</time></trkpt><trkpt lat="45.7392683" lon="8.7622817"><ele>295.5</ele><time>2026-04-16T09:58:00.576Z</time></trkpt><trkpt lat="45.7393222" lon="8.7621926"><ele>295.6666666666667</ele><time>2026-04-16T09:58:01.576Z</time></trkpt><trkpt lat="45.7393644" lon="8.7621076"><ele>295.83333333333337</ele><time>2026-04-16T09:58:02.566Z</time></trkpt><trkpt lat="45.7394172" lon="8.7619817"><ele>296.0</ele><time>2026-04-16T09:58:04.574Z</time></trkpt><trkpt lat="45.7394674" lon="8.7619016"><ele>296.0</ele><time>2026-04-16T09:58:06.578Z</time></trkpt><trkpt lat="45.7395394" lon="8.761921"><ele>296.0</ele><time>2026-04-16T09:58:08.574Z</time></trkpt><trkpt lat="45.7396039" lon="8.7619696"><ele>296.0</ele><time>2026-04-16T09:58:10.574Z</time></trkpt><trkpt lat="45.7396846" lon="8.7620655"><ele>296.0</ele><time>2026-04-16T09:58:12.573Z</time></trkpt><trkpt lat="45.7397559" lon="8.7621388"><ele>296.0</ele><time>2026-04-16T09:58:14.584Z</time></trkpt><trkpt lat="45.7398089" lon="8.7622518"><ele>296.0</ele><time>2026-04-16T09:58:17.581Z</time></trkpt><trkpt lat="45.7398585" lon="8.7623248"><ele>296.0</ele><time>2026-04-16T09:58:19.588Z</time></trkpt><trkpt lat="45.7399014" lon="8.762399"><ele>296.0</ele><time>2026-04-16T09:58:21.583Z</time></trkpt><trkpt lat="45.7399641" lon="8.7624924"><ele>296.0</ele><time>2026-04-16T09:58:23.599Z</time></trkpt><trkpt lat="45.7400271" lon="8.7625868"><ele>296.0</ele><time>2026-04-16T09:58:25.577Z</time></trkpt><trkpt lat="45.740116" lon="8.7626931"><ele>296.0</ele><time>2026-04-16T09:58:27.575Z</time></trkpt><trkpt lat="45.7401704" lon="8.7627671"><ele>296.0</ele><time>2026-04-16T09:58:28.575Z</time></trkpt><trkpt lat="45.7402309" lon="8.7628453"><ele>295.40000000000003</ele><time>2026-04-16T09:58:29.576Z</time></trkpt><trkpt lat="45.7403033" lon="8.7629307"><ele>294.8</ele><time>2026-04-16T09:58:30.574Z</time></trkpt><trkpt lat="45.7403805" lon="8.7630142"><ele>294.20000000000005</ele><time>2026-04-16T09:58:31.577Z</time></trkpt><trkpt lat="45.7404586" lon="8.7630894"><ele>293.6</ele><time>2026-04-16T09:58:32.58Z</time></trkpt><trkpt lat="45.7405407" lon="8.7631657"><ele>293.0</ele><time>2026-04-16T09:58:33.576Z</time></trkpt><trkpt lat="45.7406292" lon="8.7632327"><ele>293.0</ele><time>2026-04-16T09:58:34.57Z</time></trkpt><trkpt lat="45.7407152" lon="8.7632988"><ele>293.0</ele><time>2026-04-16T09:58:35.575Z</time></trkpt><trkpt lat="45.7407908" lon="8.7633723"><ele>293.0</ele><time>2026-04-16T09:58:36.575Z</time></trkpt><trkpt lat="45.740867" lon="8.7634502"><ele>293.0</ele><time>2026-04-16T09:58:37.576Z</time></trkpt><trkpt lat="45.7409379" lon="8.7635304"><ele>293.0</ele><time>2026-04-16T09:58:38.575Z</time></trkpt><trkpt lat="45.741012" lon="8.7636078"><ele>292.6666666666667</ele><time>2026-04-16T09:58:39.568Z</time></trkpt><trkpt lat="45.7410765" lon="8.7636841"><ele>292.33333333333337</ele><time>2026-04-16T09:58:40.566Z</time></trkpt><trkpt lat="45.7411336" lon="8.7637562"><ele>292.0</ele><time>2026-04-16T09:58:41.571Z</time></trkpt><trkpt lat="45.7411829" lon="8.7638288"><ele>291.6666666666667</ele><time>2026-04-16T09:58:42.572Z</time></trkpt><trkpt lat="45.7412257" lon="8.7639013"><ele>291.3333333333333</ele><time>2026-04-16T09:58:43.572Z</time></trkpt><trkpt lat="45.7413045" lon="8.7640147"><ele>291.0</ele><time>2026-04-16T09:58:45.564Z</time></trkpt><trkpt lat="45.7413676" lon="8.7640155"><ele>291.0</ele><time>2026-04-16T09:58:47.571Z</time></trkpt><trkpt lat="45.7414076" lon="8.7638986"><ele>291.0</ele><time>2026-04-16T09:58:49.57Z</time></trkpt><trkpt lat="45.7414172" lon="8.7637876"><ele>291.0</ele><time>2026-04-16T09:58:50.57Z</time></trkpt><trkpt lat="45.741428" lon="8.7636542"><ele>291.0</ele><time>2026-04-16T09:58:51.573Z</time></trkpt><trkpt lat="45.7414338" lon="8.7634779"><ele>291.0</ele><time>2026-04-16T09:58:52.577Z</time></trkpt><trkpt lat="45.7414605" lon="8.7632736"><ele>291.3333333333333</ele><time>2026-04-16T09:58:53.583Z</time></trkpt><trkpt lat="45.7415177" lon="8.7630599"><ele>291.66666666666663</ele><time>2026-04-16T09:58:54.593Z</time></trkpt><trkpt lat="45.7415943" lon="8.7628565"><ele>292.0</ele><time>2026-04-16T09:58:55.579Z</time></trkpt><trkpt lat="45.7416813" lon="8.7626234"><ele>292.0</ele><time>2026-04-16T09:58:56.584Z</time></trkpt><trkpt lat="45.7417706" lon="8.7623894"><ele>292.0</ele><time>2026-04-16T09:58:57.577Z</time></trkpt><trkpt lat="45.7418541" lon="8.7621484"><ele>292.0</ele><time>2026-04-16T09:58:58.579Z</time></trkpt><trkpt lat="45.7419327" lon="8.7619222"><ele>291.66666666666663</ele><time>2026-04-16T09:58:59.572Z</time></trkpt><trkpt lat="45.742011" lon="8.7617099"><ele>291.3333333333333</ele><time>2026-04-16T09:59:00.571Z</time></trkpt><trkpt lat="45.742093" lon="8.7614934"><ele>291.0</ele><time>2026-04-16T09:59:01.569Z</time></trkpt><trkpt lat="45.7421559" lon="8.7612782"><ele>291.0</ele><time>2026-04-16T09:59:02.575Z</time></trkpt><trkpt lat="45.7422246" lon="8.7611012"><ele>291.0</ele><time>2026-04-16T09:59:03.575Z</time></trkpt><trkpt lat="45.7422948" lon="8.7609351"><ele>291.0</ele><time>2026-04-16T09:59:04.591Z</time></trkpt><trkpt lat="45.7423687" lon="8.760781"><ele>291.0</ele><time>2026-04-16T09:59:05.595Z</time></trkpt><trkpt lat="45.7424466" lon="8.7606226"><ele>291.0</ele><time>2026-04-16T09:59:06.595Z</time></trkpt><trkpt lat="45.7425311" lon="8.7604525"><ele>291.0</ele><time>2026-04-16T09:59:07.598Z</time></trkpt><trkpt lat="45.7426115" lon="8.7602788"><ele>291.0</ele><time>2026-04-16T09:59:08.593Z</time></trkpt><trkpt lat="45.742681" lon="8.7601257"><ele>291.0</ele><time>2026-04-16T09:59:09.582Z</time></trkpt><trkpt lat="45.7427477" lon="8.7599838"><ele>291.0</ele><time>2026-04-16T09:59:10.594Z</time></trkpt><trkpt lat="45.7428046" lon="8.7598564"><ele>291.0</ele><time>2026-04-16T09:59:11.59Z</time></trkpt><trkpt lat="45.7428496" lon="8.7597484"><ele>291.0</ele><time>2026-04-16T09:59:12.589Z</time></trkpt><trkpt lat="45.7428923" lon="8.7596001"><ele>291.0</ele><time>2026-04-16T09:59:14.59Z</time></trkpt><trkpt lat="45.7428414" lon="8.7595224"><ele>291.0</ele><time>2026-04-16T09:59:16.587Z</time></trkpt><trkpt lat="45.7427569" lon="8.7594958"><ele>291.0</ele><time>2026-04-16T09:59:18.59Z</time></trkpt><trkpt lat="45.7426952" lon="8.7595555"><ele>291.0</ele><time>2026-04-16T09:59:25.614Z</time></trkpt><trkpt lat="45.7427324" lon="8.7596835"><ele>291.0</ele><time>2026-04-16T09:59:31.586Z</time></trkpt><trkpt lat="45.7427867" lon="8.7597619"><ele>291.0</ele><time>2026-04-16T09:59:32.588Z</time></trkpt><trkpt lat="45.7428563" lon="8.7598599"><ele>291.0</ele><time>2026-04-16T09:59:33.579Z</time></trkpt><trkpt lat="45.7429265" lon="8.7599508"><ele>291.0</ele><time>2026-04-16T09:59:34.58Z</time></trkpt><trkpt lat="45.7430318" lon="8.7600031"><ele>291.0</ele><time>2026-04-16T09:59:35.583Z</time></trkpt><trkpt lat="45.7431545" lon="8.7600468"><ele>291.0</ele><time>2026-04-16T09:59:36.585Z</time></trkpt><trkpt lat="45.7432762" lon="8.7601129"><ele>291.0</ele><time>2026-04-16T09:59:37.586Z</time></trkpt><trkpt lat="45.7433862" lon="8.7602071"><ele>291.0</ele><time>2026-04-16T09:59:38.599Z</time></trkpt><trkpt lat="45.7434942" lon="8.7603076"><ele>291.75</ele><time>2026-04-16T09:59:39.595Z</time></trkpt><trkpt lat="45.7435929" lon="8.760407"><ele>292.5</ele><time>2026-04-16T09:59:40.594Z</time></trkpt><trkpt lat="45.7436933" lon="8.7605007"><ele>293.25</ele><time>2026-04-16T09:59:41.591Z</time></trkpt><trkpt lat="45.7437922" lon="8.7605874"><ele>294.0</ele><time>2026-04-16T09:59:42.594Z</time></trkpt><trkpt lat="45.7438931" lon="8.7606767"><ele>294.0</ele><time>2026-04-16T09:59:43.595Z</time></trkpt><trkpt lat="45.7439912" lon="8.7607714"><ele>294.0</ele><time>2026-04-16T09:59:44.594Z</time></trkpt><trkpt lat="45.7440853" lon="8.7608651"><ele>294.0</ele><time>2026-04-16T09:59:45.593Z</time></trkpt><trkpt lat="45.7441782" lon="8.7609542"><ele>294.0</ele><time>2026-04-16T09:59:46.595Z</time></trkpt><trkpt lat="45.7442717" lon="8.7610485"><ele>294.0</ele><time>2026-04-16T09:59:47.591Z</time></trkpt><trkpt lat="45.7443615" lon="8.7611489"><ele>294.0</ele><time>2026-04-16T09:59:48.6Z</time></trkpt><trkpt lat="45.7444572" lon="8.7612462"><ele>294.0</ele><time>2026-04-16T09:59:49.591Z</time></trkpt><trkpt lat="45.7445498" lon="8.7613474"><ele>294.0</ele><time>2026-04-16T09:59:50.596Z</time></trkpt><trkpt lat="45.7446376" lon="8.7614475"><ele>293.8</ele><time>2026-04-16T09:59:51.597Z</time></trkpt><trkpt lat="45.7447225" lon="8.7615461"><ele>293.59999999999997</ele><time>2026-04-16T09:59:52.592Z</time></trkpt><trkpt lat="45.7448095" lon="8.7616486"><ele>293.4</ele><time>2026-04-16T09:59:53.591Z</time></trkpt><trkpt lat="45.7448898" lon="8.7617553"><ele>293.2</ele><time>2026-04-16T09:59:54.586Z</time></trkpt><trkpt lat="45.7449797" lon="8.7618598"><ele>293.0</ele><time>2026-04-16T09:59:55.576Z</time></trkpt><trkpt lat="45.7450672" lon="8.7619618"><ele>293.0</ele><time>2026-04-16T09:59:56.596Z</time></trkpt><trkpt lat="45.7451474" lon="8.7620588"><ele>293.0</ele><time>2026-04-16T09:59:57.584Z</time></trkpt><trkpt lat="45.7452196" lon="8.7621511"><ele>293.0</ele><time>2026-04-16T09:59:58.59Z</time></trkpt><trkpt lat="45.7452825" lon="8.7622388"><ele>293.0</ele><time>2026-04-16T09:59:59.587Z</time></trkpt><trkpt lat="45.7453438" lon="8.7623253"><ele>293.0</ele><time>2026-04-16T10:00:00.586Z</time></trkpt><trkpt lat="45.7454056" lon="8.7624"><ele>293.0</ele><time>2026-04-16T10:00:01.586Z</time></trkpt><trkpt lat="45.7454768" lon="8.7624729"><ele>293.0</ele><time>2026-04-16T10:00:02.594Z</time></trkpt><trkpt lat="45.7455552" lon="8.7625288"><ele>293.0</ele><time>2026-04-16T10:00:03.592Z</time></trkpt><trkpt lat="45.7456379" lon="8.7625851"><ele>293.0</ele><time>2026-04-16T10:00:04.6Z</time></trkpt><trkpt lat="45.7457337" lon="8.7626595"><ele>293.0</ele><time>2026-04-16T10:00:05.591Z</time></trkpt><trkpt lat="45.745833" lon="8.7627325"><ele>293.0</ele><time>2026-04-16T10:00:06.591Z</time></trkpt><trkpt lat="45.745947" lon="8.7628149"><ele>293.0</ele><time>2026-04-16T10:00:07.588Z</time></trkpt><trkpt lat="45.746074" lon="8.7629145"><ele>293.0</ele><time>2026-04-16T10:00:08.592Z</time></trkpt><trkpt lat="45.7462017" lon="8.7630009"><ele>293.0</ele><time>2026-04-16T10:00:09.588Z</time></trkpt><trkpt lat="45.7463293" lon="8.7630822"><ele>293.0</ele><time>2026-04-16T10:00:10.586Z</time></trkpt><trkpt lat="45.746451" lon="8.7631642"><ele>293.0</ele><time>2026-04-16T10:00:11.58Z</time></trkpt><trkpt lat="45.7465588" lon="8.7632385"><ele>293.0</ele><time>2026-04-16T10:00:12.595Z</time></trkpt><trkpt lat="45.7466375" lon="8.7632892"><ele>293.0</ele><time>2026-04-16T10:00:13.592Z</time></trkpt><trkpt lat="45.7467299" lon="8.7633069"><ele>293.0</ele><time>2026-04-16T10:00:15.578Z</time></trkpt><trkpt lat="45.746807" lon="8.7632418"><ele>293.0</ele><time>2026-04-16T10:00:17.582Z</time></trkpt><trkpt lat="45.7468499" lon="8.7630321"><ele>293.0</ele><time>2026-04-16T10:00:19.574Z</time></trkpt><trkpt lat="45.7468763" lon="8.7628352"><ele>293.0</ele><time>2026-04-16T10:00:20.574Z</time></trkpt><trkpt lat="45.7469043" lon="8.7626199"><ele>293.0</ele><time>2026-04-16T10:00:21.583Z</time></trkpt><trkpt lat="45.7469354" lon="8.7623861"><ele>293.33333333333337</ele><time>2026-04-16T10:00:22.58Z</time></trkpt><trkpt lat="45.7469812" lon="8.7621549"><ele>293.6666666666667</ele><time>2026-04-16T10:00:23.574Z</time></trkpt><trkpt lat="45.747037" lon="8.7619467"><ele>294.0</ele><time>2026-04-16T10:00:24.583Z</time></trkpt><trkpt lat="45.747092" lon="8.7617742"><ele>293.25</ele><time>2026-04-16T10:00:25.58Z</time></trkpt><trkpt lat="45.7471499" lon="8.7616187"><ele>292.5</ele><time>2026-04-16T10:00:26.585Z</time></trkpt><trkpt lat="45.747205" lon="8.7614611"><ele>291.75</ele><time>2026-04-16T10:00:27.598Z</time></trkpt><trkpt lat="45.7472611" lon="8.7613132"><ele>291.0</ele><time>2026-04-16T10:00:28.586Z</time></trkpt><trkpt lat="45.747317" lon="8.7611757"><ele>291.0</ele><time>2026-04-16T10:00:29.581Z</time></trkpt><trkpt lat="45.7473683" lon="8.7610511"><ele>291.0</ele><time>2026-04-16T10:00:30.579Z</time></trkpt><trkpt lat="45.7474082" lon="8.7609341"><ele>291.0</ele><time>2026-04-16T10:00:31.587Z</time></trkpt><trkpt lat="45.7474349" lon="8.7608327"><ele>291.0</ele><time>2026-04-16T10:00:32.585Z</time></trkpt><trkpt lat="45.7474573" lon="8.7607078"><ele>291.0</ele><time>2026-04-16T10:00:34.584Z</time></trkpt><trkpt lat="45.7474724" lon="8.7605236"><ele>291.6</ele><time>2026-04-16T10:00:43.592Z</time></trkpt><trkpt lat="45.7474907" lon="8.7604068"><ele>292.20000000000005</ele><time>2026-04-16T10:00:44.598Z</time></trkpt><trkpt lat="45.7474963" lon="8.7602756"><ele>292.79999999999995</ele><time>2026-04-16T10:00:45.582Z</time></trkpt><trkpt lat="45.7474971" lon="8.7601522"><ele>293.4</ele><time>2026-04-16T10:00:46.575Z</time></trkpt><trkpt lat="45.7474873" lon="8.760009"><ele>294.0</ele><time>2026-04-16T10:00:47.578Z</time></trkpt><trkpt lat="45.7474647" lon="8.7598469"><ele>294.75</ele><time>2026-04-16T10:00:48.579Z</time></trkpt><trkpt lat="45.7474392" lon="8.7596673"><ele>295.5</ele><time>2026-04-16T10:00:49.578Z</time></trkpt><trkpt lat="45.7474048" lon="8.7594737"><ele>296.25</ele><time>2026-04-16T10:00:50.576Z</time></trkpt><trkpt lat="45.7473675" lon="8.7592827"><ele>297.0</ele><time>2026-04-16T10:00:51.576Z</time></trkpt><trkpt lat="45.7473233" lon="8.7590582"><ele>298.3333333333333</ele><time>2026-04-16T10:00:52.575Z</time></trkpt><trkpt lat="45.7472773" lon="8.758823"><ele>299.66666666666663</ele><time>2026-04-16T10:00:53.581Z</time></trkpt><trkpt lat="45.7472337" lon="8.7585941"><ele>301.0</ele><time>2026-04-16T10:00:54.573Z</time></trkpt><trkpt lat="45.7471867" lon="8.7583621"><ele>303.0</ele><time>2026-04-16T10:00:55.575Z</time></trkpt><trkpt lat="45.7471453" lon="8.7581535"><ele>305.0</ele><time>2026-04-16T10:00:56.58Z</time></trkpt><trkpt lat="45.747091" lon="8.7579602"><ele>307.0</ele><time>2026-04-16T10:00:57.572Z</time></trkpt><trkpt lat="45.7470197" lon="8.7577767"><ele>309.0</ele><time>2026-04-16T10:00:58.589Z</time></trkpt><trkpt lat="45.7469385" lon="8.7575997"><ele>310.25</ele><time>2026-04-16T10:00:59.563Z</time></trkpt><trkpt lat="45.7468412" lon="8.7574216"><ele>311.5</ele><time>2026-04-16T10:01:00.565Z</time></trkpt><trkpt lat="45.7467476" lon="8.7572648"><ele>312.75</ele><time>2026-04-16T10:01:01.563Z</time></trkpt><trkpt lat="45.7466524" lon="8.7571172"><ele>314.0</ele><time>2026-04-16T10:01:02.559Z</time></trkpt><trkpt lat="45.7465803" lon="8.7569808"><ele>314.2</ele><time>2026-04-16T10:01:03.559Z</time></trkpt><trkpt lat="45.7465168" lon="8.7568503"><ele>314.4</ele><time>2026-04-16T10:01:04.552Z</time></trkpt><trkpt lat="45.7464684" lon="8.7567135"><ele>314.6</ele><time>2026-04-16T10:01:05.559Z</time></trkpt><trkpt lat="45.7464349" lon="8.756564"><ele>314.8</ele><time>2026-04-16T10:01:06.557Z</time></trkpt><trkpt lat="45.7464187" lon="8.7564087"><ele>315.0</ele><time>2026-04-16T10:01:07.551Z</time></trkpt><trkpt lat="45.7464129" lon="8.7562454"><ele>315.0</ele><time>2026-04-16T10:01:08.556Z</time></trkpt><trkpt lat="45.7464119" lon="8.7560667"><ele>315.0</ele><time>2026-04-16T10:01:09.554Z</time></trkpt><trkpt lat="45.7464273" lon="8.7558741"><ele>315.0</ele><time>2026-04-16T10:01:10.558Z</time></trkpt><trkpt lat="45.7464437" lon="8.7556868"><ele>315.0</ele><time>2026-04-16T10:01:11.563Z</time></trkpt><trkpt lat="45.7464519" lon="8.7555128"><ele>314.0</ele><time>2026-04-16T10:01:12.567Z</time></trkpt><trkpt lat="45.7464503" lon="8.7553506"><ele>313.0</ele><time>2026-04-16T10:01:13.56Z</time></trkpt><trkpt lat="45.7464301" lon="8.7551832"><ele>312.0</ele><time>2026-04-16T10:01:14.567Z</time></trkpt><trkpt lat="45.7464101" lon="8.7550197"><ele>311.0</ele><time>2026-04-16T10:01:15.568Z</time></trkpt><trkpt lat="45.7463921" lon="8.7548708"><ele>309.2</ele><time>2026-04-16T10:01:16.566Z</time></trkpt><trkpt lat="45.7463809" lon="8.7547198"><ele>307.40000000000003</ele><time>2026-04-16T10:01:17.557Z</time></trkpt><trkpt lat="45.7464011" lon="8.7545883"><ele>305.6</ele><time>2026-04-16T10:01:18.564Z</time></trkpt><trkpt lat="45.7464243" lon="8.7544603"><ele>303.8</ele><time>2026-04-16T10:01:19.556Z</time></trkpt><trkpt lat="45.746457" lon="8.7543311"><ele>302.0</ele><time>2026-04-16T10:01:20.55Z</time></trkpt><trkpt lat="45.7464935" lon="8.7542016"><ele>300.83333333333337</ele><time>2026-04-16T10:01:21.551Z</time></trkpt><trkpt lat="45.7465466" lon="8.7541038"><ele>299.6666666666667</ele><time>2026-04-16T10:01:22.56Z</time></trkpt><trkpt lat="45.7465963" lon="8.7540094"><ele>298.5</ele><time>2026-04-16T10:01:23.564Z</time></trkpt><trkpt lat="45.7466404" lon="8.7539226"><ele>297.3333333333333</ele><time>2026-04-16T10:01:24.565Z</time></trkpt><trkpt lat="45.7466812" lon="8.7538483"><ele>296.16666666666663</ele><time>2026-04-16T10:01:25.563Z</time></trkpt><trkpt lat="45.746752" lon="8.7537174"><ele>295.0</ele><time>2026-04-16T10:01:27.592Z</time></trkpt><trkpt lat="45.7467771" lon="8.7536337"><ele>294.2</ele><time>2026-04-16T10:01:28.591Z</time></trkpt><trkpt lat="45.746792" lon="8.753524"><ele>293.4</ele><time>2026-04-16T10:01:29.598Z</time></trkpt><trkpt lat="45.7468182" lon="8.7534052"><ele>292.6</ele><time>2026-04-16T10:01:30.586Z</time></trkpt><trkpt lat="45.7468604" lon="8.7532756"><ele>291.8</ele><time>2026-04-16T10:01:31.58Z</time></trkpt><trkpt lat="45.7469054" lon="8.7531416"><ele>291.0</ele><time>2026-04-16T10:01:32.584Z</time></trkpt><trkpt lat="45.7469483" lon="8.753012"><ele>290.8</ele><time>2026-04-16T10:01:33.58Z</time></trkpt><trkpt lat="45.7469891" lon="8.7528763"><ele>290.6</ele><time>2026-04-16T10:01:34.58Z</time></trkpt><trkpt lat="45.7470292" lon="8.7527462"><ele>290.4</ele><time>2026-04-16T10:01:35.574Z</time></trkpt><trkpt lat="45.7470744" lon="8.7526263"><ele>290.2</ele><time>2026-04-16T10:01:36.581Z</time></trkpt><trkpt lat="45.7471117" lon="8.7525248"><ele>290.0</ele><time>2026-04-16T10:01:37.576Z</time></trkpt><trkpt lat="45.7471626" lon="8.7524445"><ele>289.83333333333337</ele><time>2026-04-16T10:01:38.577Z</time></trkpt><trkpt lat="45.7472176" lon="8.7523898"><ele>289.6666666666667</ele><time>2026-04-16T10:01:39.576Z</time></trkpt><trkpt lat="45.7472766" lon="8.7523574"><ele>289.5</ele><time>2026-04-16T10:01:40.566Z</time></trkpt><trkpt lat="45.7473783" lon="8.7523353"><ele>289.3333333333333</ele><time>2026-04-16T10:01:42.557Z</time></trkpt><trkpt lat="45.7474827" lon="8.7522633"><ele>289.16666666666663</ele><time>2026-04-16T10:01:44.564Z</time></trkpt><trkpt lat="45.7475332" lon="8.752165"><ele>289.0</ele><time>2026-04-16T10:01:45.56Z</time></trkpt><trkpt lat="45.7475759" lon="8.7520674"><ele>289.0</ele><time>2026-04-16T10:01:46.564Z</time></trkpt><trkpt lat="45.7476072" lon="8.751971"><ele>289.0</ele><time>2026-04-16T10:01:47.56Z</time></trkpt><trkpt lat="45.7476366" lon="8.7518853"><ele>289.0</ele><time>2026-04-16T10:01:48.559Z</time></trkpt><trkpt lat="45.7477036" lon="8.7517616"><ele>289.0</ele><time>2026-04-16T10:01:50.558Z</time></trkpt><trkpt lat="45.7477164" lon="8.7516558"><ele>289.0</ele><time>2026-04-16T10:01:52.568Z</time></trkpt><trkpt lat="45.7477363" lon="8.7515377"><ele>289.0</ele><time>2026-04-16T10:01:54.565Z</time></trkpt><trkpt lat="45.7477581" lon="8.7514002"><ele>288.8</ele><time>2026-04-16T10:01:56.558Z</time></trkpt><trkpt lat="45.7478129" lon="8.7512109"><ele>288.59999999999997</ele><time>2026-04-16T10:01:58.561Z</time></trkpt><trkpt lat="45.7478256" lon="8.7511119"><ele>288.4</ele><time>2026-04-16T10:01:59.557Z</time></trkpt><trkpt lat="45.7478366" lon="8.7510082"><ele>288.2</ele><time>2026-04-16T10:02:00.578Z</time></trkpt><trkpt lat="45.7478502" lon="8.7508497"><ele>288.0</ele><time>2026-04-16T10:02:02.568Z</time></trkpt><trkpt lat="45.7478687" lon="8.7507249"><ele>287.8</ele><time>2026-04-16T10:02:04.559Z</time></trkpt><trkpt lat="45.7479443" lon="8.7506342"><ele>287.6</ele><time>2026-04-16T10:02:06.562Z</time></trkpt><trkpt lat="45.7480295" lon="8.7506099"><ele>287.4</ele><time>2026-04-16T10:02:07.565Z</time></trkpt><trkpt lat="45.748157" lon="8.7505489"><ele>287.2</ele><time>2026-04-16T10:02:08.571Z</time></trkpt><trkpt lat="45.7482547" lon="8.7504695"><ele>287.0</ele><time>2026-04-16T10:02:09.576Z</time></trkpt><trkpt lat="45.7483575" lon="8.7503521"><ele>287.0</ele><time>2026-04-16T10:02:10.574Z</time></trkpt><trkpt lat="45.7484747" lon="8.7502344"><ele>287.0</ele><time>2026-04-16T10:02:11.573Z</time></trkpt><trkpt lat="45.7486003" lon="8.7501168"><ele>287.0</ele><time>2026-04-16T10:02:12.575Z</time></trkpt><trkpt lat="45.7487298" lon="8.7499864"><ele>286.33333333333337</ele><time>2026-04-16T10:02:13.57Z</time></trkpt><trkpt lat="45.7488482" lon="8.7498577"><ele>285.6666666666667</ele><time>2026-04-16T10:02:14.569Z</time></trkpt><trkpt lat="45.7489769" lon="8.7497202"><ele>285.0</ele><time>2026-04-16T10:02:15.583Z</time></trkpt><trkpt lat="45.7491191" lon="8.7495822"><ele>285.0</ele><time>2026-04-16T10:02:16.589Z</time></trkpt><trkpt lat="45.749262" lon="8.7494231"><ele>285.0</ele><time>2026-04-16T10:02:17.588Z</time></trkpt><trkpt lat="45.7494066" lon="8.7492827"><ele>285.0</ele><time>2026-04-16T10:02:18.581Z</time></trkpt><trkpt lat="45.7495449" lon="8.7491473"><ele>285.3333333333333</ele><time>2026-04-16T10:02:19.592Z</time></trkpt><trkpt lat="45.749672" lon="8.749013"><ele>285.66666666666663</ele><time>2026-04-16T10:02:20.587Z</time></trkpt><trkpt lat="45.7498077" lon="8.7488716"><ele>286.0</ele><time>2026-04-16T10:02:21.586Z</time></trkpt><trkpt lat="45.7499532" lon="8.7487322"><ele>286.0</ele><time>2026-04-16T10:02:22.58Z</time></trkpt><trkpt lat="45.7500972" lon="8.7485805"><ele>286.0</ele><time>2026-04-16T10:02:23.592Z</time></trkpt><trkpt lat="45.7502247" lon="8.7484173"><ele>286.0</ele><time>2026-04-16T10:02:24.588Z</time></trkpt><trkpt lat="45.7503371" lon="8.7482574"><ele>286.66666666666663</ele><time>2026-04-16T10:02:25.592Z</time></trkpt><trkpt lat="45.7504553" lon="8.7480884"><ele>287.3333333333333</ele><time>2026-04-16T10:02:26.585Z</time></trkpt><trkpt lat="45.7505845" lon="8.7479286"><ele>288.0</ele><time>2026-04-16T10:02:27.591Z</time></trkpt><trkpt lat="45.7507034" lon="8.7477495"><ele>288.0</ele><time>2026-04-16T10:02:28.586Z</time></trkpt><trkpt lat="45.7508313" lon="8.7475961"><ele>288.0</ele><time>2026-04-16T10:02:29.585Z</time></trkpt><trkpt lat="45.7509546" lon="8.74744"><ele>288.0</ele><time>2026-04-16T10:02:30.589Z</time></trkpt><trkpt lat="45.751048" lon="8.7472737"><ele>288.3333333333333</ele><time>2026-04-16T10:02:31.598Z</time></trkpt><trkpt lat="45.751152" lon="8.7471111"><ele>288.66666666666663</ele><time>2026-04-16T10:02:32.596Z</time></trkpt><trkpt lat="45.7512736" lon="8.7469184"><ele>289.0</ele><time>2026-04-16T10:02:33.598Z</time></trkpt><trkpt lat="45.7513875" lon="8.7467299"><ele>289.0</ele><time>2026-04-16T10:02:34.603Z</time></trkpt><trkpt lat="45.7515006" lon="8.746539"><ele>289.0</ele><time>2026-04-16T10:02:35.602Z</time></trkpt><trkpt lat="45.7516121" lon="8.7463455"><ele>289.0</ele><time>2026-04-16T10:02:36.603Z</time></trkpt><trkpt lat="45.7517144" lon="8.746169"><ele>288.75</ele><time>2026-04-16T10:02:37.6Z</time></trkpt><trkpt lat="45.7518185" lon="8.7460387"><ele>288.5</ele><time>2026-04-16T10:02:38.603Z</time></trkpt><trkpt lat="45.7519274" lon="8.7459379"><ele>288.25</ele><time>2026-04-16T10:02:39.589Z</time></trkpt><trkpt lat="45.7520303" lon="8.7458904"><ele>288.0</ele><time>2026-04-16T10:02:40.594Z</time></trkpt><trkpt lat="45.752142" lon="8.7458646"><ele>289.75</ele><time>2026-04-16T10:02:41.581Z</time></trkpt><trkpt lat="45.7522759" lon="8.7458397"><ele>291.5</ele><time>2026-04-16T10:02:42.584Z</time></trkpt><trkpt lat="45.7523995" lon="8.7457693"><ele>293.25</ele><time>2026-04-16T10:02:43.58Z</time></trkpt><trkpt lat="45.7525334" lon="8.7457164"><ele>295.0</ele><time>2026-04-16T10:02:44.593Z</time></trkpt><trkpt lat="45.7526593" lon="8.7456522"><ele>297.25</ele><time>2026-04-16T10:02:45.578Z</time></trkpt><trkpt lat="45.7527843" lon="8.7455847"><ele>299.5</ele><time>2026-04-16T10:02:46.585Z</time></trkpt><trkpt lat="45.7529078" lon="8.7455104"><ele>301.75</ele><time>2026-04-16T10:02:47.581Z</time></trkpt><trkpt lat="45.7530405" lon="8.7454408"><ele>304.0</ele><time>2026-04-16T10:02:48.581Z</time></trkpt><trkpt lat="45.7531808" lon="8.745373"><ele>304.0</ele><time>2026-04-16T10:02:49.576Z</time></trkpt><trkpt lat="45.7533222" lon="8.7453002"><ele>304.0</ele><time>2026-04-16T10:02:50.577Z</time></trkpt><trkpt lat="45.7534622" lon="8.7452337"><ele>304.0</ele><time>2026-04-16T10:02:51.578Z</time></trkpt><trkpt lat="45.7536103" lon="8.7451872"><ele>304.0</ele><time>2026-04-16T10:02:52.576Z</time></trkpt><trkpt lat="45.7537644" lon="8.7451115"><ele>303.0</ele><time>2026-04-16T10:02:53.575Z</time></trkpt><trkpt lat="45.7539075" lon="8.7450382"><ele>302.0</ele><time>2026-04-16T10:02:54.577Z</time></trkpt><trkpt lat="45.7540539" lon="8.7449689"><ele>301.0</ele><time>2026-04-16T10:02:55.572Z</time></trkpt><trkpt lat="45.7541964" lon="8.7449101"><ele>301.0</ele><time>2026-04-16T10:02:56.58Z</time></trkpt><trkpt lat="45.7543529" lon="8.7448375"><ele>301.0</ele><time>2026-04-16T10:02:57.571Z</time></trkpt><trkpt lat="45.7545046" lon="8.7447417"><ele>301.0</ele><time>2026-04-16T10:02:58.58Z</time></trkpt><trkpt lat="45.7546471" lon="8.7446411"><ele>301.0</ele><time>2026-04-16T10:02:59.573Z</time></trkpt><trkpt lat="45.7547844" lon="8.7445351"><ele>301.0</ele><time>2026-04-16T10:03:00.583Z</time></trkpt><trkpt lat="45.7549215" lon="8.7444615"><ele>301.0</ele><time>2026-04-16T10:03:01.574Z</time></trkpt><trkpt lat="45.7550412" lon="8.7443952"><ele>301.0</ele><time>2026-04-16T10:03:02.595Z</time></trkpt><trkpt lat="45.7551738" lon="8.7443444"><ele>301.5</ele><time>2026-04-16T10:03:03.577Z</time></trkpt><trkpt lat="45.755306" lon="8.7442984"><ele>302.0</ele><time>2026-04-16T10:03:04.583Z</time></trkpt><trkpt lat="45.7554132" lon="8.7442426"><ele>302.5</ele><time>2026-04-16T10:03:05.578Z</time></trkpt><trkpt lat="45.755509" lon="8.7441727"><ele>303.0</ele><time>2026-04-16T10:03:06.586Z</time></trkpt><trkpt lat="45.7555905" lon="8.7440851"><ele>303.0</ele><time>2026-04-16T10:03:07.583Z</time></trkpt><trkpt lat="45.7556551" lon="8.744005"><ele>303.0</ele><time>2026-04-16T10:03:08.587Z</time></trkpt><trkpt lat="45.7557033" lon="8.7439349"><ele>303.0</ele><time>2026-04-16T10:03:09.591Z</time></trkpt><trkpt lat="45.7557519" lon="8.7438584"><ele>303.0</ele><time>2026-04-16T10:03:10.594Z</time></trkpt><trkpt lat="45.7558253" lon="8.7437206"><ele>303.0</ele><time>2026-04-16T10:03:12.602Z</time></trkpt><trkpt lat="45.7559022" lon="8.7435909"><ele>303.0</ele><time>2026-04-16T10:03:14.59Z</time></trkpt><trkpt lat="45.7559478" lon="8.7435229"><ele>303.0</ele><time>2026-04-16T10:03:15.585Z</time></trkpt><trkpt lat="45.7560038" lon="8.7434435"><ele>303.0</ele><time>2026-04-16T10:03:16.582Z</time></trkpt><trkpt lat="45.7560656" lon="8.7433463"><ele>303.0</ele><time>2026-04-16T10:03:17.584Z</time></trkpt><trkpt lat="45.7561228" lon="8.7432291"><ele>303.0</ele><time>2026-04-16T10:03:18.583Z</time></trkpt><trkpt lat="45.7561822" lon="8.7431151"><ele>303.0</ele><time>2026-04-16T10:03:19.59Z</time></trkpt><trkpt lat="45.756268" lon="8.7429856"><ele>303.0</ele><time>2026-04-16T10:03:20.581Z</time></trkpt><trkpt lat="45.7563514" lon="8.7428422"><ele>303.0</ele><time>2026-04-16T10:03:21.58Z</time></trkpt><trkpt lat="45.7564484" lon="8.7427031"><ele>303.0</ele><time>2026-04-16T10:03:22.572Z</time></trkpt><trkpt lat="45.7565701" lon="8.7425735"><ele>303.0</ele><time>2026-04-16T10:03:23.578Z</time></trkpt><trkpt lat="45.7566901" lon="8.742449"><ele>303.0</ele><time>2026-04-16T10:03:24.568Z</time></trkpt><trkpt lat="45.7568206" lon="8.7423333"><ele>303.0</ele><time>2026-04-16T10:03:25.573Z</time></trkpt><trkpt lat="45.7569844" lon="8.7422305"><ele>303.0</ele><time>2026-04-16T10:03:26.561Z</time></trkpt><trkpt lat="45.7571557" lon="8.7421356"><ele>308.0</ele><time>2026-04-16T10:03:27.565Z</time></trkpt><trkpt lat="45.7573382" lon="8.7420375"><ele>313.0</ele><time>2026-04-16T10:03:28.565Z</time></trkpt><trkpt lat="45.7575165" lon="8.741963"><ele>318.0</ele><time>2026-04-16T10:03:29.565Z</time></trkpt><trkpt lat="45.7576862" lon="8.7419127"><ele>318.6666666666667</ele><time>2026-04-16T10:03:30.568Z</time></trkpt><trkpt lat="45.7578518" lon="8.7418459"><ele>319.33333333333337</ele><time>2026-04-16T10:03:31.566Z</time></trkpt><trkpt lat="45.7580008" lon="8.7417741"><ele>320.0</ele><time>2026-04-16T10:03:32.57Z</time></trkpt><trkpt lat="45.75815" lon="8.7417024"><ele>320.0</ele><time>2026-04-16T10:03:33.584Z</time></trkpt><trkpt lat="45.7583099" lon="8.7416116"><ele>320.0</ele><time>2026-04-16T10:03:34.572Z</time></trkpt><trkpt lat="45.7584634" lon="8.7415424"><ele>320.0</ele><time>2026-04-16T10:03:35.573Z</time></trkpt><trkpt lat="45.7586183" lon="8.7414823"><ele>322.6666666666667</ele><time>2026-04-16T10:03:36.575Z</time></trkpt><trkpt lat="45.7587857" lon="8.7414202"><ele>325.3333333333333</ele><time>2026-04-16T10:03:37.577Z</time></trkpt><trkpt lat="45.7589702" lon="8.7413691"><ele>328.0</ele><time>2026-04-16T10:03:38.569Z</time></trkpt><trkpt lat="45.7591685" lon="8.7413274"><ele>330.3333333333333</ele><time>2026-04-16T10:03:39.572Z</time></trkpt><trkpt lat="45.7593681" lon="8.7412891"><ele>332.6666666666667</ele><time>2026-04-16T10:03:40.57Z</time></trkpt><trkpt lat="45.7595628" lon="8.7412644"><ele>335.0</ele><time>2026-04-16T10:03:41.569Z</time></trkpt><trkpt lat="45.7597865" lon="8.7412279"><ele>335.0</ele><time>2026-04-16T10:03:42.578Z</time></trkpt><trkpt lat="45.7600079" lon="8.7412135"><ele>335.0</ele><time>2026-04-16T10:03:43.57Z</time></trkpt><trkpt lat="45.7602232" lon="8.7411678"><ele>335.0</ele><time>2026-04-16T10:03:44.57Z</time></trkpt><trkpt lat="45.7604432" lon="8.7411161"><ele>333.33333333333337</ele><time>2026-04-16T10:03:45.567Z</time></trkpt><trkpt lat="45.7606657" lon="8.7410659"><ele>331.6666666666667</ele><time>2026-04-16T10:03:46.568Z</time></trkpt><trkpt lat="45.7608856" lon="8.7410448"><ele>330.0</ele><time>2026-04-16T10:03:47.565Z</time></trkpt><trkpt lat="45.7611052" lon="8.7410311"><ele>329.0</ele><time>2026-04-16T10:03:48.569Z</time></trkpt><trkpt lat="45.7612792" lon="8.7410225"><ele>328.0</ele><time>2026-04-16T10:03:49.564Z</time></trkpt><trkpt lat="45.7614383" lon="8.7410185"><ele>327.0</ele><time>2026-04-16T10:03:50.565Z</time></trkpt><trkpt lat="45.7615619" lon="8.7410575"><ele>327.0</ele><time>2026-04-16T10:03:51.557Z</time></trkpt><trkpt lat="45.7617118" lon="8.7411349"><ele>327.0</ele><time>2026-04-16T10:03:52.555Z</time></trkpt><trkpt lat="45.761881" lon="8.7412247"><ele>327.0</ele><time>2026-04-16T10:03:53.563Z</time></trkpt><trkpt lat="45.7620967" lon="8.7413329"><ele>328.0</ele><time>2026-04-16T10:03:54.562Z</time></trkpt><trkpt lat="45.7622967" lon="8.7414858"><ele>329.0</ele><time>2026-04-16T10:03:55.565Z</time></trkpt><trkpt lat="45.7624556" lon="8.7416039"><ele>330.0</ele><time>2026-04-16T10:03:56.578Z</time></trkpt><trkpt lat="45.762633" lon="8.7417065"><ele>331.0</ele><time>2026-04-16T10:03:57.582Z</time></trkpt><trkpt lat="45.7627922" lon="8.74178"><ele>332.0</ele><time>2026-04-16T10:03:58.582Z</time></trkpt><trkpt lat="45.7629653" lon="8.7418317"><ele>333.0</ele><time>2026-04-16T10:03:59.582Z</time></trkpt><trkpt lat="45.7631315" lon="8.741858"><ele>333.0</ele><time>2026-04-16T10:04:00.586Z</time></trkpt><trkpt lat="45.7632967" lon="8.7418692"><ele>333.0</ele><time>2026-04-16T10:04:01.591Z</time></trkpt><trkpt lat="45.7634607" lon="8.7418978"><ele>333.0</ele><time>2026-04-16T10:04:02.598Z</time></trkpt><trkpt lat="45.7636152" lon="8.741918"><ele>334.75</ele><time>2026-04-16T10:04:03.589Z</time></trkpt><trkpt lat="45.7637517" lon="8.7419629"><ele>336.5</ele><time>2026-04-16T10:04:04.604Z</time></trkpt><trkpt lat="45.7638784" lon="8.7420205"><ele>338.25</ele><time>2026-04-16T10:04:05.589Z</time></trkpt><trkpt lat="45.7640113" lon="8.7420461"><ele>340.0</ele><time>2026-04-16T10:04:06.584Z</time></trkpt><trkpt lat="45.7641656" lon="8.7420661"><ele>340.0</ele><time>2026-04-16T10:04:07.584Z</time></trkpt><trkpt lat="45.7642815" lon="8.7420954"><ele>340.0</ele><time>2026-04-16T10:04:08.598Z</time></trkpt><trkpt lat="45.7644224" lon="8.7421103"><ele>340.0</ele><time>2026-04-16T10:04:09.585Z</time></trkpt><trkpt lat="45.7645476" lon="8.7420898"><ele>340.0</ele><time>2026-04-16T10:04:10.594Z</time></trkpt><trkpt lat="45.7646913" lon="8.7420248"><ele>341.2</ele><time>2026-04-16T10:04:11.597Z</time></trkpt><trkpt lat="45.7648121" lon="8.7419723"><ele>342.4</ele><time>2026-04-16T10:04:12.593Z</time></trkpt><trkpt lat="45.7649199" lon="8.7419175"><ele>343.6</ele><time>2026-04-16T10:04:13.587Z</time></trkpt><trkpt lat="45.7650231" lon="8.7418762"><ele>344.8</ele><time>2026-04-16T10:04:14.586Z</time></trkpt><trkpt lat="45.7651085" lon="8.7419046"><ele>346.0</ele><time>2026-04-16T10:04:15.584Z</time></trkpt><trkpt lat="45.7652186" lon="8.7419282"><ele>348.0</ele><time>2026-04-16T10:04:16.585Z</time></trkpt><trkpt lat="45.7653344" lon="8.7419668"><ele>350.0</ele><time>2026-04-16T10:04:17.579Z</time></trkpt><trkpt lat="45.7654577" lon="8.7420227"><ele>352.0</ele><time>2026-04-16T10:04:18.584Z</time></trkpt><trkpt lat="45.765591" lon="8.7420845"><ele>354.0</ele><time>2026-04-16T10:04:19.579Z</time></trkpt><trkpt lat="45.7657252" lon="8.7421365"><ele>354.0</ele><time>2026-04-16T10:04:20.588Z</time></trkpt><trkpt lat="45.7658456" lon="8.7421912"><ele>354.0</ele><time>2026-04-16T10:04:21.575Z</time></trkpt><trkpt lat="45.7659687" lon="8.7422079"><ele>354.0</ele><time>2026-04-16T10:04:22.581Z</time></trkpt><trkpt lat="45.766089" lon="8.7422405"><ele>354.0</ele><time>2026-04-16T10:04:23.58Z</time></trkpt><trkpt lat="45.7662088" lon="8.7422672"><ele>356.0</ele><time>2026-04-16T10:04:24.582Z</time></trkpt><trkpt lat="45.7663234" lon="8.742258"><ele>358.0</ele><time>2026-04-16T10:04:25.581Z</time></trkpt><trkpt lat="45.7664258" lon="8.7422383"><ele>360.0</ele><time>2026-04-16T10:04:26.58Z</time></trkpt><trkpt lat="45.7665179" lon="8.7422195"><ele>362.0</ele><time>2026-04-16T10:04:27.576Z</time></trkpt><trkpt lat="45.7665982" lon="8.7422011"><ele>364.0</ele><time>2026-04-16T10:04:28.583Z</time></trkpt><trkpt lat="45.7666823" lon="8.7421661"><ele>364.0</ele><time>2026-04-16T10:04:29.579Z</time></trkpt><trkpt lat="45.7667694" lon="8.7421221"><ele>364.0</ele><time>2026-04-16T10:04:30.584Z</time></trkpt><trkpt lat="45.7668399" lon="8.7420813"><ele>364.0</ele><time>2026-04-16T10:04:31.573Z</time></trkpt><trkpt lat="45.7669182" lon="8.7420177"><ele>364.0</ele><time>2026-04-16T10:04:32.577Z</time></trkpt><trkpt lat="45.7670088" lon="8.7419163"><ele>364.0</ele><time>2026-04-16T10:04:34.566Z</time></trkpt><trkpt lat="45.7670502" lon="8.7418212"><ele>366.2</ele><time>2026-04-16T10:04:35.571Z</time></trkpt><trkpt lat="45.7670939" lon="8.7417469"><ele>368.4</ele><time>2026-04-16T10:04:36.558Z</time></trkpt><trkpt lat="45.76712" lon="8.7416371"><ele>370.6</ele><time>2026-04-16T10:04:37.557Z</time></trkpt><trkpt lat="45.7671366" lon="8.7414788"><ele>372.8</ele><time>2026-04-16T10:04:38.56Z</time></trkpt><trkpt lat="45.7671377" lon="8.7413035"><ele>375.0</ele><time>2026-04-16T10:04:39.563Z</time></trkpt><trkpt lat="45.7671513" lon="8.7411484"><ele>375.8</ele><time>2026-04-16T10:04:40.565Z</time></trkpt><trkpt lat="45.7671608" lon="8.7409846"><ele>376.6</ele><time>2026-04-16T10:04:41.57Z</time></trkpt><trkpt lat="45.767191" lon="8.7408627"><ele>377.4</ele><time>2026-04-16T10:04:42.569Z</time></trkpt><trkpt lat="45.7672243" lon="8.7407414"><ele>378.2</ele><time>2026-04-16T10:04:43.569Z</time></trkpt><trkpt lat="45.7672739" lon="8.7406339"><ele>379.0</ele><time>2026-04-16T10:04:44.567Z</time></trkpt><trkpt lat="45.7673024" lon="8.7405113"><ele>379.0</ele><time>2026-04-16T10:04:45.571Z</time></trkpt><trkpt lat="45.7673306" lon="8.7403844"><ele>379.0</ele><time>2026-04-16T10:04:46.565Z</time></trkpt><trkpt lat="45.7673674" lon="8.7402718"><ele>379.0</ele><time>2026-04-16T10:04:47.566Z</time></trkpt><trkpt lat="45.767408" lon="8.7401702"><ele>379.0</ele><time>2026-04-16T10:04:48.572Z</time></trkpt><trkpt lat="45.7674434" lon="8.7400632"><ele>379.0</ele><time>2026-04-16T10:04:49.57Z</time></trkpt><trkpt lat="45.7674592" lon="8.7399634"><ele>379.0</ele><time>2026-04-16T10:04:50.571Z</time></trkpt><trkpt lat="45.7674763" lon="8.7398748"><ele>379.79999999999995</ele><time>2026-04-16T10:04:51.563Z</time></trkpt><trkpt lat="45.7675061" lon="8.7397211"><ele>380.59999999999997</ele><time>2026-04-16T10:04:53.564Z</time></trkpt><trkpt lat="45.7675864" lon="8.7396448"><ele>381.4</ele><time>2026-04-16T10:04:55.558Z</time></trkpt><trkpt lat="45.7677101" lon="8.7396309"><ele>382.2</ele><time>2026-04-16T10:04:57.558Z</time></trkpt><trkpt lat="45.7677813" lon="8.7396519"><ele>383.0</ele><time>2026-04-16T10:04:58.562Z</time></trkpt><trkpt lat="45.7678636" lon="8.739685"><ele>383.4</ele><time>2026-04-16T10:04:59.56Z</time></trkpt><trkpt lat="45.767953" lon="8.7397368"><ele>383.79999999999995</ele><time>2026-04-16T10:05:00.578Z</time></trkpt><trkpt lat="45.7680432" lon="8.7397558"><ele>384.2</ele><time>2026-04-16T10:05:01.578Z</time></trkpt><trkpt lat="45.7681586" lon="8.7397853"><ele>384.6</ele><time>2026-04-16T10:05:02.58Z</time></trkpt><trkpt lat="45.768249" lon="8.7397981"><ele>385.0</ele><time>2026-04-16T10:05:03.587Z</time></trkpt><trkpt lat="45.7683128" lon="8.7398124"><ele>385.0</ele><time>2026-04-16T10:05:04.584Z</time></trkpt><trkpt lat="45.7684133" lon="8.7398295"><ele>385.0</ele><time>2026-04-16T10:05:06.598Z</time></trkpt><trkpt lat="45.7685221" lon="8.7398033"><ele>385.0</ele><time>2026-04-16T10:05:08.589Z</time></trkpt><trkpt lat="45.7685869" lon="8.7397865"><ele>385.0</ele><time>2026-04-16T10:05:09.578Z</time></trkpt><trkpt lat="45.7686881" lon="8.7397097"><ele>385.0</ele><time>2026-04-16T10:05:11.582Z</time></trkpt><trkpt lat="45.7687253" lon="8.7395919"><ele>382.8</ele><time>2026-04-16T10:05:13.581Z</time></trkpt><trkpt lat="45.7687305" lon="8.7394985"><ele>380.6</ele><time>2026-04-16T10:05:14.579Z</time></trkpt><trkpt lat="45.7687093" lon="8.7393621"><ele>378.4</ele><time>2026-04-16T10:05:15.572Z</time></trkpt><trkpt lat="45.7686782" lon="8.7391764"><ele>376.2</ele><time>2026-04-16T10:05:16.57Z</time></trkpt><trkpt lat="45.7686278" lon="8.7390398"><ele>374.0</ele><time>2026-04-16T10:05:17.57Z</time></trkpt><trkpt lat="45.7685727" lon="8.738873"><ele>373.79999999999995</ele><time>2026-04-16T10:05:18.565Z</time></trkpt><trkpt lat="45.7685398" lon="8.7387204"><ele>373.59999999999997</ele><time>2026-04-16T10:05:19.562Z</time></trkpt><trkpt lat="45.7685182" lon="8.7385684"><ele>373.4</ele><time>2026-04-16T10:05:20.565Z</time></trkpt><trkpt lat="45.7684997" lon="8.7383976"><ele>373.2</ele><time>2026-04-16T10:05:21.575Z</time></trkpt><trkpt lat="45.7684944" lon="8.7382638"><ele>373.0</ele><time>2026-04-16T10:05:22.568Z</time></trkpt><trkpt lat="45.7684991" lon="8.738139"><ele>373.4</ele><time>2026-04-16T10:05:23.584Z</time></trkpt><trkpt lat="45.7685336" lon="8.7380575"><ele>373.79999999999995</ele><time>2026-04-16T10:05:24.586Z</time></trkpt><trkpt lat="45.7686258" lon="8.7380064"><ele>374.2</ele><time>2026-04-16T10:05:25.578Z</time></trkpt><trkpt lat="45.7687332" lon="8.7379765"><ele>374.6</ele><time>2026-04-16T10:05:26.586Z</time></trkpt><trkpt lat="45.7688651" lon="8.7379595"><ele>375.0</ele><time>2026-04-16T10:05:27.589Z</time></trkpt><trkpt lat="45.7690127" lon="8.737957"><ele>375.0</ele><time>2026-04-16T10:05:28.588Z</time></trkpt><trkpt lat="45.7691693" lon="8.7379616"><ele>375.0</ele><time>2026-04-16T10:05:29.588Z</time></trkpt><trkpt lat="45.7693377" lon="8.7379606"><ele>375.0</ele><time>2026-04-16T10:05:30.59Z</time></trkpt><trkpt lat="45.7694964" lon="8.7379556"><ele>375.0</ele><time>2026-04-16T10:05:31.586Z</time></trkpt><trkpt lat="45.7696372" lon="8.7379526"><ele>375.0</ele><time>2026-04-16T10:05:32.59Z</time></trkpt><trkpt lat="45.7697507" lon="8.7379355"><ele>375.0</ele><time>2026-04-16T10:05:33.584Z</time></trkpt><trkpt lat="45.7698427" lon="8.7379031"><ele>375.0</ele><time>2026-04-16T10:05:34.59Z</time></trkpt><trkpt lat="45.7699179" lon="8.7378439"><ele>375.0</ele><time>2026-04-16T10:05:35.583Z</time></trkpt><trkpt lat="45.7699631" lon="8.7377183"><ele>375.0</ele><time>2026-04-16T10:05:36.587Z</time></trkpt><trkpt lat="45.7699886" lon="8.7375586"><ele>375.0</ele><time>2026-04-16T10:05:37.603Z</time></trkpt><trkpt lat="45.7699981" lon="8.7373464"><ele>375.0</ele><time>2026-04-16T10:05:38.588Z</time></trkpt><trkpt lat="45.770012" lon="8.7371348"><ele>375.0</ele><time>2026-04-16T10:05:39.581Z</time></trkpt><trkpt lat="45.7700292" lon="8.73692"><ele>375.8</ele><time>2026-04-16T10:05:40.582Z</time></trkpt><trkpt lat="45.7700433" lon="8.7367474"><ele>376.6</ele><time>2026-04-16T10:05:41.57Z</time></trkpt><trkpt lat="45.7700715" lon="8.7366078"><ele>377.4</ele><time>2026-04-16T10:05:42.57Z</time></trkpt><trkpt lat="45.7701194" lon="8.7364825"><ele>378.2</ele><time>2026-04-16T10:05:43.567Z</time></trkpt><trkpt lat="45.7701744" lon="8.736369"><ele>379.0</ele><time>2026-04-16T10:05:44.588Z</time></trkpt><trkpt lat="45.7702515" lon="8.7362825"><ele>379.0</ele><time>2026-04-16T10:05:45.574Z</time></trkpt><trkpt lat="45.7703471" lon="8.7362173"><ele>379.0</ele><time>2026-04-16T10:05:46.575Z</time></trkpt><trkpt lat="45.7704478" lon="8.7361429"><ele>379.0</ele><time>2026-04-16T10:05:47.567Z</time></trkpt><trkpt lat="45.7705529" lon="8.736082"><ele>379.0</ele><time>2026-04-16T10:05:48.572Z</time></trkpt><trkpt lat="45.7706433" lon="8.7360487"><ele>379.0</ele><time>2026-04-16T10:05:49.569Z</time></trkpt><trkpt lat="45.770737" lon="8.7360518"><ele>379.0</ele><time>2026-04-16T10:05:50.568Z</time></trkpt><trkpt lat="45.7708333" lon="8.7361134"><ele>379.0</ele><time>2026-04-16T10:05:51.57Z</time></trkpt><trkpt lat="45.7709312" lon="8.7361731"><ele>379.0</ele><time>2026-04-16T10:05:52.563Z</time></trkpt><trkpt lat="45.7710448" lon="8.7362584"><ele>379.0</ele><time>2026-04-16T10:05:53.569Z</time></trkpt><trkpt lat="45.7711622" lon="8.7363474"><ele>380.2</ele><time>2026-04-16T10:05:54.562Z</time></trkpt><trkpt lat="45.7712681" lon="8.7364249"><ele>381.4</ele><time>2026-04-16T10:05:55.568Z</time></trkpt><trkpt lat="45.771338" lon="8.7364575"><ele>382.6</ele><time>2026-04-16T10:05:56.568Z</time></trkpt><trkpt lat="45.771412" lon="8.7364685"><ele>383.8</ele><time>2026-04-16T10:05:57.561Z</time></trkpt><trkpt lat="45.7714761" lon="8.7364518"><ele>385.0</ele><time>2026-04-16T10:05:58.577Z</time></trkpt><trkpt lat="45.7715716" lon="8.7363424"><ele>385.00000000000006</ele><time>2026-04-16T10:06:00.565Z</time></trkpt><trkpt lat="45.7716278" lon="8.7362768"><ele>385.0</ele><time>2026-04-16T10:06:01.557Z</time></trkpt><trkpt lat="45.7716887" lon="8.7362113"><ele>385.0</ele><time>2026-04-16T10:06:02.563Z</time></trkpt><trkpt lat="45.7717361" lon="8.7361446"><ele>385.0</ele><time>2026-04-16T10:06:03.565Z</time></trkpt><trkpt lat="45.7717981" lon="8.7360539"><ele>385.00000000000006</ele><time>2026-04-16T10:06:04.562Z</time></trkpt><trkpt lat="45.771861" lon="8.7359723"><ele>385.0</ele><time>2026-04-16T10:06:05.56Z</time></trkpt><trkpt lat="45.7719488" lon="8.7358277"><ele>384.25</ele><time>2026-04-16T10:06:06.566Z</time></trkpt><trkpt lat="45.7720485" lon="8.7357087"><ele>383.5</ele><time>2026-04-16T10:06:07.561Z</time></trkpt><trkpt lat="45.7721461" lon="8.7355752"><ele>382.75</ele><time>2026-04-16T10:06:08.575Z</time></trkpt><trkpt lat="45.7722597" lon="8.7354351"><ele>382.0</ele><time>2026-04-16T10:06:09.557Z</time></trkpt><trkpt lat="45.7723581" lon="8.7353222"><ele>382.0</ele><time>2026-04-16T10:06:10.564Z</time></trkpt><trkpt lat="45.7724483" lon="8.7352191"><ele>382.0</ele><time>2026-04-16T10:06:11.562Z</time></trkpt><trkpt lat="45.7725282" lon="8.7351403"><ele>382.0</ele><time>2026-04-16T10:06:12.57Z</time></trkpt><trkpt lat="45.7726034" lon="8.7350684"><ele>382.0</ele><time>2026-04-16T10:06:13.57Z</time></trkpt><trkpt lat="45.7726759" lon="8.7349844"><ele>382.0</ele><time>2026-04-16T10:06:14.57Z</time></trkpt><trkpt lat="45.7727285" lon="8.7348925"><ele>382.0</ele><time>2026-04-16T10:06:15.572Z</time></trkpt><trkpt lat="45.7727791" lon="8.7347901"><ele>382.0</ele><time>2026-04-16T10:06:16.568Z</time></trkpt><trkpt lat="45.7728185" lon="8.7346964"><ele>382.0</ele><time>2026-04-16T10:06:17.562Z</time></trkpt><trkpt lat="45.7728804" lon="8.7345957"><ele>382.0</ele><time>2026-04-16T10:06:19.561Z</time></trkpt><trkpt lat="45.7729336" lon="8.7346886"><ele>382.0</ele><time>2026-04-16T10:06:21.568Z</time></trkpt><trkpt lat="45.7729721" lon="8.7347641"><ele>382.0</ele><time>2026-04-16T10:06:22.566Z</time></trkpt><trkpt lat="45.7729984" lon="8.734867"><ele>382.0</ele><time>2026-04-16T10:06:23.565Z</time></trkpt><trkpt lat="45.7730288" lon="8.7349776"><ele>382.0</ele><time>2026-04-16T10:06:24.561Z</time></trkpt><trkpt lat="45.7730742" lon="8.7350629"><ele>382.0</ele><time>2026-04-16T10:06:25.558Z</time></trkpt><trkpt lat="45.7731143" lon="8.7351522"><ele>382.0</ele><time>2026-04-16T10:06:26.56Z</time></trkpt><trkpt lat="45.7731678" lon="8.7352371"><ele>382.0</ele><time>2026-04-16T10:06:27.56Z</time></trkpt><trkpt lat="45.7732287" lon="8.7353037"><ele>382.0</ele><time>2026-04-16T10:06:28.561Z</time></trkpt><trkpt lat="45.7732895" lon="8.7353926"><ele>382.8333333333333</ele><time>2026-04-16T10:06:29.56Z</time></trkpt><trkpt lat="45.7733596" lon="8.7354575"><ele>383.66666666666663</ele><time>2026-04-16T10:06:30.565Z</time></trkpt><trkpt lat="45.7734355" lon="8.7355273"><ele>384.5</ele><time>2026-04-16T10:06:31.561Z</time></trkpt><trkpt lat="45.773518" lon="8.7356063"><ele>385.3333333333333</ele><time>2026-04-16T10:06:32.565Z</time></trkpt><trkpt lat="45.7735781" lon="8.73567"><ele>386.1666666666667</ele><time>2026-04-16T10:06:33.563Z</time></trkpt><trkpt lat="45.7736687" lon="8.7357328"><ele>387.0</ele><time>2026-04-16T10:06:34.569Z</time></trkpt><trkpt lat="45.7737404" lon="8.7357909"><ele>387.8</ele><time>2026-04-16T10:06:35.568Z</time></trkpt><trkpt lat="45.7738353" lon="8.7358276"><ele>388.6</ele><time>2026-04-16T10:06:36.57Z</time></trkpt><trkpt lat="45.7739161" lon="8.7358609"><ele>389.40000000000003</ele><time>2026-04-16T10:06:37.559Z</time></trkpt><trkpt lat="45.7740428" lon="8.7359021"><ele>390.20000000000005</ele><time>2026-04-16T10:06:39.576Z</time></trkpt><trkpt lat="45.7741103" lon="8.7358954"><ele>391.0</ele><time>2026-04-16T10:06:40.565Z</time></trkpt><trkpt lat="45.7741885" lon="8.7359187"><ele>391.0</ele><time>2026-04-16T10:06:42.565Z</time></trkpt><trkpt lat="45.7741953" lon="8.7360302"><ele>391.0</ele><time>2026-04-16T10:06:44.563Z</time></trkpt><trkpt lat="45.7741833" lon="8.7361767"><ele>391.0</ele><time>2026-04-16T10:06:46.574Z</time></trkpt><trkpt lat="45.7741858" lon="8.7363385"><ele>391.0</ele><time>2026-04-16T10:06:48.574Z</time></trkpt><trkpt lat="45.7742459" lon="8.7364854"><ele>391.0</ele><time>2026-04-16T10:06:50.563Z</time></trkpt><trkpt lat="45.7742842" lon="8.736574"><ele>391.6</ele><time>2026-04-16T10:06:51.559Z</time></trkpt><trkpt lat="45.7743305" lon="8.7367104"><ele>392.20000000000005</ele><time>2026-04-16T10:06:53.56Z</time></trkpt><trkpt lat="45.7743195" lon="8.7368033"><ele>392.79999999999995</ele><time>2026-04-16T10:06:55.562Z</time></trkpt><trkpt lat="45.7742258" lon="8.736807"><ele>393.4</ele><time>2026-04-16T10:07:00.562Z</time></trkpt><trkpt lat="45.7741257" lon="8.7367964"><ele>394.0</ele><time>2026-04-16T10:07:01.562Z</time></trkpt><trkpt lat="45.7740189" lon="8.7368013"><ele>394.0</ele><time>2026-04-16T10:07:02.563Z</time></trkpt><trkpt lat="45.773916" lon="8.7368247"><ele>394.0</ele><time>2026-04-16T10:07:03.566Z</time></trkpt><trkpt lat="45.7738008" lon="8.7368425"><ele>394.0</ele><time>2026-04-16T10:07:04.573Z</time></trkpt><trkpt lat="45.7737104" lon="8.7368665"><ele>394.0</ele><time>2026-04-16T10:07:05.564Z</time></trkpt><trkpt lat="45.7735996" lon="8.7368985"><ele>394.0</ele><time>2026-04-16T10:07:07.568Z</time></trkpt><trkpt lat="45.7735364" lon="8.7369361"><ele>395.1666666666667</ele><time>2026-04-16T10:07:09.57Z</time></trkpt><trkpt lat="45.7735467" lon="8.7371145"><ele>396.33333333333337</ele><time>2026-04-16T10:07:11.562Z</time></trkpt><trkpt lat="45.7735581" lon="8.7372049"><ele>397.5</ele><time>2026-04-16T10:07:12.569Z</time></trkpt><trkpt lat="45.7735879" lon="8.7373191"><ele>398.66666666666663</ele><time>2026-04-16T10:07:13.571Z</time></trkpt><trkpt lat="45.773612" lon="8.7374142"><ele>399.8333333333333</ele><time>2026-04-16T10:07:14.567Z</time></trkpt><trkpt lat="45.7736489" lon="8.7374932"><ele>401.0</ele><time>2026-04-16T10:07:15.567Z</time></trkpt><trkpt lat="45.773697" lon="8.7375702"><ele>401.0</ele><time>2026-04-16T10:07:16.57Z</time></trkpt><trkpt lat="45.7738066" lon="8.7376784"><ele>401.0</ele><time>2026-04-16T10:07:18.569Z</time></trkpt><trkpt lat="45.7738705" lon="8.7377298"><ele>401.0</ele><time>2026-04-16T10:07:19.565Z</time></trkpt><trkpt lat="45.7739323" lon="8.7377933"><ele>401.0</ele><time>2026-04-16T10:07:20.569Z</time></trkpt><trkpt lat="45.7740012" lon="8.7378556"><ele>401.0</ele><time>2026-04-16T10:07:21.568Z</time></trkpt><trkpt lat="45.7741164" lon="8.7379561"><ele>401.0</ele><time>2026-04-16T10:07:23.569Z</time></trkpt><trkpt lat="45.7742073" lon="8.738054"><ele>401.0</ele><time>2026-04-16T10:07:25.562Z</time></trkpt><trkpt lat="45.7742697" lon="8.7381284"><ele>401.0</ele><time>2026-04-16T10:07:27.566Z</time></trkpt><trkpt lat="45.7743144" lon="8.7382375"><ele>401.0</ele><time>2026-04-16T10:07:30.555Z</time></trkpt><trkpt lat="45.7743392" lon="8.7383946"><ele>401.0</ele><time>2026-04-16T10:07:32.564Z</time></trkpt><trkpt lat="45.7743327" lon="8.7384857"><ele>400.3333333333333</ele><time>2026-04-16T10:07:33.57Z</time></trkpt><trkpt lat="45.774356" lon="8.7385763"><ele>399.66666666666663</ele><time>2026-04-16T10:07:34.572Z</time></trkpt><trkpt lat="45.7743538" lon="8.7386881"><ele>399.0</ele><time>2026-04-16T10:07:35.574Z</time></trkpt><trkpt lat="45.7743765" lon="8.7387746"><ele>398.33333333333337</ele><time>2026-04-16T10:07:36.569Z</time></trkpt><trkpt lat="45.7744466" lon="8.7389204"><ele>397.6666666666667</ele><time>2026-04-16T10:07:38.57Z</time></trkpt><trkpt lat="45.7744796" lon="8.7390055"><ele>397.0</ele><time>2026-04-16T10:07:39.576Z</time></trkpt><trkpt lat="45.7744944" lon="8.7391059"><ele>397.00000000000006</ele><time>2026-04-16T10:07:40.589Z</time></trkpt><trkpt lat="45.7745149" lon="8.7392018"><ele>397.0</ele><time>2026-04-16T10:07:41.574Z</time></trkpt><trkpt lat="45.7745325" lon="8.7393065"><ele>397.0</ele><time>2026-04-16T10:07:42.571Z</time></trkpt><trkpt lat="45.7745639" lon="8.7393878"><ele>397.0</ele><time>2026-04-16T10:07:43.567Z</time></trkpt><trkpt lat="45.7746047" lon="8.7394762"><ele>397.00000000000006</ele><time>2026-04-16T10:07:44.577Z</time></trkpt><trkpt lat="45.7746295" lon="8.7395668"><ele>397.0</ele><time>2026-04-16T10:07:45.576Z</time></trkpt><trkpt lat="45.7746351" lon="8.7397514"><ele>396.6</ele><time>2026-04-16T10:07:47.571Z</time></trkpt><trkpt lat="45.7746206" lon="8.7399033"><ele>396.20000000000005</ele><time>2026-04-16T10:07:49.57Z</time></trkpt><trkpt lat="45.7745978" lon="8.740097"><ele>395.8</ele><time>2026-04-16T10:07:51.571Z</time></trkpt><trkpt lat="45.7745871" lon="8.7402107"><ele>395.4</ele><time>2026-04-16T10:07:52.576Z</time></trkpt><trkpt lat="45.7745767" lon="8.7403371"><ele>395.0</ele><time>2026-04-16T10:07:53.576Z</time></trkpt><trkpt lat="45.7745656" lon="8.7404389"><ele>394.99999999999994</ele><time>2026-04-16T10:07:54.576Z</time></trkpt><trkpt lat="45.774569" lon="8.7405337"><ele>395.0</ele><time>2026-04-16T10:07:55.579Z</time></trkpt><trkpt lat="45.7745859" lon="8.7406483"><ele>395.0</ele><time>2026-04-16T10:07:56.576Z</time></trkpt><trkpt lat="45.7746109" lon="8.740749"><ele>395.0</ele><time>2026-04-16T10:07:57.578Z</time></trkpt><trkpt lat="45.7746291" lon="8.7409119"><ele>394.99999999999994</ele><time>2026-04-16T10:07:59.578Z</time></trkpt><trkpt lat="45.7746596" lon="8.7410401"><ele>395.0</ele><time>2026-04-16T10:08:01.579Z</time></trkpt><trkpt lat="45.7746832" lon="8.7411351"><ele>394.99999999999994</ele><time>2026-04-16T10:08:02.584Z</time></trkpt><trkpt lat="45.7747252" lon="8.7412361"><ele>395.0</ele><time>2026-04-16T10:08:03.575Z</time></trkpt><trkpt lat="45.7747604" lon="8.7413329"><ele>395.0</ele><time>2026-04-16T10:08:04.578Z</time></trkpt><trkpt lat="45.7747878" lon="8.7414597"><ele>395.0</ele><time>2026-04-16T10:08:06.582Z</time></trkpt><trkpt lat="45.7748508" lon="8.7415633"><ele>394.99999999999994</ele><time>2026-04-16T10:08:08.575Z</time></trkpt><trkpt lat="45.7749141" lon="8.7415614"><ele>395.0</ele><time>2026-04-16T10:08:09.571Z</time></trkpt><trkpt lat="45.7750142" lon="8.7415649"><ele>394.99999999999994</ele><time>2026-04-16T10:08:11.586Z</time></trkpt><trkpt lat="45.7750868" lon="8.74155"><ele>395.0</ele><time>2026-04-16T10:08:12.574Z</time></trkpt><trkpt lat="45.7751593" lon="8.7415265"><ele>395.0</ele><time>2026-04-16T10:08:13.57Z</time></trkpt><trkpt lat="45.7752382" lon="8.7415124"><ele>395.0</ele><time>2026-04-16T10:08:14.569Z</time></trkpt><trkpt lat="45.7753151" lon="8.7414901"><ele>394.99999999999994</ele><time>2026-04-16T10:08:15.57Z</time></trkpt><trkpt lat="45.7754011" lon="8.7414406"><ele>395.0</ele><time>2026-04-16T10:08:16.573Z</time></trkpt><trkpt lat="45.775482" lon="8.7414"><ele>393.8</ele><time>2026-04-16T10:08:17.566Z</time></trkpt><trkpt lat="45.7755694" lon="8.7413489"><ele>392.6</ele><time>2026-04-16T10:08:18.574Z</time></trkpt><trkpt lat="45.7756733" lon="8.7413094"><ele>391.4</ele><time>2026-04-16T10:08:19.566Z</time></trkpt><trkpt lat="45.7757674" lon="8.7412658"><ele>390.2</ele><time>2026-04-16T10:08:20.565Z</time></trkpt><trkpt lat="45.7758823" lon="8.7412451"><ele>389.0</ele><time>2026-04-16T10:08:21.562Z</time></trkpt><trkpt lat="45.7760042" lon="8.7412237"><ele>388.4</ele><time>2026-04-16T10:08:22.563Z</time></trkpt><trkpt lat="45.776098" lon="8.7412266"><ele>387.79999999999995</ele><time>2026-04-16T10:08:23.558Z</time></trkpt><trkpt lat="45.7761835" lon="8.7412361"><ele>387.20000000000005</ele><time>2026-04-16T10:08:24.562Z</time></trkpt><trkpt lat="45.7762745" lon="8.7412476"><ele>386.6</ele><time>2026-04-16T10:08:25.558Z</time></trkpt><trkpt lat="45.7763689" lon="8.7412421"><ele>386.0</ele><time>2026-04-16T10:08:26.566Z</time></trkpt><trkpt lat="45.7764663" lon="8.7412414"><ele>385.99999999999994</ele><time>2026-04-16T10:08:27.561Z</time></trkpt><trkpt lat="45.7765362" lon="8.7412357"><ele>386.0</ele><time>2026-04-16T10:08:28.558Z</time></trkpt><trkpt lat="45.7766032" lon="8.7412627"><ele>386.0</ele><time>2026-04-16T10:08:29.568Z</time></trkpt><trkpt lat="45.776716" lon="8.7413092"><ele>386.0</ele><time>2026-04-16T10:08:31.572Z</time></trkpt><trkpt lat="45.7768101" lon="8.7413904"><ele>385.99999999999994</ele><time>2026-04-16T10:08:33.575Z</time></trkpt><trkpt lat="45.7768674" lon="8.7414682"><ele>386.0</ele><time>2026-04-16T10:08:34.58Z</time></trkpt><trkpt lat="45.7769106" lon="8.7416157"><ele>385.0</ele><time>2026-04-16T10:08:36.576Z</time></trkpt><trkpt lat="45.7769149" lon="8.7417673"><ele>384.0</ele><time>2026-04-16T10:08:38.576Z</time></trkpt><trkpt lat="45.7769078" lon="8.7419592"><ele>383.0</ele><time>2026-04-16T10:08:40.583Z</time></trkpt><trkpt lat="45.7768954" lon="8.7420559"><ele>382.0</ele><time>2026-04-16T10:08:41.586Z</time></trkpt><trkpt lat="45.7768879" lon="8.7422094"><ele>381.0</ele><time>2026-04-16T10:08:43.571Z</time></trkpt><trkpt lat="45.7768867" lon="8.7423543"><ele>381.0</ele><time>2026-04-16T10:08:45.575Z</time></trkpt><trkpt lat="45.7769292" lon="8.7424708"><ele>381.0</ele><time>2026-04-16T10:08:47.578Z</time></trkpt><trkpt lat="45.7769739" lon="8.7425867"><ele>381.0</ele><time>2026-04-16T10:08:49.58Z</time></trkpt><trkpt lat="45.7770226" lon="8.7427193"><ele>381.0</ele><time>2026-04-16T10:08:51.584Z</time></trkpt><trkpt lat="45.7771065" lon="8.7427933"><ele>381.0</ele><time>2026-04-16T10:08:53.583Z</time></trkpt><trkpt lat="45.7771837" lon="8.742861"><ele>381.0</ele><time>2026-04-16T10:08:55.582Z</time></trkpt><trkpt lat="45.7772209" lon="8.7429529"><ele>381.0</ele><time>2026-04-16T10:08:57.584Z</time></trkpt><trkpt lat="45.7773101" lon="8.7429999"><ele>381.0</ele><time>2026-04-16T10:08:59.579Z</time></trkpt><trkpt lat="45.7774436" lon="8.743072"><ele>381.0</ele><time>2026-04-16T10:09:01.585Z</time></trkpt><trkpt lat="45.7775338" lon="8.7431552"><ele>381.0</ele><time>2026-04-16T10:09:02.587Z</time></trkpt><trkpt lat="45.7776379" lon="8.7432546"><ele>379.0</ele><time>2026-04-16T10:09:03.59Z</time></trkpt><trkpt lat="45.777757" lon="8.7433664"><ele>377.0</ele><time>2026-04-16T10:09:04.593Z</time></trkpt><trkpt lat="45.7778714" lon="8.7434789"><ele>375.0</ele><time>2026-04-16T10:09:05.595Z</time></trkpt><trkpt lat="45.7779768" lon="8.7436011"><ele>373.0</ele><time>2026-04-16T10:09:06.593Z</time></trkpt><trkpt lat="45.7781059" lon="8.7437241"><ele>373.0</ele><time>2026-04-16T10:09:07.591Z</time></trkpt><trkpt lat="45.7782358" lon="8.7438443"><ele>373.0</ele><time>2026-04-16T10:09:08.593Z</time></trkpt><trkpt lat="45.778358" lon="8.7439677"><ele>373.0</ele><time>2026-04-16T10:09:09.584Z</time></trkpt><trkpt lat="45.7784799" lon="8.7440789"><ele>373.0</ele><time>2026-04-16T10:09:10.59Z</time></trkpt><trkpt lat="45.7785909" lon="8.7442114"><ele>367.5</ele><time>2026-04-16T10:09:11.596Z</time></trkpt><trkpt lat="45.7786872" lon="8.7443562"><ele>362.0</ele><time>2026-04-16T10:09:12.583Z</time></trkpt><trkpt lat="45.778757" lon="8.7445141"><ele>356.5</ele><time>2026-04-16T10:09:13.581Z</time></trkpt><trkpt lat="45.7788419" lon="8.7446977"><ele>351.0</ele><time>2026-04-16T10:09:14.578Z</time></trkpt><trkpt lat="45.7789123" lon="8.7448522"><ele>351.0</ele><time>2026-04-16T10:09:15.577Z</time></trkpt><trkpt lat="45.7789726" lon="8.7450505"><ele>351.0</ele><time>2026-04-16T10:09:16.58Z</time></trkpt><trkpt lat="45.779037" lon="8.7452344"><ele>351.0</ele><time>2026-04-16T10:09:17.577Z</time></trkpt><trkpt lat="45.7790661" lon="8.745434"><ele>351.0</ele><time>2026-04-16T10:09:18.58Z</time></trkpt><trkpt lat="45.7790888" lon="8.7456512"><ele>351.3333333333333</ele><time>2026-04-16T10:09:19.575Z</time></trkpt><trkpt lat="45.7791087" lon="8.7458511"><ele>351.66666666666663</ele><time>2026-04-16T10:09:20.573Z</time></trkpt><trkpt lat="45.7791018" lon="8.7460687"><ele>352.0</ele><time>2026-04-16T10:09:21.571Z</time></trkpt><trkpt lat="45.7790791" lon="8.7462942"><ele>353.5</ele><time>2026-04-16T10:09:22.575Z</time></trkpt><trkpt lat="45.7790766" lon="8.7465069"><ele>355.0</ele><time>2026-04-16T10:09:23.568Z</time></trkpt><trkpt lat="45.7790891" lon="8.7467219"><ele>356.5</ele><time>2026-04-16T10:09:24.574Z</time></trkpt><trkpt lat="45.7791018" lon="8.746904"><ele>358.0</ele><time>2026-04-16T10:09:25.57Z</time></trkpt><trkpt lat="45.7791155" lon="8.7470823"><ele>358.0</ele><time>2026-04-16T10:09:26.579Z</time></trkpt><trkpt lat="45.779132" lon="8.7472403"><ele>358.0</ele><time>2026-04-16T10:09:27.571Z</time></trkpt><trkpt lat="45.7791752" lon="8.7473867"><ele>358.0</ele><time>2026-04-16T10:09:28.578Z</time></trkpt><trkpt lat="45.7792376" lon="8.7475193"><ele>358.0</ele><time>2026-04-16T10:09:29.571Z</time></trkpt><trkpt lat="45.7793092" lon="8.7476673"><ele>354.59999999999997</ele><time>2026-04-16T10:09:30.575Z</time></trkpt><trkpt lat="45.7793925" lon="8.7477823"><ele>351.2</ele><time>2026-04-16T10:09:31.579Z</time></trkpt><trkpt lat="45.7794798" lon="8.7478924"><ele>347.8</ele><time>2026-04-16T10:09:32.584Z</time></trkpt><trkpt lat="45.779538" lon="8.7480046"><ele>344.4</ele><time>2026-04-16T10:09:33.577Z</time></trkpt><trkpt lat="45.7795724" lon="8.7481179"><ele>341.0</ele><time>2026-04-16T10:09:34.58Z</time></trkpt><trkpt lat="45.7796038" lon="8.7482683"><ele>341.0</ele><time>2026-04-16T10:09:35.581Z</time></trkpt><trkpt lat="45.7796191" lon="8.7484455"><ele>341.0</ele><time>2026-04-16T10:09:36.588Z</time></trkpt><trkpt lat="45.7796159" lon="8.7486371"><ele>341.0</ele><time>2026-04-16T10:09:37.581Z</time></trkpt><trkpt lat="45.7796135" lon="8.7487994"><ele>341.0</ele><time>2026-04-16T10:09:38.582Z</time></trkpt><trkpt lat="45.7796147" lon="8.7489676"><ele>341.75</ele><time>2026-04-16T10:09:39.582Z</time></trkpt><trkpt lat="45.7796514" lon="8.7491153"><ele>342.5</ele><time>2026-04-16T10:09:40.58Z</time></trkpt><trkpt lat="45.7797108" lon="8.7492705"><ele>343.25</ele><time>2026-04-16T10:09:41.577Z</time></trkpt><trkpt lat="45.7797651" lon="8.7494126"><ele>344.0</ele><time>2026-04-16T10:09:42.584Z</time></trkpt><trkpt lat="45.7798235" lon="8.7495503"><ele>344.0</ele><time>2026-04-16T10:09:43.567Z</time></trkpt><trkpt lat="45.779882" lon="8.7496575"><ele>344.0</ele><time>2026-04-16T10:09:44.57Z</time></trkpt><trkpt lat="45.7799475" lon="8.7497369"><ele>344.0</ele><time>2026-04-16T10:09:45.567Z</time></trkpt><trkpt lat="45.7800107" lon="8.749752"><ele>344.0</ele><time>2026-04-16T10:09:46.583Z</time></trkpt><trkpt lat="45.7800737" lon="8.7497121"><ele>344.0</ele><time>2026-04-16T10:09:47.578Z</time></trkpt><trkpt lat="45.7801277" lon="8.7496175"><ele>344.0</ele><time>2026-04-16T10:09:48.581Z</time></trkpt><trkpt lat="45.7801655" lon="8.7494924"><ele>338.75</ele><time>2026-04-16T10:09:49.569Z</time></trkpt><trkpt lat="45.7802136" lon="8.7493678"><ele>333.5</ele><time>2026-04-16T10:09:50.566Z</time></trkpt><trkpt lat="45.7802415" lon="8.749193"><ele>328.25</ele><time>2026-04-16T10:09:51.564Z</time></trkpt><trkpt lat="45.780265" lon="8.7489802"><ele>323.0</ele><time>2026-04-16T10:09:52.572Z</time></trkpt><trkpt lat="45.780282" lon="8.748763"><ele>322.0</ele><time>2026-04-16T10:09:53.569Z</time></trkpt><trkpt lat="45.7802818" lon="8.748505"><ele>321.0</ele><time>2026-04-16T10:09:54.583Z</time></trkpt><trkpt lat="45.7802837" lon="8.7482718"><ele>320.0</ele><time>2026-04-16T10:09:55.575Z</time></trkpt><trkpt lat="45.780283" lon="8.7480665"><ele>320.0</ele><time>2026-04-16T10:09:56.578Z</time></trkpt><trkpt lat="45.7803071" lon="8.747945"><ele>320.0</ele><time>2026-04-16T10:09:57.572Z</time></trkpt><trkpt lat="45.7803862" lon="8.7478431"><ele>320.0</ele><time>2026-04-16T10:09:59.574Z</time></trkpt><trkpt lat="45.7804709" lon="8.7479421"><ele>320.0</ele><time>2026-04-16T10:10:01.574Z</time></trkpt><trkpt lat="45.7805233" lon="8.7480646"><ele>320.0</ele><time>2026-04-16T10:10:02.587Z</time></trkpt><trkpt lat="45.7805898" lon="8.7482382"><ele>320.0</ele><time>2026-04-16T10:10:03.584Z</time></trkpt><trkpt lat="45.7806792" lon="8.748443"><ele>320.0</ele><time>2026-04-16T10:10:04.576Z</time></trkpt><trkpt lat="45.7807785" lon="8.7486431"><ele>320.0</ele><time>2026-04-16T10:10:05.583Z</time></trkpt><trkpt lat="45.7808836" lon="8.7488559"><ele>321.0</ele><time>2026-04-16T10:10:06.573Z</time></trkpt><trkpt lat="45.7809709" lon="8.7490456"><ele>322.0</ele><time>2026-04-16T10:10:07.581Z</time></trkpt><trkpt lat="45.7810288" lon="8.7492422"><ele>323.0</ele><time>2026-04-16T10:10:08.575Z</time></trkpt><trkpt lat="45.7810725" lon="8.7494394"><ele>320.33333333333337</ele><time>2026-04-16T10:10:09.573Z</time></trkpt><trkpt lat="45.7811306" lon="8.7496856"><ele>317.6666666666667</ele><time>2026-04-16T10:10:10.574Z</time></trkpt><trkpt lat="45.7811796" lon="8.7499404"><ele>315.0</ele><time>2026-04-16T10:10:11.58Z</time></trkpt><trkpt lat="45.7812085" lon="8.7502279"><ele>315.0</ele><time>2026-04-16T10:10:12.571Z</time></trkpt><trkpt lat="45.7812393" lon="8.7505161"><ele>315.0</ele><time>2026-04-16T10:10:13.577Z</time></trkpt><trkpt lat="45.7812643" lon="8.7507479"><ele>315.0</ele><time>2026-04-16T10:10:14.567Z</time></trkpt><trkpt lat="45.7812815" lon="8.7509634"><ele>315.25</ele><time>2026-04-16T10:10:15.574Z</time></trkpt><trkpt lat="45.7813042" lon="8.7511513"><ele>315.5</ele><time>2026-04-16T10:10:16.575Z</time></trkpt><trkpt lat="45.781312" lon="8.7513187"><ele>315.75</ele><time>2026-04-16T10:10:17.569Z</time></trkpt><trkpt lat="45.7813316" lon="8.7515033"><ele>316.0</ele><time>2026-04-16T10:10:18.574Z</time></trkpt><trkpt lat="45.7813357" lon="8.751652"><ele>316.0</ele><time>2026-04-16T10:10:19.582Z</time></trkpt><trkpt lat="45.7813303" lon="8.7517936"><ele>316.0</ele><time>2026-04-16T10:10:20.588Z</time></trkpt><trkpt lat="45.7813199" lon="8.7519105"><ele>316.0</ele><time>2026-04-16T10:10:21.583Z</time></trkpt><trkpt lat="45.7813194" lon="8.7520279"><ele>316.0</ele><time>2026-04-16T10:10:22.59Z</time></trkpt><trkpt lat="45.7813246" lon="8.7521491"><ele>316.0</ele><time>2026-04-16T10:10:23.587Z</time></trkpt><trkpt lat="45.7813362" lon="8.7522612"><ele>316.0</ele><time>2026-04-16T10:10:24.597Z</time></trkpt><trkpt lat="45.7813576" lon="8.7523663"><ele>316.0</ele><time>2026-04-16T10:10:25.581Z</time></trkpt><trkpt lat="45.7813728" lon="8.7524586"><ele>316.0</ele><time>2026-04-16T10:10:26.588Z</time></trkpt><trkpt lat="45.7813419" lon="8.752563"><ele>316.0</ele><time>2026-04-16T10:10:28.584Z</time></trkpt><trkpt lat="45.7812663" lon="8.7525418"><ele>316.0</ele><time>2026-04-16T10:10:29.582Z</time></trkpt><trkpt lat="45.78119" lon="8.7525403"><ele>316.0</ele><time>2026-04-16T10:10:30.579Z</time></trkpt><trkpt lat="45.7811006" lon="8.7525681"><ele>316.0</ele><time>2026-04-16T10:10:31.584Z</time></trkpt><trkpt lat="45.7809979" lon="8.7526052"><ele>316.40000000000003</ele><time>2026-04-16T10:10:32.575Z</time></trkpt><trkpt lat="45.7809022" lon="8.7526371"><ele>316.8</ele><time>2026-04-16T10:10:33.578Z</time></trkpt><trkpt lat="45.7808193" lon="8.7527067"><ele>317.20000000000005</ele><time>2026-04-16T10:10:34.579Z</time></trkpt><trkpt lat="45.7807402" lon="8.7528072"><ele>317.6</ele><time>2026-04-16T10:10:35.571Z</time></trkpt><trkpt lat="45.7806478" lon="8.7528931"><ele>318.0</ele><time>2026-04-16T10:10:36.584Z</time></trkpt><trkpt lat="45.7805535" lon="8.7529808"><ele>318.0</ele><time>2026-04-16T10:10:37.583Z</time></trkpt><trkpt lat="45.78045" lon="8.7530645"><ele>318.0</ele><time>2026-04-16T10:10:38.583Z</time></trkpt><trkpt lat="45.7803341" lon="8.7531661"><ele>318.0</ele><time>2026-04-16T10:10:39.583Z</time></trkpt><trkpt lat="45.780226" lon="8.7532541"><ele>318.0</ele><time>2026-04-16T10:10:40.59Z</time></trkpt><trkpt lat="45.7801199" lon="8.7533336"><ele>317.4</ele><time>2026-04-16T10:10:41.591Z</time></trkpt><trkpt lat="45.7800222" lon="8.7534053"><ele>316.8</ele><time>2026-04-16T10:10:42.582Z</time></trkpt><trkpt lat="45.7799316" lon="8.7534622"><ele>316.2</ele><time>2026-04-16T10:10:43.586Z</time></trkpt><trkpt lat="45.7798318" lon="8.7535188"><ele>315.6</ele><time>2026-04-16T10:10:44.602Z</time></trkpt><trkpt lat="45.7797354" lon="8.7535479"><ele>315.0</ele><time>2026-04-16T10:10:45.579Z</time></trkpt><trkpt lat="45.7796346" lon="8.7535778"><ele>315.0</ele><time>2026-04-16T10:10:46.583Z</time></trkpt><trkpt lat="45.7795279" lon="8.7536047"><ele>315.0</ele><time>2026-04-16T10:10:47.58Z</time></trkpt><trkpt lat="45.7794275" lon="8.7536239"><ele>315.0</ele><time>2026-04-16T10:10:48.584Z</time></trkpt><trkpt lat="45.7793314" lon="8.7536267"><ele>315.0</ele><time>2026-04-16T10:10:49.586Z</time></trkpt><trkpt lat="45.7792366" lon="8.7536279"><ele>315.0</ele><time>2026-04-16T10:10:50.589Z</time></trkpt><trkpt lat="45.7791452" lon="8.7536176"><ele>315.1666666666667</ele><time>2026-04-16T10:10:51.591Z</time></trkpt><trkpt lat="45.7790536" lon="8.7535845"><ele>315.3333333333333</ele><time>2026-04-16T10:10:52.589Z</time></trkpt><trkpt lat="45.7789802" lon="8.7535471"><ele>315.5</ele><time>2026-04-16T10:10:53.596Z</time></trkpt><trkpt lat="45.7789263" lon="8.753473"><ele>315.66666666666663</ele><time>2026-04-16T10:10:54.59Z</time></trkpt><trkpt lat="45.7789017" lon="8.7533595"><ele>315.8333333333333</ele><time>2026-04-16T10:10:55.575Z</time></trkpt><trkpt lat="45.7788896" lon="8.7532252"><ele>316.0</ele><time>2026-04-16T10:10:56.577Z</time></trkpt><trkpt lat="45.7788623" lon="8.7530807"><ele>317.0</ele><time>2026-04-16T10:10:57.58Z</time></trkpt><trkpt lat="45.77884" lon="8.7529245"><ele>318.0</ele><time>2026-04-16T10:10:58.575Z</time></trkpt><trkpt lat="45.7787959" lon="8.7527896"><ele>319.0</ele><time>2026-04-16T10:10:59.582Z</time></trkpt><trkpt lat="45.7787465" lon="8.7526925"><ele>320.0</ele><time>2026-04-16T10:11:00.582Z</time></trkpt><trkpt lat="45.778684" lon="8.7526389"><ele>321.0</ele><time>2026-04-16T10:11:01.59Z</time></trkpt><trkpt lat="45.7786156" lon="8.7525674"><ele>320.0</ele><time>2026-04-16T10:11:02.596Z</time></trkpt><trkpt lat="45.7785588" lon="8.7524974"><ele>319.0</ele><time>2026-04-16T10:11:03.587Z</time></trkpt><trkpt lat="45.7785018" lon="8.7524218"><ele>318.0</ele><time>2026-04-16T10:11:04.589Z</time></trkpt><trkpt lat="45.7784449" lon="8.7523314"><ele>317.0</ele><time>2026-04-16T10:11:05.586Z</time></trkpt><trkpt lat="45.7784036" lon="8.7522393"><ele>316.0</ele><time>2026-04-16T10:11:06.574Z</time></trkpt><trkpt lat="45.7783513" lon="8.7521383"><ele>315.0</ele><time>2026-04-16T10:11:07.581Z</time></trkpt><trkpt lat="45.7783149" lon="8.7520356"><ele>315.0</ele><time>2026-04-16T10:11:08.58Z</time></trkpt><trkpt lat="45.7782899" lon="8.7519402"><ele>315.0</ele><time>2026-04-16T10:11:09.576Z</time></trkpt><trkpt lat="45.7782682" lon="8.7518005"><ele>315.0</ele><time>2026-04-16T10:11:10.575Z</time></trkpt><trkpt lat="45.7782524" lon="8.7516686"><ele>315.0</ele><time>2026-04-16T10:11:11.576Z</time></trkpt><trkpt lat="45.7782427" lon="8.7515386"><ele>315.0</ele><time>2026-04-16T10:11:12.574Z</time></trkpt><trkpt lat="45.7782308" lon="8.7514174"><ele>315.0</ele><time>2026-04-16T10:11:13.571Z</time></trkpt><trkpt lat="45.7782136" lon="8.7512796"><ele>315.3333333333333</ele><time>2026-04-16T10:11:14.571Z</time></trkpt><trkpt lat="45.778187" lon="8.7511628"><ele>315.6666666666667</ele><time>2026-04-16T10:11:15.586Z</time></trkpt><trkpt lat="45.7781403" lon="8.7510682"><ele>316.0</ele><time>2026-04-16T10:11:16.567Z</time></trkpt><trkpt lat="45.7780877" lon="8.7509877"><ele>316.33333333333337</ele><time>2026-04-16T10:11:17.577Z</time></trkpt><trkpt lat="45.7780231" lon="8.7509348"><ele>316.6666666666667</ele><time>2026-04-16T10:11:18.574Z</time></trkpt><trkpt lat="45.7779396" lon="8.750902"><ele>317.0</ele><time>2026-04-16T10:11:19.572Z</time></trkpt><trkpt lat="45.7778574" lon="8.7508754"><ele>317.83333333333337</ele><time>2026-04-16T10:11:20.578Z</time></trkpt><trkpt lat="45.7777717" lon="8.7508476"><ele>318.6666666666667</ele><time>2026-04-16T10:11:21.579Z</time></trkpt><trkpt lat="45.7776711" lon="8.7508149"><ele>319.5</ele><time>2026-04-16T10:11:22.583Z</time></trkpt><trkpt lat="45.7775893" lon="8.7507948"><ele>320.3333333333333</ele><time>2026-04-16T10:11:23.575Z</time></trkpt><trkpt lat="45.7775014" lon="8.7507783"><ele>321.16666666666663</ele><time>2026-04-16T10:11:24.578Z</time></trkpt><trkpt lat="45.777418" lon="8.7507444"><ele>322.0</ele><time>2026-04-16T10:11:25.575Z</time></trkpt><trkpt lat="45.7773432" lon="8.7506895"><ele>322.0</ele><time>2026-04-16T10:11:26.58Z</time></trkpt><trkpt lat="45.7772781" lon="8.7506175"><ele>322.0</ele><time>2026-04-16T10:11:27.571Z</time></trkpt><trkpt lat="45.7772167" lon="8.7505453"><ele>322.0</ele><time>2026-04-16T10:11:28.564Z</time></trkpt><trkpt lat="45.7771613" lon="8.7504735"><ele>322.0</ele><time>2026-04-16T10:11:29.565Z</time></trkpt><trkpt lat="45.7770962" lon="8.7503777"><ele>322.0</ele><time>2026-04-16T10:11:30.567Z</time></trkpt><trkpt lat="45.7770236" lon="8.750296"><ele>322.0</ele><time>2026-04-16T10:11:31.561Z</time></trkpt><trkpt lat="45.7769316" lon="8.7502178"><ele>323.0</ele><time>2026-04-16T10:11:32.571Z</time></trkpt><trkpt lat="45.7768448" lon="8.75013"><ele>324.0</ele><time>2026-04-16T10:11:33.565Z</time></trkpt><trkpt lat="45.7767536" lon="8.7500721"><ele>325.0</ele><time>2026-04-16T10:11:34.571Z</time></trkpt><trkpt lat="45.7766668" lon="8.7500167"><ele>326.0</ele><time>2026-04-16T10:11:35.56Z</time></trkpt><trkpt lat="45.7765745" lon="8.7499415"><ele>327.0</ele><time>2026-04-16T10:11:36.564Z</time></trkpt><trkpt lat="45.7765007" lon="8.7498649"><ele>327.0</ele><time>2026-04-16T10:11:37.563Z</time></trkpt><trkpt lat="45.7764217" lon="8.7497762"><ele>327.0</ele><time>2026-04-16T10:11:38.563Z</time></trkpt><trkpt lat="45.7763611" lon="8.7496737"><ele>327.0</ele><time>2026-04-16T10:11:39.566Z</time></trkpt><trkpt lat="45.7763101" lon="8.7495782"><ele>327.0</ele><time>2026-04-16T10:11:40.566Z</time></trkpt><trkpt lat="45.7762721" lon="8.7494592"><ele>327.0</ele><time>2026-04-16T10:11:41.561Z</time></trkpt><trkpt lat="45.7762522" lon="8.74934"><ele>328.3333333333333</ele><time>2026-04-16T10:11:42.564Z</time></trkpt><trkpt lat="45.7762113" lon="8.749264"><ele>329.6666666666667</ele><time>2026-04-16T10:11:43.554Z</time></trkpt><trkpt lat="45.7762093" lon="8.7491669"><ele>331.0</ele><time>2026-04-16T10:11:44.557Z</time></trkpt><trkpt lat="45.7761892" lon="8.7490402"><ele>332.33333333333337</ele><time>2026-04-16T10:11:45.552Z</time></trkpt><trkpt lat="45.7761369" lon="8.7489334"><ele>333.6666666666667</ele><time>2026-04-16T10:11:46.583Z</time></trkpt><trkpt lat="45.7760644" lon="8.7487998"><ele>335.0</ele><time>2026-04-16T10:11:47.562Z</time></trkpt><trkpt lat="45.7759892" lon="8.7486596"><ele>330.5</ele><time>2026-04-16T10:11:48.567Z</time></trkpt><trkpt lat="45.775944" lon="8.7484908"><ele>326.0</ele><time>2026-04-16T10:11:49.559Z</time></trkpt><trkpt lat="45.77591" lon="8.7483096"><ele>321.5</ele><time>2026-04-16T10:11:50.56Z</time></trkpt><trkpt lat="45.7758844" lon="8.748132"><ele>317.0</ele><time>2026-04-16T10:11:51.555Z</time></trkpt><trkpt lat="45.775858" lon="8.7479648"><ele>317.0</ele><time>2026-04-16T10:11:52.558Z</time></trkpt><trkpt lat="45.7758225" lon="8.7478184"><ele>317.0</ele><time>2026-04-16T10:11:53.555Z</time></trkpt><trkpt lat="45.7757561" lon="8.7476535"><ele>317.0</ele><time>2026-04-16T10:11:54.567Z</time></trkpt><trkpt lat="45.7757098" lon="8.7475391"><ele>317.0</ele><time>2026-04-16T10:11:55.568Z</time></trkpt><trkpt lat="45.7756517" lon="8.7474429"><ele>317.0</ele><time>2026-04-16T10:11:56.576Z</time></trkpt><trkpt lat="45.775594" lon="8.7473742"><ele>315.8</ele><time>2026-04-16T10:11:57.572Z</time></trkpt><trkpt lat="45.7754852" lon="8.747342"><ele>314.6</ele><time>2026-04-16T10:11:59.571Z</time></trkpt><trkpt lat="45.7753721" lon="8.7473714"><ele>313.40000000000003</ele><time>2026-04-16T10:12:01.574Z</time></trkpt><trkpt lat="45.7752835" lon="8.7474188"><ele>312.2</ele><time>2026-04-16T10:12:03.578Z</time></trkpt><trkpt lat="45.7752145" lon="8.7474705"><ele>311.0</ele><time>2026-04-16T10:12:05.572Z</time></trkpt><trkpt lat="45.7751438" lon="8.7475263"><ele>311.0</ele><time>2026-04-16T10:12:07.569Z</time></trkpt><trkpt lat="45.7750539" lon="8.7475282"><ele>311.0</ele><time>2026-04-16T10:12:09.565Z</time></trkpt><trkpt lat="45.7749328" lon="8.747572"><ele>311.0</ele><time>2026-04-16T10:12:11.561Z</time></trkpt><trkpt lat="45.7748456" lon="8.7476505"><ele>311.0</ele><time>2026-04-16T10:12:13.549Z</time></trkpt><trkpt lat="45.7747416" lon="8.7476902"><ele>311.0</ele><time>2026-04-16T10:12:15.559Z</time></trkpt><trkpt lat="45.7746626" lon="8.7478278"><ele>310.6666666666667</ele><time>2026-04-16T10:12:17.56Z</time></trkpt><trkpt lat="45.7746126" lon="8.747917"><ele>310.33333333333337</ele><time>2026-04-16T10:12:18.569Z</time></trkpt><trkpt lat="45.7745297" lon="8.7479731"><ele>310.0</ele><time>2026-04-16T10:12:20.575Z</time></trkpt><trkpt lat="45.7744825" lon="8.7480375"><ele>309.6666666666667</ele><time>2026-04-16T10:12:22.567Z</time></trkpt><trkpt lat="45.7744313" lon="8.7481091"><ele>309.3333333333333</ele><time>2026-04-16T10:12:24.581Z</time></trkpt><trkpt lat="45.7743811" lon="8.7481764"><ele>309.0</ele><time>2026-04-16T10:12:26.579Z</time></trkpt><trkpt lat="45.7743268" lon="8.7482614"><ele>308.59999999999997</ele><time>2026-04-16T10:12:28.578Z</time></trkpt><trkpt lat="45.7742626" lon="8.7483572"><ele>308.2</ele><time>2026-04-16T10:12:30.579Z</time></trkpt><trkpt lat="45.774188" lon="8.7484503"><ele>307.79999999999995</ele><time>2026-04-16T10:12:32.583Z</time></trkpt><trkpt lat="45.7741033" lon="8.7485333"><ele>307.4</ele><time>2026-04-16T10:12:34.58Z</time></trkpt><trkpt lat="45.7740033" lon="8.7486307"><ele>307.0</ele><time>2026-04-16T10:12:36.582Z</time></trkpt><trkpt lat="45.7739011" lon="8.7487291"><ele>307.0</ele><time>2026-04-16T10:12:38.575Z</time></trkpt><trkpt lat="45.7738523" lon="8.7487913"><ele>307.0</ele><time>2026-04-16T10:12:39.575Z</time></trkpt><trkpt lat="45.7737865" lon="8.7488667"><ele>307.0</ele><time>2026-04-16T10:12:40.577Z</time></trkpt><trkpt lat="45.7737116" lon="8.7489552"><ele>307.0</ele><time>2026-04-16T10:12:41.576Z</time></trkpt><trkpt lat="45.7736336" lon="8.7490426"><ele>307.0</ele><time>2026-04-16T10:12:42.575Z</time></trkpt><trkpt lat="45.7735366" lon="8.7491378"><ele>308.0</ele><time>2026-04-16T10:12:43.572Z</time></trkpt><trkpt lat="45.773447" lon="8.7492461"><ele>309.0</ele><time>2026-04-16T10:12:44.572Z</time></trkpt><trkpt lat="45.7733747" lon="8.7493492"><ele>310.0</ele><time>2026-04-16T10:12:45.567Z</time></trkpt><trkpt lat="45.7733052" lon="8.7494449"><ele>311.0</ele><time>2026-04-16T10:12:46.562Z</time></trkpt><trkpt lat="45.7732358" lon="8.7495407"><ele>312.0</ele><time>2026-04-16T10:12:47.581Z</time></trkpt><trkpt lat="45.7731587" lon="8.7496508"><ele>309.4</ele><time>2026-04-16T10:12:48.565Z</time></trkpt><trkpt lat="45.7730681" lon="8.7497497"><ele>306.79999999999995</ele><time>2026-04-16T10:12:49.567Z</time></trkpt><trkpt lat="45.7729992" lon="8.7498364"><ele>304.2</ele><time>2026-04-16T10:12:50.563Z</time></trkpt><trkpt lat="45.7729078" lon="8.7498859"><ele>301.59999999999997</ele><time>2026-04-16T10:12:51.559Z</time></trkpt><trkpt lat="45.7728119" lon="8.7499393"><ele>299.0</ele><time>2026-04-16T10:12:52.565Z</time></trkpt><trkpt lat="45.7727059" lon="8.7499719"><ele>301.25</ele><time>2026-04-16T10:12:53.564Z</time></trkpt><trkpt lat="45.7726113" lon="8.7499911"><ele>303.5</ele><time>2026-04-16T10:12:54.569Z</time></trkpt><trkpt lat="45.7724969" lon="8.7500209"><ele>305.75</ele><time>2026-04-16T10:12:55.569Z</time></trkpt><trkpt lat="45.7723776" lon="8.7500492"><ele>308.0</ele><time>2026-04-16T10:12:56.569Z</time></trkpt><trkpt lat="45.7722535" lon="8.7500773"><ele>308.0</ele><time>2026-04-16T10:12:57.569Z</time></trkpt><trkpt lat="45.7721357" lon="8.7501321"><ele>308.0</ele><time>2026-04-16T10:12:58.563Z</time></trkpt><trkpt lat="45.7719971" lon="8.7501855"><ele>308.0</ele><time>2026-04-16T10:12:59.561Z</time></trkpt><trkpt lat="45.7718693" lon="8.7502515"><ele>308.0</ele><time>2026-04-16T10:13:00.56Z</time></trkpt><trkpt lat="45.7717447" lon="8.7503628"><ele>309.0</ele><time>2026-04-16T10:13:01.56Z</time></trkpt><trkpt lat="45.7716401" lon="8.7504612"><ele>310.0</ele><time>2026-04-16T10:13:02.555Z</time></trkpt><trkpt lat="45.7715365" lon="8.7505642"><ele>311.0</ele><time>2026-04-16T10:13:03.564Z</time></trkpt><trkpt lat="45.7714283" lon="8.750676"><ele>312.0</ele><time>2026-04-16T10:13:04.569Z</time></trkpt><trkpt lat="45.7713314" lon="8.7507814"><ele>312.0</ele><time>2026-04-16T10:13:05.568Z</time></trkpt><trkpt lat="45.7712423" lon="8.7508732"><ele>312.0</ele><time>2026-04-16T10:13:06.573Z</time></trkpt><trkpt lat="45.7711551" lon="8.7509818"><ele>312.0</ele><time>2026-04-16T10:13:07.565Z</time></trkpt><trkpt lat="45.7710781" lon="8.751086"><ele>312.0</ele><time>2026-04-16T10:13:08.57Z</time></trkpt><trkpt lat="45.7709778" lon="8.751188"><ele>310.0</ele><time>2026-04-16T10:13:10.578Z</time></trkpt><trkpt lat="45.770944" lon="8.7512961"><ele>308.0</ele><time>2026-04-16T10:13:11.58Z</time></trkpt><trkpt lat="45.7709255" lon="8.7514538"><ele>306.0</ele><time>2026-04-16T10:13:12.58Z</time></trkpt><trkpt lat="45.7709055" lon="8.7516518"><ele>304.0</ele><time>2026-04-16T10:13:13.572Z</time></trkpt><trkpt lat="45.7708939" lon="8.7518698"><ele>301.75</ele><time>2026-04-16T10:13:14.568Z</time></trkpt><trkpt lat="45.7708931" lon="8.7520848"><ele>299.5</ele><time>2026-04-16T10:13:15.569Z</time></trkpt><trkpt lat="45.7708855" lon="8.7522718"><ele>297.25</ele><time>2026-04-16T10:13:16.57Z</time></trkpt><trkpt lat="45.7708763" lon="8.7524698"><ele>295.0</ele><time>2026-04-16T10:13:17.591Z</time></trkpt><trkpt lat="45.7708779" lon="8.7526966"><ele>296.66666666666663</ele><time>2026-04-16T10:13:18.57Z</time></trkpt><trkpt lat="45.7708877" lon="8.7529201"><ele>298.3333333333333</ele><time>2026-04-16T10:13:19.573Z</time></trkpt><trkpt lat="45.7709005" lon="8.7531499"><ele>300.0</ele><time>2026-04-16T10:13:20.568Z</time></trkpt><trkpt lat="45.7709179" lon="8.7533582"><ele>300.0</ele><time>2026-04-16T10:13:21.571Z</time></trkpt><trkpt lat="45.7709362" lon="8.7535378"><ele>300.0</ele><time>2026-04-16T10:13:22.576Z</time></trkpt><trkpt lat="45.7709321" lon="8.7536956"><ele>300.0</ele><time>2026-04-16T10:13:23.573Z</time></trkpt><trkpt lat="45.7709098" lon="8.7538024"><ele>300.0</ele><time>2026-04-16T10:13:24.577Z</time></trkpt><trkpt lat="45.7708747" lon="8.7538983"><ele>300.0</ele><time>2026-04-16T10:13:25.581Z</time></trkpt><trkpt lat="45.7708237" lon="8.7539903"><ele>302.2</ele><time>2026-04-16T10:13:26.576Z</time></trkpt><trkpt lat="45.7707587" lon="8.7540734"><ele>304.4</ele><time>2026-04-16T10:13:27.574Z</time></trkpt><trkpt lat="45.7706587" lon="8.7541159"><ele>306.6</ele><time>2026-04-16T10:13:28.574Z</time></trkpt><trkpt lat="45.7705798" lon="8.7541589"><ele>308.8</ele><time>2026-04-16T10:13:29.573Z</time></trkpt><trkpt lat="45.7704974" lon="8.754204"><ele>311.0</ele><time>2026-04-16T10:13:30.572Z</time></trkpt><trkpt lat="45.7704042" lon="8.7542209"><ele>311.0</ele><time>2026-04-16T10:13:31.575Z</time></trkpt><trkpt lat="45.7703164" lon="8.7542418"><ele>311.0</ele><time>2026-04-16T10:13:32.571Z</time></trkpt><trkpt lat="45.7702465" lon="8.7543224"><ele>311.0</ele><time>2026-04-16T10:13:34.574Z</time></trkpt><trkpt lat="45.7702355" lon="8.7544789"><ele>311.0</ele><time>2026-04-16T10:13:36.58Z</time></trkpt><trkpt lat="45.7702774" lon="8.7546593"><ele>311.0</ele><time>2026-04-16T10:13:38.585Z</time></trkpt><trkpt lat="45.7703012" lon="8.7547965"><ele>311.0</ele><time>2026-04-16T10:13:39.571Z</time></trkpt><trkpt lat="45.770326" lon="8.7549334"><ele>311.0</ele><time>2026-04-16T10:13:40.576Z</time></trkpt><trkpt lat="45.7703401" lon="8.7550617"><ele>311.0</ele><time>2026-04-16T10:13:41.571Z</time></trkpt><trkpt lat="45.7703528" lon="8.7552067"><ele>311.0</ele><time>2026-04-16T10:13:42.573Z</time></trkpt><trkpt lat="45.7703741" lon="8.755372"><ele>311.0</ele><time>2026-04-16T10:13:43.57Z</time></trkpt><trkpt lat="45.7704015" lon="8.7555573"><ele>311.0</ele><time>2026-04-16T10:13:44.575Z</time></trkpt><trkpt lat="45.770446" lon="8.7557142"><ele>311.0</ele><time>2026-04-16T10:13:45.575Z</time></trkpt><trkpt lat="45.7704717" lon="8.7558428"><ele>311.0</ele><time>2026-04-16T10:13:46.58Z</time></trkpt><trkpt lat="45.7705174" lon="8.7559537"><ele>311.0</ele><time>2026-04-16T10:13:47.582Z</time></trkpt><trkpt lat="45.7705491" lon="8.7560631"><ele>311.0</ele><time>2026-04-16T10:13:48.595Z</time></trkpt><trkpt lat="45.7705819" lon="8.7561649"><ele>308.6666666666667</ele><time>2026-04-16T10:13:49.58Z</time></trkpt><trkpt lat="45.7706377" lon="8.7562864"><ele>306.33333333333337</ele><time>2026-04-16T10:13:51.579Z</time></trkpt><trkpt lat="45.7706948" lon="8.7563677"><ele>304.0</ele><time>2026-04-16T10:13:52.571Z</time></trkpt><trkpt lat="45.7707624" lon="8.7564317"><ele>301.6666666666667</ele><time>2026-04-16T10:13:53.571Z</time></trkpt><trkpt lat="45.770823" lon="8.7564826"><ele>299.3333333333333</ele><time>2026-04-16T10:13:54.574Z</time></trkpt><trkpt lat="45.7708883" lon="8.7565575"><ele>297.0</ele><time>2026-04-16T10:13:55.577Z</time></trkpt><trkpt lat="45.7709462" lon="8.7566354"><ele>297.0</ele><time>2026-04-16T10:13:56.58Z</time></trkpt><trkpt lat="45.7709971" lon="8.7567347"><ele>297.0</ele><time>2026-04-16T10:13:57.584Z</time></trkpt><trkpt lat="45.7710615" lon="8.7568535"><ele>297.0</ele><time>2026-04-16T10:13:58.58Z</time></trkpt><trkpt lat="45.7711159" lon="8.7569763"><ele>297.0</ele><time>2026-04-16T10:13:59.575Z</time></trkpt><trkpt lat="45.771163" lon="8.7570919"><ele>297.0</ele><time>2026-04-16T10:14:00.578Z</time></trkpt><trkpt lat="45.7712222" lon="8.7572308"><ele>298.5</ele><time>2026-04-16T10:14:01.583Z</time></trkpt><trkpt lat="45.7712819" lon="8.757383"><ele>300.0</ele><time>2026-04-16T10:14:02.586Z</time></trkpt><trkpt lat="45.7713417" lon="8.7575334"><ele>301.5</ele><time>2026-04-16T10:14:03.583Z</time></trkpt><trkpt lat="45.7714106" lon="8.7576914"><ele>303.0</ele><time>2026-04-16T10:14:04.581Z</time></trkpt><trkpt lat="45.7714669" lon="8.7578462"><ele>303.0</ele><time>2026-04-16T10:14:05.58Z</time></trkpt><trkpt lat="45.7715101" lon="8.7579944"><ele>303.0</ele><time>2026-04-16T10:14:06.571Z</time></trkpt><trkpt lat="45.771562" lon="8.7581447"><ele>303.0</ele><time>2026-04-16T10:14:07.574Z</time></trkpt><trkpt lat="45.7716173" lon="8.7582915"><ele>303.0</ele><time>2026-04-16T10:14:08.574Z</time></trkpt><trkpt lat="45.7716605" lon="8.758424"><ele>303.0</ele><time>2026-04-16T10:14:09.576Z</time></trkpt><trkpt lat="45.7717083" lon="8.7585485"><ele>302.5</ele><time>2026-04-16T10:14:10.579Z</time></trkpt><trkpt lat="45.771751" lon="8.7586477"><ele>302.0</ele><time>2026-04-16T10:14:11.576Z</time></trkpt><trkpt lat="45.7717875" lon="8.7587373"><ele>301.5</ele><time>2026-04-16T10:14:12.583Z</time></trkpt><trkpt lat="45.7718273" lon="8.7588115"><ele>301.0</ele><time>2026-04-16T10:14:13.575Z</time></trkpt><trkpt lat="45.7718718" lon="8.7588852"><ele>300.5</ele><time>2026-04-16T10:14:16.574Z</time></trkpt><trkpt lat="45.7717238" lon="8.7589442"><ele>300.0</ele><time>2026-04-16T10:14:19.598Z</time></trkpt><trkpt lat="45.7716226" lon="8.7589207"><ele>300.0</ele><time>2026-04-16T10:14:20.586Z</time></trkpt><trkpt lat="45.7714937" lon="8.7589085"><ele>300.0</ele><time>2026-04-16T10:14:21.586Z</time></trkpt><trkpt lat="45.7713365" lon="8.7589714"><ele>300.0</ele><time>2026-04-16T10:14:22.594Z</time></trkpt><trkpt lat="45.7711991" lon="8.7590809"><ele>300.0</ele><time>2026-04-16T10:14:23.595Z</time></trkpt><trkpt lat="45.7710668" lon="8.7591772"><ele>300.0</ele><time>2026-04-16T10:14:24.581Z</time></trkpt><trkpt lat="45.7709386" lon="8.7592772"><ele>300.0</ele><time>2026-04-16T10:14:25.587Z</time></trkpt><trkpt lat="45.7708305" lon="8.7594123"><ele>300.0</ele><time>2026-04-16T10:14:26.592Z</time></trkpt><trkpt lat="45.7707383" lon="8.7595244"><ele>299.5</ele><time>2026-04-16T10:14:27.594Z</time></trkpt><trkpt lat="45.7706685" lon="8.7595886"><ele>299.0</ele><time>2026-04-16T10:14:28.58Z</time></trkpt><trkpt lat="45.7705942" lon="8.7596625"><ele>298.5</ele><time>2026-04-16T10:14:29.585Z</time></trkpt><trkpt lat="45.7705284" lon="8.7597299"><ele>298.0</ele><time>2026-04-16T10:14:30.58Z</time></trkpt><trkpt lat="45.7704577" lon="8.7597909"><ele>297.5</ele><time>2026-04-16T10:14:31.588Z</time></trkpt><trkpt lat="45.770386" lon="8.7598701"><ele>297.0</ele><time>2026-04-16T10:14:32.587Z</time></trkpt><trkpt lat="45.7703146" lon="8.7599776"><ele>297.0</ele><time>2026-04-16T10:14:33.594Z</time></trkpt><trkpt lat="45.7702415" lon="8.760093"><ele>297.0</ele><time>2026-04-16T10:14:34.595Z</time></trkpt><trkpt lat="45.7701616" lon="8.7602024"><ele>297.0</ele><time>2026-04-16T10:14:35.595Z</time></trkpt><trkpt lat="45.7700773" lon="8.7603172"><ele>297.0</ele><time>2026-04-16T10:14:36.603Z</time></trkpt><trkpt lat="45.7699875" lon="8.7604059"><ele>297.0</ele><time>2026-04-16T10:14:37.595Z</time></trkpt><trkpt lat="45.7699075" lon="8.7604822"><ele>296.3333333333333</ele><time>2026-04-16T10:14:38.599Z</time></trkpt><trkpt lat="45.7698295" lon="8.7605619"><ele>295.6666666666667</ele><time>2026-04-16T10:14:39.602Z</time></trkpt><trkpt lat="45.7697704" lon="8.7606324"><ele>295.0</ele><time>2026-04-16T10:14:40.594Z</time></trkpt><trkpt lat="45.76972" lon="8.7607091"><ele>294.33333333333337</ele><time>2026-04-16T10:14:41.589Z</time></trkpt><trkpt lat="45.7696611" lon="8.7608371"><ele>293.6666666666667</ele><time>2026-04-16T10:14:43.594Z</time></trkpt><trkpt lat="45.7696922" lon="8.7609536"><ele>293.0</ele><time>2026-04-16T10:14:45.587Z</time></trkpt><trkpt lat="45.7697694" lon="8.7610074"><ele>292.25</ele><time>2026-04-16T10:14:46.591Z</time></trkpt><trkpt lat="45.7698756" lon="8.7610439"><ele>291.5</ele><time>2026-04-16T10:14:47.589Z</time></trkpt><trkpt lat="45.7700192" lon="8.7610911"><ele>290.75</ele><time>2026-04-16T10:14:48.597Z</time></trkpt><trkpt lat="45.7701368" lon="8.7611299"><ele>290.0</ele><time>2026-04-16T10:14:49.604Z</time></trkpt><trkpt lat="45.7702287" lon="8.7612022"><ele>290.0</ele><time>2026-04-16T10:14:50.589Z</time></trkpt><trkpt lat="45.7702959" lon="8.761307"><ele>290.0</ele><time>2026-04-16T10:14:51.756Z</time></trkpt><trkpt lat="45.7703706" lon="8.7615078"><ele>290.0</ele><time>2026-04-16T10:14:53.581Z</time></trkpt><trkpt lat="45.770341" lon="8.7616677"><ele>290.0</ele><time>2026-04-16T10:14:54.584Z</time></trkpt><trkpt lat="45.7703025" lon="8.7618263"><ele>290.0</ele><time>2026-04-16T10:14:55.582Z</time></trkpt><trkpt lat="45.770259" lon="8.7619792"><ele>290.0</ele><time>2026-04-16T10:14:56.577Z</time></trkpt><trkpt lat="45.7702139" lon="8.7621412"><ele>290.0</ele><time>2026-04-16T10:14:57.578Z</time></trkpt><trkpt lat="45.7701651" lon="8.7622994"><ele>290.0</ele><time>2026-04-16T10:14:58.582Z</time></trkpt><trkpt lat="45.7701111" lon="8.7624627"><ele>289.75</ele><time>2026-04-16T10:14:59.583Z</time></trkpt><trkpt lat="45.7700643" lon="8.7626224"><ele>289.5</ele><time>2026-04-16T10:15:00.585Z</time></trkpt><trkpt lat="45.7700157" lon="8.7627754"><ele>289.25</ele><time>2026-04-16T10:15:01.58Z</time></trkpt><trkpt lat="45.7699767" lon="8.7629213"><ele>289.0</ele><time>2026-04-16T10:15:02.586Z</time></trkpt><trkpt lat="45.7699428" lon="8.7630713"><ele>289.8</ele><time>2026-04-16T10:15:03.582Z</time></trkpt><trkpt lat="45.7699258" lon="8.7632326"><ele>290.59999999999997</ele><time>2026-04-16T10:15:04.587Z</time></trkpt><trkpt lat="45.769917" lon="8.7633909"><ele>291.4</ele><time>2026-04-16T10:15:05.577Z</time></trkpt><trkpt lat="45.7699084" lon="8.7635484"><ele>292.2</ele><time>2026-04-16T10:15:06.579Z</time></trkpt><trkpt lat="45.7698898" lon="8.7637098"><ele>293.0</ele><time>2026-04-16T10:15:07.57Z</time></trkpt><trkpt lat="45.7698689" lon="8.7638526"><ele>294.4</ele><time>2026-04-16T10:15:08.576Z</time></trkpt><trkpt lat="45.7698487" lon="8.7639746"><ele>295.8</ele><time>2026-04-16T10:15:09.577Z</time></trkpt><trkpt lat="45.7698187" lon="8.7640791"><ele>297.2</ele><time>2026-04-16T10:15:10.584Z</time></trkpt><trkpt lat="45.7697281" lon="8.7641842"><ele>298.6</ele><time>2026-04-16T10:15:12.58Z</time></trkpt><trkpt lat="45.7696116" lon="8.7641749"><ele>300.0</ele><time>2026-04-16T10:15:14.581Z</time></trkpt><trkpt lat="45.7695244" lon="8.764221"><ele>300.75</ele><time>2026-04-16T10:15:16.574Z</time></trkpt><trkpt lat="45.7695314" lon="8.7644306"><ele>301.5</ele><time>2026-04-16T10:15:18.573Z</time></trkpt><trkpt lat="45.7695307" lon="8.7645826"><ele>302.25</ele><time>2026-04-16T10:15:19.578Z</time></trkpt><trkpt lat="45.7695073" lon="8.7647611"><ele>303.0</ele><time>2026-04-16T10:15:20.586Z</time></trkpt><trkpt lat="45.7694723" lon="8.7649554"><ele>303.0</ele><time>2026-04-16T10:15:21.583Z</time></trkpt><trkpt lat="45.7694466" lon="8.765164"><ele>303.0</ele><time>2026-04-16T10:15:22.585Z</time></trkpt><trkpt lat="45.7694207" lon="8.7653784"><ele>303.0</ele><time>2026-04-16T10:15:23.586Z</time></trkpt><trkpt lat="45.7693963" lon="8.7656028"><ele>305.0</ele><time>2026-04-16T10:15:24.58Z</time></trkpt><trkpt lat="45.7694043" lon="8.7658086"><ele>307.0</ele><time>2026-04-16T10:15:25.582Z</time></trkpt><trkpt lat="45.7694191" lon="8.7659918"><ele>309.0</ele><time>2026-04-16T10:15:26.588Z</time></trkpt><trkpt lat="45.7694423" lon="8.7661742"><ele>311.0</ele><time>2026-04-16T10:15:27.586Z</time></trkpt><trkpt lat="45.7694629" lon="8.7663293"><ele>311.0</ele><time>2026-04-16T10:15:28.587Z</time></trkpt><trkpt lat="45.7694782" lon="8.7664632"><ele>311.0</ele><time>2026-04-16T10:15:29.575Z</time></trkpt><trkpt lat="45.7695053" lon="8.7665968"><ele>311.0</ele><time>2026-04-16T10:15:30.576Z</time></trkpt><trkpt lat="45.7695351" lon="8.7667098"><ele>311.0</ele><time>2026-04-16T10:15:31.582Z</time></trkpt><trkpt lat="45.7695706" lon="8.7668286"><ele>311.0</ele><time>2026-04-16T10:15:33.583Z</time></trkpt><trkpt lat="45.7696232" lon="8.7669017"><ele>311.0</ele><time>2026-04-16T10:15:36.596Z</time></trkpt><trkpt lat="45.7697186" lon="8.7669277"><ele>311.0</ele><time>2026-04-16T10:15:38.594Z</time></trkpt><trkpt lat="45.7697973" lon="8.7669342"><ele>311.0</ele><time>2026-04-16T10:15:39.584Z</time></trkpt><trkpt lat="45.7698772" lon="8.7669415"><ele>311.0</ele><time>2026-04-16T10:15:40.589Z</time></trkpt><trkpt lat="45.7699696" lon="8.7669575"><ele>311.0</ele><time>2026-04-16T10:15:41.587Z</time></trkpt><trkpt lat="45.7700598" lon="8.7669675"><ele>311.0</ele><time>2026-04-16T10:15:42.589Z</time></trkpt><trkpt lat="45.7701702" lon="8.7669694"><ele>312.25</ele><time>2026-04-16T10:15:43.58Z</time></trkpt><trkpt lat="45.770275" lon="8.7669753"><ele>313.5</ele><time>2026-04-16T10:15:44.579Z</time></trkpt><trkpt lat="45.770377" lon="8.7669956"><ele>314.75</ele><time>2026-04-16T10:15:45.573Z</time></trkpt><trkpt lat="45.7704847" lon="8.7670205"><ele>316.0</ele><time>2026-04-16T10:15:46.578Z</time></trkpt><trkpt lat="45.7706264" lon="8.7670328"><ele>316.0</ele><time>2026-04-16T10:15:47.581Z</time></trkpt><trkpt lat="45.7707864" lon="8.7670456"><ele>316.0</ele><time>2026-04-16T10:15:48.576Z</time></trkpt><trkpt lat="45.7709546" lon="8.7670508"><ele>316.0</ele><time>2026-04-16T10:15:49.58Z</time></trkpt><trkpt lat="45.7710946" lon="8.7670658"><ele>317.25</ele><time>2026-04-16T10:15:50.578Z</time></trkpt><trkpt lat="45.7712052" lon="8.7671225"><ele>318.5</ele><time>2026-04-16T10:15:51.616Z</time></trkpt><trkpt lat="45.7713132" lon="8.7671934"><ele>319.75</ele><time>2026-04-16T10:15:52.591Z</time></trkpt><trkpt lat="45.7714277" lon="8.7672604"><ele>321.0</ele><time>2026-04-16T10:15:53.589Z</time></trkpt><trkpt lat="45.7715309" lon="8.7673189"><ele>321.0</ele><time>2026-04-16T10:15:54.595Z</time></trkpt><trkpt lat="45.7716328" lon="8.7673792"><ele>321.0</ele><time>2026-04-16T10:15:55.595Z</time></trkpt><trkpt lat="45.7717359" lon="8.7674379"><ele>321.0</ele><time>2026-04-16T10:15:56.595Z</time></trkpt><trkpt lat="45.7718378" lon="8.7674956"><ele>321.0</ele><time>2026-04-16T10:15:57.591Z</time></trkpt><trkpt lat="45.771941" lon="8.7675421"><ele>321.0</ele><time>2026-04-16T10:15:58.603Z</time></trkpt><trkpt lat="45.7720244" lon="8.7675824"><ele>321.0</ele><time>2026-04-16T10:15:59.597Z</time></trkpt><trkpt lat="45.7720891" lon="8.7676232"><ele>321.0</ele><time>2026-04-16T10:16:00.598Z</time></trkpt><trkpt lat="45.7721786" lon="8.767716"><ele>321.0</ele><time>2026-04-16T10:16:02.597Z</time></trkpt><trkpt lat="45.7721633" lon="8.7678617"><ele>321.0</ele><time>2026-04-16T10:16:04.58Z</time></trkpt><trkpt lat="45.772112" lon="8.7679934"><ele>321.0</ele><time>2026-04-16T10:16:06.591Z</time></trkpt><trkpt lat="45.7721207" lon="8.7681084"><ele>320.5</ele><time>2026-04-16T10:16:08.591Z</time></trkpt><trkpt lat="45.7721961" lon="8.7681617"><ele>320.0</ele><time>2026-04-16T10:16:10.587Z</time></trkpt><trkpt lat="45.7722984" lon="8.7682209"><ele>319.5</ele><time>2026-04-16T10:16:12.596Z</time></trkpt><trkpt lat="45.772362" lon="8.7682716"><ele>319.0</ele><time>2026-04-16T10:16:13.588Z</time></trkpt><trkpt lat="45.7724236" lon="8.768314"><ele>318.5</ele><time>2026-04-16T10:16:14.588Z</time></trkpt><trkpt lat="45.77248" lon="8.7683652"><ele>318.0</ele><time>2026-04-16T10:16:15.58Z</time></trkpt><trkpt lat="45.7725417" lon="8.768403"><ele>318.0</ele><time>2026-04-16T10:16:16.578Z</time></trkpt><trkpt lat="45.7726081" lon="8.7684432"><ele>318.0</ele><time>2026-04-16T10:16:17.579Z</time></trkpt><trkpt lat="45.7726969" lon="8.7684808"><ele>318.0</ele><time>2026-04-16T10:16:18.58Z</time></trkpt><trkpt lat="45.7727988" lon="8.7685371"><ele>318.0</ele><time>2026-04-16T10:16:19.579Z</time></trkpt><trkpt lat="45.7728894" lon="8.7686"><ele>318.0</ele><time>2026-04-16T10:16:20.578Z</time></trkpt><trkpt lat="45.7729675" lon="8.7686453"><ele>317.5</ele><time>2026-04-16T10:16:21.587Z</time></trkpt><trkpt lat="45.7730457" lon="8.7686848"><ele>317.0</ele><time>2026-04-16T10:16:22.566Z</time></trkpt><trkpt lat="45.7731106" lon="8.7687274"><ele>316.5</ele><time>2026-04-16T10:16:23.566Z</time></trkpt><trkpt lat="45.7731781" lon="8.7687608"><ele>316.0</ele><time>2026-04-16T10:16:24.574Z</time></trkpt><trkpt lat="45.7732348" lon="8.7688022"><ele>315.5</ele><time>2026-04-16T10:16:25.577Z</time></trkpt><trkpt lat="45.7733246" lon="8.7688933"><ele>315.0</ele><time>2026-04-16T10:16:27.581Z</time></trkpt><trkpt lat="45.7733125" lon="8.7690494"><ele>315.0</ele><time>2026-04-16T10:16:29.567Z</time></trkpt><trkpt lat="45.773267" lon="8.7691429"><ele>315.0</ele><time>2026-04-16T10:16:30.581Z</time></trkpt><trkpt lat="45.773223" lon="8.7692477"><ele>315.0</ele><time>2026-04-16T10:16:31.572Z</time></trkpt><trkpt lat="45.7731806" lon="8.7693454"><ele>315.0</ele><time>2026-04-16T10:16:32.571Z</time></trkpt><trkpt lat="45.7731662" lon="8.7694628"><ele>315.0</ele><time>2026-04-16T10:16:33.572Z</time></trkpt><trkpt lat="45.773192" lon="8.7696196"><ele>315.0</ele><time>2026-04-16T10:16:35.576Z</time></trkpt><trkpt lat="45.7732871" lon="8.7696909"><ele>314.8</ele><time>2026-04-16T10:16:37.575Z</time></trkpt><trkpt lat="45.7733597" lon="8.7697018"><ele>314.6</ele><time>2026-04-16T10:16:38.577Z</time></trkpt><trkpt lat="45.7734417" lon="8.769703"><ele>314.4</ele><time>2026-04-16T10:16:39.574Z</time></trkpt><trkpt lat="45.7735418" lon="8.7697119"><ele>314.2</ele><time>2026-04-16T10:16:40.57Z</time></trkpt><trkpt lat="45.7736482" lon="8.7697522"><ele>314.0</ele><time>2026-04-16T10:16:41.578Z</time></trkpt><trkpt lat="45.7737715" lon="8.7698071"><ele>314.0</ele><time>2026-04-16T10:16:42.576Z</time></trkpt><trkpt lat="45.773875" lon="8.7698849"><ele>314.0</ele><time>2026-04-16T10:16:43.58Z</time></trkpt><trkpt lat="45.7739762" lon="8.7699867"><ele>314.0</ele><time>2026-04-16T10:16:44.579Z</time></trkpt><trkpt lat="45.7740628" lon="8.7701057"><ele>314.0</ele><time>2026-04-16T10:16:45.579Z</time></trkpt><trkpt lat="45.7741215" lon="8.7702397"><ele>313.59999999999997</ele><time>2026-04-16T10:16:46.581Z</time></trkpt><trkpt lat="45.7741537" lon="8.7703881"><ele>313.2</ele><time>2026-04-16T10:16:47.578Z</time></trkpt><trkpt lat="45.7741827" lon="8.7705274"><ele>312.79999999999995</ele><time>2026-04-16T10:16:48.564Z</time></trkpt><trkpt lat="45.774202" lon="8.7706814"><ele>312.4</ele><time>2026-04-16T10:16:49.568Z</time></trkpt><trkpt lat="45.7742092" lon="8.7708375"><ele>312.0</ele><time>2026-04-16T10:16:50.565Z</time></trkpt><trkpt lat="45.774188" lon="8.7709901"><ele>311.8</ele><time>2026-04-16T10:16:51.561Z</time></trkpt><trkpt lat="45.774167" lon="8.7711004"><ele>311.6</ele><time>2026-04-16T10:16:52.582Z</time></trkpt><trkpt lat="45.7741209" lon="8.7712204"><ele>311.40000000000003</ele><time>2026-04-16T10:16:54.562Z</time></trkpt><trkpt lat="45.7742184" lon="8.7711844"><ele>311.2</ele><time>2026-04-16T10:17:00.566Z</time></trkpt><trkpt lat="45.7743136" lon="8.7711736"><ele>311.0</ele><time>2026-04-16T10:17:01.566Z</time></trkpt><trkpt lat="45.7744325" lon="8.7711308"><ele>312.25</ele><time>2026-04-16T10:17:02.564Z</time></trkpt><trkpt lat="45.7745269" lon="8.7710645"><ele>313.5</ele><time>2026-04-16T10:17:03.551Z</time></trkpt><trkpt lat="45.7746041" lon="8.7710033"><ele>314.75</ele><time>2026-04-16T10:17:04.552Z</time></trkpt><trkpt lat="45.7747122" lon="8.7709494"><ele>316.0</ele><time>2026-04-16T10:17:05.551Z</time></trkpt><trkpt lat="45.7748554" lon="8.7709052"><ele>316.0</ele><time>2026-04-16T10:17:06.547Z</time></trkpt><trkpt lat="45.7749863" lon="8.7708768"><ele>316.0</ele><time>2026-04-16T10:17:07.562Z</time></trkpt><trkpt lat="45.7751044" lon="8.7708367"><ele>316.0</ele><time>2026-04-16T10:17:08.564Z</time></trkpt><trkpt lat="45.7752333" lon="8.7708007"><ele>316.0</ele><time>2026-04-16T10:17:09.557Z</time></trkpt><trkpt lat="45.7753709" lon="8.7707809"><ele>317.0</ele><time>2026-04-16T10:17:10.563Z</time></trkpt><trkpt lat="45.7755156" lon="8.7707507"><ele>318.0</ele><time>2026-04-16T10:17:11.561Z</time></trkpt><trkpt lat="45.7756604" lon="8.7707199"><ele>319.0</ele><time>2026-04-16T10:17:12.571Z</time></trkpt><trkpt lat="45.7758071" lon="8.7706904"><ele>320.0</ele><time>2026-04-16T10:17:13.558Z</time></trkpt><trkpt lat="45.7759611" lon="8.7706611"><ele>320.0</ele><time>2026-04-16T10:17:14.567Z</time></trkpt><trkpt lat="45.7761104" lon="8.770644"><ele>320.0</ele><time>2026-04-16T10:17:15.568Z</time></trkpt><trkpt lat="45.7762472" lon="8.770636"><ele>320.0</ele><time>2026-04-16T10:17:16.57Z</time></trkpt><trkpt lat="45.7763843" lon="8.7706272"><ele>320.0</ele><time>2026-04-16T10:17:17.567Z</time></trkpt><trkpt lat="45.7765186" lon="8.7706211"><ele>320.0</ele><time>2026-04-16T10:17:18.568Z</time></trkpt><trkpt lat="45.7766323" lon="8.7706324"><ele>320.0</ele><time>2026-04-16T10:17:19.574Z</time></trkpt><trkpt lat="45.7767094" lon="8.7706745"><ele>320.0</ele><time>2026-04-16T10:17:20.571Z</time></trkpt><trkpt lat="45.7767428" lon="8.7707577"><ele>320.0</ele><time>2026-04-16T10:17:21.571Z</time></trkpt><trkpt lat="45.7767494" lon="8.7708777"><ele>320.0</ele><time>2026-04-16T10:17:22.575Z</time></trkpt><trkpt lat="45.7767479" lon="8.7710417"><ele>319.5</ele><time>2026-04-16T10:17:23.591Z</time></trkpt><trkpt lat="45.7767396" lon="8.7712059"><ele>319.0</ele><time>2026-04-16T10:17:24.576Z</time></trkpt><trkpt lat="45.776736" lon="8.7713926"><ele>318.5</ele><time>2026-04-16T10:17:25.578Z</time></trkpt><trkpt lat="45.7767196" lon="8.7715938"><ele>318.0</ele><time>2026-04-16T10:17:26.583Z</time></trkpt><trkpt lat="45.7767099" lon="8.7717941"><ele>318.25</ele><time>2026-04-16T10:17:27.575Z</time></trkpt><trkpt lat="45.7767075" lon="8.7719936"><ele>318.5</ele><time>2026-04-16T10:17:28.58Z</time></trkpt><trkpt lat="45.7767136" lon="8.7721983"><ele>318.75</ele><time>2026-04-16T10:17:29.576Z</time></trkpt><trkpt lat="45.7767214" lon="8.7723518"><ele>319.0</ele><time>2026-04-16T10:17:30.579Z</time></trkpt><trkpt lat="45.7767277" lon="8.7725079"><ele>319.0</ele><time>2026-04-16T10:17:31.573Z</time></trkpt><trkpt lat="45.7767134" lon="8.7726527"><ele>319.0</ele><time>2026-04-16T10:17:32.577Z</time></trkpt><trkpt lat="45.7766811" lon="8.772797"><ele>319.0</ele><time>2026-04-16T10:17:33.561Z</time></trkpt><trkpt lat="45.7766409" lon="8.7729561"><ele>319.0</ele><time>2026-04-16T10:17:34.573Z</time></trkpt><trkpt lat="45.7766192" lon="8.7731073"><ele>319.0</ele><time>2026-04-16T10:17:35.563Z</time></trkpt><trkpt lat="45.776607" lon="8.7732727"><ele>319.0</ele><time>2026-04-16T10:17:36.558Z</time></trkpt><trkpt lat="45.7766187" lon="8.7734293"><ele>319.0</ele><time>2026-04-16T10:17:37.558Z</time></trkpt><trkpt lat="45.7766429" lon="8.773592"><ele>319.0</ele><time>2026-04-16T10:17:38.571Z</time></trkpt><trkpt lat="45.7766817" lon="8.7737698"><ele>319.0</ele><time>2026-04-16T10:17:39.56Z</time></trkpt><trkpt lat="45.7767052" lon="8.7739367"><ele>318.0</ele><time>2026-04-16T10:17:40.554Z</time></trkpt><trkpt lat="45.7767238" lon="8.7740969"><ele>317.0</ele><time>2026-04-16T10:17:41.555Z</time></trkpt><trkpt lat="45.7767425" lon="8.7742602"><ele>316.0</ele><time>2026-04-16T10:17:42.555Z</time></trkpt><trkpt lat="45.7767812" lon="8.7744452"><ele>315.0</ele><time>2026-04-16T10:17:43.554Z</time></trkpt><trkpt lat="45.7768327" lon="8.7746414"><ele>314.6666666666667</ele><time>2026-04-16T10:17:44.555Z</time></trkpt><trkpt lat="45.7768987" lon="8.7748345"><ele>314.33333333333337</ele><time>2026-04-16T10:17:45.547Z</time></trkpt><trkpt lat="45.776977" lon="8.7750259"><ele>314.0</ele><time>2026-04-16T10:17:46.555Z</time></trkpt><trkpt lat="45.7770499" lon="8.7752372"><ele>314.0</ele><time>2026-04-16T10:17:47.555Z</time></trkpt><trkpt lat="45.7771164" lon="8.7754246"><ele>314.0</ele><time>2026-04-16T10:17:48.554Z</time></trkpt><trkpt lat="45.7771838" lon="8.7756121"><ele>314.0</ele><time>2026-04-16T10:17:49.552Z</time></trkpt><trkpt lat="45.7772405" lon="8.7757985"><ele>314.0</ele><time>2026-04-16T10:17:50.572Z</time></trkpt><trkpt lat="45.7772595" lon="8.7759523"><ele>314.0</ele><time>2026-04-16T10:17:51.574Z</time></trkpt><trkpt lat="45.7772608" lon="8.7760969"><ele>314.0</ele><time>2026-04-16T10:17:52.567Z</time></trkpt><trkpt lat="45.7772474" lon="8.7762421"><ele>314.0</ele><time>2026-04-16T10:17:53.57Z</time></trkpt><trkpt lat="45.7771929" lon="8.7763271"><ele>314.0</ele><time>2026-04-16T10:17:54.581Z</time></trkpt><trkpt lat="45.7771314" lon="8.7764262"><ele>314.0</ele><time>2026-04-16T10:17:55.571Z</time></trkpt><trkpt lat="45.7770494" lon="8.776527"><ele>314.0</ele><time>2026-04-16T10:17:56.582Z</time></trkpt><trkpt lat="45.7769296" lon="8.7766644"><ele>314.0</ele><time>2026-04-16T10:17:57.569Z</time></trkpt><trkpt lat="45.7767929" lon="8.7767933"><ele>314.0</ele><time>2026-04-16T10:17:58.583Z</time></trkpt><trkpt lat="45.776638" lon="8.7769184"><ele>312.6666666666667</ele><time>2026-04-16T10:17:59.571Z</time></trkpt><trkpt lat="45.7764795" lon="8.7770461"><ele>311.3333333333333</ele><time>2026-04-16T10:18:00.579Z</time></trkpt><trkpt lat="45.7763375" lon="8.7771858"><ele>310.0</ele><time>2026-04-16T10:18:01.577Z</time></trkpt><trkpt lat="45.7761983" lon="8.7773483"><ele>310.0</ele><time>2026-04-16T10:18:02.587Z</time></trkpt><trkpt lat="45.7760588" lon="8.7775196"><ele>310.0</ele><time>2026-04-16T10:18:03.58Z</time></trkpt><trkpt lat="45.7759465" lon="8.7776759"><ele>310.0</ele><time>2026-04-16T10:18:04.584Z</time></trkpt><trkpt lat="45.7758389" lon="8.7777881"><ele>308.0</ele><time>2026-04-16T10:18:05.589Z</time></trkpt><trkpt lat="45.7757241" lon="8.777907"><ele>306.0</ele><time>2026-04-16T10:18:06.589Z</time></trkpt><trkpt lat="45.7756086" lon="8.7780533"><ele>304.0</ele><time>2026-04-16T10:18:07.586Z</time></trkpt><trkpt lat="45.7754772" lon="8.7782125"><ele>304.0</ele><time>2026-04-16T10:18:08.589Z</time></trkpt><trkpt lat="45.7753626" lon="8.778394"><ele>304.0</ele><time>2026-04-16T10:18:09.588Z</time></trkpt><trkpt lat="45.7752383" lon="8.7785633"><ele>304.0</ele><time>2026-04-16T10:18:10.594Z</time></trkpt><trkpt lat="45.7751364" lon="8.778734"><ele>303.3333333333333</ele><time>2026-04-16T10:18:11.593Z</time></trkpt><trkpt lat="45.7750159" lon="8.7789198"><ele>302.6666666666667</ele><time>2026-04-16T10:18:12.586Z</time></trkpt><trkpt lat="45.7749058" lon="8.7791145"><ele>302.0</ele><time>2026-04-16T10:18:13.579Z</time></trkpt><trkpt lat="45.7747954" lon="8.7793031"><ele>301.33333333333337</ele><time>2026-04-16T10:18:14.575Z</time></trkpt><trkpt lat="45.7746956" lon="8.7794712"><ele>300.6666666666667</ele><time>2026-04-16T10:18:15.581Z</time></trkpt><trkpt lat="45.7745854" lon="8.7796661"><ele>300.0</ele><time>2026-04-16T10:18:16.579Z</time></trkpt><trkpt lat="45.7744902" lon="8.7798825"><ele>300.0</ele><time>2026-04-16T10:18:17.569Z</time></trkpt><trkpt lat="45.7744072" lon="8.78013"><ele>300.0</ele><time>2026-04-16T10:18:18.576Z</time></trkpt><trkpt lat="45.7743296" lon="8.7803219"><ele>300.0</ele><time>2026-04-16T10:18:19.572Z</time></trkpt><trkpt lat="45.7742536" lon="8.7805141"><ele>301.0</ele><time>2026-04-16T10:18:20.572Z</time></trkpt><trkpt lat="45.7741941" lon="8.7807391"><ele>302.0</ele><time>2026-04-16T10:18:21.572Z</time></trkpt><trkpt lat="45.7741104" lon="8.7809345"><ele>303.0</ele><time>2026-04-16T10:18:22.577Z</time></trkpt><trkpt lat="45.7740312" lon="8.7811194"><ele>303.0</ele><time>2026-04-16T10:18:23.578Z</time></trkpt><trkpt lat="45.7739607" lon="8.7813208"><ele>303.0</ele><time>2026-04-16T10:18:24.569Z</time></trkpt><trkpt lat="45.7739069" lon="8.7814696"><ele>303.0</ele><time>2026-04-16T10:18:25.579Z</time></trkpt><trkpt lat="45.7738511" lon="8.7816424"><ele>303.0</ele><time>2026-04-16T10:18:26.567Z</time></trkpt><trkpt lat="45.7737656" lon="8.7818286"><ele>303.0</ele><time>2026-04-16T10:18:27.568Z</time></trkpt><trkpt lat="45.7736846" lon="8.7820202"><ele>303.0</ele><time>2026-04-16T10:18:28.567Z</time></trkpt><trkpt lat="45.7736109" lon="8.7821917"><ele>303.0</ele><time>2026-04-16T10:18:29.562Z</time></trkpt><trkpt lat="45.7735413" lon="8.7822969"><ele>303.0</ele><time>2026-04-16T10:18:30.558Z</time></trkpt><trkpt lat="45.7734605" lon="8.7824358"><ele>303.5</ele><time>2026-04-16T10:18:31.566Z</time></trkpt><trkpt lat="45.7734384" lon="8.78235"><ele>304.0</ele><time>2026-04-16T10:18:33.572Z</time></trkpt><trkpt lat="45.7733733" lon="8.7823574"><ele>304.5</ele><time>2026-04-16T10:18:34.58Z</time></trkpt><trkpt lat="45.7733134" lon="8.7823965"><ele>305.0</ele><time>2026-04-16T10:18:35.568Z</time></trkpt><trkpt lat="45.7733476" lon="8.7825209"><ele>305.5</ele><time>2026-04-16T10:18:37.572Z</time></trkpt><trkpt lat="45.7733849" lon="8.7826494"><ele>306.0</ele><time>2026-04-16T10:18:38.574Z</time></trkpt><trkpt lat="45.7734338" lon="8.7827944"><ele>306.0</ele><time>2026-04-16T10:18:39.571Z</time></trkpt><trkpt lat="45.7734577" lon="8.7829696"><ele>306.0</ele><time>2026-04-16T10:18:40.588Z</time></trkpt><trkpt lat="45.7734796" lon="8.7831824"><ele>306.0</ele><time>2026-04-16T10:18:41.585Z</time></trkpt><trkpt lat="45.7735087" lon="8.7833749"><ele>306.0</ele><time>2026-04-16T10:18:42.589Z</time></trkpt><trkpt lat="45.7735277" lon="8.7835691"><ele>304.75</ele><time>2026-04-16T10:18:43.581Z</time></trkpt><trkpt lat="45.7735389" lon="8.7837538"><ele>303.5</ele><time>2026-04-16T10:18:44.586Z</time></trkpt><trkpt lat="45.773556" lon="8.7839407"><ele>302.25</ele><time>2026-04-16T10:18:45.584Z</time></trkpt><trkpt lat="45.7735711" lon="8.7841304"><ele>301.0</ele><time>2026-04-16T10:18:46.582Z</time></trkpt><trkpt lat="45.7735847" lon="8.78433"><ele>301.25</ele><time>2026-04-16T10:18:47.575Z</time></trkpt><trkpt lat="45.7735997" lon="8.7845326"><ele>301.5</ele><time>2026-04-16T10:18:48.586Z</time></trkpt><trkpt lat="45.7736092" lon="8.7847419"><ele>301.75</ele><time>2026-04-16T10:18:49.585Z</time></trkpt><trkpt lat="45.773621" lon="8.7849411"><ele>302.0</ele><time>2026-04-16T10:18:50.591Z</time></trkpt><trkpt lat="45.773639" lon="8.7851256"><ele>303.25</ele><time>2026-04-16T10:18:51.588Z</time></trkpt><trkpt lat="45.7736562" lon="8.7853292"><ele>304.5</ele><time>2026-04-16T10:18:52.591Z</time></trkpt><trkpt lat="45.7736737" lon="8.7855118"><ele>305.75</ele><time>2026-04-16T10:18:53.583Z</time></trkpt><trkpt lat="45.7736848" lon="8.7856956"><ele>307.0</ele><time>2026-04-16T10:18:54.583Z</time></trkpt><trkpt lat="45.7737045" lon="8.7858821"><ele>307.0</ele><time>2026-04-16T10:18:55.579Z</time></trkpt><trkpt lat="45.7737237" lon="8.7860478"><ele>307.0</ele><time>2026-04-16T10:18:56.597Z</time></trkpt><trkpt lat="45.7737493" lon="8.7862119"><ele>307.0</ele><time>2026-04-16T10:18:57.573Z</time></trkpt><trkpt lat="45.7737699" lon="8.7863875"><ele>307.0</ele><time>2026-04-16T10:18:58.576Z</time></trkpt><trkpt lat="45.7737916" lon="8.7865654"><ele>307.0</ele><time>2026-04-16T10:18:59.571Z</time></trkpt><trkpt lat="45.7737953" lon="8.786751"><ele>307.0</ele><time>2026-04-16T10:19:00.571Z</time></trkpt><trkpt lat="45.7738039" lon="8.7869434"><ele>307.0</ele><time>2026-04-16T10:19:01.575Z</time></trkpt><trkpt lat="45.7738151" lon="8.787137"><ele>307.0</ele><time>2026-04-16T10:19:02.578Z</time></trkpt><trkpt lat="45.7738374" lon="8.7873381"><ele>307.25</ele><time>2026-04-16T10:19:03.575Z</time></trkpt><trkpt lat="45.7738649" lon="8.7875436"><ele>307.5</ele><time>2026-04-16T10:19:04.58Z</time></trkpt><trkpt lat="45.7738853" lon="8.7877519"><ele>307.75</ele><time>2026-04-16T10:19:05.577Z</time></trkpt><trkpt lat="45.7739104" lon="8.7879692"><ele>308.0</ele><time>2026-04-16T10:19:06.579Z</time></trkpt><trkpt lat="45.7739164" lon="8.7881603"><ele>309.0</ele><time>2026-04-16T10:19:07.574Z</time></trkpt><trkpt lat="45.7739059" lon="8.7883507"><ele>310.0</ele><time>2026-04-16T10:19:08.578Z</time></trkpt><trkpt lat="45.7739244" lon="8.788544"><ele>311.0</ele><time>2026-04-16T10:19:09.575Z</time></trkpt><trkpt lat="45.773947" lon="8.7887191"><ele>312.0</ele><time>2026-04-16T10:19:10.582Z</time></trkpt><trkpt lat="45.7739681" lon="8.7889281"><ele>312.75</ele><time>2026-04-16T10:19:11.573Z</time></trkpt><trkpt lat="45.7739923" lon="8.7891255"><ele>313.5</ele><time>2026-04-16T10:19:12.576Z</time></trkpt><trkpt lat="45.7740021" lon="8.7893046"><ele>314.25</ele><time>2026-04-16T10:19:13.57Z</time></trkpt><trkpt lat="45.7740116" lon="8.7894855"><ele>315.0</ele><time>2026-04-16T10:19:14.568Z</time></trkpt><trkpt lat="45.7740278" lon="8.7896641"><ele>315.25</ele><time>2026-04-16T10:19:15.569Z</time></trkpt><trkpt lat="45.7740678" lon="8.7898353"><ele>315.5</ele><time>2026-04-16T10:19:16.591Z</time></trkpt><trkpt lat="45.774143" lon="8.7899989"><ele>315.75</ele><time>2026-04-16T10:19:17.587Z</time></trkpt><trkpt lat="45.774245" lon="8.7901361"><ele>316.0</ele><time>2026-04-16T10:19:18.587Z</time></trkpt><trkpt lat="45.7743602" lon="8.7902423"><ele>317.0</ele><time>2026-04-16T10:19:19.584Z</time></trkpt><trkpt lat="45.7744858" lon="8.7903362"><ele>318.0</ele><time>2026-04-16T10:19:20.581Z</time></trkpt><trkpt lat="45.7745982" lon="8.7904074"><ele>319.0</ele><time>2026-04-16T10:19:21.586Z</time></trkpt><trkpt lat="45.7747119" lon="8.790456"><ele>320.0</ele><time>2026-04-16T10:19:22.575Z</time></trkpt><trkpt lat="45.7748031" lon="8.7904926"><ele>320.0</ele><time>2026-04-16T10:19:23.577Z</time></trkpt><trkpt lat="45.7748879" lon="8.7905337"><ele>320.0</ele><time>2026-04-16T10:19:24.58Z</time></trkpt><trkpt lat="45.7749663" lon="8.790576"><ele>320.0</ele><time>2026-04-16T10:19:25.584Z</time></trkpt><trkpt lat="45.7750348" lon="8.7906378"><ele>320.0</ele><time>2026-04-16T10:19:26.584Z</time></trkpt><trkpt lat="45.7751213" lon="8.7907212"><ele>320.0</ele><time>2026-04-16T10:19:27.59Z</time></trkpt><trkpt lat="45.7752097" lon="8.790804"><ele>320.6</ele><time>2026-04-16T10:19:28.589Z</time></trkpt><trkpt lat="45.7752954" lon="8.7908863"><ele>321.2</ele><time>2026-04-16T10:19:29.58Z</time></trkpt><trkpt lat="45.7753716" lon="8.7909786"><ele>321.79999999999995</ele><time>2026-04-16T10:19:30.581Z</time></trkpt><trkpt lat="45.775435" lon="8.7910719"><ele>322.4</ele><time>2026-04-16T10:19:31.577Z</time></trkpt><trkpt lat="45.7754942" lon="8.7911553"><ele>323.0</ele><time>2026-04-16T10:19:32.571Z</time></trkpt><trkpt lat="45.7755466" lon="8.7912419"><ele>321.79999999999995</ele><time>2026-04-16T10:19:33.574Z</time></trkpt><trkpt lat="45.7756045" lon="8.7913469"><ele>320.59999999999997</ele><time>2026-04-16T10:19:34.576Z</time></trkpt><trkpt lat="45.7756531" lon="8.7914581"><ele>319.4</ele><time>2026-04-16T10:19:35.577Z</time></trkpt><trkpt lat="45.7757098" lon="8.7915663"><ele>318.2</ele><time>2026-04-16T10:19:36.576Z</time></trkpt><trkpt lat="45.775766" lon="8.7916776"><ele>317.0</ele><time>2026-04-16T10:19:37.572Z</time></trkpt><trkpt lat="45.7758074" lon="8.7918005"><ele>317.6</ele><time>2026-04-16T10:19:38.574Z</time></trkpt><trkpt lat="45.7758571" lon="8.7919268"><ele>318.2</ele><time>2026-04-16T10:19:39.57Z</time></trkpt><trkpt lat="45.7759036" lon="8.7920552"><ele>318.8</ele><time>2026-04-16T10:19:40.576Z</time></trkpt><trkpt lat="45.7759427" lon="8.7921931"><ele>319.4</ele><time>2026-04-16T10:19:41.575Z</time></trkpt><trkpt lat="45.7759864" lon="8.7923349"><ele>320.0</ele><time>2026-04-16T10:19:42.582Z</time></trkpt><trkpt lat="45.7760337" lon="8.7924795"><ele>321.0</ele><time>2026-04-16T10:19:43.571Z</time></trkpt><trkpt lat="45.7760746" lon="8.7926315"><ele>322.0</ele><time>2026-04-16T10:19:44.576Z</time></trkpt><trkpt lat="45.7761156" lon="8.792792"><ele>323.0</ele><time>2026-04-16T10:19:45.564Z</time></trkpt><trkpt lat="45.7761462" lon="8.792944"><ele>324.0</ele><time>2026-04-16T10:19:46.572Z</time></trkpt><trkpt lat="45.7761851" lon="8.7930961"><ele>324.0</ele><time>2026-04-16T10:19:47.571Z</time></trkpt><trkpt lat="45.776228" lon="8.7932252"><ele>324.0</ele><time>2026-04-16T10:19:48.571Z</time></trkpt><trkpt lat="45.7762705" lon="8.7933435"><ele>324.0</ele><time>2026-04-16T10:19:49.564Z</time></trkpt><trkpt lat="45.776306" lon="8.7934552"><ele>324.0</ele><time>2026-04-16T10:19:50.571Z</time></trkpt><trkpt lat="45.7763448" lon="8.7935572"><ele>324.0</ele><time>2026-04-16T10:19:51.577Z</time></trkpt><trkpt lat="45.7763766" lon="8.7936502"><ele>324.0</ele><time>2026-04-16T10:19:52.581Z</time></trkpt><trkpt lat="45.7764206" lon="8.7937635"><ele>323.8333333333333</ele><time>2026-04-16T10:19:54.563Z</time></trkpt><trkpt lat="45.7764249" lon="8.7938597"><ele>323.6666666666667</ele><time>2026-04-16T10:19:56.568Z</time></trkpt><trkpt lat="45.7764125" lon="8.7939751"><ele>323.5</ele><time>2026-04-16T10:19:58.586Z</time></trkpt><trkpt lat="45.7763797" lon="8.7940572"><ele>323.33333333333337</ele><time>2026-04-16T10:19:59.562Z</time></trkpt><trkpt lat="45.7762927" lon="8.7941747"><ele>323.1666666666667</ele><time>2026-04-16T10:20:01.556Z</time></trkpt><trkpt lat="45.7762436" lon="8.7942322"><ele>323.0</ele><time>2026-04-16T10:20:02.562Z</time></trkpt><trkpt lat="45.776163" lon="8.7943021"><ele>323.33333333333337</ele><time>2026-04-16T10:20:04.562Z</time></trkpt><trkpt lat="45.7761252" lon="8.7944466"><ele>323.6666666666667</ele><time>2026-04-16T10:20:06.572Z</time></trkpt><trkpt lat="45.7761436" lon="8.7945517"><ele>324.0</ele><time>2026-04-16T10:20:07.565Z</time></trkpt><trkpt lat="45.7761678" lon="8.7946548"><ele>324.3333333333333</ele><time>2026-04-16T10:20:08.569Z</time></trkpt><trkpt lat="45.7762025" lon="8.7947599"><ele>324.66666666666663</ele><time>2026-04-16T10:20:09.568Z</time></trkpt><trkpt lat="45.7762288" lon="8.7948787"><ele>325.0</ele><time>2026-04-16T10:20:10.578Z</time></trkpt><trkpt lat="45.7762784" lon="8.7950112"><ele>325.0</ele><time>2026-04-16T10:20:11.576Z</time></trkpt><trkpt lat="45.7763348" lon="8.7951397"><ele>325.0</ele><time>2026-04-16T10:20:12.579Z</time></trkpt><trkpt lat="45.7763965" lon="8.7952915"><ele>325.0</ele><time>2026-04-16T10:20:13.572Z</time></trkpt><trkpt lat="45.7764607" lon="8.7954421"><ele>325.0</ele><time>2026-04-16T10:20:14.578Z</time></trkpt><trkpt lat="45.7765275" lon="8.7955897"><ele>326.4</ele><time>2026-04-16T10:20:15.569Z</time></trkpt><trkpt lat="45.7765668" lon="8.7957416"><ele>327.8</ele><time>2026-04-16T10:20:16.57Z</time></trkpt><trkpt lat="45.7765843" lon="8.7958955"><ele>329.20000000000005</ele><time>2026-04-16T10:20:17.567Z</time></trkpt><trkpt lat="45.7765933" lon="8.7960523"><ele>330.6</ele><time>2026-04-16T10:20:18.571Z</time></trkpt><trkpt lat="45.7766041" lon="8.7962034"><ele>332.0</ele><time>2026-04-16T10:20:19.564Z</time></trkpt><trkpt lat="45.7766124" lon="8.7963757"><ele>334.0</ele><time>2026-04-16T10:20:20.568Z</time></trkpt><trkpt lat="45.7766347" lon="8.7965358"><ele>336.0</ele><time>2026-04-16T10:20:21.572Z</time></trkpt><trkpt lat="45.776665" lon="8.7966813"><ele>338.0</ele><time>2026-04-16T10:20:22.567Z</time></trkpt><trkpt lat="45.7766994" lon="8.7968284"><ele>340.0</ele><time>2026-04-16T10:20:23.564Z</time></trkpt><trkpt lat="45.7767223" lon="8.7969458"><ele>342.0</ele><time>2026-04-16T10:20:24.56Z</time></trkpt><trkpt lat="45.7766738" lon="8.7970431"><ele>342.0</ele><time>2026-04-16T10:20:26.569Z</time></trkpt><trkpt lat="45.7765547" lon="8.7969345"><ele>342.0</ele><time>2026-04-16T10:20:28.564Z</time></trkpt><trkpt lat="45.7764946" lon="8.7968353"><ele>342.0</ele><time>2026-04-16T10:20:29.572Z</time></trkpt><trkpt lat="45.7764309" lon="8.7966904"><ele>342.0</ele><time>2026-04-16T10:20:30.562Z</time></trkpt><trkpt lat="45.7763583" lon="8.7965206"><ele>342.0</ele><time>2026-04-16T10:20:31.567Z</time></trkpt><trkpt lat="45.7762839" lon="8.7963229"><ele>342.0</ele><time>2026-04-16T10:20:32.568Z</time></trkpt><trkpt lat="45.7762126" lon="8.7961231"><ele>342.0</ele><time>2026-04-16T10:20:33.559Z</time></trkpt><trkpt lat="45.7761462" lon="8.7959371"><ele>340.0</ele><time>2026-04-16T10:20:34.563Z</time></trkpt><trkpt lat="45.7760821" lon="8.7958106"><ele>338.0</ele><time>2026-04-16T10:20:35.57Z</time></trkpt><trkpt lat="45.7759962" lon="8.7957259"><ele>336.0</ele><time>2026-04-16T10:20:36.578Z</time></trkpt><trkpt lat="45.7759152" lon="8.795717"><ele>334.0</ele><time>2026-04-16T10:20:37.579Z</time></trkpt><trkpt lat="45.7758198" lon="8.7957429"><ele>332.0</ele><time>2026-04-16T10:20:38.576Z</time></trkpt><trkpt lat="45.7757212" lon="8.7957763"><ele>336.5</ele><time>2026-04-16T10:20:39.564Z</time></trkpt><trkpt lat="45.7756693" lon="8.7958737"><ele>341.0</ele><time>2026-04-16T10:20:40.562Z</time></trkpt><trkpt lat="45.775634" lon="8.7959727"><ele>345.5</ele><time>2026-04-16T10:20:41.557Z</time></trkpt><trkpt lat="45.7756076" lon="8.7960583"><ele>350.0</ele><time>2026-04-16T10:20:42.564Z</time></trkpt><trkpt lat="45.7756151" lon="8.7961802"><ele>354.5</ele><time>2026-04-16T10:20:43.564Z</time></trkpt><trkpt lat="45.775642" lon="8.7963417"><ele>359.0</ele><time>2026-04-16T10:20:44.569Z</time></trkpt><trkpt lat="45.7756845" lon="8.7965087"><ele>361.25</ele><time>2026-04-16T10:20:45.574Z</time></trkpt><trkpt lat="45.7757233" lon="8.7967002"><ele>363.5</ele><time>2026-04-16T10:20:46.571Z</time></trkpt><trkpt lat="45.7757733" lon="8.7968781"><ele>365.75</ele><time>2026-04-16T10:20:47.564Z</time></trkpt><trkpt lat="45.775816" lon="8.7970202"><ele>368.0</ele><time>2026-04-16T10:20:48.576Z</time></trkpt><trkpt lat="45.7758584" lon="8.7971766"><ele>368.4</ele><time>2026-04-16T10:20:49.579Z</time></trkpt><trkpt lat="45.7759118" lon="8.797312"><ele>368.79999999999995</ele><time>2026-04-16T10:20:50.579Z</time></trkpt><trkpt lat="45.7759602" lon="8.7974171"><ele>369.2</ele><time>2026-04-16T10:20:51.572Z</time></trkpt><trkpt lat="45.7759698" lon="8.7975741"><ele>369.6</ele><time>2026-04-16T10:20:53.57Z</time></trkpt><trkpt lat="45.7759335" lon="8.7976744"><ele>370.0</ele><time>2026-04-16T10:20:55.566Z</time></trkpt><trkpt lat="45.7757882" lon="8.7977439"><ele>370.2</ele><time>2026-04-16T10:20:57.574Z</time></trkpt><trkpt lat="45.7756788" lon="8.7977642"><ele>370.4</ele><time>2026-04-16T10:20:58.578Z</time></trkpt><trkpt lat="45.7755776" lon="8.797808"><ele>370.6</ele><time>2026-04-16T10:20:59.562Z</time></trkpt><trkpt lat="45.7754849" lon="8.7978389"><ele>370.8</ele><time>2026-04-16T10:21:00.581Z</time></trkpt><trkpt lat="45.7753866" lon="8.7978739"><ele>371.0</ele><time>2026-04-16T10:21:01.571Z</time></trkpt><trkpt lat="45.7752793" lon="8.7978996"><ele>371.0</ele><time>2026-04-16T10:21:02.569Z</time></trkpt><trkpt lat="45.775191" lon="8.7979114"><ele>371.0</ele><time>2026-04-16T10:21:03.569Z</time></trkpt><trkpt lat="45.775109" lon="8.7979088"><ele>371.0</ele><time>2026-04-16T10:21:04.573Z</time></trkpt><trkpt lat="45.7750255" lon="8.7979195"><ele>371.0</ele><time>2026-04-16T10:21:05.564Z</time></trkpt><trkpt lat="45.7749443" lon="8.7979678"><ele>371.0</ele><time>2026-04-16T10:21:06.567Z</time></trkpt><trkpt lat="45.7748836" lon="8.7980352"><ele>371.0</ele><time>2026-04-16T10:21:07.568Z</time></trkpt><trkpt lat="45.7748363" lon="8.7981327"><ele>371.8</ele><time>2026-04-16T10:21:08.577Z</time></trkpt><trkpt lat="45.7748182" lon="8.7982659"><ele>372.6</ele><time>2026-04-16T10:21:09.566Z</time></trkpt><trkpt lat="45.7748247" lon="8.7984228"><ele>373.4</ele><time>2026-04-16T10:21:10.573Z</time></trkpt><trkpt lat="45.7748308" lon="8.7985851"><ele>374.2</ele><time>2026-04-16T10:21:11.572Z</time></trkpt><trkpt lat="45.7748415" lon="8.7987612"><ele>375.0</ele><time>2026-04-16T10:21:12.568Z</time></trkpt><trkpt lat="45.7748543" lon="8.7989377"><ele>373.4</ele><time>2026-04-16T10:21:13.565Z</time></trkpt><trkpt lat="45.7748628" lon="8.7990923"><ele>371.8</ele><time>2026-04-16T10:21:14.563Z</time></trkpt><trkpt lat="45.7748515" lon="8.7992487"><ele>370.20000000000005</ele><time>2026-04-16T10:21:15.566Z</time></trkpt><trkpt lat="45.7748511" lon="8.7993815"><ele>368.6</ele><time>2026-04-16T10:21:16.569Z</time></trkpt><trkpt lat="45.7748496" lon="8.7994896"><ele>367.0</ele><time>2026-04-16T10:21:17.566Z</time></trkpt><trkpt lat="45.7748428" lon="8.799615"><ele>365.6</ele><time>2026-04-16T10:21:18.57Z</time></trkpt><trkpt lat="45.7748144" lon="8.7997521"><ele>364.20000000000005</ele><time>2026-04-16T10:21:19.556Z</time></trkpt><trkpt lat="45.7747712" lon="8.799832"><ele>362.8</ele><time>2026-04-16T10:21:20.56Z</time></trkpt><trkpt lat="45.7747228" lon="8.7999522"><ele>361.4</ele><time>2026-04-16T10:21:21.552Z</time></trkpt><trkpt lat="45.7746639" lon="8.8000807"><ele>360.0</ele><time>2026-04-16T10:21:22.553Z</time></trkpt><trkpt lat="45.7746055" lon="8.8001982"><ele>360.4</ele><time>2026-04-16T10:21:23.552Z</time></trkpt><trkpt lat="45.7745494" lon="8.8002906"><ele>360.8</ele><time>2026-04-16T10:21:24.559Z</time></trkpt><trkpt lat="45.7744654" lon="8.8003994"><ele>361.20000000000005</ele><time>2026-04-16T10:21:25.555Z</time></trkpt><trkpt lat="45.7744103" lon="8.8005086"><ele>361.6</ele><time>2026-04-16T10:21:26.551Z</time></trkpt><trkpt lat="45.7743321" lon="8.8006028"><ele>362.0</ele><time>2026-04-16T10:21:27.551Z</time></trkpt><trkpt lat="45.774268" lon="8.8006787"><ele>362.0</ele><time>2026-04-16T10:21:28.555Z</time></trkpt><trkpt lat="45.774176" lon="8.8007883"><ele>362.0</ele><time>2026-04-16T10:21:29.554Z</time></trkpt><trkpt lat="45.7741103" lon="8.8008292"><ele>362.0</ele><time>2026-04-16T10:21:30.554Z</time></trkpt><trkpt lat="45.7740248" lon="8.8009082"><ele>362.0</ele><time>2026-04-16T10:21:31.566Z</time></trkpt><trkpt lat="45.7739503" lon="8.8010141"><ele>362.0</ele><time>2026-04-16T10:21:32.556Z</time></trkpt><trkpt lat="45.7739069" lon="8.8011422"><ele>360.6</ele><time>2026-04-16T10:21:33.552Z</time></trkpt><trkpt lat="45.7738933" lon="8.8012589"><ele>359.20000000000005</ele><time>2026-04-16T10:21:34.555Z</time></trkpt><trkpt lat="45.7738875" lon="8.8013507"><ele>357.8</ele><time>2026-04-16T10:21:35.554Z</time></trkpt><trkpt lat="45.773863" lon="8.801463"><ele>356.4</ele><time>2026-04-16T10:21:36.558Z</time></trkpt><trkpt lat="45.773814" lon="8.8015698"><ele>355.0</ele><time>2026-04-16T10:21:37.56Z</time></trkpt><trkpt lat="45.7737254" lon="8.8017198"><ele>353.25</ele><time>2026-04-16T10:21:39.548Z</time></trkpt><trkpt lat="45.7737426" lon="8.8019385"><ele>351.5</ele><time>2026-04-16T10:21:41.546Z</time></trkpt><trkpt lat="45.7737265" lon="8.8020592"><ele>349.75</ele><time>2026-04-16T10:21:42.552Z</time></trkpt><trkpt lat="45.7736603" lon="8.8022284"><ele>348.0</ele><time>2026-04-16T10:21:44.548Z</time></trkpt><trkpt lat="45.7736321" lon="8.8023558"><ele>348.0</ele><time>2026-04-16T10:21:46.563Z</time></trkpt><trkpt lat="45.7737324" lon="8.802451"><ele>348.0</ele><time>2026-04-16T10:21:48.565Z</time></trkpt><trkpt lat="45.7738044" lon="8.802512"><ele>348.0</ele><time>2026-04-16T10:21:49.565Z</time></trkpt><trkpt lat="45.7738896" lon="8.8026121"><ele>348.0</ele><time>2026-04-16T10:21:50.565Z</time></trkpt><trkpt lat="45.7739513" lon="8.8027257"><ele>348.0</ele><time>2026-04-16T10:21:51.57Z</time></trkpt><trkpt lat="45.7740133" lon="8.8028479"><ele>347.2</ele><time>2026-04-16T10:21:52.565Z</time></trkpt><trkpt lat="45.7740687" lon="8.8029572"><ele>346.4</ele><time>2026-04-16T10:21:53.565Z</time></trkpt><trkpt lat="45.7741367" lon="8.8030496"><ele>345.59999999999997</ele><time>2026-04-16T10:21:54.562Z</time></trkpt><trkpt lat="45.7741883" lon="8.8031111"><ele>344.79999999999995</ele><time>2026-04-16T10:21:55.567Z</time></trkpt><trkpt lat="45.774254" lon="8.8031991"><ele>344.0</ele><time>2026-04-16T10:21:57.561Z</time></trkpt><trkpt lat="45.7743598" lon="8.8031036"><ele>343.0</ele><time>2026-04-16T10:22:00.556Z</time></trkpt><trkpt lat="45.7744771" lon="8.8030293"><ele>342.0</ele><time>2026-04-16T10:22:02.588Z</time></trkpt><trkpt lat="45.7745506" lon="8.8029849"><ele>341.0</ele><time>2026-04-16T10:22:03.574Z</time></trkpt><trkpt lat="45.7746246" lon="8.8029437"><ele>340.0</ele><time>2026-04-16T10:22:04.581Z</time></trkpt><trkpt lat="45.7746968" lon="8.8028857"><ele>339.0</ele><time>2026-04-16T10:22:05.576Z</time></trkpt><trkpt lat="45.7747773" lon="8.8028201"><ele>339.0</ele><time>2026-04-16T10:22:06.575Z</time></trkpt><trkpt lat="45.7748399" lon="8.8027348"><ele>339.0</ele><time>2026-04-16T10:22:07.572Z</time></trkpt><trkpt lat="45.774891" lon="8.8026726"><ele>339.0</ele><time>2026-04-16T10:22:08.572Z</time></trkpt><trkpt lat="45.77496" lon="8.8025733"><ele>339.0</ele><time>2026-04-16T10:22:10.567Z</time></trkpt><trkpt lat="45.775008" lon="8.8025148"><ele>339.0</ele><time>2026-04-16T10:22:11.569Z</time></trkpt><trkpt lat="45.7750906" lon="8.8024526"><ele>339.0</ele><time>2026-04-16T10:22:13.567Z</time></trkpt><trkpt lat="45.7751799" lon="8.8023714"><ele>337.8333333333333</ele><time>2026-04-16T10:22:15.569Z</time></trkpt><trkpt lat="45.7752522" lon="8.8022989"><ele>336.6666666666667</ele><time>2026-04-16T10:22:18.565Z</time></trkpt><trkpt lat="45.7753116" lon="8.8022338"><ele>335.5</ele><time>2026-04-16T10:22:21.564Z</time></trkpt><trkpt lat="45.7753958" lon="8.8021926"><ele>334.33333333333337</ele><time>2026-04-16T10:22:24.566Z</time></trkpt><trkpt lat="45.775308" lon="8.8021905"><ele>333.1666666666667</ele><time>2026-04-16T10:22:33.569Z</time></trkpt><trkpt lat="45.7752415" lon="8.8021916"><ele>332.0</ele><time>2026-04-16T10:22:43.562Z</time></trkpt><trkpt lat="45.7753013" lon="8.8022295"><ele>332.0</ele><time>2026-04-16T10:22:49.571Z</time></trkpt><trkpt lat="45.7753948" lon="8.8022383"><ele>332.0</ele><time>2026-04-16T10:22:51.583Z</time></trkpt><trkpt lat="45.7754846" lon="8.8022077"><ele>332.0</ele><time>2026-04-16T10:22:53.592Z</time></trkpt><trkpt lat="45.7755579" lon="8.8021601"><ele>332.0</ele><time>2026-04-16T10:22:55.599Z</time></trkpt><trkpt lat="45.7756541" lon="8.8021101"><ele>332.0</ele><time>2026-04-16T10:22:57.601Z</time></trkpt><trkpt lat="45.775751" lon="8.8020482"><ele>332.0</ele><time>2026-04-16T10:22:59.588Z</time></trkpt><trkpt lat="45.7758232" lon="8.8020063"><ele>332.0</ele><time>2026-04-16T10:23:01.591Z</time></trkpt><trkpt lat="45.7758883" lon="8.801956"><ele>332.0</ele><time>2026-04-16T10:23:03.604Z</time></trkpt><trkpt lat="45.7759795" lon="8.8019061"><ele>332.0</ele><time>2026-04-16T10:23:05.611Z</time></trkpt><trkpt lat="45.7760522" lon="8.8018735"><ele>332.0</ele><time>2026-04-16T10:23:07.597Z</time></trkpt><trkpt lat="45.7761127" lon="8.8018205"><ele>332.0</ele><time>2026-04-16T10:23:10.583Z</time></trkpt><trkpt lat="45.7760833" lon="8.8017398"><ele>331.6666666666667</ele><time>2026-04-16T10:23:12.576Z</time></trkpt><trkpt lat="45.7760266" lon="8.8016278"><ele>331.33333333333337</ele><time>2026-04-16T10:23:14.579Z</time></trkpt><trkpt lat="45.7759674" lon="8.8015608"><ele>331.0</ele><time>2026-04-16T10:23:19.564Z</time></trkpt><trkpt lat="45.775985" lon="8.8014704"><ele>330.6666666666667</ele><time>2026-04-16T10:23:58.577Z</time></trkpt><trkpt lat="45.7759835" lon="8.8013767"><ele>330.3333333333333</ele><time>2026-04-16T10:24:01.565Z</time></trkpt><trkpt lat="45.7758996" lon="8.8013886"><ele>330.0</ele><time>2026-04-16T10:24:04.558Z</time></trkpt><trkpt lat="45.7758345" lon="8.8013943"><ele>330.0</ele><time>2026-04-16T10:24:06.555Z</time></trkpt><trkpt lat="45.7757599" lon="8.801397"><ele>330.0</ele><time>2026-04-16T10:24:09.554Z</time></trkpt><trkpt lat="45.7756894" lon="8.8013757"><ele>330.0</ele><time>2026-04-16T10:24:11.551Z</time></trkpt><trkpt lat="45.7756262" lon="8.8013824"><ele>330.0</ele><time>2026-04-16T10:24:14.555Z</time></trkpt></trkseg></trk></gpx>